<?xml version="1.0" encoding="UTF-8" standalone="no" ?>
<gpx xmlns="http://www.topografix.com/GPX/1/1" xmlns:xsi="http://www.w3.org/2001/XMLSchema-instance" xsi:schemaLocation="http://www.topografix.com/GPX/1/1 http://www.topografix.com/GPX/1/1/gpx.xsd" version="1.1" creator="VisuGPX - https://www.visugpx.com">
  <metadata>
    <name>Mourachonne, Peygros, Tanneron, Bigreen</name>
    <desc><![CDATA[Sortie avec Fabienne, Fred, LeChris, Pascal et Sacha.]]></desc>
  </metadata>
  <trk>
    <name><![CDATA[Untitled]]></name>
    <trkseg>
      <trkpt lat="43.55104" lon="7.00845">
        <ele>20.799999237061</ele>
        <time>2013-12-15T06:18:29.000Z</time>
      </trkpt>
      <trkpt lat="43.55104" lon="7.0083">
        <ele>19.799999237061</ele>
        <time>2013-12-15T06:18:33.000Z</time>
      </trkpt>
      <trkpt lat="43.55111" lon="7.0082">
        <ele>20.799999237061</ele>
        <time>2013-12-15T06:18:37.000Z</time>
      </trkpt>
      <trkpt lat="43.55117" lon="7.0082">
        <ele>21.60000038147</ele>
        <time>2013-12-15T06:18:38.000Z</time>
      </trkpt>
      <trkpt lat="43.55137" lon="7.00816">
        <ele>24.799999237061</ele>
        <time>2013-12-15T06:18:43.000Z</time>
      </trkpt>
      <trkpt lat="43.55163" lon="7.00819">
        <ele>28.60000038147</ele>
        <time>2013-12-15T06:18:47.000Z</time>
      </trkpt>
      <trkpt lat="43.55166" lon="7.00817">
        <ele>29.200000762939</ele>
        <time>2013-12-15T06:18:48.000Z</time>
      </trkpt>
      <trkpt lat="43.55177" lon="7.0081">
        <ele>30</ele>
        <time>2013-12-15T06:18:52.000Z</time>
      </trkpt>
      <trkpt lat="43.55191" lon="7.0081">
        <ele>31</ele>
        <time>2013-12-15T06:18:55.000Z</time>
      </trkpt>
      <trkpt lat="43.55209" lon="7.0081">
        <ele>32.200000762939</ele>
        <time>2013-12-15T06:18:59.000Z</time>
      </trkpt>
      <trkpt lat="43.55218" lon="7.00796">
        <ele>32.799999237061</ele>
        <time>2013-12-15T06:19:02.000Z</time>
      </trkpt>
      <trkpt lat="43.55225" lon="7.00766">
        <ele>33.400001525879</ele>
        <time>2013-12-15T06:19:05.000Z</time>
      </trkpt>
      <trkpt lat="43.55244" lon="7.00743">
        <ele>34</ele>
        <time>2013-12-15T06:19:09.000Z</time>
      </trkpt>
      <trkpt lat="43.5527" lon="7.00715">
        <ele>31</ele>
        <time>2013-12-15T06:19:14.000Z</time>
      </trkpt>
      <trkpt lat="43.55274" lon="7.00711">
        <ele>30.60000038147</ele>
        <time>2013-12-15T06:19:15.000Z</time>
      </trkpt>
      <trkpt lat="43.55288" lon="7.00698">
        <ele>29</ele>
        <time>2013-12-15T06:19:18.000Z</time>
      </trkpt>
      <trkpt lat="43.55292" lon="7.00695">
        <ele>28.60000038147</ele>
        <time>2013-12-15T06:19:19.000Z</time>
      </trkpt>
      <trkpt lat="43.55304" lon="7.00689">
        <ele>27.799999237061</ele>
        <time>2013-12-15T06:19:22.000Z</time>
      </trkpt>
      <trkpt lat="43.55308" lon="7.00688">
        <ele>27.60000038147</ele>
        <time>2013-12-15T06:19:23.000Z</time>
      </trkpt>
      <trkpt lat="43.55311" lon="7.00688">
        <ele>27.60000038147</ele>
        <time>2013-12-15T06:19:24.000Z</time>
      </trkpt>
      <trkpt lat="43.55322" lon="7.00693">
        <ele>28</ele>
        <time>2013-12-15T06:19:27.000Z</time>
      </trkpt>
      <trkpt lat="43.55325" lon="7.00694">
        <ele>28.200000762939</ele>
        <time>2013-12-15T06:19:29.000Z</time>
      </trkpt>
      <trkpt lat="43.55326" lon="7.00693">
        <ele>28</ele>
        <time>2013-12-15T06:19:32.000Z</time>
      </trkpt>
      <trkpt lat="43.55327" lon="7.0069">
        <ele>27.60000038147</ele>
        <time>2013-12-15T06:19:34.000Z</time>
      </trkpt>
      <trkpt lat="43.55329" lon="7.00687">
        <ele>27.200000762939</ele>
        <time>2013-12-15T06:19:35.000Z</time>
      </trkpt>
      <trkpt lat="43.55333" lon="7.0067">
        <ele>25.39999961853</ele>
        <time>2013-12-15T06:19:38.000Z</time>
      </trkpt>
      <trkpt lat="43.55342" lon="7.00635">
        <ele>26</ele>
        <time>2013-12-15T06:19:42.000Z</time>
      </trkpt>
      <trkpt lat="43.55346" lon="7.00626">
        <ele>26.39999961853</ele>
        <time>2013-12-15T06:19:43.000Z</time>
      </trkpt>
      <trkpt lat="43.55354" lon="7.00613">
        <ele>27</ele>
        <time>2013-12-15T06:19:45.000Z</time>
      </trkpt>
      <trkpt lat="43.5536" lon="7.00604">
        <ele>27.39999961853</ele>
        <time>2013-12-15T06:19:47.000Z</time>
      </trkpt>
      <trkpt lat="43.55364" lon="7.00598">
        <ele>27.60000038147</ele>
        <time>2013-12-15T06:19:49.000Z</time>
      </trkpt>
      <trkpt lat="43.55372" lon="7.00589">
        <ele>28</ele>
        <time>2013-12-15T06:19:54.000Z</time>
      </trkpt>
      <trkpt lat="43.55378" lon="7.00589">
        <ele>28.200000762939</ele>
        <time>2013-12-15T06:19:56.000Z</time>
      </trkpt>
      <trkpt lat="43.55399" lon="7.0058">
        <ele>29.60000038147</ele>
        <time>2013-12-15T06:20:01.000Z</time>
      </trkpt>
      <trkpt lat="43.55416" lon="7.00574">
        <ele>31</ele>
        <time>2013-12-15T06:20:06.000Z</time>
      </trkpt>
      <trkpt lat="43.5543" lon="7.00567">
        <ele>32.799999237061</ele>
        <time>2013-12-15T06:20:12.000Z</time>
      </trkpt>
      <trkpt lat="43.55447" lon="7.00553">
        <ele>35.599998474121</ele>
        <time>2013-12-15T06:20:18.000Z</time>
      </trkpt>
      <trkpt lat="43.55461" lon="7.0054">
        <ele>37.799999237061</ele>
        <time>2013-12-15T06:20:23.000Z</time>
      </trkpt>
      <trkpt lat="43.55486" lon="7.00516">
        <ele>41.799999237061</ele>
        <time>2013-12-15T06:20:31.000Z</time>
      </trkpt>
      <trkpt lat="43.55491" lon="7.00515">
        <ele>42.200000762939</ele>
        <time>2013-12-15T06:20:32.000Z</time>
      </trkpt>
      <trkpt lat="43.55506" lon="7.00502">
        <ele>43.400001525879</ele>
        <time>2013-12-15T06:20:36.000Z</time>
      </trkpt>
      <trkpt lat="43.55537" lon="7.00476">
        <ele>44.799999237061</ele>
        <time>2013-12-15T06:20:44.000Z</time>
      </trkpt>
      <trkpt lat="43.55553" lon="7.00464">
        <ele>45.400001525879</ele>
        <time>2013-12-15T06:20:48.000Z</time>
      </trkpt>
      <trkpt lat="43.55562" lon="7.00461">
        <ele>45.400001525879</ele>
        <time>2013-12-15T06:20:50.000Z</time>
      </trkpt>
      <trkpt lat="43.55579" lon="7.00463">
        <ele>44</ele>
        <time>2013-12-15T06:20:54.000Z</time>
      </trkpt>
      <trkpt lat="43.55585" lon="7.00467">
        <ele>43.400001525879</ele>
        <time>2013-12-15T06:20:55.000Z</time>
      </trkpt>
      <trkpt lat="43.55606" lon="7.00482">
        <ele>42.400001525879</ele>
        <time>2013-12-15T06:20:59.000Z</time>
      </trkpt>
      <trkpt lat="43.55609" lon="7.00484">
        <ele>42.200000762939</ele>
        <time>2013-12-15T06:21:00.000Z</time>
      </trkpt>
      <trkpt lat="43.55617" lon="7.00491">
        <ele>41.799999237061</ele>
        <time>2013-12-15T06:21:02.000Z</time>
      </trkpt>
      <trkpt lat="43.55628" lon="7.00497">
        <ele>41.599998474121</ele>
        <time>2013-12-15T06:21:04.000Z</time>
      </trkpt>
      <trkpt lat="43.55661" lon="7.00514">
        <ele>43.799999237061</ele>
        <time>2013-12-15T06:21:10.000Z</time>
      </trkpt>
      <trkpt lat="43.55663" lon="7.00514">
        <ele>43.799999237061</ele>
        <time>2013-12-15T06:21:11.000Z</time>
      </trkpt>
      <trkpt lat="43.5568" lon="7.00515">
        <ele>46.200000762939</ele>
        <time>2013-12-15T06:21:15.000Z</time>
      </trkpt>
      <trkpt lat="43.55686" lon="7.00512">
        <ele>46.799999237061</ele>
        <time>2013-12-15T06:21:17.000Z</time>
      </trkpt>
      <trkpt lat="43.55698" lon="7.00508">
        <ele>48.400001525879</ele>
        <time>2013-12-15T06:21:20.000Z</time>
      </trkpt>
      <trkpt lat="43.55699" lon="7.00503">
        <ele>48.200000762939</ele>
        <time>2013-12-15T06:21:21.000Z</time>
      </trkpt>
      <trkpt lat="43.55703" lon="7.00479">
        <ele>50.200000762939</ele>
        <time>2013-12-15T06:21:26.000Z</time>
      </trkpt>
      <trkpt lat="43.55705" lon="7.00455">
        <ele>52.200000762939</ele>
        <time>2013-12-15T06:21:31.000Z</time>
      </trkpt>
      <trkpt lat="43.55712" lon="7.00429">
        <ele>54.599998474121</ele>
        <time>2013-12-15T06:21:37.000Z</time>
      </trkpt>
      <trkpt lat="43.5572" lon="7.00401">
        <ele>57</ele>
        <time>2013-12-15T06:21:43.000Z</time>
      </trkpt>
      <trkpt lat="43.55736" lon="7.00373">
        <ele>58.400001525879</ele>
        <time>2013-12-15T06:21:50.000Z</time>
      </trkpt>
      <trkpt lat="43.55757" lon="7.00349">
        <ele>58.400001525879</ele>
        <time>2013-12-15T06:21:57.000Z</time>
      </trkpt>
      <trkpt lat="43.55773" lon="7.00338">
        <ele>59.200000762939</ele>
        <time>2013-12-15T06:22:01.000Z</time>
      </trkpt>
      <trkpt lat="43.55777" lon="7.00331">
        <ele>59.599998474121</ele>
        <time>2013-12-15T06:22:03.000Z</time>
      </trkpt>
      <trkpt lat="43.55783" lon="7.00325">
        <ele>60.400001525879</ele>
        <time>2013-12-15T06:22:05.000Z</time>
      </trkpt>
      <trkpt lat="43.55809" lon="7.00296">
        <ele>62.400001525879</ele>
        <time>2013-12-15T06:22:14.000Z</time>
      </trkpt>
      <trkpt lat="43.55831" lon="7.00278">
        <ele>61.599998474121</ele>
        <time>2013-12-15T06:22:20.000Z</time>
      </trkpt>
      <trkpt lat="43.55833" lon="7.00274">
        <ele>61.400001525879</ele>
        <time>2013-12-15T06:22:21.000Z</time>
      </trkpt>
      <trkpt lat="43.55859" lon="7.00245">
        <ele>62.799999237061</ele>
        <time>2013-12-15T06:22:29.000Z</time>
      </trkpt>
      <trkpt lat="43.55888" lon="7.00217">
        <ele>64.599998474121</ele>
        <time>2013-12-15T06:22:38.000Z</time>
      </trkpt>
      <trkpt lat="43.55918" lon="7.00194">
        <ele>63</ele>
        <time>2013-12-15T06:22:47.000Z</time>
      </trkpt>
      <trkpt lat="43.55938" lon="7.00177">
        <ele>63</ele>
        <time>2013-12-15T06:22:53.000Z</time>
      </trkpt>
      <trkpt lat="43.55965" lon="7.00153">
        <ele>63.400001525879</ele>
        <time>2013-12-15T06:23:01.000Z</time>
      </trkpt>
      <trkpt lat="43.55985" lon="7.0014">
        <ele>63.400001525879</ele>
        <time>2013-12-15T06:23:06.000Z</time>
      </trkpt>
      <trkpt lat="43.55999" lon="7.00132">
        <ele>62.599998474121</ele>
        <time>2013-12-15T06:23:09.000Z</time>
      </trkpt>
      <trkpt lat="43.56017" lon="7.00117">
        <ele>63</ele>
        <time>2013-12-15T06:23:14.000Z</time>
      </trkpt>
      <trkpt lat="43.56026" lon="7.00112">
        <ele>63.400001525879</ele>
        <time>2013-12-15T06:23:16.000Z</time>
      </trkpt>
      <trkpt lat="43.56047" lon="7.00102">
        <ele>64</ele>
        <time>2013-12-15T06:23:22.000Z</time>
      </trkpt>
      <trkpt lat="43.56067" lon="7.00103">
        <ele>64.800003051758</ele>
        <time>2013-12-15T06:23:27.000Z</time>
      </trkpt>
      <trkpt lat="43.5609" lon="7.00112">
        <ele>65.400001525879</ele>
        <time>2013-12-15T06:23:33.000Z</time>
      </trkpt>
      <trkpt lat="43.56109" lon="7.00123">
        <ele>65.199996948242</ele>
        <time>2013-12-15T06:23:39.000Z</time>
      </trkpt>
      <trkpt lat="43.56139" lon="7.00139">
        <ele>64.599998474121</ele>
        <time>2013-12-15T06:23:47.000Z</time>
      </trkpt>
      <trkpt lat="43.5618" lon="7.00152">
        <ele>63</ele>
        <time>2013-12-15T06:23:54.000Z</time>
      </trkpt>
      <trkpt lat="43.56216" lon="7.00156">
        <ele>60.799999237061</ele>
        <time>2013-12-15T06:24:00.000Z</time>
      </trkpt>
      <trkpt lat="43.56224" lon="7.00156">
        <ele>60.400001525879</ele>
        <time>2013-12-15T06:24:02.000Z</time>
      </trkpt>
      <trkpt lat="43.5623" lon="7.00154">
        <ele>60</ele>
        <time>2013-12-15T06:24:04.000Z</time>
      </trkpt>
      <trkpt lat="43.56233" lon="7.00156">
        <ele>59.799999237061</ele>
        <time>2013-12-15T06:24:05.000Z</time>
      </trkpt>
      <trkpt lat="43.56247" lon="7.00164">
        <ele>59</ele>
        <time>2013-12-15T06:24:10.000Z</time>
      </trkpt>
      <trkpt lat="43.5626" lon="7.00151">
        <ele>59.200000762939</ele>
        <time>2013-12-15T06:24:14.000Z</time>
      </trkpt>
      <trkpt lat="43.56265" lon="7.00125">
        <ele>59</ele>
        <time>2013-12-15T06:24:18.000Z</time>
      </trkpt>
      <trkpt lat="43.56268" lon="7.0012">
        <ele>59</ele>
        <time>2013-12-15T06:24:19.000Z</time>
      </trkpt>
      <trkpt lat="43.56276" lon="7.00104">
        <ele>59</ele>
        <time>2013-12-15T06:24:22.000Z</time>
      </trkpt>
      <trkpt lat="43.56283" lon="7.00095">
        <ele>59.200000762939</ele>
        <time>2013-12-15T06:24:24.000Z</time>
      </trkpt>
      <trkpt lat="43.56297" lon="7.00079">
        <ele>59.799999237061</ele>
        <time>2013-12-15T06:24:28.000Z</time>
      </trkpt>
      <trkpt lat="43.56334" lon="7.00043">
        <ele>61</ele>
        <time>2013-12-15T06:24:38.000Z</time>
      </trkpt>
      <trkpt lat="43.56363" lon="7.00006">
        <ele>63.599998474121</ele>
        <time>2013-12-15T06:24:48.000Z</time>
      </trkpt>
      <trkpt lat="43.56382" lon="6.99975">
        <ele>65.800003051758</ele>
        <time>2013-12-15T06:24:56.000Z</time>
      </trkpt>
      <trkpt lat="43.56397" lon="6.9994">
        <ele>69.800003051758</ele>
        <time>2013-12-15T06:25:05.000Z</time>
      </trkpt>
      <trkpt lat="43.56411" lon="6.99909">
        <ele>71.199996948242</ele>
        <time>2013-12-15T06:25:15.000Z</time>
      </trkpt>
      <trkpt lat="43.56435" lon="6.99884">
        <ele>72.800003051758</ele>
        <time>2013-12-15T06:25:26.000Z</time>
      </trkpt>
      <trkpt lat="43.56461" lon="6.99862">
        <ele>73.800003051758</ele>
        <time>2013-12-15T06:25:37.000Z</time>
      </trkpt>
      <trkpt lat="43.56484" lon="6.99841">
        <ele>74</ele>
        <time>2013-12-15T06:25:47.000Z</time>
      </trkpt>
      <trkpt lat="43.56505" lon="6.99818">
        <ele>75.199996948242</ele>
        <time>2013-12-15T06:25:56.000Z</time>
      </trkpt>
      <trkpt lat="43.5652" lon="6.99813">
        <ele>76.400001525879</ele>
        <time>2013-12-15T06:26:01.000Z</time>
      </trkpt>
      <trkpt lat="43.56523" lon="6.99814">
        <ele>76.599998474121</ele>
        <time>2013-12-15T06:26:02.000Z</time>
      </trkpt>
      <trkpt lat="43.56541" lon="6.99812">
        <ele>77.800003051758</ele>
        <time>2013-12-15T06:26:09.000Z</time>
      </trkpt>
      <trkpt lat="43.56547" lon="6.99798">
        <ele>78.400001525879</ele>
        <time>2013-12-15T06:26:13.000Z</time>
      </trkpt>
      <trkpt lat="43.56556" lon="6.99773">
        <ele>79</ele>
        <time>2013-12-15T06:26:17.000Z</time>
      </trkpt>
      <trkpt lat="43.5657" lon="6.99755">
        <ele>79</ele>
        <time>2013-12-15T06:26:21.000Z</time>
      </trkpt>
      <trkpt lat="43.56575" lon="6.99753">
        <ele>79</ele>
        <time>2013-12-15T06:26:22.000Z</time>
      </trkpt>
      <trkpt lat="43.56603" lon="6.99749">
        <ele>79.400001525879</ele>
        <time>2013-12-15T06:26:27.000Z</time>
      </trkpt>
      <trkpt lat="43.56644" lon="6.99738">
        <ele>80.599998474121</ele>
        <time>2013-12-15T06:26:35.000Z</time>
      </trkpt>
      <trkpt lat="43.56686" lon="6.99721">
        <ele>82</ele>
        <time>2013-12-15T06:26:43.000Z</time>
      </trkpt>
      <trkpt lat="43.56731" lon="6.99703">
        <ele>82.800003051758</ele>
        <time>2013-12-15T06:26:52.000Z</time>
      </trkpt>
      <trkpt lat="43.56769" lon="6.99683">
        <ele>82.800003051758</ele>
        <time>2013-12-15T06:27:00.000Z</time>
      </trkpt>
      <trkpt lat="43.56789" lon="6.99664">
        <ele>82.800003051758</ele>
        <time>2013-12-15T06:27:06.000Z</time>
      </trkpt>
      <trkpt lat="43.56818" lon="6.99648">
        <ele>83.800003051758</ele>
        <time>2013-12-15T06:27:13.000Z</time>
      </trkpt>
      <trkpt lat="43.56837" lon="6.9963">
        <ele>83.800003051758</ele>
        <time>2013-12-15T06:27:19.000Z</time>
      </trkpt>
      <trkpt lat="43.56847" lon="6.99626">
        <ele>84.199996948242</ele>
        <time>2013-12-15T06:27:21.000Z</time>
      </trkpt>
      <trkpt lat="43.56874" lon="6.9961">
        <ele>84.599998474121</ele>
        <time>2013-12-15T06:27:28.000Z</time>
      </trkpt>
      <trkpt lat="43.56886" lon="6.996">
        <ele>84.599998474121</ele>
        <time>2013-12-15T06:27:32.000Z</time>
      </trkpt>
      <trkpt lat="43.56895" lon="6.99588">
        <ele>84.400001525879</ele>
        <time>2013-12-15T06:27:35.000Z</time>
      </trkpt>
      <trkpt lat="43.56912" lon="6.99572">
        <ele>85.199996948242</ele>
        <time>2013-12-15T06:27:40.000Z</time>
      </trkpt>
      <trkpt lat="43.56939" lon="6.99552">
        <ele>86.599998474121</ele>
        <time>2013-12-15T06:27:47.000Z</time>
      </trkpt>
      <trkpt lat="43.56949" lon="6.99549">
        <ele>86.800003051758</ele>
        <time>2013-12-15T06:27:49.000Z</time>
      </trkpt>
      <trkpt lat="43.56969" lon="6.99543">
        <ele>87.199996948242</ele>
        <time>2013-12-15T06:27:53.000Z</time>
      </trkpt>
      <trkpt lat="43.57002" lon="6.99527">
        <ele>87.400001525879</ele>
        <time>2013-12-15T06:28:01.000Z</time>
      </trkpt>
      <trkpt lat="43.57026" lon="6.99517">
        <ele>88.599998474121</ele>
        <time>2013-12-15T06:28:07.000Z</time>
      </trkpt>
      <trkpt lat="43.57059" lon="6.99511">
        <ele>90</ele>
        <time>2013-12-15T06:28:14.000Z</time>
      </trkpt>
      <trkpt lat="43.5708" lon="6.99508">
        <ele>91</ele>
        <time>2013-12-15T06:28:19.000Z</time>
      </trkpt>
      <trkpt lat="43.57111" lon="6.99509">
        <ele>90.199996948242</ele>
        <time>2013-12-15T06:28:28.000Z</time>
      </trkpt>
      <trkpt lat="43.57154" lon="6.99523">
        <ele>88.800003051758</ele>
        <time>2013-12-15T06:28:37.000Z</time>
      </trkpt>
      <trkpt lat="43.57195" lon="6.99548">
        <ele>88.199996948242</ele>
        <time>2013-12-15T06:28:45.000Z</time>
      </trkpt>
      <trkpt lat="43.57216" lon="6.99562">
        <ele>87.800003051758</ele>
        <time>2013-12-15T06:28:49.000Z</time>
      </trkpt>
      <trkpt lat="43.57226" lon="6.99573">
        <ele>87.599998474121</ele>
        <time>2013-12-15T06:28:51.000Z</time>
      </trkpt>
      <trkpt lat="43.5724" lon="6.99585">
        <ele>87.199996948242</ele>
        <time>2013-12-15T06:28:54.000Z</time>
      </trkpt>
      <trkpt lat="43.57249" lon="6.99591">
        <ele>87</ele>
        <time>2013-12-15T06:28:56.000Z</time>
      </trkpt>
      <trkpt lat="43.5729" lon="6.99615">
        <ele>87.199996948242</ele>
        <time>2013-12-15T06:29:05.000Z</time>
      </trkpt>
      <trkpt lat="43.57319" lon="6.9963">
        <ele>86.800003051758</ele>
        <time>2013-12-15T06:29:11.000Z</time>
      </trkpt>
      <trkpt lat="43.57364" lon="6.9964">
        <ele>86.400001525879</ele>
        <time>2013-12-15T06:29:19.000Z</time>
      </trkpt>
      <trkpt lat="43.57396" lon="6.99654">
        <ele>86.199996948242</ele>
        <time>2013-12-15T06:29:25.000Z</time>
      </trkpt>
      <trkpt lat="43.57424" lon="6.99667">
        <ele>86.400001525879</ele>
        <time>2013-12-15T06:29:30.000Z</time>
      </trkpt>
      <trkpt lat="43.57465" lon="6.99682">
        <ele>88.400001525879</ele>
        <time>2013-12-15T06:29:38.000Z</time>
      </trkpt>
      <trkpt lat="43.5749" lon="6.99685">
        <ele>89.599998474121</ele>
        <time>2013-12-15T06:29:43.000Z</time>
      </trkpt>
      <trkpt lat="43.575" lon="6.99688">
        <ele>90</ele>
        <time>2013-12-15T06:29:45.000Z</time>
      </trkpt>
      <trkpt lat="43.5751" lon="6.99692">
        <ele>90.199996948242</ele>
        <time>2013-12-15T06:29:47.000Z</time>
      </trkpt>
      <trkpt lat="43.57527" lon="6.99702">
        <ele>90.599998474121</ele>
        <time>2013-12-15T06:29:51.000Z</time>
      </trkpt>
      <trkpt lat="43.57531" lon="6.99704">
        <ele>90.800003051758</ele>
        <time>2013-12-15T06:29:52.000Z</time>
      </trkpt>
      <trkpt lat="43.57543" lon="6.99708">
        <ele>91</ele>
        <time>2013-12-15T06:29:55.000Z</time>
      </trkpt>
      <trkpt lat="43.5756" lon="6.99724">
        <ele>91.400001525879</ele>
        <time>2013-12-15T06:29:59.000Z</time>
      </trkpt>
      <trkpt lat="43.57565" lon="6.99728">
        <ele>91.599998474121</ele>
        <time>2013-12-15T06:30:00.000Z</time>
      </trkpt>
      <trkpt lat="43.5757" lon="6.99733">
        <ele>91.599998474121</ele>
        <time>2013-12-15T06:30:01.000Z</time>
      </trkpt>
      <trkpt lat="43.57583" lon="6.99746">
        <ele>92</ele>
        <time>2013-12-15T06:30:04.000Z</time>
      </trkpt>
      <trkpt lat="43.57586" lon="6.99755">
        <ele>92.199996948242</ele>
        <time>2013-12-15T06:30:06.000Z</time>
      </trkpt>
      <trkpt lat="43.57593" lon="6.99769">
        <ele>92.800003051758</ele>
        <time>2013-12-15T06:30:09.000Z</time>
      </trkpt>
      <trkpt lat="43.5762" lon="6.99799">
        <ele>94</ele>
        <time>2013-12-15T06:30:16.000Z</time>
      </trkpt>
      <trkpt lat="43.57631" lon="6.99813">
        <ele>94.400001525879</ele>
        <time>2013-12-15T06:30:20.000Z</time>
      </trkpt>
      <trkpt lat="43.57635" lon="6.99818">
        <ele>94.400001525879</ele>
        <time>2013-12-15T06:30:22.000Z</time>
      </trkpt>
      <trkpt lat="43.57641" lon="6.99829">
        <ele>94.599998474121</ele>
        <time>2013-12-15T06:30:28.000Z</time>
      </trkpt>
      <trkpt lat="43.57656" lon="6.99834">
        <ele>94.800003051758</ele>
        <time>2013-12-15T06:30:32.000Z</time>
      </trkpt>
      <trkpt lat="43.57701" lon="6.99829">
        <ele>95.800003051758</ele>
        <time>2013-12-15T06:30:38.000Z</time>
      </trkpt>
      <trkpt lat="43.57731" lon="6.99827">
        <ele>96.400001525879</ele>
        <time>2013-12-15T06:30:44.000Z</time>
      </trkpt>
      <trkpt lat="43.57753" lon="6.99823">
        <ele>97</ele>
        <time>2013-12-15T06:30:50.000Z</time>
      </trkpt>
      <trkpt lat="43.57784" lon="6.99821">
        <ele>98</ele>
        <time>2013-12-15T06:30:57.000Z</time>
      </trkpt>
      <trkpt lat="43.5781" lon="6.99822">
        <ele>99</ele>
        <time>2013-12-15T06:31:03.000Z</time>
      </trkpt>
      <trkpt lat="43.57835" lon="6.99818">
        <ele>99.599998474121</ele>
        <time>2013-12-15T06:31:08.000Z</time>
      </trkpt>
      <trkpt lat="43.57854" lon="6.99815">
        <ele>99.400001525879</ele>
        <time>2013-12-15T06:31:11.000Z</time>
      </trkpt>
      <trkpt lat="43.57861" lon="6.99812">
        <ele>99.199996948242</ele>
        <time>2013-12-15T06:31:13.000Z</time>
      </trkpt>
      <trkpt lat="43.57892" lon="6.99815">
        <ele>99</ele>
        <time>2013-12-15T06:31:16.000Z</time>
      </trkpt>
      <trkpt lat="43.57935" lon="6.99818">
        <ele>97.400001525879</ele>
        <time>2013-12-15T06:31:22.000Z</time>
      </trkpt>
      <trkpt lat="43.57941" lon="6.99817">
        <ele>97</ele>
        <time>2013-12-15T06:31:24.000Z</time>
      </trkpt>
      <trkpt lat="43.57946" lon="6.99817">
        <ele>96.599998474121</ele>
        <time>2013-12-15T06:31:26.000Z</time>
      </trkpt>
      <trkpt lat="43.57946" lon="6.99819">
        <ele>96.599998474121</ele>
        <time>2013-12-15T06:31:28.000Z</time>
      </trkpt>
      <trkpt lat="43.57944" lon="6.99819">
        <ele>96.800003051758</ele>
        <time>2013-12-15T06:31:29.000Z</time>
      </trkpt>
      <trkpt lat="43.57952" lon="6.99821">
        <ele>96.400001525879</ele>
        <time>2013-12-15T06:31:34.000Z</time>
      </trkpt>
      <trkpt lat="43.5797" lon="6.99822">
        <ele>95</ele>
        <time>2013-12-15T06:31:39.000Z</time>
      </trkpt>
      <trkpt lat="43.58001" lon="6.99821">
        <ele>92.599998474121</ele>
        <time>2013-12-15T06:31:46.000Z</time>
      </trkpt>
      <trkpt lat="43.58006" lon="6.9982">
        <ele>92.400001525879</ele>
        <time>2013-12-15T06:31:47.000Z</time>
      </trkpt>
      <trkpt lat="43.58029" lon="6.99817">
        <ele>92.199996948242</ele>
        <time>2013-12-15T06:31:51.000Z</time>
      </trkpt>
      <trkpt lat="43.58035" lon="6.99816">
        <ele>92.199996948242</ele>
        <time>2013-12-15T06:31:52.000Z</time>
      </trkpt>
      <trkpt lat="43.58063" lon="6.99812">
        <ele>91.800003051758</ele>
        <time>2013-12-15T06:31:57.000Z</time>
      </trkpt>
      <trkpt lat="43.58102" lon="6.99808">
        <ele>91.800003051758</ele>
        <time>2013-12-15T06:32:05.000Z</time>
      </trkpt>
      <trkpt lat="43.58125" lon="6.99806">
        <ele>91.800003051758</ele>
        <time>2013-12-15T06:32:10.000Z</time>
      </trkpt>
      <trkpt lat="43.58141" lon="6.99804">
        <ele>91.800003051758</ele>
        <time>2013-12-15T06:32:13.000Z</time>
      </trkpt>
      <trkpt lat="43.58155" lon="6.99802">
        <ele>91.800003051758</ele>
        <time>2013-12-15T06:32:16.000Z</time>
      </trkpt>
      <trkpt lat="43.58194" lon="6.99799">
        <ele>91.800003051758</ele>
        <time>2013-12-15T06:32:22.000Z</time>
      </trkpt>
      <trkpt lat="43.58252" lon="6.99794">
        <ele>91.599998474121</ele>
        <time>2013-12-15T06:32:31.000Z</time>
      </trkpt>
      <trkpt lat="43.58287" lon="6.99791">
        <ele>91.400001525879</ele>
        <time>2013-12-15T06:32:37.000Z</time>
      </trkpt>
      <trkpt lat="43.58319" lon="6.99787">
        <ele>91.400001525879</ele>
        <time>2013-12-15T06:32:43.000Z</time>
      </trkpt>
      <trkpt lat="43.58347" lon="6.99785">
        <ele>92</ele>
        <time>2013-12-15T06:32:48.000Z</time>
      </trkpt>
      <trkpt lat="43.58379" lon="6.99779">
        <ele>93.199996948242</ele>
        <time>2013-12-15T06:32:53.000Z</time>
      </trkpt>
      <trkpt lat="43.58417" lon="6.99777">
        <ele>95</ele>
        <time>2013-12-15T06:33:00.000Z</time>
      </trkpt>
      <trkpt lat="43.58457" lon="6.99775">
        <ele>96.199996948242</ele>
        <time>2013-12-15T06:33:08.000Z</time>
      </trkpt>
      <trkpt lat="43.585" lon="6.99768">
        <ele>97.800003051758</ele>
        <time>2013-12-15T06:33:19.000Z</time>
      </trkpt>
      <trkpt lat="43.58541" lon="6.99763">
        <ele>98.400001525879</ele>
        <time>2013-12-15T06:33:28.000Z</time>
      </trkpt>
      <trkpt lat="43.58561" lon="6.99763">
        <ele>98.599998474121</ele>
        <time>2013-12-15T06:33:33.000Z</time>
      </trkpt>
      <trkpt lat="43.58571" lon="6.99759">
        <ele>98.800003051758</ele>
        <time>2013-12-15T06:33:37.000Z</time>
      </trkpt>
      <trkpt lat="43.58592" lon="6.9976">
        <ele>99.199996948242</ele>
        <time>2013-12-15T06:33:41.000Z</time>
      </trkpt>
      <trkpt lat="43.58617" lon="6.99756">
        <ele>99.800003051758</ele>
        <time>2013-12-15T06:33:45.000Z</time>
      </trkpt>
      <trkpt lat="43.58644" lon="6.99749">
        <ele>100.40000152588</ele>
        <time>2013-12-15T06:33:50.000Z</time>
      </trkpt>
      <trkpt lat="43.58673" lon="6.99735">
        <ele>101.59999847412</ele>
        <time>2013-12-15T06:33:59.000Z</time>
      </trkpt>
      <trkpt lat="43.58704" lon="6.99711">
        <ele>103.19999694824</ele>
        <time>2013-12-15T06:34:10.000Z</time>
      </trkpt>
      <trkpt lat="43.58726" lon="6.99684">
        <ele>104.80000305176</ele>
        <time>2013-12-15T06:34:20.000Z</time>
      </trkpt>
      <trkpt lat="43.58751" lon="6.9965">
        <ele>106.19999694824</ele>
        <time>2013-12-15T06:34:31.000Z</time>
      </trkpt>
      <trkpt lat="43.58778" lon="6.99622">
        <ele>107.59999847412</ele>
        <time>2013-12-15T06:34:41.000Z</time>
      </trkpt>
      <trkpt lat="43.58812" lon="6.99601">
        <ele>109.80000305176</ele>
        <time>2013-12-15T06:34:52.000Z</time>
      </trkpt>
      <trkpt lat="43.58834" lon="6.9959">
        <ele>111.59999847412</ele>
        <time>2013-12-15T06:34:58.000Z</time>
      </trkpt>
      <trkpt lat="43.58861" lon="6.99576">
        <ele>113</ele>
        <time>2013-12-15T06:35:06.000Z</time>
      </trkpt>
      <trkpt lat="43.58887" lon="6.99555">
        <ele>114.40000152588</ele>
        <time>2013-12-15T06:35:14.000Z</time>
      </trkpt>
      <trkpt lat="43.58903" lon="6.99537">
        <ele>115.40000152588</ele>
        <time>2013-12-15T06:35:21.000Z</time>
      </trkpt>
      <trkpt lat="43.58926" lon="6.99509">
        <ele>117.19999694824</ele>
        <time>2013-12-15T06:35:31.000Z</time>
      </trkpt>
      <trkpt lat="43.58948" lon="6.99497">
        <ele>118.80000305176</ele>
        <time>2013-12-15T06:35:38.000Z</time>
      </trkpt>
      <trkpt lat="43.58969" lon="6.99485">
        <ele>120.80000305176</ele>
        <time>2013-12-15T06:35:45.000Z</time>
      </trkpt>
      <trkpt lat="43.58997" lon="6.99472">
        <ele>123.59999847412</ele>
        <time>2013-12-15T06:35:55.000Z</time>
      </trkpt>
      <trkpt lat="43.59015" lon="6.99463">
        <ele>125.40000152588</ele>
        <time>2013-12-15T06:36:02.000Z</time>
      </trkpt>
      <trkpt lat="43.59034" lon="6.99457">
        <ele>127</ele>
        <time>2013-12-15T06:36:08.000Z</time>
      </trkpt>
      <trkpt lat="43.59053" lon="6.99452">
        <ele>128.39999389648</ele>
        <time>2013-12-15T06:36:15.000Z</time>
      </trkpt>
      <trkpt lat="43.59062" lon="6.99448">
        <ele>129.19999694824</ele>
        <time>2013-12-15T06:36:19.000Z</time>
      </trkpt>
      <trkpt lat="43.59078" lon="6.99441">
        <ele>130.60000610352</ele>
        <time>2013-12-15T06:36:25.000Z</time>
      </trkpt>
      <trkpt lat="43.59093" lon="6.99429">
        <ele>131.39999389648</ele>
        <time>2013-12-15T06:36:30.000Z</time>
      </trkpt>
      <trkpt lat="43.5912" lon="6.99403">
        <ele>130.80000305176</ele>
        <time>2013-12-15T06:36:38.000Z</time>
      </trkpt>
      <trkpt lat="43.59129" lon="6.99392">
        <ele>130.19999694824</ele>
        <time>2013-12-15T06:36:41.000Z</time>
      </trkpt>
      <trkpt lat="43.59134" lon="6.99378">
        <ele>130</ele>
        <time>2013-12-15T06:36:44.000Z</time>
      </trkpt>
      <trkpt lat="43.59136" lon="6.99373">
        <ele>129.80000305176</ele>
        <time>2013-12-15T06:36:45.000Z</time>
      </trkpt>
      <trkpt lat="43.59147" lon="6.99355">
        <ele>128.80000305176</ele>
        <time>2013-12-15T06:36:49.000Z</time>
      </trkpt>
      <trkpt lat="43.59168" lon="6.99322">
        <ele>125</ele>
        <time>2013-12-15T06:36:56.000Z</time>
      </trkpt>
      <trkpt lat="43.59178" lon="6.99306">
        <ele>124.80000305176</ele>
        <time>2013-12-15T06:37:00.000Z</time>
      </trkpt>
      <trkpt lat="43.59182" lon="6.99303">
        <ele>125</ele>
        <time>2013-12-15T06:37:01.000Z</time>
      </trkpt>
      <trkpt lat="43.59185" lon="6.99299">
        <ele>125</ele>
        <time>2013-12-15T06:37:02.000Z</time>
      </trkpt>
      <trkpt lat="43.59201" lon="6.99286">
        <ele>126</ele>
        <time>2013-12-15T06:37:06.000Z</time>
      </trkpt>
      <trkpt lat="43.59209" lon="6.99281">
        <ele>126.80000305176</ele>
        <time>2013-12-15T06:37:08.000Z</time>
      </trkpt>
      <trkpt lat="43.59226" lon="6.99276">
        <ele>128.80000305176</ele>
        <time>2013-12-15T06:37:11.000Z</time>
      </trkpt>
      <trkpt lat="43.59243" lon="6.99265">
        <ele>130.60000610352</ele>
        <time>2013-12-15T06:37:16.000Z</time>
      </trkpt>
      <trkpt lat="43.59267" lon="6.99256">
        <ele>132.39999389648</ele>
        <time>2013-12-15T06:37:21.000Z</time>
      </trkpt>
      <trkpt lat="43.59293" lon="6.99249">
        <ele>134</ele>
        <time>2013-12-15T06:37:26.000Z</time>
      </trkpt>
      <trkpt lat="43.59296" lon="6.99249">
        <ele>134.19999694824</ele>
        <time>2013-12-15T06:37:27.000Z</time>
      </trkpt>
      <trkpt lat="43.59304" lon="6.99245">
        <ele>134</ele>
        <time>2013-12-15T06:37:29.000Z</time>
      </trkpt>
      <trkpt lat="43.59317" lon="6.99241">
        <ele>134.60000610352</ele>
        <time>2013-12-15T06:37:32.000Z</time>
      </trkpt>
      <trkpt lat="43.59325" lon="6.9924">
        <ele>135</ele>
        <time>2013-12-15T06:37:34.000Z</time>
      </trkpt>
      <trkpt lat="43.59334" lon="6.99242">
        <ele>136</ele>
        <time>2013-12-15T06:37:37.000Z</time>
      </trkpt>
      <trkpt lat="43.59346" lon="6.99243">
        <ele>137.39999389648</ele>
        <time>2013-12-15T06:37:42.000Z</time>
      </trkpt>
      <trkpt lat="43.59354" lon="6.99244">
        <ele>138.19999694824</ele>
        <time>2013-12-15T06:37:46.000Z</time>
      </trkpt>
      <trkpt lat="43.59372" lon="6.99246">
        <ele>140.19999694824</ele>
        <time>2013-12-15T06:37:51.000Z</time>
      </trkpt>
      <trkpt lat="43.5939" lon="6.99237">
        <ele>141.39999389648</ele>
        <time>2013-12-15T06:37:57.000Z</time>
      </trkpt>
      <trkpt lat="43.59403" lon="6.99225">
        <ele>142</ele>
        <time>2013-12-15T06:38:01.000Z</time>
      </trkpt>
      <trkpt lat="43.59411" lon="6.99195">
        <ele>141.60000610352</ele>
        <time>2013-12-15T06:38:07.000Z</time>
      </trkpt>
      <trkpt lat="43.59409" lon="6.99177">
        <ele>140</ele>
        <time>2013-12-15T06:38:10.000Z</time>
      </trkpt>
      <trkpt lat="43.59407" lon="6.99171">
        <ele>139.39999389648</ele>
        <time>2013-12-15T06:38:11.000Z</time>
      </trkpt>
      <trkpt lat="43.59404" lon="6.9916">
        <ele>138.80000305176</ele>
        <time>2013-12-15T06:38:13.000Z</time>
      </trkpt>
      <trkpt lat="43.594" lon="6.99146">
        <ele>138.60000610352</ele>
        <time>2013-12-15T06:38:16.000Z</time>
      </trkpt>
      <trkpt lat="43.59397" lon="6.99136">
        <ele>138.19999694824</ele>
        <time>2013-12-15T06:38:18.000Z</time>
      </trkpt>
      <trkpt lat="43.59395" lon="6.99119">
        <ele>138.19999694824</ele>
        <time>2013-12-15T06:38:21.000Z</time>
      </trkpt>
      <trkpt lat="43.59394" lon="6.99114">
        <ele>138.19999694824</ele>
        <time>2013-12-15T06:38:22.000Z</time>
      </trkpt>
      <trkpt lat="43.5939" lon="6.99077">
        <ele>137.80000305176</ele>
        <time>2013-12-15T06:38:29.000Z</time>
      </trkpt>
      <trkpt lat="43.59393" lon="6.99047">
        <ele>138.19999694824</ele>
        <time>2013-12-15T06:38:35.000Z</time>
      </trkpt>
      <trkpt lat="43.59402" lon="6.99026">
        <ele>140</ele>
        <time>2013-12-15T06:38:40.000Z</time>
      </trkpt>
      <trkpt lat="43.59426" lon="6.99002">
        <ele>145</ele>
        <time>2013-12-15T06:38:49.000Z</time>
      </trkpt>
      <trkpt lat="43.5945" lon="6.98988">
        <ele>148.19999694824</ele>
        <time>2013-12-15T06:38:57.000Z</time>
      </trkpt>
      <trkpt lat="43.59465" lon="6.98977">
        <ele>150.19999694824</ele>
        <time>2013-12-15T06:39:02.000Z</time>
      </trkpt>
      <trkpt lat="43.59483" lon="6.9896">
        <ele>152.19999694824</ele>
        <time>2013-12-15T06:39:08.000Z</time>
      </trkpt>
      <trkpt lat="43.59491" lon="6.98938">
        <ele>151.19999694824</ele>
        <time>2013-12-15T06:39:14.000Z</time>
      </trkpt>
      <trkpt lat="43.59495" lon="6.98909">
        <ele>149.60000610352</ele>
        <time>2013-12-15T06:39:21.000Z</time>
      </trkpt>
      <trkpt lat="43.59497" lon="6.98886">
        <ele>149.19999694824</ele>
        <time>2013-12-15T06:39:26.000Z</time>
      </trkpt>
      <trkpt lat="43.59504" lon="6.98849">
        <ele>149.19999694824</ele>
        <time>2013-12-15T06:39:34.000Z</time>
      </trkpt>
      <trkpt lat="43.59516" lon="6.98828">
        <ele>150.39999389648</ele>
        <time>2013-12-15T06:39:40.000Z</time>
      </trkpt>
      <trkpt lat="43.59533" lon="6.98821">
        <ele>152.19999694824</ele>
        <time>2013-12-15T06:39:45.000Z</time>
      </trkpt>
      <trkpt lat="43.59553" lon="6.98815">
        <ele>154.80000305176</ele>
        <time>2013-12-15T06:39:51.000Z</time>
      </trkpt>
      <trkpt lat="43.59575" lon="6.98815">
        <ele>158.39999389648</ele>
        <time>2013-12-15T06:39:58.000Z</time>
      </trkpt>
      <trkpt lat="43.59594" lon="6.98813">
        <ele>160.39999389648</ele>
        <time>2013-12-15T06:40:04.000Z</time>
      </trkpt>
      <trkpt lat="43.5961" lon="6.98815">
        <ele>162.19999694824</ele>
        <time>2013-12-15T06:40:09.000Z</time>
      </trkpt>
      <trkpt lat="43.59625" lon="6.98818">
        <ele>164.19999694824</ele>
        <time>2013-12-15T06:40:13.000Z</time>
      </trkpt>
      <trkpt lat="43.59638" lon="6.98814">
        <ele>164.60000610352</ele>
        <time>2013-12-15T06:40:18.000Z</time>
      </trkpt>
      <trkpt lat="43.59649" lon="6.98811">
        <ele>165.19999694824</ele>
        <time>2013-12-15T06:40:23.000Z</time>
      </trkpt>
      <trkpt lat="43.59668" lon="6.98806">
        <ele>166.19999694824</ele>
        <time>2013-12-15T06:40:28.000Z</time>
      </trkpt>
      <trkpt lat="43.59683" lon="6.98789">
        <ele>165.39999389648</ele>
        <time>2013-12-15T06:40:33.000Z</time>
      </trkpt>
      <trkpt lat="43.59695" lon="6.9876">
        <ele>162.60000610352</ele>
        <time>2013-12-15T06:40:39.000Z</time>
      </trkpt>
      <trkpt lat="43.59706" lon="6.9872">
        <ele>161.19999694824</ele>
        <time>2013-12-15T06:40:46.000Z</time>
      </trkpt>
      <trkpt lat="43.59713" lon="6.98693">
        <ele>160.60000610352</ele>
        <time>2013-12-15T06:40:51.000Z</time>
      </trkpt>
      <trkpt lat="43.59717" lon="6.98684">
        <ele>160.80000305176</ele>
        <time>2013-12-15T06:40:53.000Z</time>
      </trkpt>
      <trkpt lat="43.59721" lon="6.9868">
        <ele>161</ele>
        <time>2013-12-15T06:40:54.000Z</time>
      </trkpt>
      <trkpt lat="43.59731" lon="6.9867">
        <ele>162</ele>
        <time>2013-12-15T06:40:57.000Z</time>
      </trkpt>
      <trkpt lat="43.59734" lon="6.98667">
        <ele>162.39999389648</ele>
        <time>2013-12-15T06:40:58.000Z</time>
      </trkpt>
      <trkpt lat="43.59742" lon="6.9865">
        <ele>161.39999389648</ele>
        <time>2013-12-15T06:41:02.000Z</time>
      </trkpt>
      <trkpt lat="43.59759" lon="6.98638">
        <ele>161.39999389648</ele>
        <time>2013-12-15T06:41:07.000Z</time>
      </trkpt>
      <trkpt lat="43.59779" lon="6.98623">
        <ele>160.60000610352</ele>
        <time>2013-12-15T06:41:12.000Z</time>
      </trkpt>
      <trkpt lat="43.59786" lon="6.98622">
        <ele>160.80000305176</ele>
        <time>2013-12-15T06:41:13.000Z</time>
      </trkpt>
      <trkpt lat="43.59812" lon="6.98623">
        <ele>162.39999389648</ele>
        <time>2013-12-15T06:41:17.000Z</time>
      </trkpt>
      <trkpt lat="43.59819" lon="6.98625">
        <ele>163.19999694824</ele>
        <time>2013-12-15T06:41:18.000Z</time>
      </trkpt>
      <trkpt lat="43.59847" lon="6.98625">
        <ele>164.19999694824</ele>
        <time>2013-12-15T06:41:22.000Z</time>
      </trkpt>
      <trkpt lat="43.59853" lon="6.98622">
        <ele>164</ele>
        <time>2013-12-15T06:41:23.000Z</time>
      </trkpt>
      <trkpt lat="43.59877" lon="6.9862">
        <ele>164.19999694824</ele>
        <time>2013-12-15T06:41:26.000Z</time>
      </trkpt>
      <trkpt lat="43.5991" lon="6.98613">
        <ele>164.19999694824</ele>
        <time>2013-12-15T06:41:31.000Z</time>
      </trkpt>
      <trkpt lat="43.59946" lon="6.98608">
        <ele>162.39999389648</ele>
        <time>2013-12-15T06:41:36.000Z</time>
      </trkpt>
      <trkpt lat="43.59997" lon="6.98603">
        <ele>158.80000305176</ele>
        <time>2013-12-15T06:41:43.000Z</time>
      </trkpt>
      <trkpt lat="43.60038" lon="6.98608">
        <ele>156.19999694824</ele>
        <time>2013-12-15T06:41:48.000Z</time>
      </trkpt>
      <trkpt lat="43.60046" lon="6.98611">
        <ele>155.80000305176</ele>
        <time>2013-12-15T06:41:49.000Z</time>
      </trkpt>
      <trkpt lat="43.60079" lon="6.98617">
        <ele>153.60000610352</ele>
        <time>2013-12-15T06:41:53.000Z</time>
      </trkpt>
      <trkpt lat="43.60139" lon="6.98627">
        <ele>150</ele>
        <time>2013-12-15T06:42:00.000Z</time>
      </trkpt>
      <trkpt lat="43.60197" lon="6.98638">
        <ele>147.39999389648</ele>
        <time>2013-12-15T06:42:07.000Z</time>
      </trkpt>
      <trkpt lat="43.60213" lon="6.98644">
        <ele>146.80000305176</ele>
        <time>2013-12-15T06:42:09.000Z</time>
      </trkpt>
      <trkpt lat="43.60266" lon="6.98669">
        <ele>144</ele>
        <time>2013-12-15T06:42:16.000Z</time>
      </trkpt>
      <trkpt lat="43.60309" lon="6.98697">
        <ele>143.19999694824</ele>
        <time>2013-12-15T06:42:22.000Z</time>
      </trkpt>
      <trkpt lat="43.60352" lon="6.98715">
        <ele>142</ele>
        <time>2013-12-15T06:42:28.000Z</time>
      </trkpt>
      <trkpt lat="43.60398" lon="6.9872">
        <ele>141.39999389648</ele>
        <time>2013-12-15T06:42:34.000Z</time>
      </trkpt>
      <trkpt lat="43.60453" lon="6.98718">
        <ele>140</ele>
        <time>2013-12-15T06:42:41.000Z</time>
      </trkpt>
      <trkpt lat="43.60461" lon="6.98719">
        <ele>139.80000305176</ele>
        <time>2013-12-15T06:42:42.000Z</time>
      </trkpt>
      <trkpt lat="43.60476" lon="6.98722">
        <ele>139.19999694824</ele>
        <time>2013-12-15T06:42:44.000Z</time>
      </trkpt>
      <trkpt lat="43.60481" lon="6.98726">
        <ele>138.80000305176</ele>
        <time>2013-12-15T06:42:45.000Z</time>
      </trkpt>
      <trkpt lat="43.60492" lon="6.98744">
        <ele>137.60000610352</ele>
        <time>2013-12-15T06:42:48.000Z</time>
      </trkpt>
      <trkpt lat="43.60505" lon="6.98758">
        <ele>137.19999694824</ele>
        <time>2013-12-15T06:42:51.000Z</time>
      </trkpt>
      <trkpt lat="43.60521" lon="6.98754">
        <ele>137.39999389648</ele>
        <time>2013-12-15T06:42:54.000Z</time>
      </trkpt>
      <trkpt lat="43.60532" lon="6.98741">
        <ele>137.80000305176</ele>
        <time>2013-12-15T06:42:57.000Z</time>
      </trkpt>
      <trkpt lat="43.60556" lon="6.98732">
        <ele>138.60000610352</ele>
        <time>2013-12-15T06:43:01.000Z</time>
      </trkpt>
      <trkpt lat="43.60562" lon="6.98732">
        <ele>138.80000305176</ele>
        <time>2013-12-15T06:43:02.000Z</time>
      </trkpt>
      <trkpt lat="43.60605" lon="6.98732">
        <ele>139.19999694824</ele>
        <time>2013-12-15T06:43:08.000Z</time>
      </trkpt>
      <trkpt lat="43.60612" lon="6.9873">
        <ele>139.19999694824</ele>
        <time>2013-12-15T06:43:09.000Z</time>
      </trkpt>
      <trkpt lat="43.60625" lon="6.98726">
        <ele>139.19999694824</ele>
        <time>2013-12-15T06:43:11.000Z</time>
      </trkpt>
      <trkpt lat="43.60631" lon="6.98722">
        <ele>139</ele>
        <time>2013-12-15T06:43:12.000Z</time>
      </trkpt>
      <trkpt lat="43.60659" lon="6.98711">
        <ele>138</ele>
        <time>2013-12-15T06:43:15.000Z</time>
      </trkpt>
      <trkpt lat="43.60692" lon="6.98694">
        <ele>137.80000305176</ele>
        <time>2013-12-15T06:43:19.000Z</time>
      </trkpt>
      <trkpt lat="43.60699" lon="6.98687">
        <ele>137.39999389648</ele>
        <time>2013-12-15T06:43:20.000Z</time>
      </trkpt>
      <trkpt lat="43.60717" lon="6.98665">
        <ele>135.19999694824</ele>
        <time>2013-12-15T06:43:23.000Z</time>
      </trkpt>
      <trkpt lat="43.60734" lon="6.98631">
        <ele>134</ele>
        <time>2013-12-15T06:43:27.000Z</time>
      </trkpt>
      <trkpt lat="43.60738" lon="6.98622">
        <ele>133.39999389648</ele>
        <time>2013-12-15T06:43:28.000Z</time>
      </trkpt>
      <trkpt lat="43.60763" lon="6.98553">
        <ele>130.19999694824</ele>
        <time>2013-12-15T06:43:35.000Z</time>
      </trkpt>
      <trkpt lat="43.60785" lon="6.98502">
        <ele>128.39999389648</ele>
        <time>2013-12-15T06:43:40.000Z</time>
      </trkpt>
      <trkpt lat="43.60797" lon="6.98485">
        <ele>127.80000305176</ele>
        <time>2013-12-15T06:43:42.000Z</time>
      </trkpt>
      <trkpt lat="43.60802" lon="6.98475">
        <ele>127.19999694824</ele>
        <time>2013-12-15T06:43:43.000Z</time>
      </trkpt>
      <trkpt lat="43.60809" lon="6.98453">
        <ele>125.59999847412</ele>
        <time>2013-12-15T06:43:45.000Z</time>
      </trkpt>
      <trkpt lat="43.60822" lon="6.98411">
        <ele>122</ele>
        <time>2013-12-15T06:43:49.000Z</time>
      </trkpt>
      <trkpt lat="43.6085" lon="6.98347">
        <ele>117.80000305176</ele>
        <time>2013-12-15T06:43:55.000Z</time>
      </trkpt>
      <trkpt lat="43.60884" lon="6.98279">
        <ele>116</ele>
        <time>2013-12-15T06:44:01.000Z</time>
      </trkpt>
      <trkpt lat="43.60888" lon="6.98268">
        <ele>115.80000305176</ele>
        <time>2013-12-15T06:44:02.000Z</time>
      </trkpt>
      <trkpt lat="43.60911" lon="6.98209">
        <ele>114.80000305176</ele>
        <time>2013-12-15T06:44:08.000Z</time>
      </trkpt>
      <trkpt lat="43.60929" lon="6.98162">
        <ele>114.59999847412</ele>
        <time>2013-12-15T06:44:13.000Z</time>
      </trkpt>
      <trkpt lat="43.6096" lon="6.9809">
        <ele>113.80000305176</ele>
        <time>2013-12-15T06:44:21.000Z</time>
      </trkpt>
      <trkpt lat="43.60964" lon="6.98081">
        <ele>113.40000152588</ele>
        <time>2013-12-15T06:44:22.000Z</time>
      </trkpt>
      <trkpt lat="43.60992" lon="6.98012">
        <ele>110.59999847412</ele>
        <time>2013-12-15T06:44:30.000Z</time>
      </trkpt>
      <trkpt lat="43.60995" lon="6.98004">
        <ele>110.19999694824</ele>
        <time>2013-12-15T06:44:31.000Z</time>
      </trkpt>
      <trkpt lat="43.61024" lon="6.97937">
        <ele>110.59999847412</ele>
        <time>2013-12-15T06:44:39.000Z</time>
      </trkpt>
      <trkpt lat="43.61032" lon="6.97919">
        <ele>110.59999847412</ele>
        <time>2013-12-15T06:44:41.000Z</time>
      </trkpt>
      <trkpt lat="43.61054" lon="6.97876">
        <ele>110.19999694824</ele>
        <time>2013-12-15T06:44:46.000Z</time>
      </trkpt>
      <trkpt lat="43.6106" lon="6.97869">
        <ele>110.19999694824</ele>
        <time>2013-12-15T06:44:47.000Z</time>
      </trkpt>
      <trkpt lat="43.61103" lon="6.97827">
        <ele>110.40000152588</ele>
        <time>2013-12-15T06:44:54.000Z</time>
      </trkpt>
      <trkpt lat="43.61146" lon="6.97786">
        <ele>110.59999847412</ele>
        <time>2013-12-15T06:45:02.000Z</time>
      </trkpt>
      <trkpt lat="43.61191" lon="6.97743">
        <ele>111.19999694824</ele>
        <time>2013-12-15T06:45:11.000Z</time>
      </trkpt>
      <trkpt lat="43.612" lon="6.97733">
        <ele>111.59999847412</ele>
        <time>2013-12-15T06:45:13.000Z</time>
      </trkpt>
      <trkpt lat="43.61232" lon="6.97701">
        <ele>112.19999694824</ele>
        <time>2013-12-15T06:45:20.000Z</time>
      </trkpt>
      <trkpt lat="43.6127" lon="6.97658">
        <ele>113.59999847412</ele>
        <time>2013-12-15T06:45:29.000Z</time>
      </trkpt>
      <trkpt lat="43.613" lon="6.9763">
        <ele>116.40000152588</ele>
        <time>2013-12-15T06:45:37.000Z</time>
      </trkpt>
      <trkpt lat="43.61318" lon="6.97631">
        <ele>117.40000152588</ele>
        <time>2013-12-15T06:45:42.000Z</time>
      </trkpt>
      <trkpt lat="43.61321" lon="6.97634">
        <ele>117.59999847412</ele>
        <time>2013-12-15T06:45:43.000Z</time>
      </trkpt>
      <trkpt lat="43.61336" lon="6.97637">
        <ele>118.40000152588</ele>
        <time>2013-12-15T06:45:47.000Z</time>
      </trkpt>
      <trkpt lat="43.61349" lon="6.97622">
        <ele>119</ele>
        <time>2013-12-15T06:45:51.000Z</time>
      </trkpt>
      <trkpt lat="43.61355" lon="6.97606">
        <ele>119.59999847412</ele>
        <time>2013-12-15T06:45:54.000Z</time>
      </trkpt>
      <trkpt lat="43.61362" lon="6.97597">
        <ele>119.80000305176</ele>
        <time>2013-12-15T06:45:56.000Z</time>
      </trkpt>
      <trkpt lat="43.61396" lon="6.97568">
        <ele>120.80000305176</ele>
        <time>2013-12-15T06:46:04.000Z</time>
      </trkpt>
      <trkpt lat="43.61437" lon="6.97541">
        <ele>120.59999847412</ele>
        <time>2013-12-15T06:46:13.000Z</time>
      </trkpt>
      <trkpt lat="43.61479" lon="6.97512">
        <ele>120</ele>
        <time>2013-12-15T06:46:22.000Z</time>
      </trkpt>
      <trkpt lat="43.6151" lon="6.97488">
        <ele>120.19999694824</ele>
        <time>2013-12-15T06:46:28.000Z</time>
      </trkpt>
      <trkpt lat="43.61556" lon="6.97454">
        <ele>121</ele>
        <time>2013-12-15T06:46:37.000Z</time>
      </trkpt>
      <trkpt lat="43.61603" lon="6.97415">
        <ele>121.19999694824</ele>
        <time>2013-12-15T06:46:46.000Z</time>
      </trkpt>
      <trkpt lat="43.61608" lon="6.97409">
        <ele>121.19999694824</ele>
        <time>2013-12-15T06:46:47.000Z</time>
      </trkpt>
      <trkpt lat="43.61642" lon="6.97377">
        <ele>121.40000152588</ele>
        <time>2013-12-15T06:46:54.000Z</time>
      </trkpt>
      <trkpt lat="43.61646" lon="6.97373">
        <ele>121.40000152588</ele>
        <time>2013-12-15T06:46:55.000Z</time>
      </trkpt>
      <trkpt lat="43.61651" lon="6.97357">
        <ele>121.19999694824</ele>
        <time>2013-12-15T06:46:58.000Z</time>
      </trkpt>
      <trkpt lat="43.61641" lon="6.97339">
        <ele>121</ele>
        <time>2013-12-15T06:47:01.000Z</time>
      </trkpt>
      <trkpt lat="43.61608" lon="6.97284">
        <ele>119.59999847412</ele>
        <time>2013-12-15T06:47:10.000Z</time>
      </trkpt>
      <trkpt lat="43.61593" lon="6.97256">
        <ele>118.40000152588</ele>
        <time>2013-12-15T06:47:14.000Z</time>
      </trkpt>
      <trkpt lat="43.61583" lon="6.97243">
        <ele>118</ele>
        <time>2013-12-15T06:47:16.000Z</time>
      </trkpt>
      <trkpt lat="43.61554" lon="6.97199">
        <ele>117.59999847412</ele>
        <time>2013-12-15T06:47:22.000Z</time>
      </trkpt>
      <trkpt lat="43.61512" lon="6.97139">
        <ele>116.19999694824</ele>
        <time>2013-12-15T06:47:30.000Z</time>
      </trkpt>
      <trkpt lat="43.61476" lon="6.97098">
        <ele>116.19999694824</ele>
        <time>2013-12-15T06:47:36.000Z</time>
      </trkpt>
      <trkpt lat="43.61429" lon="6.97051">
        <ele>116.19999694824</ele>
        <time>2013-12-15T06:47:44.000Z</time>
      </trkpt>
      <trkpt lat="43.61385" lon="6.97004">
        <ele>114.59999847412</ele>
        <time>2013-12-15T06:47:52.000Z</time>
      </trkpt>
      <trkpt lat="43.61379" lon="6.96998">
        <ele>114.40000152588</ele>
        <time>2013-12-15T06:47:53.000Z</time>
      </trkpt>
      <trkpt lat="43.61348" lon="6.96964">
        <ele>113</ele>
        <time>2013-12-15T06:47:59.000Z</time>
      </trkpt>
      <trkpt lat="43.61344" lon="6.96957">
        <ele>112.59999847412</ele>
        <time>2013-12-15T06:48:00.000Z</time>
      </trkpt>
      <trkpt lat="43.61339" lon="6.96942">
        <ele>112</ele>
        <time>2013-12-15T06:48:02.000Z</time>
      </trkpt>
      <trkpt lat="43.61334" lon="6.96916">
        <ele>111</ele>
        <time>2013-12-15T06:48:05.000Z</time>
      </trkpt>
      <trkpt lat="43.61328" lon="6.96901">
        <ele>111.19999694824</ele>
        <time>2013-12-15T06:48:07.000Z</time>
      </trkpt>
      <trkpt lat="43.61326" lon="6.96874">
        <ele>111</ele>
        <time>2013-12-15T06:48:10.000Z</time>
      </trkpt>
      <trkpt lat="43.61335" lon="6.96847">
        <ele>110.19999694824</ele>
        <time>2013-12-15T06:48:13.000Z</time>
      </trkpt>
      <trkpt lat="43.61338" lon="6.96839">
        <ele>110.19999694824</ele>
        <time>2013-12-15T06:48:14.000Z</time>
      </trkpt>
      <trkpt lat="43.61357" lon="6.96798">
        <ele>110.59999847412</ele>
        <time>2013-12-15T06:48:19.000Z</time>
      </trkpt>
      <trkpt lat="43.61382" lon="6.96741">
        <ele>109.59999847412</ele>
        <time>2013-12-15T06:48:26.000Z</time>
      </trkpt>
      <trkpt lat="43.61385" lon="6.96734">
        <ele>109.19999694824</ele>
        <time>2013-12-15T06:48:27.000Z</time>
      </trkpt>
      <trkpt lat="43.61392" lon="6.96719">
        <ele>108.59999847412</ele>
        <time>2013-12-15T06:48:29.000Z</time>
      </trkpt>
      <trkpt lat="43.61395" lon="6.9671">
        <ele>108.40000152588</ele>
        <time>2013-12-15T06:48:30.000Z</time>
      </trkpt>
      <trkpt lat="43.61401" lon="6.96685">
        <ele>107.59999847412</ele>
        <time>2013-12-15T06:48:33.000Z</time>
      </trkpt>
      <trkpt lat="43.61406" lon="6.96669">
        <ele>106.80000305176</ele>
        <time>2013-12-15T06:48:35.000Z</time>
      </trkpt>
      <trkpt lat="43.61424" lon="6.96624">
        <ele>105.59999847412</ele>
        <time>2013-12-15T06:48:41.000Z</time>
      </trkpt>
      <trkpt lat="43.6143" lon="6.96598">
        <ele>105.40000152588</ele>
        <time>2013-12-15T06:48:44.000Z</time>
      </trkpt>
      <trkpt lat="43.61429" lon="6.96578">
        <ele>104.80000305176</ele>
        <time>2013-12-15T06:48:46.000Z</time>
      </trkpt>
      <trkpt lat="43.61426" lon="6.96559">
        <ele>104</ele>
        <time>2013-12-15T06:48:48.000Z</time>
      </trkpt>
      <trkpt lat="43.61417" lon="6.9652">
        <ele>101.80000305176</ele>
        <time>2013-12-15T06:48:52.000Z</time>
      </trkpt>
      <trkpt lat="43.61414" lon="6.96501">
        <ele>101.19999694824</ele>
        <time>2013-12-15T06:48:54.000Z</time>
      </trkpt>
      <trkpt lat="43.61414" lon="6.96473">
        <ele>100.80000305176</ele>
        <time>2013-12-15T06:48:57.000Z</time>
      </trkpt>
      <trkpt lat="43.61408" lon="6.96427">
        <ele>100.80000305176</ele>
        <time>2013-12-15T06:49:02.000Z</time>
      </trkpt>
      <trkpt lat="43.61402" lon="6.9637">
        <ele>101</ele>
        <time>2013-12-15T06:49:08.000Z</time>
      </trkpt>
      <trkpt lat="43.614" lon="6.96362">
        <ele>101.19999694824</ele>
        <time>2013-12-15T06:49:09.000Z</time>
      </trkpt>
      <trkpt lat="43.61391" lon="6.96341">
        <ele>102.40000152588</ele>
        <time>2013-12-15T06:49:12.000Z</time>
      </trkpt>
      <trkpt lat="43.61388" lon="6.96327">
        <ele>102.80000305176</ele>
        <time>2013-12-15T06:49:14.000Z</time>
      </trkpt>
      <trkpt lat="43.61383" lon="6.96301">
        <ele>103.19999694824</ele>
        <time>2013-12-15T06:49:16.000Z</time>
      </trkpt>
      <trkpt lat="43.61381" lon="6.96266">
        <ele>103.19999694824</ele>
        <time>2013-12-15T06:49:20.000Z</time>
      </trkpt>
      <trkpt lat="43.6139" lon="6.96245">
        <ele>102</ele>
        <time>2013-12-15T06:49:23.000Z</time>
      </trkpt>
      <trkpt lat="43.61416" lon="6.96195">
        <ele>98.800003051758</ele>
        <time>2013-12-15T06:49:30.000Z</time>
      </trkpt>
      <trkpt lat="43.61435" lon="6.96155">
        <ele>98.400001525879</ele>
        <time>2013-12-15T06:49:36.000Z</time>
      </trkpt>
      <trkpt lat="43.61438" lon="6.96147">
        <ele>98.400001525879</ele>
        <time>2013-12-15T06:49:37.000Z</time>
      </trkpt>
      <trkpt lat="43.61441" lon="6.9614">
        <ele>98.199996948242</ele>
        <time>2013-12-15T06:49:38.000Z</time>
      </trkpt>
      <trkpt lat="43.61456" lon="6.96106">
        <ele>97.599998474121</ele>
        <time>2013-12-15T06:49:43.000Z</time>
      </trkpt>
      <trkpt lat="43.61474" lon="6.96059">
        <ele>96.599998474121</ele>
        <time>2013-12-15T06:49:50.000Z</time>
      </trkpt>
      <trkpt lat="43.61478" lon="6.96046">
        <ele>96.400001525879</ele>
        <time>2013-12-15T06:49:52.000Z</time>
      </trkpt>
      <trkpt lat="43.61489" lon="6.95994">
        <ele>95.599998474121</ele>
        <time>2013-12-15T06:49:59.000Z</time>
      </trkpt>
      <trkpt lat="43.615" lon="6.9594">
        <ele>93.800003051758</ele>
        <time>2013-12-15T06:50:05.000Z</time>
      </trkpt>
      <trkpt lat="43.61515" lon="6.95887">
        <ele>94.400001525879</ele>
        <time>2013-12-15T06:50:10.000Z</time>
      </trkpt>
      <trkpt lat="43.61534" lon="6.95817">
        <ele>96</ele>
        <time>2013-12-15T06:50:17.000Z</time>
      </trkpt>
      <trkpt lat="43.61536" lon="6.95809">
        <ele>96.800003051758</ele>
        <time>2013-12-15T06:50:18.000Z</time>
      </trkpt>
      <trkpt lat="43.61545" lon="6.95775">
        <ele>99.199996948242</ele>
        <time>2013-12-15T06:50:23.000Z</time>
      </trkpt>
      <trkpt lat="43.61555" lon="6.95739">
        <ele>100.19999694824</ele>
        <time>2013-12-15T06:50:29.000Z</time>
      </trkpt>
      <trkpt lat="43.61559" lon="6.95709">
        <ele>102.40000152588</ele>
        <time>2013-12-15T06:50:34.000Z</time>
      </trkpt>
      <trkpt lat="43.61559" lon="6.9568">
        <ele>105.19999694824</ele>
        <time>2013-12-15T06:50:40.000Z</time>
      </trkpt>
      <trkpt lat="43.6156" lon="6.95653">
        <ele>108.40000152588</ele>
        <time>2013-12-15T06:50:47.000Z</time>
      </trkpt>
      <trkpt lat="43.61563" lon="6.9563">
        <ele>111</ele>
        <time>2013-12-15T06:50:53.000Z</time>
      </trkpt>
      <trkpt lat="43.61572" lon="6.95611">
        <ele>111</ele>
        <time>2013-12-15T06:50:59.000Z</time>
      </trkpt>
      <trkpt lat="43.61579" lon="6.95592">
        <ele>112</ele>
        <time>2013-12-15T06:51:04.000Z</time>
      </trkpt>
      <trkpt lat="43.61602" lon="6.95571">
        <ele>110.19999694824</ele>
        <time>2013-12-15T06:51:11.000Z</time>
      </trkpt>
      <trkpt lat="43.61623" lon="6.95543">
        <ele>109.40000152588</ele>
        <time>2013-12-15T06:51:18.000Z</time>
      </trkpt>
      <trkpt lat="43.61639" lon="6.95508">
        <ele>109.40000152588</ele>
        <time>2013-12-15T06:51:25.000Z</time>
      </trkpt>
      <trkpt lat="43.61644" lon="6.95485">
        <ele>110</ele>
        <time>2013-12-15T06:51:29.000Z</time>
      </trkpt>
      <trkpt lat="43.61646" lon="6.95471">
        <ele>110.40000152588</ele>
        <time>2013-12-15T06:51:31.000Z</time>
      </trkpt>
      <trkpt lat="43.61649" lon="6.95443">
        <ele>112</ele>
        <time>2013-12-15T06:51:35.000Z</time>
      </trkpt>
      <trkpt lat="43.6165" lon="6.95422">
        <ele>113.59999847412</ele>
        <time>2013-12-15T06:51:38.000Z</time>
      </trkpt>
      <trkpt lat="43.61654" lon="6.9537">
        <ele>111.19999694824</ele>
        <time>2013-12-15T06:51:45.000Z</time>
      </trkpt>
      <trkpt lat="43.61654" lon="6.95345">
        <ele>110.40000152588</ele>
        <time>2013-12-15T06:51:48.000Z</time>
      </trkpt>
      <trkpt lat="43.61656" lon="6.95324">
        <ele>107.80000305176</ele>
        <time>2013-12-15T06:51:51.000Z</time>
      </trkpt>
      <trkpt lat="43.61653" lon="6.953">
        <ele>104.40000152588</ele>
        <time>2013-12-15T06:51:55.000Z</time>
      </trkpt>
      <trkpt lat="43.61645" lon="6.95277">
        <ele>102.40000152588</ele>
        <time>2013-12-15T06:51:59.000Z</time>
      </trkpt>
      <trkpt lat="43.61643" lon="6.95272">
        <ele>102</ele>
        <time>2013-12-15T06:52:00.000Z</time>
      </trkpt>
      <trkpt lat="43.61626" lon="6.95235">
        <ele>100</ele>
        <time>2013-12-15T06:52:06.000Z</time>
      </trkpt>
      <trkpt lat="43.61603" lon="6.95201">
        <ele>99.400001525879</ele>
        <time>2013-12-15T06:52:10.000Z</time>
      </trkpt>
      <trkpt lat="43.61577" lon="6.95168">
        <ele>98.400001525879</ele>
        <time>2013-12-15T06:52:15.000Z</time>
      </trkpt>
      <trkpt lat="43.61564" lon="6.95151">
        <ele>100.19999694824</ele>
        <time>2013-12-15T06:52:18.000Z</time>
      </trkpt>
      <trkpt lat="43.61559" lon="6.95137">
        <ele>101</ele>
        <time>2013-12-15T06:52:20.000Z</time>
      </trkpt>
      <trkpt lat="43.61552" lon="6.95116">
        <ele>101.59999847412</ele>
        <time>2013-12-15T06:52:24.000Z</time>
      </trkpt>
      <trkpt lat="43.61548" lon="6.95107">
        <ele>101.80000305176</ele>
        <time>2013-12-15T06:52:26.000Z</time>
      </trkpt>
      <trkpt lat="43.61548" lon="6.95098">
        <ele>101.59999847412</ele>
        <time>2013-12-15T06:52:28.000Z</time>
      </trkpt>
      <trkpt lat="43.6155" lon="6.95087">
        <ele>101.19999694824</ele>
        <time>2013-12-15T06:52:32.000Z</time>
      </trkpt>
      <trkpt lat="43.61551" lon="6.95081">
        <ele>101.19999694824</ele>
        <time>2013-12-15T06:52:36.000Z</time>
      </trkpt>
      <trkpt lat="43.61551" lon="6.95079">
        <ele>101.19999694824</ele>
        <time>2013-12-15T06:52:39.000Z</time>
      </trkpt>
      <trkpt lat="43.61551" lon="6.95078">
        <ele>101.19999694824</ele>
        <time>2013-12-15T06:52:56.000Z</time>
      </trkpt>
      <trkpt lat="43.61547" lon="6.95078">
        <ele>101.19999694824</ele>
        <time>2013-12-15T06:53:00.000Z</time>
      </trkpt>
      <trkpt lat="43.61546" lon="6.9508">
        <ele>101.40000152588</ele>
        <time>2013-12-15T06:53:01.000Z</time>
      </trkpt>
      <trkpt lat="43.61549" lon="6.95093">
        <ele>101.40000152588</ele>
        <time>2013-12-15T06:53:05.000Z</time>
      </trkpt>
      <trkpt lat="43.61552" lon="6.9511">
        <ele>101.59999847412</ele>
        <time>2013-12-15T06:53:10.000Z</time>
      </trkpt>
      <trkpt lat="43.61563" lon="6.95111">
        <ele>100.59999847412</ele>
        <time>2013-12-15T06:53:15.000Z</time>
      </trkpt>
      <trkpt lat="43.61567" lon="6.951">
        <ele>100.40000152588</ele>
        <time>2013-12-15T06:53:20.000Z</time>
      </trkpt>
      <trkpt lat="43.61568" lon="6.95078">
        <ele>100.59999847412</ele>
        <time>2013-12-15T06:53:28.000Z</time>
      </trkpt>
      <trkpt lat="43.61568" lon="6.95055">
        <ele>101</ele>
        <time>2013-12-15T06:53:37.000Z</time>
      </trkpt>
      <trkpt lat="43.61569" lon="6.95034">
        <ele>101.40000152588</ele>
        <time>2013-12-15T06:53:44.000Z</time>
      </trkpt>
      <trkpt lat="43.61571" lon="6.95012">
        <ele>102</ele>
        <time>2013-12-15T06:53:51.000Z</time>
      </trkpt>
      <trkpt lat="43.61574" lon="6.95002">
        <ele>102.40000152588</ele>
        <time>2013-12-15T06:53:56.000Z</time>
      </trkpt>
      <trkpt lat="43.61569" lon="6.95">
        <ele>102.19999694824</ele>
        <time>2013-12-15T06:54:00.000Z</time>
      </trkpt>
      <trkpt lat="43.6157" lon="6.94988">
        <ele>101.40000152588</ele>
        <time>2013-12-15T06:54:04.000Z</time>
      </trkpt>
      <trkpt lat="43.61569" lon="6.94974">
        <ele>100.59999847412</ele>
        <time>2013-12-15T06:54:09.000Z</time>
      </trkpt>
      <trkpt lat="43.61567" lon="6.94978">
        <ele>100.80000305176</ele>
        <time>2013-12-15T06:54:12.000Z</time>
      </trkpt>
      <trkpt lat="43.61567" lon="6.94985">
        <ele>101.19999694824</ele>
        <time>2013-12-15T06:54:15.000Z</time>
      </trkpt>
      <trkpt lat="43.61569" lon="6.94991">
        <ele>101.59999847412</ele>
        <time>2013-12-15T06:54:17.000Z</time>
      </trkpt>
      <trkpt lat="43.6157" lon="6.95016">
        <ele>101.80000305176</ele>
        <time>2013-12-15T06:54:23.000Z</time>
      </trkpt>
      <trkpt lat="43.61568" lon="6.9505">
        <ele>101.19999694824</ele>
        <time>2013-12-15T06:54:30.000Z</time>
      </trkpt>
      <trkpt lat="43.61566" lon="6.95066">
        <ele>100.80000305176</ele>
        <time>2013-12-15T06:54:36.000Z</time>
      </trkpt>
      <trkpt lat="43.61567" lon="6.95068">
        <ele>100.80000305176</ele>
        <time>2013-12-15T06:54:41.000Z</time>
      </trkpt>
      <trkpt lat="43.61567" lon="6.95068">
        <ele>100.80000305176</ele>
        <time>2013-12-15T06:56:18.000Z</time>
      </trkpt>
      <trkpt lat="43.61567" lon="6.95075">
        <ele>100.80000305176</ele>
        <time>2013-12-15T06:56:20.000Z</time>
      </trkpt>
      <trkpt lat="43.61565" lon="6.951">
        <ele>100.59999847412</ele>
        <time>2013-12-15T06:56:27.000Z</time>
      </trkpt>
      <trkpt lat="43.61564" lon="6.95111">
        <ele>100.59999847412</ele>
        <time>2013-12-15T06:56:33.000Z</time>
      </trkpt>
      <trkpt lat="43.61564" lon="6.95116">
        <ele>100.59999847412</ele>
        <time>2013-12-15T06:57:13.000Z</time>
      </trkpt>
      <trkpt lat="43.61559" lon="6.95114">
        <ele>101</ele>
        <time>2013-12-15T06:57:17.000Z</time>
      </trkpt>
      <trkpt lat="43.61555" lon="6.95104">
        <ele>101.19999694824</ele>
        <time>2013-12-15T06:57:21.000Z</time>
      </trkpt>
      <trkpt lat="43.61553" lon="6.95092">
        <ele>101.19999694824</ele>
        <time>2013-12-15T06:57:24.000Z</time>
      </trkpt>
      <trkpt lat="43.6155" lon="6.95087">
        <ele>101.19999694824</ele>
        <time>2013-12-15T06:57:26.000Z</time>
      </trkpt>
      <trkpt lat="43.61547" lon="6.95084">
        <ele>101.40000152588</ele>
        <time>2013-12-15T06:57:28.000Z</time>
      </trkpt>
      <trkpt lat="43.61546" lon="6.95083">
        <ele>101.40000152588</ele>
        <time>2013-12-15T06:57:30.000Z</time>
      </trkpt>
      <trkpt lat="43.61541" lon="6.9508">
        <ele>101.40000152588</ele>
        <time>2013-12-15T06:57:56.000Z</time>
      </trkpt>
      <trkpt lat="43.61542" lon="6.95082">
        <ele>101.40000152588</ele>
        <time>2013-12-15T06:58:00.000Z</time>
      </trkpt>
      <trkpt lat="43.61546" lon="6.95087">
        <ele>101.40000152588</ele>
        <time>2013-12-15T07:08:52.000Z</time>
      </trkpt>
      <trkpt lat="43.61549" lon="6.95085">
        <ele>101.19999694824</ele>
        <time>2013-12-15T07:09:00.000Z</time>
      </trkpt>
      <trkpt lat="43.61544" lon="6.95074">
        <ele>101.40000152588</ele>
        <time>2013-12-15T07:10:52.000Z</time>
      </trkpt>
      <trkpt lat="43.61536" lon="6.95055">
        <ele>101.19999694824</ele>
        <time>2013-12-15T07:10:58.000Z</time>
      </trkpt>
      <trkpt lat="43.61526" lon="6.95027">
        <ele>100.40000152588</ele>
        <time>2013-12-15T07:11:03.000Z</time>
      </trkpt>
      <trkpt lat="43.61511" lon="6.94991">
        <ele>98.199996948242</ele>
        <time>2013-12-15T07:11:08.000Z</time>
      </trkpt>
      <trkpt lat="43.61501" lon="6.94963">
        <ele>96.199996948242</ele>
        <time>2013-12-15T07:11:12.000Z</time>
      </trkpt>
      <trkpt lat="43.61498" lon="6.94957">
        <ele>96.199996948242</ele>
        <time>2013-12-15T07:11:13.000Z</time>
      </trkpt>
      <trkpt lat="43.61487" lon="6.9495">
        <ele>97</ele>
        <time>2013-12-15T07:11:17.000Z</time>
      </trkpt>
      <trkpt lat="43.61473" lon="6.94952">
        <ele>98.599998474121</ele>
        <time>2013-12-15T07:11:22.000Z</time>
      </trkpt>
      <trkpt lat="43.61463" lon="6.94946">
        <ele>99</ele>
        <time>2013-12-15T07:11:25.000Z</time>
      </trkpt>
      <trkpt lat="43.61457" lon="6.94944">
        <ele>99.400001525879</ele>
        <time>2013-12-15T07:11:27.000Z</time>
      </trkpt>
      <trkpt lat="43.61449" lon="6.94933">
        <ele>98.400001525879</ele>
        <time>2013-12-15T07:11:30.000Z</time>
      </trkpt>
      <trkpt lat="43.61445" lon="6.94931">
        <ele>98.400001525879</ele>
        <time>2013-12-15T07:11:31.000Z</time>
      </trkpt>
      <trkpt lat="43.61436" lon="6.94929">
        <ele>98.599998474121</ele>
        <time>2013-12-15T07:11:33.000Z</time>
      </trkpt>
      <trkpt lat="43.61417" lon="6.94922">
        <ele>98.199996948242</ele>
        <time>2013-12-15T07:11:38.000Z</time>
      </trkpt>
      <trkpt lat="43.61399" lon="6.94915">
        <ele>101</ele>
        <time>2013-12-15T07:11:43.000Z</time>
      </trkpt>
      <trkpt lat="43.61382" lon="6.949">
        <ele>103.19999694824</ele>
        <time>2013-12-15T07:11:49.000Z</time>
      </trkpt>
      <trkpt lat="43.61376" lon="6.94884">
        <ele>102.19999694824</ele>
        <time>2013-12-15T07:11:53.000Z</time>
      </trkpt>
      <trkpt lat="43.61369" lon="6.94851">
        <ele>99</ele>
        <time>2013-12-15T07:11:57.000Z</time>
      </trkpt>
      <trkpt lat="43.61359" lon="6.94828">
        <ele>97.400001525879</ele>
        <time>2013-12-15T07:12:00.000Z</time>
      </trkpt>
      <trkpt lat="43.61357" lon="6.94821">
        <ele>97</ele>
        <time>2013-12-15T07:12:01.000Z</time>
      </trkpt>
      <trkpt lat="43.61359" lon="6.94801">
        <ele>95.599998474121</ele>
        <time>2013-12-15T07:12:04.000Z</time>
      </trkpt>
      <trkpt lat="43.6136" lon="6.94794">
        <ele>95</ele>
        <time>2013-12-15T07:12:05.000Z</time>
      </trkpt>
      <trkpt lat="43.6136" lon="6.94778">
        <ele>94.199996948242</ele>
        <time>2013-12-15T07:12:07.000Z</time>
      </trkpt>
      <trkpt lat="43.61365" lon="6.94768">
        <ele>93</ele>
        <time>2013-12-15T07:12:09.000Z</time>
      </trkpt>
      <trkpt lat="43.61367" lon="6.94762">
        <ele>92.400001525879</ele>
        <time>2013-12-15T07:12:10.000Z</time>
      </trkpt>
      <trkpt lat="43.61382" lon="6.94742">
        <ele>90</ele>
        <time>2013-12-15T07:12:14.000Z</time>
      </trkpt>
      <trkpt lat="43.6139" lon="6.94722">
        <ele>87.800003051758</ele>
        <time>2013-12-15T07:12:18.000Z</time>
      </trkpt>
      <trkpt lat="43.61391" lon="6.94717">
        <ele>87.599998474121</ele>
        <time>2013-12-15T07:12:19.000Z</time>
      </trkpt>
      <trkpt lat="43.61392" lon="6.94715">
        <ele>87.199996948242</ele>
        <time>2013-12-15T07:12:20.000Z</time>
      </trkpt>
      <trkpt lat="43.61394" lon="6.94712">
        <ele>87</ele>
        <time>2013-12-15T07:12:23.000Z</time>
      </trkpt>
      <trkpt lat="43.61394" lon="6.94706">
        <ele>86.599998474121</ele>
        <time>2013-12-15T07:12:32.000Z</time>
      </trkpt>
      <trkpt lat="43.61395" lon="6.94703">
        <ele>86.199996948242</ele>
        <time>2013-12-15T07:12:35.000Z</time>
      </trkpt>
      <trkpt lat="43.61395" lon="6.94698">
        <ele>86</ele>
        <time>2013-12-15T07:12:39.000Z</time>
      </trkpt>
      <trkpt lat="43.61395" lon="6.94694">
        <ele>85.800003051758</ele>
        <time>2013-12-15T07:12:43.000Z</time>
      </trkpt>
      <trkpt lat="43.61395" lon="6.94693">
        <ele>85.599998474121</ele>
        <time>2013-12-15T07:12:45.000Z</time>
      </trkpt>
      <trkpt lat="43.61397" lon="6.94685">
        <ele>85</ele>
        <time>2013-12-15T07:12:49.000Z</time>
      </trkpt>
      <trkpt lat="43.61397" lon="6.94679">
        <ele>84.599998474121</ele>
        <time>2013-12-15T07:12:52.000Z</time>
      </trkpt>
      <trkpt lat="43.61399" lon="6.94673">
        <ele>84</ele>
        <time>2013-12-15T07:12:54.000Z</time>
      </trkpt>
      <trkpt lat="43.61396" lon="6.94659">
        <ele>83.199996948242</ele>
        <time>2013-12-15T07:12:58.000Z</time>
      </trkpt>
      <trkpt lat="43.61394" lon="6.94648">
        <ele>82.400001525879</ele>
        <time>2013-12-15T07:13:02.000Z</time>
      </trkpt>
      <trkpt lat="43.61391" lon="6.94634">
        <ele>81.199996948242</ele>
        <time>2013-12-15T07:13:06.000Z</time>
      </trkpt>
      <trkpt lat="43.61377" lon="6.94614">
        <ele>80</ele>
        <time>2013-12-15T07:13:13.000Z</time>
      </trkpt>
      <trkpt lat="43.6137" lon="6.94605">
        <ele>79.199996948242</ele>
        <time>2013-12-15T07:13:18.000Z</time>
      </trkpt>
      <trkpt lat="43.61358" lon="6.94593">
        <ele>78</ele>
        <time>2013-12-15T07:13:24.000Z</time>
      </trkpt>
      <trkpt lat="43.61343" lon="6.94582">
        <ele>76.800003051758</ele>
        <time>2013-12-15T07:13:29.000Z</time>
      </trkpt>
      <trkpt lat="43.61331" lon="6.94572">
        <ele>75.599998474121</ele>
        <time>2013-12-15T07:13:34.000Z</time>
      </trkpt>
      <trkpt lat="43.61314" lon="6.94566">
        <ele>75.199996948242</ele>
        <time>2013-12-15T07:13:39.000Z</time>
      </trkpt>
      <trkpt lat="43.61309" lon="6.94563">
        <ele>74.800003051758</ele>
        <time>2013-12-15T07:13:41.000Z</time>
      </trkpt>
      <trkpt lat="43.61302" lon="6.94557">
        <ele>74.199996948242</ele>
        <time>2013-12-15T07:13:43.000Z</time>
      </trkpt>
      <trkpt lat="43.61296" lon="6.94555">
        <ele>74.199996948242</ele>
        <time>2013-12-15T07:13:45.000Z</time>
      </trkpt>
      <trkpt lat="43.61287" lon="6.94556">
        <ele>74.599998474121</ele>
        <time>2013-12-15T07:13:48.000Z</time>
      </trkpt>
      <trkpt lat="43.61275" lon="6.94554">
        <ele>74.599998474121</ele>
        <time>2013-12-15T07:13:53.000Z</time>
      </trkpt>
      <trkpt lat="43.61262" lon="6.94544">
        <ele>73.599998474121</ele>
        <time>2013-12-15T07:13:57.000Z</time>
      </trkpt>
      <trkpt lat="43.61245" lon="6.94533">
        <ele>72.800003051758</ele>
        <time>2013-12-15T07:14:03.000Z</time>
      </trkpt>
      <trkpt lat="43.61229" lon="6.94521">
        <ele>72.599998474121</ele>
        <time>2013-12-15T07:14:08.000Z</time>
      </trkpt>
      <trkpt lat="43.61218" lon="6.94517">
        <ele>72.800003051758</ele>
        <time>2013-12-15T07:14:11.000Z</time>
      </trkpt>
      <trkpt lat="43.61213" lon="6.94515">
        <ele>73</ele>
        <time>2013-12-15T07:14:13.000Z</time>
      </trkpt>
      <trkpt lat="43.61202" lon="6.94507">
        <ele>73</ele>
        <time>2013-12-15T07:14:17.000Z</time>
      </trkpt>
      <trkpt lat="43.61198" lon="6.94505">
        <ele>73</ele>
        <time>2013-12-15T07:14:18.000Z</time>
      </trkpt>
      <trkpt lat="43.6118" lon="6.94496">
        <ele>73.599998474121</ele>
        <time>2013-12-15T07:14:23.000Z</time>
      </trkpt>
      <trkpt lat="43.61161" lon="6.94487">
        <ele>75</ele>
        <time>2013-12-15T07:14:28.000Z</time>
      </trkpt>
      <trkpt lat="43.61156" lon="6.94484">
        <ele>75.599998474121</ele>
        <time>2013-12-15T07:14:30.000Z</time>
      </trkpt>
      <trkpt lat="43.61152" lon="6.94478">
        <ele>75.800003051758</ele>
        <time>2013-12-15T07:14:32.000Z</time>
      </trkpt>
      <trkpt lat="43.61141" lon="6.94466">
        <ele>76.199996948242</ele>
        <time>2013-12-15T07:14:36.000Z</time>
      </trkpt>
      <trkpt lat="43.61135" lon="6.94461">
        <ele>76.599998474121</ele>
        <time>2013-12-15T07:14:38.000Z</time>
      </trkpt>
      <trkpt lat="43.61126" lon="6.94451">
        <ele>76.599998474121</ele>
        <time>2013-12-15T07:14:41.000Z</time>
      </trkpt>
      <trkpt lat="43.61105" lon="6.94437">
        <ele>77.199996948242</ele>
        <time>2013-12-15T07:14:47.000Z</time>
      </trkpt>
      <trkpt lat="43.61089" lon="6.94422">
        <ele>76.400001525879</ele>
        <time>2013-12-15T07:14:53.000Z</time>
      </trkpt>
      <trkpt lat="43.61075" lon="6.94415">
        <ele>77.199996948242</ele>
        <time>2013-12-15T07:14:58.000Z</time>
      </trkpt>
      <trkpt lat="43.61064" lon="6.94408">
        <ele>77.800003051758</ele>
        <time>2013-12-15T07:15:03.000Z</time>
      </trkpt>
      <trkpt lat="43.6105" lon="6.94405">
        <ele>79.400001525879</ele>
        <time>2013-12-15T07:15:07.000Z</time>
      </trkpt>
      <trkpt lat="43.61042" lon="6.94401">
        <ele>79.800003051758</ele>
        <time>2013-12-15T07:15:10.000Z</time>
      </trkpt>
      <trkpt lat="43.6104" lon="6.94397">
        <ele>79.599998474121</ele>
        <time>2013-12-15T07:15:11.000Z</time>
      </trkpt>
      <trkpt lat="43.61037" lon="6.94395">
        <ele>79.599998474121</ele>
        <time>2013-12-15T07:15:12.000Z</time>
      </trkpt>
      <trkpt lat="43.61034" lon="6.94395">
        <ele>79.800003051758</ele>
        <time>2013-12-15T07:15:14.000Z</time>
      </trkpt>
      <trkpt lat="43.61024" lon="6.94392">
        <ele>80.599998474121</ele>
        <time>2013-12-15T07:15:18.000Z</time>
      </trkpt>
      <trkpt lat="43.61021" lon="6.94391">
        <ele>80.800003051758</ele>
        <time>2013-12-15T07:15:20.000Z</time>
      </trkpt>
      <trkpt lat="43.61017" lon="6.94388">
        <ele>80.800003051758</ele>
        <time>2013-12-15T07:15:23.000Z</time>
      </trkpt>
      <trkpt lat="43.61015" lon="6.94387">
        <ele>80.800003051758</ele>
        <time>2013-12-15T07:15:25.000Z</time>
      </trkpt>
      <trkpt lat="43.61014" lon="6.94387">
        <ele>80.800003051758</ele>
        <time>2013-12-15T07:15:28.000Z</time>
      </trkpt>
      <trkpt lat="43.61011" lon="6.94387">
        <ele>81.199996948242</ele>
        <time>2013-12-15T07:15:33.000Z</time>
      </trkpt>
      <trkpt lat="43.61005" lon="6.94385">
        <ele>81.400001525879</ele>
        <time>2013-12-15T07:15:37.000Z</time>
      </trkpt>
      <trkpt lat="43.60996" lon="6.94378">
        <ele>81.199996948242</ele>
        <time>2013-12-15T07:15:42.000Z</time>
      </trkpt>
      <trkpt lat="43.60994" lon="6.94378">
        <ele>81.599998474121</ele>
        <time>2013-12-15T07:15:43.000Z</time>
      </trkpt>
      <trkpt lat="43.6099" lon="6.94377">
        <ele>82.199996948242</ele>
        <time>2013-12-15T07:15:45.000Z</time>
      </trkpt>
      <trkpt lat="43.60987" lon="6.94374">
        <ele>82</ele>
        <time>2013-12-15T07:15:46.000Z</time>
      </trkpt>
      <trkpt lat="43.60979" lon="6.94369">
        <ele>82.400001525879</ele>
        <time>2013-12-15T07:15:51.000Z</time>
      </trkpt>
      <trkpt lat="43.60974" lon="6.94366">
        <ele>82.599998474121</ele>
        <time>2013-12-15T07:15:57.000Z</time>
      </trkpt>
      <trkpt lat="43.60972" lon="6.94363">
        <ele>82.400001525879</ele>
        <time>2013-12-15T07:16:06.000Z</time>
      </trkpt>
      <trkpt lat="43.60969" lon="6.9436">
        <ele>82.199996948242</ele>
        <time>2013-12-15T07:16:09.000Z</time>
      </trkpt>
      <trkpt lat="43.60966" lon="6.94358">
        <ele>82.199996948242</ele>
        <time>2013-12-15T07:16:10.000Z</time>
      </trkpt>
      <trkpt lat="43.60956" lon="6.94352">
        <ele>82.800003051758</ele>
        <time>2013-12-15T07:16:14.000Z</time>
      </trkpt>
      <trkpt lat="43.60953" lon="6.94351">
        <ele>82.800003051758</ele>
        <time>2013-12-15T07:16:15.000Z</time>
      </trkpt>
      <trkpt lat="43.60944" lon="6.94344">
        <ele>83</ele>
        <time>2013-12-15T07:16:19.000Z</time>
      </trkpt>
      <trkpt lat="43.60939" lon="6.9434">
        <ele>82.800003051758</ele>
        <time>2013-12-15T07:16:21.000Z</time>
      </trkpt>
      <trkpt lat="43.60933" lon="6.94338">
        <ele>83.199996948242</ele>
        <time>2013-12-15T07:16:24.000Z</time>
      </trkpt>
      <trkpt lat="43.60917" lon="6.9433">
        <ele>84.199996948242</ele>
        <time>2013-12-15T07:16:29.000Z</time>
      </trkpt>
      <trkpt lat="43.60907" lon="6.94326">
        <ele>83.199996948242</ele>
        <time>2013-12-15T07:16:33.000Z</time>
      </trkpt>
      <trkpt lat="43.60905" lon="6.94324">
        <ele>82.800003051758</ele>
        <time>2013-12-15T07:16:34.000Z</time>
      </trkpt>
      <trkpt lat="43.6089" lon="6.94315">
        <ele>80.400001525879</ele>
        <time>2013-12-15T07:16:39.000Z</time>
      </trkpt>
      <trkpt lat="43.60884" lon="6.94309">
        <ele>79</ele>
        <time>2013-12-15T07:16:43.000Z</time>
      </trkpt>
      <trkpt lat="43.60882" lon="6.94308">
        <ele>78.800003051758</ele>
        <time>2013-12-15T07:16:44.000Z</time>
      </trkpt>
      <trkpt lat="43.60866" lon="6.94304">
        <ele>78</ele>
        <time>2013-12-15T07:16:49.000Z</time>
      </trkpt>
      <trkpt lat="43.60854" lon="6.94299">
        <ele>77</ele>
        <time>2013-12-15T07:16:53.000Z</time>
      </trkpt>
      <trkpt lat="43.60847" lon="6.94295">
        <ele>76</ele>
        <time>2013-12-15T07:16:58.000Z</time>
      </trkpt>
      <trkpt lat="43.60843" lon="6.94291">
        <ele>75.400001525879</ele>
        <time>2013-12-15T07:17:13.000Z</time>
      </trkpt>
      <trkpt lat="43.60841" lon="6.9429">
        <ele>75.199996948242</ele>
        <time>2013-12-15T07:17:14.000Z</time>
      </trkpt>
      <trkpt lat="43.6084" lon="6.94288">
        <ele>74.599998474121</ele>
        <time>2013-12-15T07:17:16.000Z</time>
      </trkpt>
      <trkpt lat="43.60837" lon="6.94285">
        <ele>74</ele>
        <time>2013-12-15T07:17:18.000Z</time>
      </trkpt>
      <trkpt lat="43.60833" lon="6.94281">
        <ele>73.400001525879</ele>
        <time>2013-12-15T07:17:23.000Z</time>
      </trkpt>
      <trkpt lat="43.60828" lon="6.94277">
        <ele>72.800003051758</ele>
        <time>2013-12-15T07:17:59.000Z</time>
      </trkpt>
      <trkpt lat="43.60817" lon="6.94269">
        <ele>71.800003051758</ele>
        <time>2013-12-15T07:18:04.000Z</time>
      </trkpt>
      <trkpt lat="43.60815" lon="6.94258">
        <ele>70.199996948242</ele>
        <time>2013-12-15T07:18:08.000Z</time>
      </trkpt>
      <trkpt lat="43.60815" lon="6.94255">
        <ele>69.800003051758</ele>
        <time>2013-12-15T07:18:09.000Z</time>
      </trkpt>
      <trkpt lat="43.60813" lon="6.94247">
        <ele>69</ele>
        <time>2013-12-15T07:18:12.000Z</time>
      </trkpt>
      <trkpt lat="43.6081" lon="6.94241">
        <ele>69.400001525879</ele>
        <time>2013-12-15T07:18:15.000Z</time>
      </trkpt>
      <trkpt lat="43.60806" lon="6.94237">
        <ele>69.800003051758</ele>
        <time>2013-12-15T07:18:18.000Z</time>
      </trkpt>
      <trkpt lat="43.60801" lon="6.94224">
        <ele>70.400001525879</ele>
        <time>2013-12-15T07:18:34.000Z</time>
      </trkpt>
      <trkpt lat="43.60803" lon="6.94199">
        <ele>70.199996948242</ele>
        <time>2013-12-15T07:18:40.000Z</time>
      </trkpt>
      <trkpt lat="43.608" lon="6.94176">
        <ele>70.800003051758</ele>
        <time>2013-12-15T07:18:46.000Z</time>
      </trkpt>
      <trkpt lat="43.608" lon="6.94172">
        <ele>70.800003051758</ele>
        <time>2013-12-15T07:18:48.000Z</time>
      </trkpt>
      <trkpt lat="43.60797" lon="6.94167">
        <ele>71.400001525879</ele>
        <time>2013-12-15T07:18:51.000Z</time>
      </trkpt>
      <trkpt lat="43.60797" lon="6.94162">
        <ele>71.400001525879</ele>
        <time>2013-12-15T07:18:53.000Z</time>
      </trkpt>
      <trkpt lat="43.60794" lon="6.94147">
        <ele>72.199996948242</ele>
        <time>2013-12-15T07:18:59.000Z</time>
      </trkpt>
      <trkpt lat="43.6079" lon="6.9413">
        <ele>73</ele>
        <time>2013-12-15T07:19:06.000Z</time>
      </trkpt>
      <trkpt lat="43.60782" lon="6.94116">
        <ele>75.199996948242</ele>
        <time>2013-12-15T07:19:12.000Z</time>
      </trkpt>
      <trkpt lat="43.60771" lon="6.94094">
        <ele>78.599998474121</ele>
        <time>2013-12-15T07:19:21.000Z</time>
      </trkpt>
      <trkpt lat="43.60767" lon="6.94078">
        <ele>79.400001525879</ele>
        <time>2013-12-15T07:19:28.000Z</time>
      </trkpt>
      <trkpt lat="43.60765" lon="6.94064">
        <ele>79.599998474121</ele>
        <time>2013-12-15T07:19:34.000Z</time>
      </trkpt>
      <trkpt lat="43.60763" lon="6.9405">
        <ele>79.599998474121</ele>
        <time>2013-12-15T07:19:40.000Z</time>
      </trkpt>
      <trkpt lat="43.60762" lon="6.94034">
        <ele>79.599998474121</ele>
        <time>2013-12-15T07:19:46.000Z</time>
      </trkpt>
      <trkpt lat="43.60761" lon="6.94019">
        <ele>79.400001525879</ele>
        <time>2013-12-15T07:19:52.000Z</time>
      </trkpt>
      <trkpt lat="43.60757" lon="6.94002">
        <ele>80</ele>
        <time>2013-12-15T07:20:00.000Z</time>
      </trkpt>
      <trkpt lat="43.60747" lon="6.93983">
        <ele>83.199996948242</ele>
        <time>2013-12-15T07:20:09.000Z</time>
      </trkpt>
      <trkpt lat="43.60742" lon="6.93968">
        <ele>85.199996948242</ele>
        <time>2013-12-15T07:20:16.000Z</time>
      </trkpt>
      <trkpt lat="43.60742" lon="6.93955">
        <ele>84.800003051758</ele>
        <time>2013-12-15T07:20:22.000Z</time>
      </trkpt>
      <trkpt lat="43.60741" lon="6.93942">
        <ele>85</ele>
        <time>2013-12-15T07:20:29.000Z</time>
      </trkpt>
      <trkpt lat="43.60734" lon="6.93927">
        <ele>86.599998474121</ele>
        <time>2013-12-15T07:20:36.000Z</time>
      </trkpt>
      <trkpt lat="43.60724" lon="6.93916">
        <ele>88</ele>
        <time>2013-12-15T07:20:43.000Z</time>
      </trkpt>
      <trkpt lat="43.60713" lon="6.93904">
        <ele>88.800003051758</ele>
        <time>2013-12-15T07:20:51.000Z</time>
      </trkpt>
      <trkpt lat="43.60701" lon="6.93894">
        <ele>90</ele>
        <time>2013-12-15T07:20:58.000Z</time>
      </trkpt>
      <trkpt lat="43.60687" lon="6.93885">
        <ele>91.400001525879</ele>
        <time>2013-12-15T07:21:06.000Z</time>
      </trkpt>
      <trkpt lat="43.60671" lon="6.93875">
        <ele>93.199996948242</ele>
        <time>2013-12-15T07:21:16.000Z</time>
      </trkpt>
      <trkpt lat="43.60659" lon="6.93875">
        <ele>94.800003051758</ele>
        <time>2013-12-15T07:21:23.000Z</time>
      </trkpt>
      <trkpt lat="43.60648" lon="6.93878">
        <ele>96.199996948242</ele>
        <time>2013-12-15T07:21:31.000Z</time>
      </trkpt>
      <trkpt lat="43.60637" lon="6.93883">
        <ele>98</ele>
        <time>2013-12-15T07:21:39.000Z</time>
      </trkpt>
      <trkpt lat="43.60625" lon="6.93887">
        <ele>99.800003051758</ele>
        <time>2013-12-15T07:21:47.000Z</time>
      </trkpt>
      <trkpt lat="43.60607" lon="6.93895">
        <ele>102.40000152588</ele>
        <time>2013-12-15T07:21:57.000Z</time>
      </trkpt>
      <trkpt lat="43.60596" lon="6.93898">
        <ele>104</ele>
        <time>2013-12-15T07:22:05.000Z</time>
      </trkpt>
      <trkpt lat="43.60581" lon="6.93901">
        <ele>105.40000152588</ele>
        <time>2013-12-15T07:22:13.000Z</time>
      </trkpt>
      <trkpt lat="43.6057" lon="6.93908">
        <ele>106</ele>
        <time>2013-12-15T07:22:20.000Z</time>
      </trkpt>
      <trkpt lat="43.6056" lon="6.93924">
        <ele>108</ele>
        <time>2013-12-15T07:22:29.000Z</time>
      </trkpt>
      <trkpt lat="43.60551" lon="6.93944">
        <ele>110.80000305176</ele>
        <time>2013-12-15T07:22:39.000Z</time>
      </trkpt>
      <trkpt lat="43.60541" lon="6.93958">
        <ele>112.40000152588</ele>
        <time>2013-12-15T07:22:47.000Z</time>
      </trkpt>
      <trkpt lat="43.6053" lon="6.93974">
        <ele>113.80000305176</ele>
        <time>2013-12-15T07:22:56.000Z</time>
      </trkpt>
      <trkpt lat="43.60519" lon="6.93989">
        <ele>114.80000305176</ele>
        <time>2013-12-15T07:23:04.000Z</time>
      </trkpt>
      <trkpt lat="43.60509" lon="6.94007">
        <ele>116</ele>
        <time>2013-12-15T07:23:12.000Z</time>
      </trkpt>
      <trkpt lat="43.60495" lon="6.94022">
        <ele>117.19999694824</ele>
        <time>2013-12-15T07:23:20.000Z</time>
      </trkpt>
      <trkpt lat="43.60484" lon="6.94037">
        <ele>118.80000305176</ele>
        <time>2013-12-15T07:23:26.000Z</time>
      </trkpt>
      <trkpt lat="43.60473" lon="6.9405">
        <ele>119.80000305176</ele>
        <time>2013-12-15T07:23:32.000Z</time>
      </trkpt>
      <trkpt lat="43.6046" lon="6.94064">
        <ele>120.59999847412</ele>
        <time>2013-12-15T07:23:38.000Z</time>
      </trkpt>
      <trkpt lat="43.60443" lon="6.94082">
        <ele>120.80000305176</ele>
        <time>2013-12-15T07:23:46.000Z</time>
      </trkpt>
      <trkpt lat="43.60426" lon="6.94099">
        <ele>120</ele>
        <time>2013-12-15T07:23:54.000Z</time>
      </trkpt>
      <trkpt lat="43.60414" lon="6.94114">
        <ele>120</ele>
        <time>2013-12-15T07:24:01.000Z</time>
      </trkpt>
      <trkpt lat="43.60403" lon="6.94128">
        <ele>121.19999694824</ele>
        <time>2013-12-15T07:24:07.000Z</time>
      </trkpt>
      <trkpt lat="43.60394" lon="6.9414">
        <ele>122</ele>
        <time>2013-12-15T07:24:12.000Z</time>
      </trkpt>
      <trkpt lat="43.60381" lon="6.94163">
        <ele>122.80000305176</ele>
        <time>2013-12-15T07:24:21.000Z</time>
      </trkpt>
      <trkpt lat="43.60369" lon="6.9419">
        <ele>123.80000305176</ele>
        <time>2013-12-15T07:24:30.000Z</time>
      </trkpt>
      <trkpt lat="43.60362" lon="6.94218">
        <ele>124.59999847412</ele>
        <time>2013-12-15T07:24:39.000Z</time>
      </trkpt>
      <trkpt lat="43.60363" lon="6.94239">
        <ele>125.40000152588</ele>
        <time>2013-12-15T07:24:46.000Z</time>
      </trkpt>
      <trkpt lat="43.60361" lon="6.94261">
        <ele>125.59999847412</ele>
        <time>2013-12-15T07:24:53.000Z</time>
      </trkpt>
      <trkpt lat="43.60354" lon="6.94286">
        <ele>125.59999847412</ele>
        <time>2013-12-15T07:25:01.000Z</time>
      </trkpt>
      <trkpt lat="43.60344" lon="6.9431">
        <ele>126</ele>
        <time>2013-12-15T07:25:08.000Z</time>
      </trkpt>
      <trkpt lat="43.60331" lon="6.94337">
        <ele>127</ele>
        <time>2013-12-15T07:25:16.000Z</time>
      </trkpt>
      <trkpt lat="43.60316" lon="6.94354">
        <ele>127.40000152588</ele>
        <time>2013-12-15T07:25:23.000Z</time>
      </trkpt>
      <trkpt lat="43.60293" lon="6.94376">
        <ele>129.19999694824</ele>
        <time>2013-12-15T07:25:33.000Z</time>
      </trkpt>
      <trkpt lat="43.60278" lon="6.94391">
        <ele>131</ele>
        <time>2013-12-15T07:25:40.000Z</time>
      </trkpt>
      <trkpt lat="43.60261" lon="6.94403">
        <ele>133.60000610352</ele>
        <time>2013-12-15T07:25:47.000Z</time>
      </trkpt>
      <trkpt lat="43.60249" lon="6.94416">
        <ele>136</ele>
        <time>2013-12-15T07:25:54.000Z</time>
      </trkpt>
      <trkpt lat="43.60226" lon="6.94437">
        <ele>137.80000305176</ele>
        <time>2013-12-15T07:26:05.000Z</time>
      </trkpt>
      <trkpt lat="43.60209" lon="6.94452">
        <ele>139</ele>
        <time>2013-12-15T07:26:14.000Z</time>
      </trkpt>
      <trkpt lat="43.60197" lon="6.94466">
        <ele>140.19999694824</ele>
        <time>2013-12-15T07:26:21.000Z</time>
      </trkpt>
      <trkpt lat="43.60182" lon="6.94474">
        <ele>141.39999389648</ele>
        <time>2013-12-15T07:26:28.000Z</time>
      </trkpt>
      <trkpt lat="43.60162" lon="6.94477">
        <ele>142.80000305176</ele>
        <time>2013-12-15T07:26:36.000Z</time>
      </trkpt>
      <trkpt lat="43.60141" lon="6.94478">
        <ele>144</ele>
        <time>2013-12-15T07:26:44.000Z</time>
      </trkpt>
      <trkpt lat="43.60118" lon="6.94477">
        <ele>145.39999389648</ele>
        <time>2013-12-15T07:26:52.000Z</time>
      </trkpt>
      <trkpt lat="43.60098" lon="6.94479">
        <ele>146.60000610352</ele>
        <time>2013-12-15T07:27:00.000Z</time>
      </trkpt>
      <trkpt lat="43.6008" lon="6.9448">
        <ele>147.60000610352</ele>
        <time>2013-12-15T07:27:07.000Z</time>
      </trkpt>
      <trkpt lat="43.60061" lon="6.94482">
        <ele>147.80000305176</ele>
        <time>2013-12-15T07:27:17.000Z</time>
      </trkpt>
      <trkpt lat="43.60048" lon="6.94479">
        <ele>148</ele>
        <time>2013-12-15T07:27:23.000Z</time>
      </trkpt>
      <trkpt lat="43.60029" lon="6.94474">
        <ele>148</ele>
        <time>2013-12-15T07:27:32.000Z</time>
      </trkpt>
      <trkpt lat="43.60028" lon="6.94471">
        <ele>148</ele>
        <time>2013-12-15T07:27:33.000Z</time>
      </trkpt>
      <trkpt lat="43.60022" lon="6.94466">
        <ele>148</ele>
        <time>2013-12-15T07:27:35.000Z</time>
      </trkpt>
      <trkpt lat="43.60005" lon="6.94463">
        <ele>148</ele>
        <time>2013-12-15T07:27:40.000Z</time>
      </trkpt>
      <trkpt lat="43.6" lon="6.94462">
        <ele>148</ele>
        <time>2013-12-15T07:27:42.000Z</time>
      </trkpt>
      <trkpt lat="43.59994" lon="6.9446">
        <ele>147.80000305176</ele>
        <time>2013-12-15T07:27:44.000Z</time>
      </trkpt>
      <trkpt lat="43.59974" lon="6.94455">
        <ele>147</ele>
        <time>2013-12-15T07:27:49.000Z</time>
      </trkpt>
      <trkpt lat="43.59955" lon="6.9445">
        <ele>146.19999694824</ele>
        <time>2013-12-15T07:27:54.000Z</time>
      </trkpt>
      <trkpt lat="43.59936" lon="6.94446">
        <ele>145.39999389648</ele>
        <time>2013-12-15T07:27:59.000Z</time>
      </trkpt>
      <trkpt lat="43.59934" lon="6.94447">
        <ele>145.39999389648</ele>
        <time>2013-12-15T07:28:00.000Z</time>
      </trkpt>
      <trkpt lat="43.59929" lon="6.94451">
        <ele>145.19999694824</ele>
        <time>2013-12-15T07:28:02.000Z</time>
      </trkpt>
      <trkpt lat="43.59917" lon="6.94446">
        <ele>144.80000305176</ele>
        <time>2013-12-15T07:28:05.000Z</time>
      </trkpt>
      <trkpt lat="43.59908" lon="6.94446">
        <ele>145.19999694824</ele>
        <time>2013-12-15T07:28:08.000Z</time>
      </trkpt>
      <trkpt lat="43.59905" lon="6.94444">
        <ele>145.39999389648</ele>
        <time>2013-12-15T07:28:10.000Z</time>
      </trkpt>
      <trkpt lat="43.59898" lon="6.9444">
        <ele>145.80000305176</ele>
        <time>2013-12-15T07:28:14.000Z</time>
      </trkpt>
      <trkpt lat="43.59889" lon="6.94429">
        <ele>146.39999389648</ele>
        <time>2013-12-15T07:28:18.000Z</time>
      </trkpt>
      <trkpt lat="43.59874" lon="6.94413">
        <ele>147.19999694824</ele>
        <time>2013-12-15T07:28:25.000Z</time>
      </trkpt>
      <trkpt lat="43.59862" lon="6.94407">
        <ele>147.60000610352</ele>
        <time>2013-12-15T07:28:31.000Z</time>
      </trkpt>
      <trkpt lat="43.59851" lon="6.94407">
        <ele>148.60000610352</ele>
        <time>2013-12-15T07:28:36.000Z</time>
      </trkpt>
      <trkpt lat="43.59838" lon="6.94406">
        <ele>149.60000610352</ele>
        <time>2013-12-15T07:28:42.000Z</time>
      </trkpt>
      <trkpt lat="43.59821" lon="6.94404">
        <ele>150.19999694824</ele>
        <time>2013-12-15T07:28:48.000Z</time>
      </trkpt>
      <trkpt lat="43.59808" lon="6.9441">
        <ele>151.39999389648</ele>
        <time>2013-12-15T07:28:54.000Z</time>
      </trkpt>
      <trkpt lat="43.59793" lon="6.94421">
        <ele>152.39999389648</ele>
        <time>2013-12-15T07:29:01.000Z</time>
      </trkpt>
      <trkpt lat="43.59776" lon="6.94435">
        <ele>152.39999389648</ele>
        <time>2013-12-15T07:29:09.000Z</time>
      </trkpt>
      <trkpt lat="43.59762" lon="6.94439">
        <ele>152.80000305176</ele>
        <time>2013-12-15T07:29:15.000Z</time>
      </trkpt>
      <trkpt lat="43.59747" lon="6.9443">
        <ele>153.60000610352</ele>
        <time>2013-12-15T07:29:21.000Z</time>
      </trkpt>
      <trkpt lat="43.59727" lon="6.94422">
        <ele>154.39999389648</ele>
        <time>2013-12-15T07:29:29.000Z</time>
      </trkpt>
      <trkpt lat="43.59714" lon="6.94411">
        <ele>155</ele>
        <time>2013-12-15T07:29:35.000Z</time>
      </trkpt>
      <trkpt lat="43.59703" lon="6.94408">
        <ele>155.19999694824</ele>
        <time>2013-12-15T07:29:40.000Z</time>
      </trkpt>
      <trkpt lat="43.59693" lon="6.944">
        <ele>155.19999694824</ele>
        <time>2013-12-15T07:29:45.000Z</time>
      </trkpt>
      <trkpt lat="43.59678" lon="6.94392">
        <ele>155.60000610352</ele>
        <time>2013-12-15T07:29:52.000Z</time>
      </trkpt>
      <trkpt lat="43.59663" lon="6.9439">
        <ele>155.80000305176</ele>
        <time>2013-12-15T07:30:00.000Z</time>
      </trkpt>
      <trkpt lat="43.59646" lon="6.94391">
        <ele>154.39999389648</ele>
        <time>2013-12-15T07:30:07.000Z</time>
      </trkpt>
      <trkpt lat="43.59624" lon="6.9439">
        <ele>152.80000305176</ele>
        <time>2013-12-15T07:30:15.000Z</time>
      </trkpt>
      <trkpt lat="43.59616" lon="6.9439">
        <ele>152.19999694824</ele>
        <time>2013-12-15T07:30:21.000Z</time>
      </trkpt>
      <trkpt lat="43.59614" lon="6.94391">
        <ele>152</ele>
        <time>2013-12-15T07:30:29.000Z</time>
      </trkpt>
      <trkpt lat="43.59613" lon="6.94396">
        <ele>152</ele>
        <time>2013-12-15T07:31:10.000Z</time>
      </trkpt>
      <trkpt lat="43.59604" lon="6.94402">
        <ele>151.39999389648</ele>
        <time>2013-12-15T07:31:16.000Z</time>
      </trkpt>
      <trkpt lat="43.59595" lon="6.94404">
        <ele>150.80000305176</ele>
        <time>2013-12-15T07:31:21.000Z</time>
      </trkpt>
      <trkpt lat="43.59584" lon="6.94402">
        <ele>150</ele>
        <time>2013-12-15T07:31:26.000Z</time>
      </trkpt>
      <trkpt lat="43.5957" lon="6.94398">
        <ele>148</ele>
        <time>2013-12-15T07:31:32.000Z</time>
      </trkpt>
      <trkpt lat="43.59559" lon="6.94396">
        <ele>146.80000305176</ele>
        <time>2013-12-15T07:31:38.000Z</time>
      </trkpt>
      <trkpt lat="43.59553" lon="6.94396">
        <ele>146</ele>
        <time>2013-12-15T07:31:50.000Z</time>
      </trkpt>
      <trkpt lat="43.59548" lon="6.94396">
        <ele>145.19999694824</ele>
        <time>2013-12-15T07:31:53.000Z</time>
      </trkpt>
      <trkpt lat="43.59544" lon="6.94398">
        <ele>144.80000305176</ele>
        <time>2013-12-15T07:31:55.000Z</time>
      </trkpt>
      <trkpt lat="43.59533" lon="6.94399">
        <ele>143.60000610352</ele>
        <time>2013-12-15T07:32:00.000Z</time>
      </trkpt>
      <trkpt lat="43.59521" lon="6.94393">
        <ele>141.80000305176</ele>
        <time>2013-12-15T07:32:05.000Z</time>
      </trkpt>
      <trkpt lat="43.59508" lon="6.94385">
        <ele>139.80000305176</ele>
        <time>2013-12-15T07:32:10.000Z</time>
      </trkpt>
      <trkpt lat="43.59497" lon="6.94385">
        <ele>138.60000610352</ele>
        <time>2013-12-15T07:32:14.000Z</time>
      </trkpt>
      <trkpt lat="43.59475" lon="6.94391">
        <ele>137.19999694824</ele>
        <time>2013-12-15T07:32:20.000Z</time>
      </trkpt>
      <trkpt lat="43.59461" lon="6.94396">
        <ele>136.39999389648</ele>
        <time>2013-12-15T07:32:25.000Z</time>
      </trkpt>
      <trkpt lat="43.59457" lon="6.94399">
        <ele>136.39999389648</ele>
        <time>2013-12-15T07:32:30.000Z</time>
      </trkpt>
      <trkpt lat="43.59455" lon="6.94402">
        <ele>136.39999389648</ele>
        <time>2013-12-15T07:32:32.000Z</time>
      </trkpt>
      <trkpt lat="43.59453" lon="6.94408">
        <ele>136.60000610352</ele>
        <time>2013-12-15T07:32:35.000Z</time>
      </trkpt>
      <trkpt lat="43.59451" lon="6.94415">
        <ele>137</ele>
        <time>2013-12-15T07:32:39.000Z</time>
      </trkpt>
      <trkpt lat="43.59441" lon="6.94423">
        <ele>135.80000305176</ele>
        <time>2013-12-15T07:32:44.000Z</time>
      </trkpt>
      <trkpt lat="43.59435" lon="6.94424">
        <ele>135.39999389648</ele>
        <time>2013-12-15T07:32:47.000Z</time>
      </trkpt>
      <trkpt lat="43.59434" lon="6.94425">
        <ele>135.39999389648</ele>
        <time>2013-12-15T07:32:49.000Z</time>
      </trkpt>
      <trkpt lat="43.59434" lon="6.94426">
        <ele>135.39999389648</ele>
        <time>2013-12-15T07:32:56.000Z</time>
      </trkpt>
      <trkpt lat="43.59429" lon="6.94433">
        <ele>134.60000610352</ele>
        <time>2013-12-15T07:33:05.000Z</time>
      </trkpt>
      <trkpt lat="43.59417" lon="6.94443">
        <ele>133.39999389648</ele>
        <time>2013-12-15T07:33:09.000Z</time>
      </trkpt>
      <trkpt lat="43.59391" lon="6.94459">
        <ele>133.60000610352</ele>
        <time>2013-12-15T07:33:15.000Z</time>
      </trkpt>
      <trkpt lat="43.59371" lon="6.94475">
        <ele>134.60000610352</ele>
        <time>2013-12-15T07:33:20.000Z</time>
      </trkpt>
      <trkpt lat="43.59368" lon="6.94476">
        <ele>134.80000305176</ele>
        <time>2013-12-15T07:33:21.000Z</time>
      </trkpt>
      <trkpt lat="43.59357" lon="6.94473">
        <ele>135.60000610352</ele>
        <time>2013-12-15T07:33:24.000Z</time>
      </trkpt>
      <trkpt lat="43.59347" lon="6.94471">
        <ele>136</ele>
        <time>2013-12-15T07:33:28.000Z</time>
      </trkpt>
      <trkpt lat="43.59333" lon="6.94473">
        <ele>137.19999694824</ele>
        <time>2013-12-15T07:33:34.000Z</time>
      </trkpt>
      <trkpt lat="43.59323" lon="6.94479">
        <ele>138.19999694824</ele>
        <time>2013-12-15T07:33:41.000Z</time>
      </trkpt>
      <trkpt lat="43.59312" lon="6.94479">
        <ele>138.80000305176</ele>
        <time>2013-12-15T07:33:47.000Z</time>
      </trkpt>
      <trkpt lat="43.593" lon="6.94479">
        <ele>139.60000610352</ele>
        <time>2013-12-15T07:33:53.000Z</time>
      </trkpt>
      <trkpt lat="43.59287" lon="6.94479">
        <ele>140.39999389648</ele>
        <time>2013-12-15T07:33:59.000Z</time>
      </trkpt>
      <trkpt lat="43.59275" lon="6.94476">
        <ele>141</ele>
        <time>2013-12-15T07:34:06.000Z</time>
      </trkpt>
      <trkpt lat="43.59268" lon="6.9447">
        <ele>141.39999389648</ele>
        <time>2013-12-15T07:34:11.000Z</time>
      </trkpt>
      <trkpt lat="43.59258" lon="6.9446">
        <ele>141.80000305176</ele>
        <time>2013-12-15T07:34:18.000Z</time>
      </trkpt>
      <trkpt lat="43.59246" lon="6.94455">
        <ele>141.80000305176</ele>
        <time>2013-12-15T07:34:25.000Z</time>
      </trkpt>
      <trkpt lat="43.5924" lon="6.94452">
        <ele>140.80000305176</ele>
        <time>2013-12-15T07:34:30.000Z</time>
      </trkpt>
      <trkpt lat="43.5924" lon="6.94452">
        <ele>140.80000305176</ele>
        <time>2013-12-15T07:34:31.000Z</time>
      </trkpt>
      <trkpt lat="43.59238" lon="6.94452">
        <ele>140.39999389648</ele>
        <time>2013-12-15T07:34:34.000Z</time>
      </trkpt>
      <trkpt lat="43.59237" lon="6.94452">
        <ele>140.39999389648</ele>
        <time>2013-12-15T07:34:37.000Z</time>
      </trkpt>
      <trkpt lat="43.59234" lon="6.94448">
        <ele>140</ele>
        <time>2013-12-15T07:34:56.000Z</time>
      </trkpt>
      <trkpt lat="43.59233" lon="6.94447">
        <ele>139.80000305176</ele>
        <time>2013-12-15T07:34:59.000Z</time>
      </trkpt>
      <trkpt lat="43.59229" lon="6.94449">
        <ele>139.19999694824</ele>
        <time>2013-12-15T07:35:08.000Z</time>
      </trkpt>
      <trkpt lat="43.59218" lon="6.94455">
        <ele>137.19999694824</ele>
        <time>2013-12-15T07:35:13.000Z</time>
      </trkpt>
      <trkpt lat="43.59212" lon="6.94456">
        <ele>136.39999389648</ele>
        <time>2013-12-15T07:35:15.000Z</time>
      </trkpt>
      <trkpt lat="43.59209" lon="6.94449">
        <ele>136</ele>
        <time>2013-12-15T07:35:17.000Z</time>
      </trkpt>
      <trkpt lat="43.59208" lon="6.94444">
        <ele>136</ele>
        <time>2013-12-15T07:35:19.000Z</time>
      </trkpt>
      <trkpt lat="43.59209" lon="6.94438">
        <ele>136.60000610352</ele>
        <time>2013-12-15T07:35:21.000Z</time>
      </trkpt>
      <trkpt lat="43.5921" lon="6.94417">
        <ele>137.80000305176</ele>
        <time>2013-12-15T07:35:26.000Z</time>
      </trkpt>
      <trkpt lat="43.59219" lon="6.94404">
        <ele>135.19999694824</ele>
        <time>2013-12-15T07:35:30.000Z</time>
      </trkpt>
      <trkpt lat="43.59232" lon="6.94401">
        <ele>135.60000610352</ele>
        <time>2013-12-15T07:35:34.000Z</time>
      </trkpt>
      <trkpt lat="43.59233" lon="6.94399">
        <ele>135</ele>
        <time>2013-12-15T07:35:35.000Z</time>
      </trkpt>
      <trkpt lat="43.59231" lon="6.94394">
        <ele>133.39999389648</ele>
        <time>2013-12-15T07:35:37.000Z</time>
      </trkpt>
      <trkpt lat="43.59216" lon="6.94388">
        <ele>130.39999389648</ele>
        <time>2013-12-15T07:35:41.000Z</time>
      </trkpt>
      <trkpt lat="43.59201" lon="6.94384">
        <ele>128.19999694824</ele>
        <time>2013-12-15T07:35:45.000Z</time>
      </trkpt>
      <trkpt lat="43.59179" lon="6.94383">
        <ele>126.40000152588</ele>
        <time>2013-12-15T07:35:50.000Z</time>
      </trkpt>
      <trkpt lat="43.59175" lon="6.94385">
        <ele>126.40000152588</ele>
        <time>2013-12-15T07:35:51.000Z</time>
      </trkpt>
      <trkpt lat="43.59166" lon="6.94392">
        <ele>127</ele>
        <time>2013-12-15T07:35:54.000Z</time>
      </trkpt>
      <trkpt lat="43.59158" lon="6.9439">
        <ele>124.59999847412</ele>
        <time>2013-12-15T07:35:58.000Z</time>
      </trkpt>
      <trkpt lat="43.5916" lon="6.94376">
        <ele>122</ele>
        <time>2013-12-15T07:36:01.000Z</time>
      </trkpt>
      <trkpt lat="43.59167" lon="6.94361">
        <ele>120.19999694824</ele>
        <time>2013-12-15T07:36:06.000Z</time>
      </trkpt>
      <trkpt lat="43.59169" lon="6.94354">
        <ele>118.80000305176</ele>
        <time>2013-12-15T07:36:08.000Z</time>
      </trkpt>
      <trkpt lat="43.59176" lon="6.94343">
        <ele>116.40000152588</ele>
        <time>2013-12-15T07:36:11.000Z</time>
      </trkpt>
      <trkpt lat="43.59192" lon="6.94329">
        <ele>113</ele>
        <time>2013-12-15T07:36:15.000Z</time>
      </trkpt>
      <trkpt lat="43.59208" lon="6.94327">
        <ele>112.80000305176</ele>
        <time>2013-12-15T07:36:18.000Z</time>
      </trkpt>
      <trkpt lat="43.59214" lon="6.94327">
        <ele>113</ele>
        <time>2013-12-15T07:36:19.000Z</time>
      </trkpt>
      <trkpt lat="43.59232" lon="6.9433">
        <ele>114.40000152588</ele>
        <time>2013-12-15T07:36:23.000Z</time>
      </trkpt>
      <trkpt lat="43.59238" lon="6.94327">
        <ele>113.40000152588</ele>
        <time>2013-12-15T07:36:26.000Z</time>
      </trkpt>
      <trkpt lat="43.59233" lon="6.94322">
        <ele>111.59999847412</ele>
        <time>2013-12-15T07:36:29.000Z</time>
      </trkpt>
      <trkpt lat="43.59226" lon="6.94317">
        <ele>109.80000305176</ele>
        <time>2013-12-15T07:36:31.000Z</time>
      </trkpt>
      <trkpt lat="43.59219" lon="6.94313">
        <ele>108</ele>
        <time>2013-12-15T07:36:33.000Z</time>
      </trkpt>
      <trkpt lat="43.59205" lon="6.943">
        <ele>103</ele>
        <time>2013-12-15T07:36:38.000Z</time>
      </trkpt>
      <trkpt lat="43.59194" lon="6.94293">
        <ele>100.40000152588</ele>
        <time>2013-12-15T07:36:42.000Z</time>
      </trkpt>
      <trkpt lat="43.59181" lon="6.94286">
        <ele>97.800003051758</ele>
        <time>2013-12-15T07:36:47.000Z</time>
      </trkpt>
      <trkpt lat="43.5917" lon="6.94281">
        <ele>95.800003051758</ele>
        <time>2013-12-15T07:36:51.000Z</time>
      </trkpt>
      <trkpt lat="43.59153" lon="6.9428">
        <ele>92.400001525879</ele>
        <time>2013-12-15T07:36:56.000Z</time>
      </trkpt>
      <trkpt lat="43.59137" lon="6.94282">
        <ele>89.599998474121</ele>
        <time>2013-12-15T07:37:01.000Z</time>
      </trkpt>
      <trkpt lat="43.59123" lon="6.94282">
        <ele>86.400001525879</ele>
        <time>2013-12-15T07:37:05.000Z</time>
      </trkpt>
      <trkpt lat="43.59101" lon="6.94289">
        <ele>84.400001525879</ele>
        <time>2013-12-15T07:37:11.000Z</time>
      </trkpt>
      <trkpt lat="43.59086" lon="6.94301">
        <ele>85.400001525879</ele>
        <time>2013-12-15T07:37:16.000Z</time>
      </trkpt>
      <trkpt lat="43.59071" lon="6.94319">
        <ele>86.199996948242</ele>
        <time>2013-12-15T07:37:20.000Z</time>
      </trkpt>
      <trkpt lat="43.59066" lon="6.94328">
        <ele>87.199996948242</ele>
        <time>2013-12-15T07:37:22.000Z</time>
      </trkpt>
      <trkpt lat="43.59061" lon="6.94336">
        <ele>87.599998474121</ele>
        <time>2013-12-15T07:37:24.000Z</time>
      </trkpt>
      <trkpt lat="43.59053" lon="6.94343">
        <ele>85.400001525879</ele>
        <time>2013-12-15T07:37:27.000Z</time>
      </trkpt>
      <trkpt lat="43.59051" lon="6.94342">
        <ele>84.400001525879</ele>
        <time>2013-12-15T07:37:28.000Z</time>
      </trkpt>
      <trkpt lat="43.5904" lon="6.94341">
        <ele>80</ele>
        <time>2013-12-15T07:37:31.000Z</time>
      </trkpt>
      <trkpt lat="43.59037" lon="6.9434">
        <ele>78.599998474121</ele>
        <time>2013-12-15T07:37:32.000Z</time>
      </trkpt>
      <trkpt lat="43.59023" lon="6.94347">
        <ele>74</ele>
        <time>2013-12-15T07:37:37.000Z</time>
      </trkpt>
      <trkpt lat="43.59011" lon="6.94358">
        <ele>71.199996948242</ele>
        <time>2013-12-15T07:37:41.000Z</time>
      </trkpt>
      <trkpt lat="43.59005" lon="6.94366">
        <ele>70.199996948242</ele>
        <time>2013-12-15T07:37:45.000Z</time>
      </trkpt>
      <trkpt lat="43.59004" lon="6.94359">
        <ele>68.400001525879</ele>
        <time>2013-12-15T07:37:48.000Z</time>
      </trkpt>
      <trkpt lat="43.59009" lon="6.94345">
        <ele>68.400001525879</ele>
        <time>2013-12-15T07:37:53.000Z</time>
      </trkpt>
      <trkpt lat="43.59011" lon="6.94342">
        <ele>68.599998474121</ele>
        <time>2013-12-15T07:37:54.000Z</time>
      </trkpt>
      <trkpt lat="43.5902" lon="6.9432">
        <ele>67</ele>
        <time>2013-12-15T07:37:59.000Z</time>
      </trkpt>
      <trkpt lat="43.59029" lon="6.94311">
        <ele>68.199996948242</ele>
        <time>2013-12-15T07:38:03.000Z</time>
      </trkpt>
      <trkpt lat="43.59035" lon="6.943">
        <ele>67.199996948242</ele>
        <time>2013-12-15T07:38:07.000Z</time>
      </trkpt>
      <trkpt lat="43.59043" lon="6.94282">
        <ele>64.800003051758</ele>
        <time>2013-12-15T07:38:13.000Z</time>
      </trkpt>
      <trkpt lat="43.59053" lon="6.9427">
        <ele>64.199996948242</ele>
        <time>2013-12-15T07:38:17.000Z</time>
      </trkpt>
      <trkpt lat="43.5906" lon="6.94246">
        <ele>59</ele>
        <time>2013-12-15T07:38:21.000Z</time>
      </trkpt>
      <trkpt lat="43.59067" lon="6.94229">
        <ele>56.599998474121</ele>
        <time>2013-12-15T07:38:24.000Z</time>
      </trkpt>
      <trkpt lat="43.59072" lon="6.94223">
        <ele>56</ele>
        <time>2013-12-15T07:38:25.000Z</time>
      </trkpt>
      <trkpt lat="43.59088" lon="6.94209">
        <ele>55.400001525879</ele>
        <time>2013-12-15T07:38:29.000Z</time>
      </trkpt>
      <trkpt lat="43.59093" lon="6.94204">
        <ele>54.799999237061</ele>
        <time>2013-12-15T07:38:31.000Z</time>
      </trkpt>
      <trkpt lat="43.59096" lon="6.94199">
        <ele>53.799999237061</ele>
        <time>2013-12-15T07:38:33.000Z</time>
      </trkpt>
      <trkpt lat="43.59111" lon="6.94185">
        <ele>51.599998474121</ele>
        <time>2013-12-15T07:38:37.000Z</time>
      </trkpt>
      <trkpt lat="43.59117" lon="6.94182">
        <ele>51.599998474121</ele>
        <time>2013-12-15T07:38:38.000Z</time>
      </trkpt>
      <trkpt lat="43.59127" lon="6.94177">
        <ele>51.200000762939</ele>
        <time>2013-12-15T07:38:41.000Z</time>
      </trkpt>
      <trkpt lat="43.59137" lon="6.94167">
        <ele>49.200000762939</ele>
        <time>2013-12-15T07:38:45.000Z</time>
      </trkpt>
      <trkpt lat="43.59137" lon="6.9415">
        <ele>46.799999237061</ele>
        <time>2013-12-15T07:38:49.000Z</time>
      </trkpt>
      <trkpt lat="43.59128" lon="6.94138">
        <ele>44</ele>
        <time>2013-12-15T07:38:54.000Z</time>
      </trkpt>
      <trkpt lat="43.59117" lon="6.94131">
        <ele>41.799999237061</ele>
        <time>2013-12-15T07:38:59.000Z</time>
      </trkpt>
      <trkpt lat="43.59116" lon="6.94129">
        <ele>41.400001525879</ele>
        <time>2013-12-15T07:39:03.000Z</time>
      </trkpt>
      <trkpt lat="43.59102" lon="6.94119">
        <ele>38.200000762939</ele>
        <time>2013-12-15T07:39:39.000Z</time>
      </trkpt>
      <trkpt lat="43.59089" lon="6.94111">
        <ele>35.400001525879</ele>
        <time>2013-12-15T07:39:43.000Z</time>
      </trkpt>
      <trkpt lat="43.59059" lon="6.94095">
        <ele>30.60000038147</ele>
        <time>2013-12-15T07:39:50.000Z</time>
      </trkpt>
      <trkpt lat="43.59027" lon="6.94077">
        <ele>27.200000762939</ele>
        <time>2013-12-15T07:39:57.000Z</time>
      </trkpt>
      <trkpt lat="43.58992" lon="6.94055">
        <ele>25.200000762939</ele>
        <time>2013-12-15T07:40:04.000Z</time>
      </trkpt>
      <trkpt lat="43.58954" lon="6.94032">
        <ele>24.799999237061</ele>
        <time>2013-12-15T07:40:11.000Z</time>
      </trkpt>
      <trkpt lat="43.58913" lon="6.94007">
        <ele>21.200000762939</ele>
        <time>2013-12-15T07:40:19.000Z</time>
      </trkpt>
      <trkpt lat="43.58885" lon="6.93992">
        <ele>21.200000762939</ele>
        <time>2013-12-15T07:40:25.000Z</time>
      </trkpt>
      <trkpt lat="43.58881" lon="6.93989">
        <ele>21.200000762939</ele>
        <time>2013-12-15T07:40:26.000Z</time>
      </trkpt>
      <trkpt lat="43.58871" lon="6.93976">
        <ele>20.60000038147</ele>
        <time>2013-12-15T07:40:29.000Z</time>
      </trkpt>
      <trkpt lat="43.58868" lon="6.93971">
        <ele>20.39999961853</ele>
        <time>2013-12-15T07:40:30.000Z</time>
      </trkpt>
      <trkpt lat="43.58848" lon="6.9394">
        <ele>18.39999961853</ele>
        <time>2013-12-15T07:40:37.000Z</time>
      </trkpt>
      <trkpt lat="43.58845" lon="6.93934">
        <ele>17.799999237061</ele>
        <time>2013-12-15T07:40:40.000Z</time>
      </trkpt>
      <trkpt lat="43.58842" lon="6.93931">
        <ele>17.60000038147</ele>
        <time>2013-12-15T07:40:43.000Z</time>
      </trkpt>
      <trkpt lat="43.58837" lon="6.93925">
        <ele>16.799999237061</ele>
        <time>2013-12-15T07:40:46.000Z</time>
      </trkpt>
      <trkpt lat="43.58818" lon="6.93915">
        <ele>15.800000190735</ele>
        <time>2013-12-15T07:40:52.000Z</time>
      </trkpt>
      <trkpt lat="43.58788" lon="6.93907">
        <ele>15.199999809265</ele>
        <time>2013-12-15T07:41:01.000Z</time>
      </trkpt>
      <trkpt lat="43.58768" lon="6.93902">
        <ele>15</ele>
        <time>2013-12-15T07:41:08.000Z</time>
      </trkpt>
      <trkpt lat="43.58764" lon="6.93901">
        <ele>15</ele>
        <time>2013-12-15T07:41:13.000Z</time>
      </trkpt>
      <trkpt lat="43.58758" lon="6.93904">
        <ele>15</ele>
        <time>2013-12-15T07:41:24.000Z</time>
      </trkpt>
      <trkpt lat="43.58746" lon="6.93916">
        <ele>15</ele>
        <time>2013-12-15T07:41:28.000Z</time>
      </trkpt>
      <trkpt lat="43.58736" lon="6.93933">
        <ele>15.199999809265</ele>
        <time>2013-12-15T07:41:33.000Z</time>
      </trkpt>
      <trkpt lat="43.58733" lon="6.93934">
        <ele>15.199999809265</ele>
        <time>2013-12-15T07:41:34.000Z</time>
      </trkpt>
      <trkpt lat="43.5873" lon="6.9393">
        <ele>15</ele>
        <time>2013-12-15T07:41:36.000Z</time>
      </trkpt>
      <trkpt lat="43.58736" lon="6.93918">
        <ele>14.800000190735</ele>
        <time>2013-12-15T07:41:39.000Z</time>
      </trkpt>
      <trkpt lat="43.58739" lon="6.93915">
        <ele>14.800000190735</ele>
        <time>2013-12-15T07:41:40.000Z</time>
      </trkpt>
      <trkpt lat="43.58754" lon="6.939">
        <ele>14.800000190735</ele>
        <time>2013-12-15T07:41:45.000Z</time>
      </trkpt>
      <trkpt lat="43.58761" lon="6.93894">
        <ele>14.800000190735</ele>
        <time>2013-12-15T07:41:50.000Z</time>
      </trkpt>
      <trkpt lat="43.58763" lon="6.93892">
        <ele>14.800000190735</ele>
        <time>2013-12-15T07:41:56.000Z</time>
      </trkpt>
      <trkpt lat="43.58767" lon="6.93891">
        <ele>14.800000190735</ele>
        <time>2013-12-15T07:41:58.000Z</time>
      </trkpt>
      <trkpt lat="43.5878" lon="6.93878">
        <ele>14.800000190735</ele>
        <time>2013-12-15T07:42:04.000Z</time>
      </trkpt>
      <trkpt lat="43.58796" lon="6.93865">
        <ele>14.60000038147</ele>
        <time>2013-12-15T07:42:09.000Z</time>
      </trkpt>
      <trkpt lat="43.58817" lon="6.93838">
        <ele>14.199999809265</ele>
        <time>2013-12-15T07:42:16.000Z</time>
      </trkpt>
      <trkpt lat="43.58826" lon="6.93817">
        <ele>13.800000190735</ele>
        <time>2013-12-15T07:42:21.000Z</time>
      </trkpt>
      <trkpt lat="43.58839" lon="6.93787">
        <ele>13.60000038147</ele>
        <time>2013-12-15T07:42:28.000Z</time>
      </trkpt>
      <trkpt lat="43.58859" lon="6.93756">
        <ele>13.800000190735</ele>
        <time>2013-12-15T07:42:35.000Z</time>
      </trkpt>
      <trkpt lat="43.5888" lon="6.93726">
        <ele>14.199999809265</ele>
        <time>2013-12-15T07:42:43.000Z</time>
      </trkpt>
      <trkpt lat="43.58899" lon="6.93698">
        <ele>14.800000190735</ele>
        <time>2013-12-15T07:42:51.000Z</time>
      </trkpt>
      <trkpt lat="43.5892" lon="6.9367">
        <ele>15.39999961853</ele>
        <time>2013-12-15T07:42:59.000Z</time>
      </trkpt>
      <trkpt lat="43.5894" lon="6.93642">
        <ele>17.60000038147</ele>
        <time>2013-12-15T07:43:07.000Z</time>
      </trkpt>
      <trkpt lat="43.58961" lon="6.93613">
        <ele>19.200000762939</ele>
        <time>2013-12-15T07:43:14.000Z</time>
      </trkpt>
      <trkpt lat="43.58988" lon="6.93568">
        <ele>19.60000038147</ele>
        <time>2013-12-15T07:43:23.000Z</time>
      </trkpt>
      <trkpt lat="43.59018" lon="6.93503">
        <ele>18.39999961853</ele>
        <time>2013-12-15T07:43:34.000Z</time>
      </trkpt>
      <trkpt lat="43.59028" lon="6.93479">
        <ele>18.200000762939</ele>
        <time>2013-12-15T07:43:38.000Z</time>
      </trkpt>
      <trkpt lat="43.59033" lon="6.93468">
        <ele>18.200000762939</ele>
        <time>2013-12-15T07:43:40.000Z</time>
      </trkpt>
      <trkpt lat="43.59053" lon="6.93425">
        <ele>18.200000762939</ele>
        <time>2013-12-15T07:43:48.000Z</time>
      </trkpt>
      <trkpt lat="43.59075" lon="6.93379">
        <ele>18.200000762939</ele>
        <time>2013-12-15T07:43:56.000Z</time>
      </trkpt>
      <trkpt lat="43.59098" lon="6.93342">
        <ele>19</ele>
        <time>2013-12-15T07:44:03.000Z</time>
      </trkpt>
      <trkpt lat="43.59118" lon="6.9331">
        <ele>19.200000762939</ele>
        <time>2013-12-15T07:44:09.000Z</time>
      </trkpt>
      <trkpt lat="43.59142" lon="6.93266">
        <ele>18.60000038147</ele>
        <time>2013-12-15T07:44:17.000Z</time>
      </trkpt>
      <trkpt lat="43.59156" lon="6.93224">
        <ele>17.799999237061</ele>
        <time>2013-12-15T07:44:23.000Z</time>
      </trkpt>
      <trkpt lat="43.5917" lon="6.93185">
        <ele>17.60000038147</ele>
        <time>2013-12-15T07:44:29.000Z</time>
      </trkpt>
      <trkpt lat="43.59178" lon="6.93166">
        <ele>17.200000762939</ele>
        <time>2013-12-15T07:44:32.000Z</time>
      </trkpt>
      <trkpt lat="43.59185" lon="6.93145">
        <ele>17.200000762939</ele>
        <time>2013-12-15T07:44:35.000Z</time>
      </trkpt>
      <trkpt lat="43.59202" lon="6.93122">
        <ele>17.39999961853</ele>
        <time>2013-12-15T07:44:39.000Z</time>
      </trkpt>
      <trkpt lat="43.59229" lon="6.93092">
        <ele>17.60000038147</ele>
        <time>2013-12-15T07:44:45.000Z</time>
      </trkpt>
      <trkpt lat="43.59263" lon="6.9305">
        <ele>18</ele>
        <time>2013-12-15T07:44:54.000Z</time>
      </trkpt>
      <trkpt lat="43.5929" lon="6.93021">
        <ele>17.60000038147</ele>
        <time>2013-12-15T07:45:01.000Z</time>
      </trkpt>
      <trkpt lat="43.59316" lon="6.92988">
        <ele>17.200000762939</ele>
        <time>2013-12-15T07:45:08.000Z</time>
      </trkpt>
      <trkpt lat="43.59329" lon="6.92959">
        <ele>17.39999961853</ele>
        <time>2013-12-15T07:45:13.000Z</time>
      </trkpt>
      <trkpt lat="43.59345" lon="6.92921">
        <ele>17.60000038147</ele>
        <time>2013-12-15T07:45:18.000Z</time>
      </trkpt>
      <trkpt lat="43.5937" lon="6.92859">
        <ele>16.799999237061</ele>
        <time>2013-12-15T07:45:26.000Z</time>
      </trkpt>
      <trkpt lat="43.59388" lon="6.92815">
        <ele>16</ele>
        <time>2013-12-15T07:45:32.000Z</time>
      </trkpt>
      <trkpt lat="43.594" lon="6.92781">
        <ele>15</ele>
        <time>2013-12-15T07:45:38.000Z</time>
      </trkpt>
      <trkpt lat="43.59403" lon="6.9277">
        <ele>14.800000190735</ele>
        <time>2013-12-15T07:45:41.000Z</time>
      </trkpt>
      <trkpt lat="43.59404" lon="6.92763">
        <ele>14.60000038147</ele>
        <time>2013-12-15T07:45:43.000Z</time>
      </trkpt>
      <trkpt lat="43.59404" lon="6.92757">
        <ele>14.39999961853</ele>
        <time>2013-12-15T07:45:45.000Z</time>
      </trkpt>
      <trkpt lat="43.59404" lon="6.92754">
        <ele>14.39999961853</ele>
        <time>2013-12-15T07:45:48.000Z</time>
      </trkpt>
      <trkpt lat="43.59405" lon="6.92755">
        <ele>14.39999961853</ele>
        <time>2013-12-15T07:46:12.000Z</time>
      </trkpt>
      <trkpt lat="43.59411" lon="6.9276">
        <ele>14.39999961853</ele>
        <time>2013-12-15T07:46:16.000Z</time>
      </trkpt>
      <trkpt lat="43.59414" lon="6.9276">
        <ele>14.199999809265</ele>
        <time>2013-12-15T07:46:17.000Z</time>
      </trkpt>
      <trkpt lat="43.59422" lon="6.9275">
        <ele>14.199999809265</ele>
        <time>2013-12-15T07:46:20.000Z</time>
      </trkpt>
      <trkpt lat="43.59424" lon="6.92744">
        <ele>14.39999961853</ele>
        <time>2013-12-15T07:46:21.000Z</time>
      </trkpt>
      <trkpt lat="43.59442" lon="6.92708">
        <ele>15.800000190735</ele>
        <time>2013-12-15T07:46:28.000Z</time>
      </trkpt>
      <trkpt lat="43.59455" lon="6.92682">
        <ele>17</ele>
        <time>2013-12-15T07:46:34.000Z</time>
      </trkpt>
      <trkpt lat="43.59469" lon="6.92656">
        <ele>18.60000038147</ele>
        <time>2013-12-15T07:46:41.000Z</time>
      </trkpt>
      <trkpt lat="43.59468" lon="6.92652">
        <ele>19</ele>
        <time>2013-12-15T07:46:42.000Z</time>
      </trkpt>
      <trkpt lat="43.59463" lon="6.92644">
        <ele>19.200000762939</ele>
        <time>2013-12-15T07:46:44.000Z</time>
      </trkpt>
      <trkpt lat="43.59456" lon="6.92621">
        <ele>20.39999961853</ele>
        <time>2013-12-15T07:46:49.000Z</time>
      </trkpt>
      <trkpt lat="43.59447" lon="6.92585">
        <ele>21.799999237061</ele>
        <time>2013-12-15T07:46:56.000Z</time>
      </trkpt>
      <trkpt lat="43.59431" lon="6.92549">
        <ele>21.60000038147</ele>
        <time>2013-12-15T07:47:03.000Z</time>
      </trkpt>
      <trkpt lat="43.59412" lon="6.92515">
        <ele>20.39999961853</ele>
        <time>2013-12-15T07:47:11.000Z</time>
      </trkpt>
      <trkpt lat="43.59397" lon="6.92494">
        <ele>20</ele>
        <time>2013-12-15T07:47:17.000Z</time>
      </trkpt>
      <trkpt lat="43.59372" lon="6.92482">
        <ele>19</ele>
        <time>2013-12-15T07:47:24.000Z</time>
      </trkpt>
      <trkpt lat="43.59355" lon="6.92463">
        <ele>18.799999237061</ele>
        <time>2013-12-15T07:47:29.000Z</time>
      </trkpt>
      <trkpt lat="43.5934" lon="6.92437">
        <ele>18.799999237061</ele>
        <time>2013-12-15T07:47:35.000Z</time>
      </trkpt>
      <trkpt lat="43.59322" lon="6.92399">
        <ele>19.200000762939</ele>
        <time>2013-12-15T07:47:43.000Z</time>
      </trkpt>
      <trkpt lat="43.59314" lon="6.92379">
        <ele>19.60000038147</ele>
        <time>2013-12-15T07:47:47.000Z</time>
      </trkpt>
      <trkpt lat="43.59307" lon="6.92365">
        <ele>20</ele>
        <time>2013-12-15T07:47:50.000Z</time>
      </trkpt>
      <trkpt lat="43.59284" lon="6.92327">
        <ele>20.799999237061</ele>
        <time>2013-12-15T07:47:58.000Z</time>
      </trkpt>
      <trkpt lat="43.59259" lon="6.92303">
        <ele>21.60000038147</ele>
        <time>2013-12-15T07:48:05.000Z</time>
      </trkpt>
      <trkpt lat="43.59229" lon="6.92274">
        <ele>21.39999961853</ele>
        <time>2013-12-15T07:48:14.000Z</time>
      </trkpt>
      <trkpt lat="43.59226" lon="6.9227">
        <ele>21.39999961853</ele>
        <time>2013-12-15T07:48:15.000Z</time>
      </trkpt>
      <trkpt lat="43.59221" lon="6.92261">
        <ele>21.39999961853</ele>
        <time>2013-12-15T07:48:17.000Z</time>
      </trkpt>
      <trkpt lat="43.59218" lon="6.92252">
        <ele>21.39999961853</ele>
        <time>2013-12-15T07:48:19.000Z</time>
      </trkpt>
      <trkpt lat="43.59216" lon="6.92232">
        <ele>21.39999961853</ele>
        <time>2013-12-15T07:48:23.000Z</time>
      </trkpt>
      <trkpt lat="43.59216" lon="6.92222">
        <ele>21.39999961853</ele>
        <time>2013-12-15T07:48:25.000Z</time>
      </trkpt>
      <trkpt lat="43.5922" lon="6.92191">
        <ele>22</ele>
        <time>2013-12-15T07:48:31.000Z</time>
      </trkpt>
      <trkpt lat="43.59226" lon="6.9215">
        <ele>22.39999961853</ele>
        <time>2013-12-15T07:48:38.000Z</time>
      </trkpt>
      <trkpt lat="43.59232" lon="6.92095">
        <ele>21.200000762939</ele>
        <time>2013-12-15T07:48:47.000Z</time>
      </trkpt>
      <trkpt lat="43.59239" lon="6.92051">
        <ele>20.799999237061</ele>
        <time>2013-12-15T07:48:55.000Z</time>
      </trkpt>
      <trkpt lat="43.59258" lon="6.92001">
        <ele>23.200000762939</ele>
        <time>2013-12-15T07:49:05.000Z</time>
      </trkpt>
      <trkpt lat="43.59269" lon="6.91963">
        <ele>25.39999961853</ele>
        <time>2013-12-15T07:49:12.000Z</time>
      </trkpt>
      <trkpt lat="43.59282" lon="6.91927">
        <ele>26.60000038147</ele>
        <time>2013-12-15T07:49:19.000Z</time>
      </trkpt>
      <trkpt lat="43.59303" lon="6.91883">
        <ele>26.200000762939</ele>
        <time>2013-12-15T07:49:28.000Z</time>
      </trkpt>
      <trkpt lat="43.59328" lon="6.91852">
        <ele>24.39999961853</ele>
        <time>2013-12-15T07:49:36.000Z</time>
      </trkpt>
      <trkpt lat="43.59355" lon="6.91831">
        <ele>23</ele>
        <time>2013-12-15T07:49:44.000Z</time>
      </trkpt>
      <trkpt lat="43.59376" lon="6.91813">
        <ele>23.200000762939</ele>
        <time>2013-12-15T07:49:51.000Z</time>
      </trkpt>
      <trkpt lat="43.59393" lon="6.91792">
        <ele>23.200000762939</ele>
        <time>2013-12-15T07:49:56.000Z</time>
      </trkpt>
      <trkpt lat="43.59414" lon="6.91765">
        <ele>23.39999961853</ele>
        <time>2013-12-15T07:50:02.000Z</time>
      </trkpt>
      <trkpt lat="43.59436" lon="6.9173">
        <ele>25</ele>
        <time>2013-12-15T07:50:10.000Z</time>
      </trkpt>
      <trkpt lat="43.59455" lon="6.91705">
        <ele>25.200000762939</ele>
        <time>2013-12-15T07:50:16.000Z</time>
      </trkpt>
      <trkpt lat="43.59462" lon="6.91696">
        <ele>25</ele>
        <time>2013-12-15T07:50:18.000Z</time>
      </trkpt>
      <trkpt lat="43.59468" lon="6.9169">
        <ele>25</ele>
        <time>2013-12-15T07:50:20.000Z</time>
      </trkpt>
      <trkpt lat="43.59479" lon="6.91681">
        <ele>24.60000038147</ele>
        <time>2013-12-15T07:50:23.000Z</time>
      </trkpt>
      <trkpt lat="43.59501" lon="6.91659">
        <ele>23.799999237061</ele>
        <time>2013-12-15T07:50:30.000Z</time>
      </trkpt>
      <trkpt lat="43.59519" lon="6.91641">
        <ele>25.799999237061</ele>
        <time>2013-12-15T07:50:36.000Z</time>
      </trkpt>
      <trkpt lat="43.59543" lon="6.91625">
        <ele>27.799999237061</ele>
        <time>2013-12-15T07:50:43.000Z</time>
      </trkpt>
      <trkpt lat="43.59563" lon="6.9161">
        <ele>27.60000038147</ele>
        <time>2013-12-15T07:50:49.000Z</time>
      </trkpt>
      <trkpt lat="43.59577" lon="6.9158">
        <ele>22.60000038147</ele>
        <time>2013-12-15T07:50:55.000Z</time>
      </trkpt>
      <trkpt lat="43.59596" lon="6.91539">
        <ele>24</ele>
        <time>2013-12-15T07:51:04.000Z</time>
      </trkpt>
      <trkpt lat="43.59613" lon="6.91504">
        <ele>23.200000762939</ele>
        <time>2013-12-15T07:51:12.000Z</time>
      </trkpt>
      <trkpt lat="43.59621" lon="6.91479">
        <ele>24.200000762939</ele>
        <time>2013-12-15T07:51:18.000Z</time>
      </trkpt>
      <trkpt lat="43.59621" lon="6.91475">
        <ele>24.200000762939</ele>
        <time>2013-12-15T07:51:19.000Z</time>
      </trkpt>
      <trkpt lat="43.59621" lon="6.9146">
        <ele>24.799999237061</ele>
        <time>2013-12-15T07:51:22.000Z</time>
      </trkpt>
      <trkpt lat="43.59626" lon="6.91439">
        <ele>25.200000762939</ele>
        <time>2013-12-15T07:51:26.000Z</time>
      </trkpt>
      <trkpt lat="43.59634" lon="6.91405">
        <ele>26.200000762939</ele>
        <time>2013-12-15T07:51:32.000Z</time>
      </trkpt>
      <trkpt lat="43.59639" lon="6.91392">
        <ele>26.60000038147</ele>
        <time>2013-12-15T07:51:35.000Z</time>
      </trkpt>
      <trkpt lat="43.59643" lon="6.91384">
        <ele>26.60000038147</ele>
        <time>2013-12-15T07:51:37.000Z</time>
      </trkpt>
      <trkpt lat="43.59657" lon="6.91379">
        <ele>23.60000038147</ele>
        <time>2013-12-15T07:51:41.000Z</time>
      </trkpt>
      <trkpt lat="43.59678" lon="6.91377">
        <ele>21.60000038147</ele>
        <time>2013-12-15T07:51:46.000Z</time>
      </trkpt>
      <trkpt lat="43.597" lon="6.91377">
        <ele>22.799999237061</ele>
        <time>2013-12-15T07:51:52.000Z</time>
      </trkpt>
      <trkpt lat="43.59712" lon="6.9138">
        <ele>23.799999237061</ele>
        <time>2013-12-15T07:51:56.000Z</time>
      </trkpt>
      <trkpt lat="43.59719" lon="6.91381">
        <ele>24.39999961853</ele>
        <time>2013-12-15T07:51:59.000Z</time>
      </trkpt>
      <trkpt lat="43.59722" lon="6.91381">
        <ele>24.39999961853</ele>
        <time>2013-12-15T07:52:00.000Z</time>
      </trkpt>
      <trkpt lat="43.59725" lon="6.91382">
        <ele>24.799999237061</ele>
        <time>2013-12-15T07:52:02.000Z</time>
      </trkpt>
      <trkpt lat="43.59732" lon="6.91386">
        <ele>25.799999237061</ele>
        <time>2013-12-15T07:52:04.000Z</time>
      </trkpt>
      <trkpt lat="43.59747" lon="6.91381">
        <ele>26.200000762939</ele>
        <time>2013-12-15T07:52:08.000Z</time>
      </trkpt>
      <trkpt lat="43.59767" lon="6.91371">
        <ele>27.799999237061</ele>
        <time>2013-12-15T07:52:14.000Z</time>
      </trkpt>
      <trkpt lat="43.59783" lon="6.91361">
        <ele>27.799999237061</ele>
        <time>2013-12-15T07:52:19.000Z</time>
      </trkpt>
      <trkpt lat="43.598" lon="6.91354">
        <ele>28</ele>
        <time>2013-12-15T07:52:24.000Z</time>
      </trkpt>
      <trkpt lat="43.59817" lon="6.91347">
        <ele>27.60000038147</ele>
        <time>2013-12-15T07:52:29.000Z</time>
      </trkpt>
      <trkpt lat="43.59847" lon="6.91329">
        <ele>24.200000762939</ele>
        <time>2013-12-15T07:52:38.000Z</time>
      </trkpt>
      <trkpt lat="43.5986" lon="6.91308">
        <ele>23.39999961853</ele>
        <time>2013-12-15T07:52:44.000Z</time>
      </trkpt>
      <trkpt lat="43.59865" lon="6.91281">
        <ele>22</ele>
        <time>2013-12-15T07:52:49.000Z</time>
      </trkpt>
      <trkpt lat="43.59873" lon="6.91264">
        <ele>21.60000038147</ele>
        <time>2013-12-15T07:52:53.000Z</time>
      </trkpt>
      <trkpt lat="43.59877" lon="6.91262">
        <ele>21.799999237061</ele>
        <time>2013-12-15T07:52:54.000Z</time>
      </trkpt>
      <trkpt lat="43.59884" lon="6.9126">
        <ele>22.200000762939</ele>
        <time>2013-12-15T07:52:57.000Z</time>
      </trkpt>
      <trkpt lat="43.59889" lon="6.91258">
        <ele>22.39999961853</ele>
        <time>2013-12-15T07:52:59.000Z</time>
      </trkpt>
      <trkpt lat="43.59895" lon="6.91258">
        <ele>22.799999237061</ele>
        <time>2013-12-15T07:53:02.000Z</time>
      </trkpt>
      <trkpt lat="43.59903" lon="6.91246">
        <ele>23.799999237061</ele>
        <time>2013-12-15T07:53:07.000Z</time>
      </trkpt>
      <trkpt lat="43.59906" lon="6.91243">
        <ele>24.60000038147</ele>
        <time>2013-12-15T07:53:09.000Z</time>
      </trkpt>
      <trkpt lat="43.59914" lon="6.91232">
        <ele>27.60000038147</ele>
        <time>2013-12-15T07:53:14.000Z</time>
      </trkpt>
      <trkpt lat="43.5992" lon="6.91232">
        <ele>28.39999961853</ele>
        <time>2013-12-15T07:53:18.000Z</time>
      </trkpt>
      <trkpt lat="43.59919" lon="6.91224">
        <ele>30</ele>
        <time>2013-12-15T07:53:22.000Z</time>
      </trkpt>
      <trkpt lat="43.59915" lon="6.91211">
        <ele>32.200000762939</ele>
        <time>2013-12-15T07:53:28.000Z</time>
      </trkpt>
      <trkpt lat="43.59912" lon="6.91199">
        <ele>34.200000762939</ele>
        <time>2013-12-15T07:53:33.000Z</time>
      </trkpt>
      <trkpt lat="43.59909" lon="6.91188">
        <ele>35.599998474121</ele>
        <time>2013-12-15T07:53:38.000Z</time>
      </trkpt>
      <trkpt lat="43.59909" lon="6.91186">
        <ele>36</ele>
        <time>2013-12-15T07:53:39.000Z</time>
      </trkpt>
      <trkpt lat="43.59908" lon="6.91177">
        <ele>37.799999237061</ele>
        <time>2013-12-15T07:53:43.000Z</time>
      </trkpt>
      <trkpt lat="43.59909" lon="6.91173">
        <ele>38.799999237061</ele>
        <time>2013-12-15T07:53:49.000Z</time>
      </trkpt>
      <trkpt lat="43.59909" lon="6.91167">
        <ele>40</ele>
        <time>2013-12-15T07:54:14.000Z</time>
      </trkpt>
      <trkpt lat="43.59908" lon="6.91163">
        <ele>40</ele>
        <time>2013-12-15T07:54:19.000Z</time>
      </trkpt>
      <trkpt lat="43.59909" lon="6.91159">
        <ele>40.799999237061</ele>
        <time>2013-12-15T07:54:27.000Z</time>
      </trkpt>
      <trkpt lat="43.59907" lon="6.91153">
        <ele>40.799999237061</ele>
        <time>2013-12-15T07:54:33.000Z</time>
      </trkpt>
      <trkpt lat="43.59907" lon="6.91151">
        <ele>41</ele>
        <time>2013-12-15T07:54:40.000Z</time>
      </trkpt>
      <trkpt lat="43.59905" lon="6.91138">
        <ele>41.599998474121</ele>
        <time>2013-12-15T07:54:48.000Z</time>
      </trkpt>
      <trkpt lat="43.599" lon="6.91128">
        <ele>41.200000762939</ele>
        <time>2013-12-15T07:54:52.000Z</time>
      </trkpt>
      <trkpt lat="43.599" lon="6.91119">
        <ele>41.799999237061</ele>
        <time>2013-12-15T07:54:56.000Z</time>
      </trkpt>
      <trkpt lat="43.59899" lon="6.91106">
        <ele>42.799999237061</ele>
        <time>2013-12-15T07:55:00.000Z</time>
      </trkpt>
      <trkpt lat="43.599" lon="6.91085">
        <ele>44.799999237061</ele>
        <time>2013-12-15T07:55:07.000Z</time>
      </trkpt>
      <trkpt lat="43.59896" lon="6.91069">
        <ele>42.799999237061</ele>
        <time>2013-12-15T07:55:14.000Z</time>
      </trkpt>
      <trkpt lat="43.59887" lon="6.91055">
        <ele>39.599998474121</ele>
        <time>2013-12-15T07:55:19.000Z</time>
      </trkpt>
      <trkpt lat="43.59887" lon="6.91047">
        <ele>39.200000762939</ele>
        <time>2013-12-15T07:55:21.000Z</time>
      </trkpt>
      <trkpt lat="43.59887" lon="6.91044">
        <ele>39</ele>
        <time>2013-12-15T07:55:23.000Z</time>
      </trkpt>
      <trkpt lat="43.59883" lon="6.91031">
        <ele>37.200000762939</ele>
        <time>2013-12-15T07:55:28.000Z</time>
      </trkpt>
      <trkpt lat="43.59883" lon="6.91029">
        <ele>37.200000762939</ele>
        <time>2013-12-15T07:55:32.000Z</time>
      </trkpt>
      <trkpt lat="43.59882" lon="6.91025">
        <ele>36.799999237061</ele>
        <time>2013-12-15T07:55:46.000Z</time>
      </trkpt>
      <trkpt lat="43.59881" lon="6.91023">
        <ele>36.400001525879</ele>
        <time>2013-12-15T07:55:50.000Z</time>
      </trkpt>
      <trkpt lat="43.59881" lon="6.91022">
        <ele>36.400001525879</ele>
        <time>2013-12-15T07:55:54.000Z</time>
      </trkpt>
      <trkpt lat="43.59881" lon="6.91015">
        <ele>36</ele>
        <time>2013-12-15T07:56:02.000Z</time>
      </trkpt>
      <trkpt lat="43.59879" lon="6.91014">
        <ele>35.400001525879</ele>
        <time>2013-12-15T07:56:07.000Z</time>
      </trkpt>
      <trkpt lat="43.59878" lon="6.91013">
        <ele>35.200000762939</ele>
        <time>2013-12-15T07:56:12.000Z</time>
      </trkpt>
      <trkpt lat="43.59875" lon="6.91014">
        <ele>34.599998474121</ele>
        <time>2013-12-15T07:56:19.000Z</time>
      </trkpt>
      <trkpt lat="43.59873" lon="6.91014">
        <ele>34.200000762939</ele>
        <time>2013-12-15T07:56:24.000Z</time>
      </trkpt>
      <trkpt lat="43.59872" lon="6.91009">
        <ele>33.599998474121</ele>
        <time>2013-12-15T07:56:31.000Z</time>
      </trkpt>
      <trkpt lat="43.59872" lon="6.91009">
        <ele>33.599998474121</ele>
        <time>2013-12-15T07:56:39.000Z</time>
      </trkpt>
      <trkpt lat="43.59868" lon="6.91003">
        <ele>32.599998474121</ele>
        <time>2013-12-15T07:56:46.000Z</time>
      </trkpt>
      <trkpt lat="43.59861" lon="6.90994">
        <ele>30.799999237061</ele>
        <time>2013-12-15T07:57:54.000Z</time>
      </trkpt>
      <trkpt lat="43.59867" lon="6.90986">
        <ele>31.39999961853</ele>
        <time>2013-12-15T08:04:04.000Z</time>
      </trkpt>
      <trkpt lat="43.59875" lon="6.90965">
        <ele>31</ele>
        <time>2013-12-15T08:04:09.000Z</time>
      </trkpt>
      <trkpt lat="43.59883" lon="6.90935">
        <ele>29</ele>
        <time>2013-12-15T08:04:14.000Z</time>
      </trkpt>
      <trkpt lat="43.59889" lon="6.90903">
        <ele>27.39999961853</ele>
        <time>2013-12-15T08:04:20.000Z</time>
      </trkpt>
      <trkpt lat="43.59897" lon="6.90887">
        <ele>27.200000762939</ele>
        <time>2013-12-15T08:04:24.000Z</time>
      </trkpt>
      <trkpt lat="43.59902" lon="6.9088">
        <ele>26.799999237061</ele>
        <time>2013-12-15T08:04:26.000Z</time>
      </trkpt>
      <trkpt lat="43.59912" lon="6.90852">
        <ele>24.799999237061</ele>
        <time>2013-12-15T08:04:32.000Z</time>
      </trkpt>
      <trkpt lat="43.59928" lon="6.90821">
        <ele>26</ele>
        <time>2013-12-15T08:04:39.000Z</time>
      </trkpt>
      <trkpt lat="43.59936" lon="6.90816">
        <ele>27.60000038147</ele>
        <time>2013-12-15T08:04:41.000Z</time>
      </trkpt>
      <trkpt lat="43.59943" lon="6.90815">
        <ele>28.799999237061</ele>
        <time>2013-12-15T08:04:43.000Z</time>
      </trkpt>
      <trkpt lat="43.59957" lon="6.90799">
        <ele>30</ele>
        <time>2013-12-15T08:04:47.000Z</time>
      </trkpt>
      <trkpt lat="43.59961" lon="6.90795">
        <ele>30.200000762939</ele>
        <time>2013-12-15T08:04:48.000Z</time>
      </trkpt>
      <trkpt lat="43.59975" lon="6.90788">
        <ele>30.799999237061</ele>
        <time>2013-12-15T08:04:51.000Z</time>
      </trkpt>
      <trkpt lat="43.59989" lon="6.90785">
        <ele>31.39999961853</ele>
        <time>2013-12-15T08:04:54.000Z</time>
      </trkpt>
      <trkpt lat="43.59994" lon="6.90784">
        <ele>31.799999237061</ele>
        <time>2013-12-15T08:04:55.000Z</time>
      </trkpt>
      <trkpt lat="43.60003" lon="6.90782">
        <ele>32</ele>
        <time>2013-12-15T08:04:57.000Z</time>
      </trkpt>
      <trkpt lat="43.60013" lon="6.90778">
        <ele>32.200000762939</ele>
        <time>2013-12-15T08:05:00.000Z</time>
      </trkpt>
      <trkpt lat="43.60031" lon="6.90777">
        <ele>33.799999237061</ele>
        <time>2013-12-15T08:05:04.000Z</time>
      </trkpt>
      <trkpt lat="43.60047" lon="6.90769">
        <ele>33.200000762939</ele>
        <time>2013-12-15T08:05:08.000Z</time>
      </trkpt>
      <trkpt lat="43.60052" lon="6.90765">
        <ele>32.400001525879</ele>
        <time>2013-12-15T08:05:09.000Z</time>
      </trkpt>
      <trkpt lat="43.60062" lon="6.90753">
        <ele>29.60000038147</ele>
        <time>2013-12-15T08:05:12.000Z</time>
      </trkpt>
      <trkpt lat="43.60069" lon="6.90747">
        <ele>29.200000762939</ele>
        <time>2013-12-15T08:05:14.000Z</time>
      </trkpt>
      <trkpt lat="43.60071" lon="6.90743">
        <ele>29.60000038147</ele>
        <time>2013-12-15T08:05:16.000Z</time>
      </trkpt>
      <trkpt lat="43.60072" lon="6.9074">
        <ele>29.799999237061</ele>
        <time>2013-12-15T08:05:18.000Z</time>
      </trkpt>
      <trkpt lat="43.60076" lon="6.90741">
        <ele>30</ele>
        <time>2013-12-15T08:05:21.000Z</time>
      </trkpt>
      <trkpt lat="43.60079" lon="6.90741">
        <ele>30.200000762939</ele>
        <time>2013-12-15T08:05:22.000Z</time>
      </trkpt>
      <trkpt lat="43.60095" lon="6.90739">
        <ele>32.200000762939</ele>
        <time>2013-12-15T08:05:27.000Z</time>
      </trkpt>
      <trkpt lat="43.60117" lon="6.90734">
        <ele>34.799999237061</ele>
        <time>2013-12-15T08:05:33.000Z</time>
      </trkpt>
      <trkpt lat="43.60131" lon="6.90723">
        <ele>35.400001525879</ele>
        <time>2013-12-15T08:05:36.000Z</time>
      </trkpt>
      <trkpt lat="43.60136" lon="6.90718">
        <ele>35.200000762939</ele>
        <time>2013-12-15T08:05:37.000Z</time>
      </trkpt>
      <trkpt lat="43.60151" lon="6.907">
        <ele>33.599998474121</ele>
        <time>2013-12-15T08:05:41.000Z</time>
      </trkpt>
      <trkpt lat="43.60165" lon="6.90689">
        <ele>31.60000038147</ele>
        <time>2013-12-15T08:05:45.000Z</time>
      </trkpt>
      <trkpt lat="43.60169" lon="6.90686">
        <ele>31.39999961853</ele>
        <time>2013-12-15T08:05:46.000Z</time>
      </trkpt>
      <trkpt lat="43.6018" lon="6.90679">
        <ele>32</ele>
        <time>2013-12-15T08:05:49.000Z</time>
      </trkpt>
      <trkpt lat="43.60183" lon="6.90674">
        <ele>31.60000038147</ele>
        <time>2013-12-15T08:05:50.000Z</time>
      </trkpt>
      <trkpt lat="43.60185" lon="6.90669">
        <ele>31</ele>
        <time>2013-12-15T08:05:51.000Z</time>
      </trkpt>
      <trkpt lat="43.60199" lon="6.90645">
        <ele>32.200000762939</ele>
        <time>2013-12-15T08:05:56.000Z</time>
      </trkpt>
      <trkpt lat="43.60213" lon="6.9063">
        <ele>32.200000762939</ele>
        <time>2013-12-15T08:06:00.000Z</time>
      </trkpt>
      <trkpt lat="43.60221" lon="6.90623">
        <ele>31.799999237061</ele>
        <time>2013-12-15T08:06:02.000Z</time>
      </trkpt>
      <trkpt lat="43.60228" lon="6.90616">
        <ele>31</ele>
        <time>2013-12-15T08:06:04.000Z</time>
      </trkpt>
      <trkpt lat="43.60237" lon="6.90612">
        <ele>30.39999961853</ele>
        <time>2013-12-15T08:06:06.000Z</time>
      </trkpt>
      <trkpt lat="43.60242" lon="6.90606">
        <ele>29.200000762939</ele>
        <time>2013-12-15T08:06:08.000Z</time>
      </trkpt>
      <trkpt lat="43.6025" lon="6.90598">
        <ele>27.39999961853</ele>
        <time>2013-12-15T08:06:10.000Z</time>
      </trkpt>
      <trkpt lat="43.60265" lon="6.90595">
        <ele>28</ele>
        <time>2013-12-15T08:06:14.000Z</time>
      </trkpt>
      <trkpt lat="43.60266" lon="6.90594">
        <ele>28</ele>
        <time>2013-12-15T08:06:15.000Z</time>
      </trkpt>
      <trkpt lat="43.60273" lon="6.90587">
        <ele>27.200000762939</ele>
        <time>2013-12-15T08:06:17.000Z</time>
      </trkpt>
      <trkpt lat="43.60286" lon="6.90586">
        <ele>28.39999961853</ele>
        <time>2013-12-15T08:06:21.000Z</time>
      </trkpt>
      <trkpt lat="43.60285" lon="6.90588">
        <ele>28.60000038147</ele>
        <time>2013-12-15T08:06:24.000Z</time>
      </trkpt>
      <trkpt lat="43.60289" lon="6.90584">
        <ele>28.39999961853</ele>
        <time>2013-12-15T08:06:29.000Z</time>
      </trkpt>
      <trkpt lat="43.60291" lon="6.90581">
        <ele>28.39999961853</ele>
        <time>2013-12-15T08:06:32.000Z</time>
      </trkpt>
      <trkpt lat="43.60293" lon="6.90577">
        <ele>28.60000038147</ele>
        <time>2013-12-15T08:06:36.000Z</time>
      </trkpt>
      <trkpt lat="43.60294" lon="6.90574">
        <ele>28.60000038147</ele>
        <time>2013-12-15T08:06:43.000Z</time>
      </trkpt>
      <trkpt lat="43.60295" lon="6.90571">
        <ele>28.60000038147</ele>
        <time>2013-12-15T08:06:49.000Z</time>
      </trkpt>
      <trkpt lat="43.60299" lon="6.90562">
        <ele>28.799999237061</ele>
        <time>2013-12-15T08:06:55.000Z</time>
      </trkpt>
      <trkpt lat="43.603" lon="6.90555">
        <ele>28.799999237061</ele>
        <time>2013-12-15T08:06:59.000Z</time>
      </trkpt>
      <trkpt lat="43.60303" lon="6.90549">
        <ele>28.799999237061</ele>
        <time>2013-12-15T08:07:01.000Z</time>
      </trkpt>
      <trkpt lat="43.60305" lon="6.90542">
        <ele>28.799999237061</ele>
        <time>2013-12-15T08:07:03.000Z</time>
      </trkpt>
      <trkpt lat="43.60308" lon="6.90535">
        <ele>28.799999237061</ele>
        <time>2013-12-15T08:07:08.000Z</time>
      </trkpt>
      <trkpt lat="43.60312" lon="6.90532">
        <ele>28.799999237061</ele>
        <time>2013-12-15T08:07:13.000Z</time>
      </trkpt>
      <trkpt lat="43.60314" lon="6.90522">
        <ele>28.60000038147</ele>
        <time>2013-12-15T08:07:20.000Z</time>
      </trkpt>
      <trkpt lat="43.60316" lon="6.90517">
        <ele>28.39999961853</ele>
        <time>2013-12-15T08:07:23.000Z</time>
      </trkpt>
      <trkpt lat="43.60317" lon="6.90514">
        <ele>28.39999961853</ele>
        <time>2013-12-15T08:07:26.000Z</time>
      </trkpt>
      <trkpt lat="43.60317" lon="6.90512">
        <ele>28.200000762939</ele>
        <time>2013-12-15T08:07:28.000Z</time>
      </trkpt>
      <trkpt lat="43.6032" lon="6.90507">
        <ele>28.200000762939</ele>
        <time>2013-12-15T08:07:31.000Z</time>
      </trkpt>
      <trkpt lat="43.60325" lon="6.90488">
        <ele>28.60000038147</ele>
        <time>2013-12-15T08:07:36.000Z</time>
      </trkpt>
      <trkpt lat="43.60328" lon="6.90454">
        <ele>30.200000762939</ele>
        <time>2013-12-15T08:07:41.000Z</time>
      </trkpt>
      <trkpt lat="43.60324" lon="6.90432">
        <ele>31.200000762939</ele>
        <time>2013-12-15T08:07:45.000Z</time>
      </trkpt>
      <trkpt lat="43.60323" lon="6.90425">
        <ele>31.60000038147</ele>
        <time>2013-12-15T08:07:46.000Z</time>
      </trkpt>
      <trkpt lat="43.60315" lon="6.90399">
        <ele>32.599998474121</ele>
        <time>2013-12-15T08:07:50.000Z</time>
      </trkpt>
      <trkpt lat="43.60307" lon="6.90348">
        <ele>34.400001525879</ele>
        <time>2013-12-15T08:07:58.000Z</time>
      </trkpt>
      <trkpt lat="43.60307" lon="6.90336">
        <ele>35</ele>
        <time>2013-12-15T08:08:00.000Z</time>
      </trkpt>
      <trkpt lat="43.60311" lon="6.90322">
        <ele>34.400001525879</ele>
        <time>2013-12-15T08:08:03.000Z</time>
      </trkpt>
      <trkpt lat="43.60313" lon="6.90318">
        <ele>34.200000762939</ele>
        <time>2013-12-15T08:08:04.000Z</time>
      </trkpt>
      <trkpt lat="43.60314" lon="6.90309">
        <ele>33.599998474121</ele>
        <time>2013-12-15T08:08:06.000Z</time>
      </trkpt>
      <trkpt lat="43.60316" lon="6.90302">
        <ele>33</ele>
        <time>2013-12-15T08:08:08.000Z</time>
      </trkpt>
      <trkpt lat="43.60321" lon="6.90283">
        <ele>31.200000762939</ele>
        <time>2013-12-15T08:08:14.000Z</time>
      </trkpt>
      <trkpt lat="43.60322" lon="6.90269">
        <ele>30</ele>
        <time>2013-12-15T08:08:21.000Z</time>
      </trkpt>
      <trkpt lat="43.60322" lon="6.90264">
        <ele>29.60000038147</ele>
        <time>2013-12-15T08:08:27.000Z</time>
      </trkpt>
      <trkpt lat="43.60323" lon="6.90263">
        <ele>29.200000762939</ele>
        <time>2013-12-15T08:08:35.000Z</time>
      </trkpt>
      <trkpt lat="43.60327" lon="6.9026">
        <ele>28.39999961853</ele>
        <time>2013-12-15T08:08:49.000Z</time>
      </trkpt>
      <trkpt lat="43.60332" lon="6.90256">
        <ele>27</ele>
        <time>2013-12-15T08:08:53.000Z</time>
      </trkpt>
      <trkpt lat="43.60348" lon="6.90252">
        <ele>28.60000038147</ele>
        <time>2013-12-15T08:09:00.000Z</time>
      </trkpt>
      <trkpt lat="43.6037" lon="6.90244">
        <ele>31.60000038147</ele>
        <time>2013-12-15T08:09:06.000Z</time>
      </trkpt>
      <trkpt lat="43.60402" lon="6.90229">
        <ele>34.400001525879</ele>
        <time>2013-12-15T08:09:14.000Z</time>
      </trkpt>
      <trkpt lat="43.60431" lon="6.90219">
        <ele>34.599998474121</ele>
        <time>2013-12-15T08:09:20.000Z</time>
      </trkpt>
      <trkpt lat="43.60436" lon="6.90216">
        <ele>34.200000762939</ele>
        <time>2013-12-15T08:09:21.000Z</time>
      </trkpt>
      <trkpt lat="43.60447" lon="6.90206">
        <ele>32.799999237061</ele>
        <time>2013-12-15T08:09:24.000Z</time>
      </trkpt>
      <trkpt lat="43.60451" lon="6.90203">
        <ele>32.400001525879</ele>
        <time>2013-12-15T08:09:25.000Z</time>
      </trkpt>
      <trkpt lat="43.60455" lon="6.90201">
        <ele>32.200000762939</ele>
        <time>2013-12-15T08:09:26.000Z</time>
      </trkpt>
      <trkpt lat="43.60483" lon="6.90193">
        <ele>31.200000762939</ele>
        <time>2013-12-15T08:09:32.000Z</time>
      </trkpt>
      <trkpt lat="43.60498" lon="6.9019">
        <ele>30.799999237061</ele>
        <time>2013-12-15T08:09:36.000Z</time>
      </trkpt>
      <trkpt lat="43.6051" lon="6.90192">
        <ele>30.39999961853</ele>
        <time>2013-12-15T08:09:39.000Z</time>
      </trkpt>
      <trkpt lat="43.60521" lon="6.90198">
        <ele>31</ele>
        <time>2013-12-15T08:09:42.000Z</time>
      </trkpt>
      <trkpt lat="43.60534" lon="6.90207">
        <ele>31.39999961853</ele>
        <time>2013-12-15T08:09:46.000Z</time>
      </trkpt>
      <trkpt lat="43.60556" lon="6.90233">
        <ele>33.200000762939</ele>
        <time>2013-12-15T08:09:54.000Z</time>
      </trkpt>
      <trkpt lat="43.60574" lon="6.90269">
        <ele>35.799999237061</ele>
        <time>2013-12-15T08:10:02.000Z</time>
      </trkpt>
      <trkpt lat="43.60593" lon="6.90308">
        <ele>38.400001525879</ele>
        <time>2013-12-15T08:10:10.000Z</time>
      </trkpt>
      <trkpt lat="43.6061" lon="6.90333">
        <ele>38.799999237061</ele>
        <time>2013-12-15T08:10:16.000Z</time>
      </trkpt>
      <trkpt lat="43.60614" lon="6.90357">
        <ele>39.599998474121</ele>
        <time>2013-12-15T08:10:20.000Z</time>
      </trkpt>
      <trkpt lat="43.60605" lon="6.90388">
        <ele>42.200000762939</ele>
        <time>2013-12-15T08:10:25.000Z</time>
      </trkpt>
      <trkpt lat="43.60597" lon="6.90406">
        <ele>43.599998474121</ele>
        <time>2013-12-15T08:10:28.000Z</time>
      </trkpt>
      <trkpt lat="43.60588" lon="6.9042">
        <ele>44.599998474121</ele>
        <time>2013-12-15T08:10:31.000Z</time>
      </trkpt>
      <trkpt lat="43.60586" lon="6.90426">
        <ele>44.599998474121</ele>
        <time>2013-12-15T08:10:32.000Z</time>
      </trkpt>
      <trkpt lat="43.60578" lon="6.90444">
        <ele>45.400001525879</ele>
        <time>2013-12-15T08:10:36.000Z</time>
      </trkpt>
      <trkpt lat="43.60576" lon="6.90448">
        <ele>45.400001525879</ele>
        <time>2013-12-15T08:10:37.000Z</time>
      </trkpt>
      <trkpt lat="43.60562" lon="6.90477">
        <ele>46.200000762939</ele>
        <time>2013-12-15T08:10:44.000Z</time>
      </trkpt>
      <trkpt lat="43.60547" lon="6.90513">
        <ele>46.400001525879</ele>
        <time>2013-12-15T08:10:52.000Z</time>
      </trkpt>
      <trkpt lat="43.60531" lon="6.90552">
        <ele>46.599998474121</ele>
        <time>2013-12-15T08:11:01.000Z</time>
      </trkpt>
      <trkpt lat="43.60519" lon="6.90581">
        <ele>45.599998474121</ele>
        <time>2013-12-15T08:11:08.000Z</time>
      </trkpt>
      <trkpt lat="43.60504" lon="6.90616">
        <ele>46.200000762939</ele>
        <time>2013-12-15T08:11:16.000Z</time>
      </trkpt>
      <trkpt lat="43.60488" lon="6.90657">
        <ele>48</ele>
        <time>2013-12-15T08:11:25.000Z</time>
      </trkpt>
      <trkpt lat="43.60477" lon="6.90687">
        <ele>49.599998474121</ele>
        <time>2013-12-15T08:11:32.000Z</time>
      </trkpt>
      <trkpt lat="43.60463" lon="6.9072">
        <ele>51.200000762939</ele>
        <time>2013-12-15T08:11:40.000Z</time>
      </trkpt>
      <trkpt lat="43.60446" lon="6.90759">
        <ele>52.400001525879</ele>
        <time>2013-12-15T08:11:49.000Z</time>
      </trkpt>
      <trkpt lat="43.60434" lon="6.90794">
        <ele>52.599998474121</ele>
        <time>2013-12-15T08:11:56.000Z</time>
      </trkpt>
      <trkpt lat="43.60419" lon="6.90841">
        <ele>52.200000762939</ele>
        <time>2013-12-15T08:12:05.000Z</time>
      </trkpt>
      <trkpt lat="43.60407" lon="6.90902">
        <ele>51.599998474121</ele>
        <time>2013-12-15T08:12:15.000Z</time>
      </trkpt>
      <trkpt lat="43.60403" lon="6.90946">
        <ele>50.599998474121</ele>
        <time>2013-12-15T08:12:22.000Z</time>
      </trkpt>
      <trkpt lat="43.60404" lon="6.90984">
        <ele>49.599998474121</ele>
        <time>2013-12-15T08:12:29.000Z</time>
      </trkpt>
      <trkpt lat="43.60408" lon="6.90989">
        <ele>49.799999237061</ele>
        <time>2013-12-15T08:12:33.000Z</time>
      </trkpt>
      <trkpt lat="43.6041" lon="6.90987">
        <ele>50</ele>
        <time>2013-12-15T08:12:35.000Z</time>
      </trkpt>
      <trkpt lat="43.60412" lon="6.90988">
        <ele>50</ele>
        <time>2013-12-15T08:12:36.000Z</time>
      </trkpt>
      <trkpt lat="43.60417" lon="6.90989">
        <ele>50.400001525879</ele>
        <time>2013-12-15T08:12:39.000Z</time>
      </trkpt>
      <trkpt lat="43.60427" lon="6.90991">
        <ele>51.400001525879</ele>
        <time>2013-12-15T08:12:45.000Z</time>
      </trkpt>
      <trkpt lat="43.60438" lon="6.90992">
        <ele>52.599998474121</ele>
        <time>2013-12-15T08:12:53.000Z</time>
      </trkpt>
      <trkpt lat="43.60451" lon="6.90995">
        <ele>54.200000762939</ele>
        <time>2013-12-15T08:13:01.000Z</time>
      </trkpt>
      <trkpt lat="43.60466" lon="6.90997">
        <ele>56</ele>
        <time>2013-12-15T08:13:10.000Z</time>
      </trkpt>
      <trkpt lat="43.6048" lon="6.91">
        <ele>57.599998474121</ele>
        <time>2013-12-15T08:13:19.000Z</time>
      </trkpt>
      <trkpt lat="43.60493" lon="6.91001">
        <ele>59.200000762939</ele>
        <time>2013-12-15T08:13:28.000Z</time>
      </trkpt>
      <trkpt lat="43.6051" lon="6.91003">
        <ele>61.200000762939</ele>
        <time>2013-12-15T08:13:39.000Z</time>
      </trkpt>
      <trkpt lat="43.60523" lon="6.91003">
        <ele>62.799999237061</ele>
        <time>2013-12-15T08:13:48.000Z</time>
      </trkpt>
      <trkpt lat="43.60531" lon="6.91003">
        <ele>64</ele>
        <time>2013-12-15T08:13:54.000Z</time>
      </trkpt>
      <trkpt lat="43.60542" lon="6.91003">
        <ele>65.400001525879</ele>
        <time>2013-12-15T08:14:01.000Z</time>
      </trkpt>
      <trkpt lat="43.60559" lon="6.91002">
        <ele>67.599998474121</ele>
        <time>2013-12-15T08:14:11.000Z</time>
      </trkpt>
      <trkpt lat="43.60575" lon="6.91002">
        <ele>69.800003051758</ele>
        <time>2013-12-15T08:14:21.000Z</time>
      </trkpt>
      <trkpt lat="43.6059" lon="6.91">
        <ele>71.400001525879</ele>
        <time>2013-12-15T08:14:30.000Z</time>
      </trkpt>
      <trkpt lat="43.60604" lon="6.90998">
        <ele>72</ele>
        <time>2013-12-15T08:14:38.000Z</time>
      </trkpt>
      <trkpt lat="43.60617" lon="6.91">
        <ele>72.599998474121</ele>
        <time>2013-12-15T08:14:45.000Z</time>
      </trkpt>
      <trkpt lat="43.60636" lon="6.91004">
        <ele>73.400001525879</ele>
        <time>2013-12-15T08:14:54.000Z</time>
      </trkpt>
      <trkpt lat="43.60652" lon="6.91006">
        <ele>74.199996948242</ele>
        <time>2013-12-15T08:15:01.000Z</time>
      </trkpt>
      <trkpt lat="43.6067" lon="6.91007">
        <ele>75</ele>
        <time>2013-12-15T08:15:07.000Z</time>
      </trkpt>
      <trkpt lat="43.60694" lon="6.91008">
        <ele>75</ele>
        <time>2013-12-15T08:15:12.000Z</time>
      </trkpt>
      <trkpt lat="43.60715" lon="6.91005">
        <ele>75.199996948242</ele>
        <time>2013-12-15T08:15:18.000Z</time>
      </trkpt>
      <trkpt lat="43.60737" lon="6.91">
        <ele>75.800003051758</ele>
        <time>2013-12-15T08:15:25.000Z</time>
      </trkpt>
      <trkpt lat="43.60752" lon="6.90993">
        <ele>76.400001525879</ele>
        <time>2013-12-15T08:15:30.000Z</time>
      </trkpt>
      <trkpt lat="43.60768" lon="6.90984">
        <ele>78.400001525879</ele>
        <time>2013-12-15T08:15:37.000Z</time>
      </trkpt>
      <trkpt lat="43.60781" lon="6.90974">
        <ele>80</ele>
        <time>2013-12-15T08:15:44.000Z</time>
      </trkpt>
      <trkpt lat="43.60792" lon="6.90966">
        <ele>81.400001525879</ele>
        <time>2013-12-15T08:15:51.000Z</time>
      </trkpt>
      <trkpt lat="43.60804" lon="6.90962">
        <ele>83</ele>
        <time>2013-12-15T08:15:59.000Z</time>
      </trkpt>
      <trkpt lat="43.60818" lon="6.9096">
        <ele>84.599998474121</ele>
        <time>2013-12-15T08:16:08.000Z</time>
      </trkpt>
      <trkpt lat="43.60833" lon="6.90956">
        <ele>86.599998474121</ele>
        <time>2013-12-15T08:16:18.000Z</time>
      </trkpt>
      <trkpt lat="43.60849" lon="6.90952">
        <ele>87.199996948242</ele>
        <time>2013-12-15T08:16:26.000Z</time>
      </trkpt>
      <trkpt lat="43.6086" lon="6.90948">
        <ele>88</ele>
        <time>2013-12-15T08:16:33.000Z</time>
      </trkpt>
      <trkpt lat="43.60875" lon="6.9094">
        <ele>89</ele>
        <time>2013-12-15T08:16:38.000Z</time>
      </trkpt>
      <trkpt lat="43.60898" lon="6.90926">
        <ele>91</ele>
        <time>2013-12-15T08:16:44.000Z</time>
      </trkpt>
      <trkpt lat="43.60914" lon="6.9091">
        <ele>92.400001525879</ele>
        <time>2013-12-15T08:16:50.000Z</time>
      </trkpt>
      <trkpt lat="43.60923" lon="6.90895">
        <ele>93</ele>
        <time>2013-12-15T08:16:55.000Z</time>
      </trkpt>
      <trkpt lat="43.60938" lon="6.90879">
        <ele>95</ele>
        <time>2013-12-15T08:17:02.000Z</time>
      </trkpt>
      <trkpt lat="43.6095" lon="6.9086">
        <ele>96.599998474121</ele>
        <time>2013-12-15T08:17:09.000Z</time>
      </trkpt>
      <trkpt lat="43.6096" lon="6.90843">
        <ele>98.199996948242</ele>
        <time>2013-12-15T08:17:15.000Z</time>
      </trkpt>
      <trkpt lat="43.60978" lon="6.90819">
        <ele>99</ele>
        <time>2013-12-15T08:17:24.000Z</time>
      </trkpt>
      <trkpt lat="43.60987" lon="6.90807">
        <ele>99</ele>
        <time>2013-12-15T08:17:30.000Z</time>
      </trkpt>
      <trkpt lat="43.60998" lon="6.90796">
        <ele>99.199996948242</ele>
        <time>2013-12-15T08:17:38.000Z</time>
      </trkpt>
      <trkpt lat="43.61011" lon="6.90782">
        <ele>99.599998474121</ele>
        <time>2013-12-15T08:17:47.000Z</time>
      </trkpt>
      <trkpt lat="43.61027" lon="6.90769">
        <ele>100.19999694824</ele>
        <time>2013-12-15T08:17:56.000Z</time>
      </trkpt>
      <trkpt lat="43.61041" lon="6.90758">
        <ele>101</ele>
        <time>2013-12-15T08:18:04.000Z</time>
      </trkpt>
      <trkpt lat="43.6106" lon="6.90751">
        <ele>103.19999694824</ele>
        <time>2013-12-15T08:18:14.000Z</time>
      </trkpt>
      <trkpt lat="43.61079" lon="6.90748">
        <ele>105.80000305176</ele>
        <time>2013-12-15T08:18:23.000Z</time>
      </trkpt>
      <trkpt lat="43.6109" lon="6.90754">
        <ele>108.59999847412</ele>
        <time>2013-12-15T08:18:30.000Z</time>
      </trkpt>
      <trkpt lat="43.61104" lon="6.90762">
        <ele>111.80000305176</ele>
        <time>2013-12-15T08:18:39.000Z</time>
      </trkpt>
      <trkpt lat="43.61121" lon="6.90771">
        <ele>115.19999694824</ele>
        <time>2013-12-15T08:18:48.000Z</time>
      </trkpt>
      <trkpt lat="43.61136" lon="6.90779">
        <ele>118.19999694824</ele>
        <time>2013-12-15T08:18:57.000Z</time>
      </trkpt>
      <trkpt lat="43.6115" lon="6.90787">
        <ele>120.40000152588</ele>
        <time>2013-12-15T08:19:05.000Z</time>
      </trkpt>
      <trkpt lat="43.61161" lon="6.90793">
        <ele>122.19999694824</ele>
        <time>2013-12-15T08:19:12.000Z</time>
      </trkpt>
      <trkpt lat="43.61173" lon="6.90797">
        <ele>124.40000152588</ele>
        <time>2013-12-15T08:19:19.000Z</time>
      </trkpt>
      <trkpt lat="43.61185" lon="6.90795">
        <ele>126.40000152588</ele>
        <time>2013-12-15T08:19:26.000Z</time>
      </trkpt>
      <trkpt lat="43.61186" lon="6.90796">
        <ele>126.80000305176</ele>
        <time>2013-12-15T08:19:27.000Z</time>
      </trkpt>
      <trkpt lat="43.61186" lon="6.90805">
        <ele>127.19999694824</ele>
        <time>2013-12-15T08:19:31.000Z</time>
      </trkpt>
      <trkpt lat="43.61186" lon="6.90807">
        <ele>127.19999694824</ele>
        <time>2013-12-15T08:19:32.000Z</time>
      </trkpt>
      <trkpt lat="43.61178" lon="6.90814">
        <ele>126.59999847412</ele>
        <time>2013-12-15T08:19:38.000Z</time>
      </trkpt>
      <trkpt lat="43.61169" lon="6.90825">
        <ele>126.40000152588</ele>
        <time>2013-12-15T08:19:45.000Z</time>
      </trkpt>
      <trkpt lat="43.61173" lon="6.90834">
        <ele>127.59999847412</ele>
        <time>2013-12-15T08:19:49.000Z</time>
      </trkpt>
      <trkpt lat="43.61184" lon="6.90841">
        <ele>128.39999389648</ele>
        <time>2013-12-15T08:19:56.000Z</time>
      </trkpt>
      <trkpt lat="43.61196" lon="6.90846">
        <ele>129.19999694824</ele>
        <time>2013-12-15T08:20:03.000Z</time>
      </trkpt>
      <trkpt lat="43.61207" lon="6.9085">
        <ele>130</ele>
        <time>2013-12-15T08:20:10.000Z</time>
      </trkpt>
      <trkpt lat="43.61221" lon="6.90849">
        <ele>131</ele>
        <time>2013-12-15T08:20:18.000Z</time>
      </trkpt>
      <trkpt lat="43.61237" lon="6.90837">
        <ele>133.39999389648</ele>
        <time>2013-12-15T08:20:28.000Z</time>
      </trkpt>
      <trkpt lat="43.6125" lon="6.90826">
        <ele>135.80000305176</ele>
        <time>2013-12-15T08:20:37.000Z</time>
      </trkpt>
      <trkpt lat="43.61264" lon="6.90822">
        <ele>137.60000610352</ele>
        <time>2013-12-15T08:20:46.000Z</time>
      </trkpt>
      <trkpt lat="43.6127" lon="6.90821">
        <ele>138.19999694824</ele>
        <time>2013-12-15T08:20:54.000Z</time>
      </trkpt>
      <trkpt lat="43.61272" lon="6.90818">
        <ele>138.80000305176</ele>
        <time>2013-12-15T08:21:11.000Z</time>
      </trkpt>
      <trkpt lat="43.6127" lon="6.90815">
        <ele>139.19999694824</ele>
        <time>2013-12-15T08:21:18.000Z</time>
      </trkpt>
      <trkpt lat="43.61269" lon="6.90822">
        <ele>138.19999694824</ele>
        <time>2013-12-15T08:21:25.000Z</time>
      </trkpt>
      <trkpt lat="43.61271" lon="6.90821">
        <ele>138.39999389648</ele>
        <time>2013-12-15T08:21:31.000Z</time>
      </trkpt>
      <trkpt lat="43.61271" lon="6.90816">
        <ele>139</ele>
        <time>2013-12-15T08:21:49.000Z</time>
      </trkpt>
      <trkpt lat="43.61274" lon="6.90818">
        <ele>139</ele>
        <time>2013-12-15T08:21:57.000Z</time>
      </trkpt>
      <trkpt lat="43.61273" lon="6.90811">
        <ele>140</ele>
        <time>2013-12-15T08:22:01.000Z</time>
      </trkpt>
      <trkpt lat="43.61269" lon="6.90798">
        <ele>141.19999694824</ele>
        <time>2013-12-15T08:22:08.000Z</time>
      </trkpt>
      <trkpt lat="43.6126" lon="6.90788">
        <ele>141.19999694824</ele>
        <time>2013-12-15T08:22:14.000Z</time>
      </trkpt>
      <trkpt lat="43.6125" lon="6.90773">
        <ele>141.60000610352</ele>
        <time>2013-12-15T08:22:21.000Z</time>
      </trkpt>
      <trkpt lat="43.61243" lon="6.9076">
        <ele>141</ele>
        <time>2013-12-15T08:22:27.000Z</time>
      </trkpt>
      <trkpt lat="43.61241" lon="6.90742">
        <ele>141.39999389648</ele>
        <time>2013-12-15T08:22:33.000Z</time>
      </trkpt>
      <trkpt lat="43.61245" lon="6.90722">
        <ele>143</ele>
        <time>2013-12-15T08:22:40.000Z</time>
      </trkpt>
      <trkpt lat="43.61249" lon="6.90705">
        <ele>144.80000305176</ele>
        <time>2013-12-15T08:22:47.000Z</time>
      </trkpt>
      <trkpt lat="43.6125" lon="6.90686">
        <ele>145.60000610352</ele>
        <time>2013-12-15T08:22:54.000Z</time>
      </trkpt>
      <trkpt lat="43.6125" lon="6.90662">
        <ele>146</ele>
        <time>2013-12-15T08:23:03.000Z</time>
      </trkpt>
      <trkpt lat="43.61256" lon="6.90647">
        <ele>147.60000610352</ele>
        <time>2013-12-15T08:23:09.000Z</time>
      </trkpt>
      <trkpt lat="43.61263" lon="6.90628">
        <ele>149.60000610352</ele>
        <time>2013-12-15T08:23:17.000Z</time>
      </trkpt>
      <trkpt lat="43.61271" lon="6.90611">
        <ele>152.39999389648</ele>
        <time>2013-12-15T08:23:25.000Z</time>
      </trkpt>
      <trkpt lat="43.61281" lon="6.90595">
        <ele>155.80000305176</ele>
        <time>2013-12-15T08:23:32.000Z</time>
      </trkpt>
      <trkpt lat="43.61284" lon="6.90578">
        <ele>156.39999389648</ele>
        <time>2013-12-15T08:23:38.000Z</time>
      </trkpt>
      <trkpt lat="43.61278" lon="6.90556">
        <ele>154</ele>
        <time>2013-12-15T08:23:46.000Z</time>
      </trkpt>
      <trkpt lat="43.61277" lon="6.90538">
        <ele>153.60000610352</ele>
        <time>2013-12-15T08:23:52.000Z</time>
      </trkpt>
      <trkpt lat="43.61285" lon="6.90529">
        <ele>155.80000305176</ele>
        <time>2013-12-15T08:23:57.000Z</time>
      </trkpt>
      <trkpt lat="43.61298" lon="6.90525">
        <ele>159.80000305176</ele>
        <time>2013-12-15T08:24:04.000Z</time>
      </trkpt>
      <trkpt lat="43.61315" lon="6.90521">
        <ele>164.39999389648</ele>
        <time>2013-12-15T08:24:12.000Z</time>
      </trkpt>
      <trkpt lat="43.6133" lon="6.90518">
        <ele>168.80000305176</ele>
        <time>2013-12-15T08:24:20.000Z</time>
      </trkpt>
      <trkpt lat="43.61344" lon="6.90512">
        <ele>172.39999389648</ele>
        <time>2013-12-15T08:24:26.000Z</time>
      </trkpt>
      <trkpt lat="43.61349" lon="6.90498">
        <ele>173.60000610352</ele>
        <time>2013-12-15T08:24:31.000Z</time>
      </trkpt>
      <trkpt lat="43.61347" lon="6.90482">
        <ele>175.80000305176</ele>
        <time>2013-12-15T08:24:36.000Z</time>
      </trkpt>
      <trkpt lat="43.61337" lon="6.90475">
        <ele>173.80000305176</ele>
        <time>2013-12-15T08:24:41.000Z</time>
      </trkpt>
      <trkpt lat="43.6132" lon="6.90464">
        <ele>171</ele>
        <time>2013-12-15T08:24:49.000Z</time>
      </trkpt>
      <trkpt lat="43.613" lon="6.90446">
        <ele>168.39999389648</ele>
        <time>2013-12-15T08:24:57.000Z</time>
      </trkpt>
      <trkpt lat="43.61279" lon="6.90427">
        <ele>164.80000305176</ele>
        <time>2013-12-15T08:25:06.000Z</time>
      </trkpt>
      <trkpt lat="43.61267" lon="6.90413">
        <ele>162.60000610352</ele>
        <time>2013-12-15T08:25:13.000Z</time>
      </trkpt>
      <trkpt lat="43.61261" lon="6.90394">
        <ele>160.39999389648</ele>
        <time>2013-12-15T08:25:20.000Z</time>
      </trkpt>
      <trkpt lat="43.61263" lon="6.90378">
        <ele>161.19999694824</ele>
        <time>2013-12-15T08:25:25.000Z</time>
      </trkpt>
      <trkpt lat="43.61271" lon="6.90354">
        <ele>164.39999389648</ele>
        <time>2013-12-15T08:25:32.000Z</time>
      </trkpt>
      <trkpt lat="43.61286" lon="6.90335">
        <ele>170.80000305176</ele>
        <time>2013-12-15T08:25:39.000Z</time>
      </trkpt>
      <trkpt lat="43.61301" lon="6.90314">
        <ele>176.80000305176</ele>
        <time>2013-12-15T08:25:47.000Z</time>
      </trkpt>
      <trkpt lat="43.61297" lon="6.90295">
        <ele>175.19999694824</ele>
        <time>2013-12-15T08:25:52.000Z</time>
      </trkpt>
      <trkpt lat="43.61288" lon="6.90274">
        <ele>171.39999389648</ele>
        <time>2013-12-15T08:25:59.000Z</time>
      </trkpt>
      <trkpt lat="43.61285" lon="6.90248">
        <ele>169.80000305176</ele>
        <time>2013-12-15T08:26:07.000Z</time>
      </trkpt>
      <trkpt lat="43.6128" lon="6.90209">
        <ele>168</ele>
        <time>2013-12-15T08:26:17.000Z</time>
      </trkpt>
      <trkpt lat="43.61279" lon="6.9017">
        <ele>167.39999389648</ele>
        <time>2013-12-15T08:26:24.000Z</time>
      </trkpt>
      <trkpt lat="43.61282" lon="6.90115">
        <ele>175.80000305176</ele>
        <time>2013-12-15T08:26:34.000Z</time>
      </trkpt>
      <trkpt lat="43.61281" lon="6.9011">
        <ele>176.39999389648</ele>
        <time>2013-12-15T08:26:35.000Z</time>
      </trkpt>
      <trkpt lat="43.61276" lon="6.90087">
        <ele>177.80000305176</ele>
        <time>2013-12-15T08:26:40.000Z</time>
      </trkpt>
      <trkpt lat="43.61264" lon="6.90063">
        <ele>177</ele>
        <time>2013-12-15T08:26:46.000Z</time>
      </trkpt>
      <trkpt lat="43.61246" lon="6.90046">
        <ele>174</ele>
        <time>2013-12-15T08:26:54.000Z</time>
      </trkpt>
      <trkpt lat="43.61228" lon="6.90039">
        <ele>171.60000610352</ele>
        <time>2013-12-15T08:27:00.000Z</time>
      </trkpt>
      <trkpt lat="43.61215" lon="6.90024">
        <ele>172</ele>
        <time>2013-12-15T08:27:07.000Z</time>
      </trkpt>
      <trkpt lat="43.61217" lon="6.90013">
        <ele>174.19999694824</ele>
        <time>2013-12-15T08:27:12.000Z</time>
      </trkpt>
      <trkpt lat="43.61223" lon="6.90011">
        <ele>175.80000305176</ele>
        <time>2013-12-15T08:27:18.000Z</time>
      </trkpt>
      <trkpt lat="43.61225" lon="6.90009">
        <ele>176.39999389648</ele>
        <time>2013-12-15T08:27:19.000Z</time>
      </trkpt>
      <trkpt lat="43.61231" lon="6.90002">
        <ele>178.60000610352</ele>
        <time>2013-12-15T08:27:22.000Z</time>
      </trkpt>
      <trkpt lat="43.6124" lon="6.89995">
        <ele>180</ele>
        <time>2013-12-15T08:27:28.000Z</time>
      </trkpt>
      <trkpt lat="43.6125" lon="6.89986">
        <ele>180.80000305176</ele>
        <time>2013-12-15T08:27:35.000Z</time>
      </trkpt>
      <trkpt lat="43.61258" lon="6.89976">
        <ele>182</ele>
        <time>2013-12-15T08:27:42.000Z</time>
      </trkpt>
      <trkpt lat="43.61267" lon="6.89968">
        <ele>183.39999389648</ele>
        <time>2013-12-15T08:27:49.000Z</time>
      </trkpt>
      <trkpt lat="43.61275" lon="6.89963">
        <ele>184.80000305176</ele>
        <time>2013-12-15T08:27:55.000Z</time>
      </trkpt>
      <trkpt lat="43.61285" lon="6.89959">
        <ele>186.60000610352</ele>
        <time>2013-12-15T08:28:02.000Z</time>
      </trkpt>
      <trkpt lat="43.61292" lon="6.89953">
        <ele>187.39999389648</ele>
        <time>2013-12-15T08:28:08.000Z</time>
      </trkpt>
      <trkpt lat="43.61293" lon="6.89953">
        <ele>187.80000305176</ele>
        <time>2013-12-15T08:28:09.000Z</time>
      </trkpt>
      <trkpt lat="43.613" lon="6.89952">
        <ele>189.19999694824</ele>
        <time>2013-12-15T08:28:14.000Z</time>
      </trkpt>
      <trkpt lat="43.61307" lon="6.89953">
        <ele>191</ele>
        <time>2013-12-15T08:28:21.000Z</time>
      </trkpt>
      <trkpt lat="43.6131" lon="6.89954">
        <ele>191.80000305176</ele>
        <time>2013-12-15T08:28:29.000Z</time>
      </trkpt>
      <trkpt lat="43.6132" lon="6.89954">
        <ele>193.80000305176</ele>
        <time>2013-12-15T08:28:36.000Z</time>
      </trkpt>
      <trkpt lat="43.61326" lon="6.89957">
        <ele>195.80000305176</ele>
        <time>2013-12-15T08:28:41.000Z</time>
      </trkpt>
      <trkpt lat="43.61332" lon="6.8996">
        <ele>197.39999389648</ele>
        <time>2013-12-15T08:28:45.000Z</time>
      </trkpt>
      <trkpt lat="43.61333" lon="6.89959">
        <ele>197.60000610352</ele>
        <time>2013-12-15T08:28:47.000Z</time>
      </trkpt>
      <trkpt lat="43.61338" lon="6.89959">
        <ele>198</ele>
        <time>2013-12-15T08:28:54.000Z</time>
      </trkpt>
      <trkpt lat="43.61341" lon="6.89959">
        <ele>198.19999694824</ele>
        <time>2013-12-15T08:29:01.000Z</time>
      </trkpt>
      <trkpt lat="43.61345" lon="6.8996">
        <ele>198.60000610352</ele>
        <time>2013-12-15T08:29:11.000Z</time>
      </trkpt>
      <trkpt lat="43.61345" lon="6.8996">
        <ele>198.60000610352</ele>
        <time>2013-12-15T08:29:13.000Z</time>
      </trkpt>
      <trkpt lat="43.6135" lon="6.89961">
        <ele>199.19999694824</ele>
        <time>2013-12-15T08:29:22.000Z</time>
      </trkpt>
      <trkpt lat="43.61353" lon="6.89962">
        <ele>199.60000610352</ele>
        <time>2013-12-15T08:29:33.000Z</time>
      </trkpt>
      <trkpt lat="43.61356" lon="6.89963">
        <ele>200</ele>
        <time>2013-12-15T08:29:35.000Z</time>
      </trkpt>
      <trkpt lat="43.6136" lon="6.89965">
        <ele>200.60000610352</ele>
        <time>2013-12-15T08:29:39.000Z</time>
      </trkpt>
      <trkpt lat="43.61363" lon="6.89966">
        <ele>201</ele>
        <time>2013-12-15T08:29:41.000Z</time>
      </trkpt>
      <trkpt lat="43.6137" lon="6.89969">
        <ele>202.19999694824</ele>
        <time>2013-12-15T08:29:47.000Z</time>
      </trkpt>
      <trkpt lat="43.61381" lon="6.89973">
        <ele>204.19999694824</ele>
        <time>2013-12-15T08:29:54.000Z</time>
      </trkpt>
      <trkpt lat="43.61384" lon="6.89976">
        <ele>205</ele>
        <time>2013-12-15T08:29:57.000Z</time>
      </trkpt>
      <trkpt lat="43.61386" lon="6.8998">
        <ele>206</ele>
        <time>2013-12-15T08:30:00.000Z</time>
      </trkpt>
      <trkpt lat="43.61386" lon="6.8998">
        <ele>206</ele>
        <time>2013-12-15T08:30:01.000Z</time>
      </trkpt>
      <trkpt lat="43.61387" lon="6.89979">
        <ele>206.19999694824</ele>
        <time>2013-12-15T08:30:06.000Z</time>
      </trkpt>
      <trkpt lat="43.61387" lon="6.89981">
        <ele>206.60000610352</ele>
        <time>2013-12-15T08:30:22.000Z</time>
      </trkpt>
      <trkpt lat="43.61385" lon="6.89984">
        <ele>207</ele>
        <time>2013-12-15T08:30:29.000Z</time>
      </trkpt>
      <trkpt lat="43.61383" lon="6.89991">
        <ele>208.19999694824</ele>
        <time>2013-12-15T08:30:35.000Z</time>
      </trkpt>
      <trkpt lat="43.61382" lon="6.89994">
        <ele>208.60000610352</ele>
        <time>2013-12-15T08:30:37.000Z</time>
      </trkpt>
      <trkpt lat="43.6138" lon="6.89998">
        <ele>209.19999694824</ele>
        <time>2013-12-15T08:30:41.000Z</time>
      </trkpt>
      <trkpt lat="43.61379" lon="6.89999">
        <ele>209.39999389648</ele>
        <time>2013-12-15T08:30:42.000Z</time>
      </trkpt>
      <trkpt lat="43.61377" lon="6.90007">
        <ele>209.60000610352</ele>
        <time>2013-12-15T08:30:49.000Z</time>
      </trkpt>
      <trkpt lat="43.61375" lon="6.90014">
        <ele>209.80000305176</ele>
        <time>2013-12-15T08:30:55.000Z</time>
      </trkpt>
      <trkpt lat="43.61374" lon="6.90022">
        <ele>209.80000305176</ele>
        <time>2013-12-15T08:31:01.000Z</time>
      </trkpt>
      <trkpt lat="43.61374" lon="6.90024">
        <ele>210</ele>
        <time>2013-12-15T08:31:02.000Z</time>
      </trkpt>
      <trkpt lat="43.61377" lon="6.90031">
        <ele>211</ele>
        <time>2013-12-15T08:31:08.000Z</time>
      </trkpt>
      <trkpt lat="43.61378" lon="6.90032">
        <ele>211.19999694824</ele>
        <time>2013-12-15T08:31:09.000Z</time>
      </trkpt>
      <trkpt lat="43.61384" lon="6.90035">
        <ele>212.60000610352</ele>
        <time>2013-12-15T08:31:16.000Z</time>
      </trkpt>
      <trkpt lat="43.61389" lon="6.90036">
        <ele>214</ele>
        <time>2013-12-15T08:31:24.000Z</time>
      </trkpt>
      <trkpt lat="43.61398" lon="6.90041">
        <ele>216.39999389648</ele>
        <time>2013-12-15T08:31:33.000Z</time>
      </trkpt>
      <trkpt lat="43.614" lon="6.90042">
        <ele>217</ele>
        <time>2013-12-15T08:31:36.000Z</time>
      </trkpt>
      <trkpt lat="43.61402" lon="6.90042">
        <ele>217.60000610352</ele>
        <time>2013-12-15T08:31:39.000Z</time>
      </trkpt>
      <trkpt lat="43.6141" lon="6.90047">
        <ele>220</ele>
        <time>2013-12-15T08:31:47.000Z</time>
      </trkpt>
      <trkpt lat="43.61414" lon="6.9005">
        <ele>221.60000610352</ele>
        <time>2013-12-15T08:31:56.000Z</time>
      </trkpt>
      <trkpt lat="43.61416" lon="6.90051">
        <ele>222.19999694824</ele>
        <time>2013-12-15T08:32:01.000Z</time>
      </trkpt>
      <trkpt lat="43.6142" lon="6.90052">
        <ele>223.19999694824</ele>
        <time>2013-12-15T08:32:07.000Z</time>
      </trkpt>
      <trkpt lat="43.61425" lon="6.90055">
        <ele>224.80000305176</ele>
        <time>2013-12-15T08:32:12.000Z</time>
      </trkpt>
      <trkpt lat="43.61428" lon="6.90055">
        <ele>225.60000610352</ele>
        <time>2013-12-15T08:32:14.000Z</time>
      </trkpt>
      <trkpt lat="43.61431" lon="6.90055">
        <ele>226.19999694824</ele>
        <time>2013-12-15T08:32:17.000Z</time>
      </trkpt>
      <trkpt lat="43.61433" lon="6.90056">
        <ele>227</ele>
        <time>2013-12-15T08:32:20.000Z</time>
      </trkpt>
      <trkpt lat="43.61434" lon="6.90056">
        <ele>227.39999389648</ele>
        <time>2013-12-15T08:32:21.000Z</time>
      </trkpt>
      <trkpt lat="43.61441" lon="6.9006">
        <ele>229.60000610352</ele>
        <time>2013-12-15T08:32:29.000Z</time>
      </trkpt>
      <trkpt lat="43.61442" lon="6.9006">
        <ele>229.80000305176</ele>
        <time>2013-12-15T08:32:30.000Z</time>
      </trkpt>
      <trkpt lat="43.61448" lon="6.90064">
        <ele>232</ele>
        <time>2013-12-15T08:32:36.000Z</time>
      </trkpt>
      <trkpt lat="43.61453" lon="6.90066">
        <ele>234</ele>
        <time>2013-12-15T08:32:42.000Z</time>
      </trkpt>
      <trkpt lat="43.61462" lon="6.90069">
        <ele>236.80000305176</ele>
        <time>2013-12-15T08:32:50.000Z</time>
      </trkpt>
      <trkpt lat="43.61471" lon="6.90066">
        <ele>238.60000610352</ele>
        <time>2013-12-15T08:32:58.000Z</time>
      </trkpt>
      <trkpt lat="43.61479" lon="6.90065">
        <ele>240</ele>
        <time>2013-12-15T08:33:06.000Z</time>
      </trkpt>
      <trkpt lat="43.61484" lon="6.90063">
        <ele>241</ele>
        <time>2013-12-15T08:33:11.000Z</time>
      </trkpt>
      <trkpt lat="43.61485" lon="6.90063">
        <ele>241.19999694824</ele>
        <time>2013-12-15T08:33:12.000Z</time>
      </trkpt>
      <trkpt lat="43.61494" lon="6.90063">
        <ele>243.19999694824</ele>
        <time>2013-12-15T08:33:19.000Z</time>
      </trkpt>
      <trkpt lat="43.61503" lon="6.90061">
        <ele>244.80000305176</ele>
        <time>2013-12-15T08:33:27.000Z</time>
      </trkpt>
      <trkpt lat="43.61514" lon="6.9006">
        <ele>246.19999694824</ele>
        <time>2013-12-15T08:33:33.000Z</time>
      </trkpt>
      <trkpt lat="43.61524" lon="6.9006">
        <ele>247.39999389648</ele>
        <time>2013-12-15T08:33:39.000Z</time>
      </trkpt>
      <trkpt lat="43.61534" lon="6.90058">
        <ele>248.39999389648</ele>
        <time>2013-12-15T08:33:46.000Z</time>
      </trkpt>
      <trkpt lat="43.61545" lon="6.90054">
        <ele>248.80000305176</ele>
        <time>2013-12-15T08:33:53.000Z</time>
      </trkpt>
      <trkpt lat="43.61555" lon="6.90051">
        <ele>249.60000610352</ele>
        <time>2013-12-15T08:33:59.000Z</time>
      </trkpt>
      <trkpt lat="43.61561" lon="6.90051">
        <ele>250.19999694824</ele>
        <time>2013-12-15T08:34:05.000Z</time>
      </trkpt>
      <trkpt lat="43.61565" lon="6.90052">
        <ele>251.19999694824</ele>
        <time>2013-12-15T08:34:14.000Z</time>
      </trkpt>
      <trkpt lat="43.61566" lon="6.90053">
        <ele>251.60000610352</ele>
        <time>2013-12-15T08:34:22.000Z</time>
      </trkpt>
      <trkpt lat="43.6157" lon="6.90052">
        <ele>252</ele>
        <time>2013-12-15T08:34:39.000Z</time>
      </trkpt>
      <trkpt lat="43.61571" lon="6.90058">
        <ele>254</ele>
        <time>2013-12-15T08:40:10.000Z</time>
      </trkpt>
      <trkpt lat="43.61569" lon="6.90055">
        <ele>252.60000610352</ele>
        <time>2013-12-15T08:40:15.000Z</time>
      </trkpt>
      <trkpt lat="43.61572" lon="6.90049">
        <ele>251</ele>
        <time>2013-12-15T08:40:20.000Z</time>
      </trkpt>
      <trkpt lat="43.61573" lon="6.90043">
        <ele>249.39999389648</ele>
        <time>2013-12-15T08:40:24.000Z</time>
      </trkpt>
      <trkpt lat="43.61574" lon="6.90042">
        <ele>249.39999389648</ele>
        <time>2013-12-15T08:40:25.000Z</time>
      </trkpt>
      <trkpt lat="43.61575" lon="6.90038">
        <ele>248</ele>
        <time>2013-12-15T08:40:30.000Z</time>
      </trkpt>
      <trkpt lat="43.61573" lon="6.90038">
        <ele>247.80000305176</ele>
        <time>2013-12-15T08:40:36.000Z</time>
      </trkpt>
      <trkpt lat="43.61569" lon="6.90032">
        <ele>245.39999389648</ele>
        <time>2013-12-15T08:40:41.000Z</time>
      </trkpt>
      <trkpt lat="43.61558" lon="6.90031">
        <ele>243.39999389648</ele>
        <time>2013-12-15T08:40:47.000Z</time>
      </trkpt>
      <trkpt lat="43.61554" lon="6.90031">
        <ele>243</ele>
        <time>2013-12-15T08:40:49.000Z</time>
      </trkpt>
      <trkpt lat="43.61548" lon="6.90034">
        <ele>243</ele>
        <time>2013-12-15T08:40:52.000Z</time>
      </trkpt>
      <trkpt lat="43.6154" lon="6.90036">
        <ele>242.60000610352</ele>
        <time>2013-12-15T08:40:57.000Z</time>
      </trkpt>
      <trkpt lat="43.61537" lon="6.90038">
        <ele>242.60000610352</ele>
        <time>2013-12-15T08:41:01.000Z</time>
      </trkpt>
      <trkpt lat="43.61537" lon="6.90036">
        <ele>241.80000305176</ele>
        <time>2013-12-15T08:41:02.000Z</time>
      </trkpt>
      <trkpt lat="43.61535" lon="6.90034">
        <ele>241.19999694824</ele>
        <time>2013-12-15T08:41:05.000Z</time>
      </trkpt>
      <trkpt lat="43.61535" lon="6.90035">
        <ele>241.39999389648</ele>
        <time>2013-12-15T08:41:07.000Z</time>
      </trkpt>
      <trkpt lat="43.61536" lon="6.90026">
        <ele>238.80000305176</ele>
        <time>2013-12-15T08:41:13.000Z</time>
      </trkpt>
      <trkpt lat="43.61539" lon="6.9002">
        <ele>237.60000610352</ele>
        <time>2013-12-15T08:41:15.000Z</time>
      </trkpt>
      <trkpt lat="43.61544" lon="6.90013">
        <ele>236</ele>
        <time>2013-12-15T08:41:18.000Z</time>
      </trkpt>
      <trkpt lat="43.61551" lon="6.90004">
        <ele>234</ele>
        <time>2013-12-15T08:41:23.000Z</time>
      </trkpt>
      <trkpt lat="43.6156" lon="6.89999">
        <ele>233.60000610352</ele>
        <time>2013-12-15T08:41:28.000Z</time>
      </trkpt>
      <trkpt lat="43.61575" lon="6.89987">
        <ele>232.19999694824</ele>
        <time>2013-12-15T08:41:34.000Z</time>
      </trkpt>
      <trkpt lat="43.61577" lon="6.89983">
        <ele>231.60000610352</ele>
        <time>2013-12-15T08:41:36.000Z</time>
      </trkpt>
      <trkpt lat="43.61583" lon="6.89979">
        <ele>231.19999694824</ele>
        <time>2013-12-15T08:41:38.000Z</time>
      </trkpt>
      <trkpt lat="43.61594" lon="6.89969">
        <ele>227.60000610352</ele>
        <time>2013-12-15T08:41:43.000Z</time>
      </trkpt>
      <trkpt lat="43.61597" lon="6.89969">
        <ele>227.19999694824</ele>
        <time>2013-12-15T08:41:44.000Z</time>
      </trkpt>
      <trkpt lat="43.61602" lon="6.8997">
        <ele>226.80000305176</ele>
        <time>2013-12-15T08:41:46.000Z</time>
      </trkpt>
      <trkpt lat="43.61613" lon="6.89972">
        <ele>226.60000610352</ele>
        <time>2013-12-15T08:41:50.000Z</time>
      </trkpt>
      <trkpt lat="43.61621" lon="6.89972">
        <ele>225.80000305176</ele>
        <time>2013-12-15T08:41:52.000Z</time>
      </trkpt>
      <trkpt lat="43.61625" lon="6.89967">
        <ele>224</ele>
        <time>2013-12-15T08:41:54.000Z</time>
      </trkpt>
      <trkpt lat="43.61634" lon="6.89964">
        <ele>222.19999694824</ele>
        <time>2013-12-15T08:41:58.000Z</time>
      </trkpt>
      <trkpt lat="43.61637" lon="6.89963">
        <ele>221.80000305176</ele>
        <time>2013-12-15T08:41:59.000Z</time>
      </trkpt>
      <trkpt lat="43.61649" lon="6.89964">
        <ele>221</ele>
        <time>2013-12-15T08:42:03.000Z</time>
      </trkpt>
      <trkpt lat="43.61667" lon="6.89958">
        <ele>217.39999389648</ele>
        <time>2013-12-15T08:42:08.000Z</time>
      </trkpt>
      <trkpt lat="43.61669" lon="6.89955">
        <ele>216.39999389648</ele>
        <time>2013-12-15T08:42:10.000Z</time>
      </trkpt>
      <trkpt lat="43.61668" lon="6.89952">
        <ele>215.60000610352</ele>
        <time>2013-12-15T08:42:11.000Z</time>
      </trkpt>
      <trkpt lat="43.6167" lon="6.89945">
        <ele>213.60000610352</ele>
        <time>2013-12-15T08:42:15.000Z</time>
      </trkpt>
      <trkpt lat="43.6168" lon="6.89944">
        <ele>213.19999694824</ele>
        <time>2013-12-15T08:42:19.000Z</time>
      </trkpt>
      <trkpt lat="43.61686" lon="6.89942">
        <ele>212.60000610352</ele>
        <time>2013-12-15T08:42:22.000Z</time>
      </trkpt>
      <trkpt lat="43.61688" lon="6.89941">
        <ele>212.39999389648</ele>
        <time>2013-12-15T08:42:24.000Z</time>
      </trkpt>
      <trkpt lat="43.61685" lon="6.89934">
        <ele>210.19999694824</ele>
        <time>2013-12-15T08:42:28.000Z</time>
      </trkpt>
      <trkpt lat="43.61684" lon="6.89931">
        <ele>209.39999389648</ele>
        <time>2013-12-15T08:42:30.000Z</time>
      </trkpt>
      <trkpt lat="43.61686" lon="6.89929">
        <ele>208.60000610352</ele>
        <time>2013-12-15T08:42:32.000Z</time>
      </trkpt>
      <trkpt lat="43.61691" lon="6.89927">
        <ele>208.19999694824</ele>
        <time>2013-12-15T08:42:36.000Z</time>
      </trkpt>
      <trkpt lat="43.61689" lon="6.89925">
        <ele>207.60000610352</ele>
        <time>2013-12-15T08:42:38.000Z</time>
      </trkpt>
      <trkpt lat="43.61687" lon="6.89919">
        <ele>205.80000305176</ele>
        <time>2013-12-15T08:42:41.000Z</time>
      </trkpt>
      <trkpt lat="43.61684" lon="6.89916">
        <ele>204.80000305176</ele>
        <time>2013-12-15T08:42:44.000Z</time>
      </trkpt>
      <trkpt lat="43.61682" lon="6.89913">
        <ele>203.80000305176</ele>
        <time>2013-12-15T08:42:46.000Z</time>
      </trkpt>
      <trkpt lat="43.61681" lon="6.89904">
        <ele>201.39999389648</ele>
        <time>2013-12-15T08:42:50.000Z</time>
      </trkpt>
      <trkpt lat="43.61678" lon="6.89902">
        <ele>200.60000610352</ele>
        <time>2013-12-15T08:42:52.000Z</time>
      </trkpt>
      <trkpt lat="43.61672" lon="6.89897">
        <ele>199</ele>
        <time>2013-12-15T08:42:55.000Z</time>
      </trkpt>
      <trkpt lat="43.6167" lon="6.89895">
        <ele>198.39999389648</ele>
        <time>2013-12-15T08:42:57.000Z</time>
      </trkpt>
      <trkpt lat="43.61669" lon="6.89894">
        <ele>198</ele>
        <time>2013-12-15T08:42:59.000Z</time>
      </trkpt>
      <trkpt lat="43.61669" lon="6.89886">
        <ele>195.60000610352</ele>
        <time>2013-12-15T08:43:03.000Z</time>
      </trkpt>
      <trkpt lat="43.61669" lon="6.89886">
        <ele>195.39999389648</ele>
        <time>2013-12-15T08:43:06.000Z</time>
      </trkpt>
      <trkpt lat="43.6167" lon="6.89887">
        <ele>195.80000305176</ele>
        <time>2013-12-15T08:43:11.000Z</time>
      </trkpt>
      <trkpt lat="43.61672" lon="6.89884">
        <ele>195.19999694824</ele>
        <time>2013-12-15T08:43:20.000Z</time>
      </trkpt>
      <trkpt lat="43.6167" lon="6.89882">
        <ele>194.39999389648</ele>
        <time>2013-12-15T08:43:28.000Z</time>
      </trkpt>
      <trkpt lat="43.61684" lon="6.89893">
        <ele>198.19999694824</ele>
        <time>2013-12-15T08:45:14.000Z</time>
      </trkpt>
      <trkpt lat="43.61702" lon="6.89901">
        <ele>201</ele>
        <time>2013-12-15T08:45:20.000Z</time>
      </trkpt>
      <trkpt lat="43.61714" lon="6.89894">
        <ele>199.80000305176</ele>
        <time>2013-12-15T08:45:23.000Z</time>
      </trkpt>
      <trkpt lat="43.61731" lon="6.89873">
        <ele>195.80000305176</ele>
        <time>2013-12-15T08:45:27.000Z</time>
      </trkpt>
      <trkpt lat="43.6174" lon="6.89859">
        <ele>193.80000305176</ele>
        <time>2013-12-15T08:45:29.000Z</time>
      </trkpt>
      <trkpt lat="43.61745" lon="6.89842">
        <ele>191</ele>
        <time>2013-12-15T08:45:31.000Z</time>
      </trkpt>
      <trkpt lat="43.61743" lon="6.89818">
        <ele>185.39999389648</ele>
        <time>2013-12-15T08:45:34.000Z</time>
      </trkpt>
      <trkpt lat="43.61743" lon="6.89803">
        <ele>181.60000610352</ele>
        <time>2013-12-15T08:45:36.000Z</time>
      </trkpt>
      <trkpt lat="43.61747" lon="6.89785">
        <ele>177.80000305176</ele>
        <time>2013-12-15T08:45:39.000Z</time>
      </trkpt>
      <trkpt lat="43.6176" lon="6.89772">
        <ele>177</ele>
        <time>2013-12-15T08:45:43.000Z</time>
      </trkpt>
      <trkpt lat="43.61768" lon="6.89771">
        <ele>178</ele>
        <time>2013-12-15T08:45:45.000Z</time>
      </trkpt>
      <trkpt lat="43.61773" lon="6.89769">
        <ele>178.39999389648</ele>
        <time>2013-12-15T08:45:46.000Z</time>
      </trkpt>
      <trkpt lat="43.6178" lon="6.89767">
        <ele>179</ele>
        <time>2013-12-15T08:45:48.000Z</time>
      </trkpt>
      <trkpt lat="43.61802" lon="6.89766">
        <ele>182.19999694824</ele>
        <time>2013-12-15T08:45:54.000Z</time>
      </trkpt>
      <trkpt lat="43.61823" lon="6.89766">
        <ele>186</ele>
        <time>2013-12-15T08:46:00.000Z</time>
      </trkpt>
      <trkpt lat="43.61844" lon="6.89752">
        <ele>185</ele>
        <time>2013-12-15T08:46:06.000Z</time>
      </trkpt>
      <trkpt lat="43.61865" lon="6.89744">
        <ele>185.80000305176</ele>
        <time>2013-12-15T08:46:12.000Z</time>
      </trkpt>
      <trkpt lat="43.61886" lon="6.89743">
        <ele>188.19999694824</ele>
        <time>2013-12-15T08:46:19.000Z</time>
      </trkpt>
      <trkpt lat="43.61901" lon="6.8974">
        <ele>189.60000610352</ele>
        <time>2013-12-15T08:46:24.000Z</time>
      </trkpt>
      <trkpt lat="43.61914" lon="6.89735">
        <ele>190.39999389648</ele>
        <time>2013-12-15T08:46:29.000Z</time>
      </trkpt>
      <trkpt lat="43.61936" lon="6.89732">
        <ele>192.60000610352</ele>
        <time>2013-12-15T08:46:35.000Z</time>
      </trkpt>
      <trkpt lat="43.61957" lon="6.89724">
        <ele>194</ele>
        <time>2013-12-15T08:46:41.000Z</time>
      </trkpt>
      <trkpt lat="43.61976" lon="6.89712">
        <ele>194.39999389648</ele>
        <time>2013-12-15T08:46:47.000Z</time>
      </trkpt>
      <trkpt lat="43.61993" lon="6.89701">
        <ele>195</ele>
        <time>2013-12-15T08:46:53.000Z</time>
      </trkpt>
      <trkpt lat="43.62008" lon="6.89695">
        <ele>196.39999389648</ele>
        <time>2013-12-15T08:46:59.000Z</time>
      </trkpt>
      <trkpt lat="43.62024" lon="6.89687">
        <ele>197.19999694824</ele>
        <time>2013-12-15T08:47:05.000Z</time>
      </trkpt>
      <trkpt lat="43.62046" lon="6.89682">
        <ele>199.39999389648</ele>
        <time>2013-12-15T08:47:12.000Z</time>
      </trkpt>
      <trkpt lat="43.62066" lon="6.89678">
        <ele>201.39999389648</ele>
        <time>2013-12-15T08:47:19.000Z</time>
      </trkpt>
      <trkpt lat="43.62089" lon="6.89671">
        <ele>202.39999389648</ele>
        <time>2013-12-15T08:47:27.000Z</time>
      </trkpt>
      <trkpt lat="43.62105" lon="6.89668">
        <ele>202.80000305176</ele>
        <time>2013-12-15T08:47:33.000Z</time>
      </trkpt>
      <trkpt lat="43.62122" lon="6.89664">
        <ele>203.39999389648</ele>
        <time>2013-12-15T08:47:39.000Z</time>
      </trkpt>
      <trkpt lat="43.62134" lon="6.8966">
        <ele>203.80000305176</ele>
        <time>2013-12-15T08:47:44.000Z</time>
      </trkpt>
      <trkpt lat="43.6214" lon="6.89654">
        <ele>203.60000610352</ele>
        <time>2013-12-15T08:47:49.000Z</time>
      </trkpt>
      <trkpt lat="43.62143" lon="6.8965">
        <ele>203.19999694824</ele>
        <time>2013-12-15T08:47:54.000Z</time>
      </trkpt>
      <trkpt lat="43.62142" lon="6.8965">
        <ele>203.19999694824</ele>
        <time>2013-12-15T08:47:59.000Z</time>
      </trkpt>
      <trkpt lat="43.62144" lon="6.89648">
        <ele>203</ele>
        <time>2013-12-15T08:48:09.000Z</time>
      </trkpt>
      <trkpt lat="43.62145" lon="6.89649">
        <ele>203.19999694824</ele>
        <time>2013-12-15T08:52:54.000Z</time>
      </trkpt>
      <trkpt lat="43.62144" lon="6.8965">
        <ele>203.39999389648</ele>
        <time>2013-12-15T08:53:04.000Z</time>
      </trkpt>
      <trkpt lat="43.62145" lon="6.89648">
        <ele>203.19999694824</ele>
        <time>2013-12-15T08:54:18.000Z</time>
      </trkpt>
      <trkpt lat="43.62147" lon="6.8965">
        <ele>203.60000610352</ele>
        <time>2013-12-15T08:54:56.000Z</time>
      </trkpt>
      <trkpt lat="43.62152" lon="6.89651">
        <ele>204</ele>
        <time>2013-12-15T08:55:06.000Z</time>
      </trkpt>
      <trkpt lat="43.62155" lon="6.89648">
        <ele>203.80000305176</ele>
        <time>2013-12-15T08:56:11.000Z</time>
      </trkpt>
      <trkpt lat="43.62159" lon="6.89656">
        <ele>205.19999694824</ele>
        <time>2013-12-15T08:56:16.000Z</time>
      </trkpt>
      <trkpt lat="43.62163" lon="6.89659">
        <ele>205.80000305176</ele>
        <time>2013-12-15T08:56:18.000Z</time>
      </trkpt>
      <trkpt lat="43.62168" lon="6.8966">
        <ele>206.19999694824</ele>
        <time>2013-12-15T08:56:20.000Z</time>
      </trkpt>
      <trkpt lat="43.62187" lon="6.89661">
        <ele>206.39999389648</ele>
        <time>2013-12-15T08:56:28.000Z</time>
      </trkpt>
      <trkpt lat="43.62202" lon="6.89653">
        <ele>206</ele>
        <time>2013-12-15T08:56:33.000Z</time>
      </trkpt>
      <trkpt lat="43.62212" lon="6.89635">
        <ele>205.80000305176</ele>
        <time>2013-12-15T08:56:39.000Z</time>
      </trkpt>
      <trkpt lat="43.62229" lon="6.89613">
        <ele>207</ele>
        <time>2013-12-15T08:56:47.000Z</time>
      </trkpt>
      <trkpt lat="43.62242" lon="6.89596">
        <ele>209.19999694824</ele>
        <time>2013-12-15T08:56:54.000Z</time>
      </trkpt>
      <trkpt lat="43.62256" lon="6.89574">
        <ele>211.60000610352</ele>
        <time>2013-12-15T08:57:02.000Z</time>
      </trkpt>
      <trkpt lat="43.62266" lon="6.89548">
        <ele>213.39999389648</ele>
        <time>2013-12-15T08:57:10.000Z</time>
      </trkpt>
      <trkpt lat="43.62274" lon="6.8952">
        <ele>215.60000610352</ele>
        <time>2013-12-15T08:57:19.000Z</time>
      </trkpt>
      <trkpt lat="43.62281" lon="6.8949">
        <ele>218.39999389648</ele>
        <time>2013-12-15T08:57:29.000Z</time>
      </trkpt>
      <trkpt lat="43.6229" lon="6.89463">
        <ele>221.19999694824</ele>
        <time>2013-12-15T08:57:38.000Z</time>
      </trkpt>
      <trkpt lat="43.62297" lon="6.89441">
        <ele>223.39999389648</ele>
        <time>2013-12-15T08:57:46.000Z</time>
      </trkpt>
      <trkpt lat="43.62304" lon="6.89424">
        <ele>225.39999389648</ele>
        <time>2013-12-15T08:57:52.000Z</time>
      </trkpt>
      <trkpt lat="43.62309" lon="6.89408">
        <ele>227</ele>
        <time>2013-12-15T08:57:58.000Z</time>
      </trkpt>
      <trkpt lat="43.62318" lon="6.89388">
        <ele>229.19999694824</ele>
        <time>2013-12-15T08:58:06.000Z</time>
      </trkpt>
      <trkpt lat="43.62328" lon="6.8937">
        <ele>230.80000305176</ele>
        <time>2013-12-15T08:58:14.000Z</time>
      </trkpt>
      <trkpt lat="43.62336" lon="6.89354">
        <ele>231.80000305176</ele>
        <time>2013-12-15T08:58:21.000Z</time>
      </trkpt>
      <trkpt lat="43.62346" lon="6.89329">
        <ele>234.19999694824</ele>
        <time>2013-12-15T08:58:30.000Z</time>
      </trkpt>
      <trkpt lat="43.62348" lon="6.89328">
        <ele>234.39999389648</ele>
        <time>2013-12-15T08:58:31.000Z</time>
      </trkpt>
      <trkpt lat="43.62354" lon="6.89317">
        <ele>236</ele>
        <time>2013-12-15T08:58:35.000Z</time>
      </trkpt>
      <trkpt lat="43.62365" lon="6.89298">
        <ele>238</ele>
        <time>2013-12-15T08:58:42.000Z</time>
      </trkpt>
      <trkpt lat="43.62378" lon="6.89281">
        <ele>239.80000305176</ele>
        <time>2013-12-15T08:58:50.000Z</time>
      </trkpt>
      <trkpt lat="43.62394" lon="6.89259">
        <ele>241.19999694824</ele>
        <time>2013-12-15T08:59:00.000Z</time>
      </trkpt>
      <trkpt lat="43.62406" lon="6.89241">
        <ele>242.39999389648</ele>
        <time>2013-12-15T08:59:08.000Z</time>
      </trkpt>
      <trkpt lat="43.62422" lon="6.89214">
        <ele>243.60000610352</ele>
        <time>2013-12-15T08:59:18.000Z</time>
      </trkpt>
      <trkpt lat="43.62431" lon="6.89187">
        <ele>244.39999389648</ele>
        <time>2013-12-15T08:59:27.000Z</time>
      </trkpt>
      <trkpt lat="43.62443" lon="6.8916">
        <ele>245.19999694824</ele>
        <time>2013-12-15T08:59:37.000Z</time>
      </trkpt>
      <trkpt lat="43.62455" lon="6.89136">
        <ele>247.60000610352</ele>
        <time>2013-12-15T08:59:47.000Z</time>
      </trkpt>
      <trkpt lat="43.62466" lon="6.89118">
        <ele>249.39999389648</ele>
        <time>2013-12-15T08:59:54.000Z</time>
      </trkpt>
      <trkpt lat="43.62481" lon="6.89091">
        <ele>252.39999389648</ele>
        <time>2013-12-15T09:00:04.000Z</time>
      </trkpt>
      <trkpt lat="43.62498" lon="6.89065">
        <ele>254</ele>
        <time>2013-12-15T09:00:14.000Z</time>
      </trkpt>
      <trkpt lat="43.62518" lon="6.89037">
        <ele>252.19999694824</ele>
        <time>2013-12-15T09:00:24.000Z</time>
      </trkpt>
      <trkpt lat="43.62532" lon="6.89015">
        <ele>251.60000610352</ele>
        <time>2013-12-15T09:00:31.000Z</time>
      </trkpt>
      <trkpt lat="43.62543" lon="6.88988">
        <ele>252.19999694824</ele>
        <time>2013-12-15T09:00:38.000Z</time>
      </trkpt>
      <trkpt lat="43.62553" lon="6.88947">
        <ele>253</ele>
        <time>2013-12-15T09:00:48.000Z</time>
      </trkpt>
      <trkpt lat="43.62554" lon="6.88923">
        <ele>254.60000610352</ele>
        <time>2013-12-15T09:00:55.000Z</time>
      </trkpt>
      <trkpt lat="43.62557" lon="6.88893">
        <ele>255</ele>
        <time>2013-12-15T09:01:03.000Z</time>
      </trkpt>
      <trkpt lat="43.62556" lon="6.88859">
        <ele>255.60000610352</ele>
        <time>2013-12-15T09:01:11.000Z</time>
      </trkpt>
      <trkpt lat="43.62553" lon="6.88819">
        <ele>256.60000610352</ele>
        <time>2013-12-15T09:01:20.000Z</time>
      </trkpt>
      <trkpt lat="43.62549" lon="6.88781">
        <ele>256.79998779297</ele>
        <time>2013-12-15T09:01:28.000Z</time>
      </trkpt>
      <trkpt lat="43.62544" lon="6.88749">
        <ele>257.20001220703</ele>
        <time>2013-12-15T09:01:36.000Z</time>
      </trkpt>
      <trkpt lat="43.62533" lon="6.88712">
        <ele>258</ele>
        <time>2013-12-15T09:01:45.000Z</time>
      </trkpt>
      <trkpt lat="43.62521" lon="6.88676">
        <ele>259</ele>
        <time>2013-12-15T09:01:53.000Z</time>
      </trkpt>
      <trkpt lat="43.62517" lon="6.88667">
        <ele>259.60000610352</ele>
        <time>2013-12-15T09:01:56.000Z</time>
      </trkpt>
      <trkpt lat="43.62514" lon="6.8867">
        <ele>260</ele>
        <time>2013-12-15T09:01:57.000Z</time>
      </trkpt>
      <trkpt lat="43.62507" lon="6.8868">
        <ele>261.20001220703</ele>
        <time>2013-12-15T09:02:01.000Z</time>
      </trkpt>
      <trkpt lat="43.62498" lon="6.88684">
        <ele>262.20001220703</ele>
        <time>2013-12-15T09:02:05.000Z</time>
      </trkpt>
      <trkpt lat="43.62492" lon="6.88689">
        <ele>262.20001220703</ele>
        <time>2013-12-15T09:02:08.000Z</time>
      </trkpt>
      <trkpt lat="43.62482" lon="6.88703">
        <ele>262.20001220703</ele>
        <time>2013-12-15T09:02:13.000Z</time>
      </trkpt>
      <trkpt lat="43.62478" lon="6.88719">
        <ele>262.39999389648</ele>
        <time>2013-12-15T09:02:18.000Z</time>
      </trkpt>
      <trkpt lat="43.62477" lon="6.88738">
        <ele>262.79998779297</ele>
        <time>2013-12-15T09:02:24.000Z</time>
      </trkpt>
      <trkpt lat="43.62475" lon="6.88743">
        <ele>262.79998779297</ele>
        <time>2013-12-15T09:02:26.000Z</time>
      </trkpt>
      <trkpt lat="43.6247" lon="6.88746">
        <ele>263</ele>
        <time>2013-12-15T09:02:28.000Z</time>
      </trkpt>
      <trkpt lat="43.62459" lon="6.88747">
        <ele>263</ele>
        <time>2013-12-15T09:02:33.000Z</time>
      </trkpt>
      <trkpt lat="43.62457" lon="6.88746">
        <ele>263</ele>
        <time>2013-12-15T09:02:34.000Z</time>
      </trkpt>
      <trkpt lat="43.62443" lon="6.88749">
        <ele>263</ele>
        <time>2013-12-15T09:02:40.000Z</time>
      </trkpt>
      <trkpt lat="43.62442" lon="6.88762">
        <ele>263.39999389648</ele>
        <time>2013-12-15T09:02:43.000Z</time>
      </trkpt>
      <trkpt lat="43.62442" lon="6.88766">
        <ele>263.60000610352</ele>
        <time>2013-12-15T09:02:44.000Z</time>
      </trkpt>
      <trkpt lat="43.62442" lon="6.88789">
        <ele>264.20001220703</ele>
        <time>2013-12-15T09:02:49.000Z</time>
      </trkpt>
      <trkpt lat="43.62439" lon="6.88816">
        <ele>265.20001220703</ele>
        <time>2013-12-15T09:02:55.000Z</time>
      </trkpt>
      <trkpt lat="43.62432" lon="6.88848">
        <ele>266.20001220703</ele>
        <time>2013-12-15T09:03:01.000Z</time>
      </trkpt>
      <trkpt lat="43.62417" lon="6.88879">
        <ele>267</ele>
        <time>2013-12-15T09:03:08.000Z</time>
      </trkpt>
      <trkpt lat="43.62404" lon="6.88906">
        <ele>267.39999389648</ele>
        <time>2013-12-15T09:03:15.000Z</time>
      </trkpt>
      <trkpt lat="43.62391" lon="6.88923">
        <ele>267.20001220703</ele>
        <time>2013-12-15T09:03:19.000Z</time>
      </trkpt>
      <trkpt lat="43.62377" lon="6.88933">
        <ele>266.39999389648</ele>
        <time>2013-12-15T09:03:22.000Z</time>
      </trkpt>
      <trkpt lat="43.62372" lon="6.88939">
        <ele>266.20001220703</ele>
        <time>2013-12-15T09:03:23.000Z</time>
      </trkpt>
      <trkpt lat="43.62361" lon="6.88973">
        <ele>264.60000610352</ele>
        <time>2013-12-15T09:03:27.000Z</time>
      </trkpt>
      <trkpt lat="43.62358" lon="6.88982">
        <ele>264.20001220703</ele>
        <time>2013-12-15T09:03:28.000Z</time>
      </trkpt>
      <trkpt lat="43.62358" lon="6.8899">
        <ele>264</ele>
        <time>2013-12-15T09:03:29.000Z</time>
      </trkpt>
      <trkpt lat="43.62352" lon="6.89015">
        <ele>262.79998779297</ele>
        <time>2013-12-15T09:03:32.000Z</time>
      </trkpt>
      <trkpt lat="43.62349" lon="6.89021">
        <ele>262.39999389648</ele>
        <time>2013-12-15T09:03:33.000Z</time>
      </trkpt>
      <trkpt lat="43.62337" lon="6.89025">
        <ele>262.20001220703</ele>
        <time>2013-12-15T09:03:35.000Z</time>
      </trkpt>
      <trkpt lat="43.62327" lon="6.89032">
        <ele>262.60000610352</ele>
        <time>2013-12-15T09:03:37.000Z</time>
      </trkpt>
      <trkpt lat="43.62323" lon="6.89047">
        <ele>262.60000610352</ele>
        <time>2013-12-15T09:03:39.000Z</time>
      </trkpt>
      <trkpt lat="43.62322" lon="6.89058">
        <ele>262.39999389648</ele>
        <time>2013-12-15T09:03:41.000Z</time>
      </trkpt>
      <trkpt lat="43.62325" lon="6.8906">
        <ele>262</ele>
        <time>2013-12-15T09:03:42.000Z</time>
      </trkpt>
      <trkpt lat="43.62336" lon="6.89068">
        <ele>260.60000610352</ele>
        <time>2013-12-15T09:03:45.000Z</time>
      </trkpt>
      <trkpt lat="43.62344" lon="6.89084">
        <ele>259.79998779297</ele>
        <time>2013-12-15T09:03:48.000Z</time>
      </trkpt>
      <trkpt lat="43.62352" lon="6.89103">
        <ele>257.79998779297</ele>
        <time>2013-12-15T09:03:51.000Z</time>
      </trkpt>
      <trkpt lat="43.62356" lon="6.89108">
        <ele>257.20001220703</ele>
        <time>2013-12-15T09:03:54.000Z</time>
      </trkpt>
      <trkpt lat="43.62356" lon="6.89109">
        <ele>257.20001220703</ele>
        <time>2013-12-15T09:03:56.000Z</time>
      </trkpt>
      <trkpt lat="43.62356" lon="6.89109">
        <ele>257.20001220703</ele>
        <time>2013-12-15T09:03:58.000Z</time>
      </trkpt>
      <trkpt lat="43.62359" lon="6.89121">
        <ele>255.80000305176</ele>
        <time>2013-12-15T09:04:32.000Z</time>
      </trkpt>
      <trkpt lat="43.62353" lon="6.89134">
        <ele>254.80000305176</ele>
        <time>2013-12-15T09:04:35.000Z</time>
      </trkpt>
      <trkpt lat="43.62341" lon="6.89156">
        <ele>253.39999389648</ele>
        <time>2013-12-15T09:04:40.000Z</time>
      </trkpt>
      <trkpt lat="43.6234" lon="6.8917">
        <ele>252</ele>
        <time>2013-12-15T09:04:43.000Z</time>
      </trkpt>
      <trkpt lat="43.6234" lon="6.89188">
        <ele>249</ele>
        <time>2013-12-15T09:04:47.000Z</time>
      </trkpt>
      <trkpt lat="43.62335" lon="6.8921">
        <ele>245.60000610352</ele>
        <time>2013-12-15T09:04:52.000Z</time>
      </trkpt>
      <trkpt lat="43.62313" lon="6.89225">
        <ele>245.60000610352</ele>
        <time>2013-12-15T09:04:57.000Z</time>
      </trkpt>
      <trkpt lat="43.62309" lon="6.89227">
        <ele>245.80000305176</ele>
        <time>2013-12-15T09:04:58.000Z</time>
      </trkpt>
      <trkpt lat="43.62297" lon="6.89234">
        <ele>245.80000305176</ele>
        <time>2013-12-15T09:05:02.000Z</time>
      </trkpt>
      <trkpt lat="43.62288" lon="6.89239">
        <ele>246</ele>
        <time>2013-12-15T09:05:07.000Z</time>
      </trkpt>
      <trkpt lat="43.62274" lon="6.89248">
        <ele>245.80000305176</ele>
        <time>2013-12-15T09:05:13.000Z</time>
      </trkpt>
      <trkpt lat="43.62258" lon="6.89261">
        <ele>244.80000305176</ele>
        <time>2013-12-15T09:05:20.000Z</time>
      </trkpt>
      <trkpt lat="43.62236" lon="6.89273">
        <ele>244.60000610352</ele>
        <time>2013-12-15T09:05:27.000Z</time>
      </trkpt>
      <trkpt lat="43.62216" lon="6.89278">
        <ele>246</ele>
        <time>2013-12-15T09:05:33.000Z</time>
      </trkpt>
      <trkpt lat="43.62192" lon="6.89286">
        <ele>246.80000305176</ele>
        <time>2013-12-15T09:05:41.000Z</time>
      </trkpt>
      <trkpt lat="43.62178" lon="6.89296">
        <ele>246.19999694824</ele>
        <time>2013-12-15T09:05:47.000Z</time>
      </trkpt>
      <trkpt lat="43.62167" lon="6.89306">
        <ele>245.39999389648</ele>
        <time>2013-12-15T09:05:52.000Z</time>
      </trkpt>
      <trkpt lat="43.62166" lon="6.89307">
        <ele>245</ele>
        <time>2013-12-15T09:05:53.000Z</time>
      </trkpt>
      <trkpt lat="43.62163" lon="6.89314">
        <ele>243.39999389648</ele>
        <time>2013-12-15T09:05:55.000Z</time>
      </trkpt>
      <trkpt lat="43.62152" lon="6.89317">
        <ele>242.80000305176</ele>
        <time>2013-12-15T09:05:58.000Z</time>
      </trkpt>
      <trkpt lat="43.62146" lon="6.89323">
        <ele>241.60000610352</ele>
        <time>2013-12-15T09:06:02.000Z</time>
      </trkpt>
      <trkpt lat="43.62137" lon="6.89327">
        <ele>240.80000305176</ele>
        <time>2013-12-15T09:06:06.000Z</time>
      </trkpt>
      <trkpt lat="43.62126" lon="6.89328">
        <ele>241</ele>
        <time>2013-12-15T09:06:09.000Z</time>
      </trkpt>
      <trkpt lat="43.62117" lon="6.89338">
        <ele>239.19999694824</ele>
        <time>2013-12-15T09:06:12.000Z</time>
      </trkpt>
      <trkpt lat="43.62113" lon="6.89342">
        <ele>238.39999389648</ele>
        <time>2013-12-15T09:06:13.000Z</time>
      </trkpt>
      <trkpt lat="43.62106" lon="6.89341">
        <ele>238.60000610352</ele>
        <time>2013-12-15T09:06:15.000Z</time>
      </trkpt>
      <trkpt lat="43.62103" lon="6.89341">
        <ele>238.60000610352</ele>
        <time>2013-12-15T09:06:16.000Z</time>
      </trkpt>
      <trkpt lat="43.62091" lon="6.89341">
        <ele>239.19999694824</ele>
        <time>2013-12-15T09:06:21.000Z</time>
      </trkpt>
      <trkpt lat="43.62082" lon="6.89336">
        <ele>240.19999694824</ele>
        <time>2013-12-15T09:06:25.000Z</time>
      </trkpt>
      <trkpt lat="43.62071" lon="6.89328">
        <ele>239.39999389648</ele>
        <time>2013-12-15T09:06:30.000Z</time>
      </trkpt>
      <trkpt lat="43.62069" lon="6.89329">
        <ele>238.80000305176</ele>
        <time>2013-12-15T09:06:32.000Z</time>
      </trkpt>
      <trkpt lat="43.62066" lon="6.89332">
        <ele>238</ele>
        <time>2013-12-15T09:06:34.000Z</time>
      </trkpt>
      <trkpt lat="43.6206" lon="6.89332">
        <ele>237</ele>
        <time>2013-12-15T09:06:36.000Z</time>
      </trkpt>
      <trkpt lat="43.62057" lon="6.89337">
        <ele>235.39999389648</ele>
        <time>2013-12-15T09:06:38.000Z</time>
      </trkpt>
      <trkpt lat="43.62053" lon="6.89354">
        <ele>231.39999389648</ele>
        <time>2013-12-15T09:06:42.000Z</time>
      </trkpt>
      <trkpt lat="43.6205" lon="6.89358">
        <ele>230.19999694824</ele>
        <time>2013-12-15T09:06:44.000Z</time>
      </trkpt>
      <trkpt lat="43.62043" lon="6.89362">
        <ele>228.60000610352</ele>
        <time>2013-12-15T09:06:46.000Z</time>
      </trkpt>
      <trkpt lat="43.62033" lon="6.89371">
        <ele>225.60000610352</ele>
        <time>2013-12-15T09:06:50.000Z</time>
      </trkpt>
      <trkpt lat="43.62029" lon="6.89371">
        <ele>225</ele>
        <time>2013-12-15T09:06:51.000Z</time>
      </trkpt>
      <trkpt lat="43.62016" lon="6.89374">
        <ele>223</ele>
        <time>2013-12-15T09:06:55.000Z</time>
      </trkpt>
      <trkpt lat="43.62013" lon="6.89386">
        <ele>221.19999694824</ele>
        <time>2013-12-15T09:06:58.000Z</time>
      </trkpt>
      <trkpt lat="43.62011" lon="6.89387">
        <ele>220.80000305176</ele>
        <time>2013-12-15T09:06:59.000Z</time>
      </trkpt>
      <trkpt lat="43.62005" lon="6.89384">
        <ele>220.60000610352</ele>
        <time>2013-12-15T09:07:01.000Z</time>
      </trkpt>
      <trkpt lat="43.61996" lon="6.89391">
        <ele>218.39999389648</ele>
        <time>2013-12-15T09:07:04.000Z</time>
      </trkpt>
      <trkpt lat="43.6199" lon="6.89388">
        <ele>217.80000305176</ele>
        <time>2013-12-15T09:07:06.000Z</time>
      </trkpt>
      <trkpt lat="43.61988" lon="6.89386">
        <ele>217.60000610352</ele>
        <time>2013-12-15T09:07:07.000Z</time>
      </trkpt>
      <trkpt lat="43.6198" lon="6.89374">
        <ele>217.19999694824</ele>
        <time>2013-12-15T09:07:11.000Z</time>
      </trkpt>
      <trkpt lat="43.61975" lon="6.8937">
        <ele>216.80000305176</ele>
        <time>2013-12-15T09:07:13.000Z</time>
      </trkpt>
      <trkpt lat="43.61968" lon="6.8937">
        <ele>215.39999389648</ele>
        <time>2013-12-15T09:07:15.000Z</time>
      </trkpt>
      <trkpt lat="43.61955" lon="6.89384">
        <ele>212.19999694824</ele>
        <time>2013-12-15T09:07:19.000Z</time>
      </trkpt>
      <trkpt lat="43.61955" lon="6.89397">
        <ele>211.60000610352</ele>
        <time>2013-12-15T09:07:21.000Z</time>
      </trkpt>
      <trkpt lat="43.61954" lon="6.89404">
        <ele>211</ele>
        <time>2013-12-15T09:07:22.000Z</time>
      </trkpt>
      <trkpt lat="43.6195" lon="6.89418">
        <ele>209.60000610352</ele>
        <time>2013-12-15T09:07:24.000Z</time>
      </trkpt>
      <trkpt lat="43.61948" lon="6.89425">
        <ele>208.39999389648</ele>
        <time>2013-12-15T09:07:25.000Z</time>
      </trkpt>
      <trkpt lat="43.61944" lon="6.89431">
        <ele>206.80000305176</ele>
        <time>2013-12-15T09:07:26.000Z</time>
      </trkpt>
      <trkpt lat="43.61936" lon="6.89441">
        <ele>204.39999389648</ele>
        <time>2013-12-15T09:07:28.000Z</time>
      </trkpt>
      <trkpt lat="43.61926" lon="6.89442">
        <ele>203.19999694824</ele>
        <time>2013-12-15T09:07:31.000Z</time>
      </trkpt>
      <trkpt lat="43.61924" lon="6.89439">
        <ele>203.39999389648</ele>
        <time>2013-12-15T09:07:34.000Z</time>
      </trkpt>
      <trkpt lat="43.61924" lon="6.89439">
        <ele>203.39999389648</ele>
        <time>2013-12-15T09:07:35.000Z</time>
      </trkpt>
      <trkpt lat="43.61926" lon="6.8944">
        <ele>203.60000610352</ele>
        <time>2013-12-15T09:08:42.000Z</time>
      </trkpt>
      <trkpt lat="43.61917" lon="6.89432">
        <ele>203.80000305176</ele>
        <time>2013-12-15T09:09:32.000Z</time>
      </trkpt>
      <trkpt lat="43.61913" lon="6.89433">
        <ele>203</ele>
        <time>2013-12-15T09:09:33.000Z</time>
      </trkpt>
      <trkpt lat="43.61905" lon="6.89435">
        <ele>201.60000610352</ele>
        <time>2013-12-15T09:09:35.000Z</time>
      </trkpt>
      <trkpt lat="43.61891" lon="6.89443">
        <ele>198.39999389648</ele>
        <time>2013-12-15T09:09:38.000Z</time>
      </trkpt>
      <trkpt lat="43.61887" lon="6.89445">
        <ele>197.60000610352</ele>
        <time>2013-12-15T09:09:39.000Z</time>
      </trkpt>
      <trkpt lat="43.6187" lon="6.89458">
        <ele>193.39999389648</ele>
        <time>2013-12-15T09:09:43.000Z</time>
      </trkpt>
      <trkpt lat="43.61865" lon="6.89461">
        <ele>192.19999694824</ele>
        <time>2013-12-15T09:09:44.000Z</time>
      </trkpt>
      <trkpt lat="43.61854" lon="6.89467">
        <ele>189.80000305176</ele>
        <time>2013-12-15T09:09:46.000Z</time>
      </trkpt>
      <trkpt lat="43.61844" lon="6.89468">
        <ele>188.19999694824</ele>
        <time>2013-12-15T09:09:48.000Z</time>
      </trkpt>
      <trkpt lat="43.61833" lon="6.89466">
        <ele>186.80000305176</ele>
        <time>2013-12-15T09:09:50.000Z</time>
      </trkpt>
      <trkpt lat="43.61828" lon="6.89467">
        <ele>185.80000305176</ele>
        <time>2013-12-15T09:09:51.000Z</time>
      </trkpt>
      <trkpt lat="43.61824" lon="6.89469">
        <ele>184.80000305176</ele>
        <time>2013-12-15T09:09:52.000Z</time>
      </trkpt>
      <trkpt lat="43.61812" lon="6.89469">
        <ele>182.39999389648</ele>
        <time>2013-12-15T09:09:55.000Z</time>
      </trkpt>
      <trkpt lat="43.61809" lon="6.89466">
        <ele>182.19999694824</ele>
        <time>2013-12-15T09:09:56.000Z</time>
      </trkpt>
      <trkpt lat="43.618" lon="6.89466">
        <ele>180.39999389648</ele>
        <time>2013-12-15T09:09:59.000Z</time>
      </trkpt>
      <trkpt lat="43.61798" lon="6.89465">
        <ele>180</ele>
        <time>2013-12-15T09:10:01.000Z</time>
      </trkpt>
      <trkpt lat="43.61796" lon="6.89461">
        <ele>180.19999694824</ele>
        <time>2013-12-15T09:10:03.000Z</time>
      </trkpt>
      <trkpt lat="43.61788" lon="6.89455">
        <ele>179.39999389648</ele>
        <time>2013-12-15T09:10:06.000Z</time>
      </trkpt>
      <trkpt lat="43.61776" lon="6.89448">
        <ele>178</ele>
        <time>2013-12-15T09:10:10.000Z</time>
      </trkpt>
      <trkpt lat="43.61767" lon="6.89441">
        <ele>177</ele>
        <time>2013-12-15T09:10:13.000Z</time>
      </trkpt>
      <trkpt lat="43.61762" lon="6.89439">
        <ele>176.39999389648</ele>
        <time>2013-12-15T09:10:14.000Z</time>
      </trkpt>
      <trkpt lat="43.61751" lon="6.89439">
        <ele>174.39999389648</ele>
        <time>2013-12-15T09:10:17.000Z</time>
      </trkpt>
      <trkpt lat="43.61738" lon="6.89439">
        <ele>170.19999694824</ele>
        <time>2013-12-15T09:10:21.000Z</time>
      </trkpt>
      <trkpt lat="43.61733" lon="6.89439">
        <ele>168.39999389648</ele>
        <time>2013-12-15T09:10:24.000Z</time>
      </trkpt>
      <trkpt lat="43.6173" lon="6.89444">
        <ele>167</ele>
        <time>2013-12-15T09:10:26.000Z</time>
      </trkpt>
      <trkpt lat="43.61725" lon="6.89452">
        <ele>164.19999694824</ele>
        <time>2013-12-15T09:10:28.000Z</time>
      </trkpt>
      <trkpt lat="43.61722" lon="6.89465">
        <ele>161.19999694824</ele>
        <time>2013-12-15T09:10:32.000Z</time>
      </trkpt>
      <trkpt lat="43.61717" lon="6.89458">
        <ele>160.60000610352</ele>
        <time>2013-12-15T09:10:35.000Z</time>
      </trkpt>
      <trkpt lat="43.61714" lon="6.89438">
        <ele>162.60000610352</ele>
        <time>2013-12-15T09:10:39.000Z</time>
      </trkpt>
      <trkpt lat="43.61713" lon="6.8943">
        <ele>163.19999694824</ele>
        <time>2013-12-15T09:10:41.000Z</time>
      </trkpt>
      <trkpt lat="43.61711" lon="6.8943">
        <ele>162.60000610352</ele>
        <time>2013-12-15T09:10:42.000Z</time>
      </trkpt>
      <trkpt lat="43.61706" lon="6.89426">
        <ele>161.60000610352</ele>
        <time>2013-12-15T09:10:45.000Z</time>
      </trkpt>
      <trkpt lat="43.617" lon="6.89423">
        <ele>160.19999694824</ele>
        <time>2013-12-15T09:10:48.000Z</time>
      </trkpt>
      <trkpt lat="43.61695" lon="6.89427">
        <ele>157.60000610352</ele>
        <time>2013-12-15T09:10:50.000Z</time>
      </trkpt>
      <trkpt lat="43.61692" lon="6.89433">
        <ele>155.80000305176</ele>
        <time>2013-12-15T09:10:52.000Z</time>
      </trkpt>
      <trkpt lat="43.61689" lon="6.89437">
        <ele>154.39999389648</ele>
        <time>2013-12-15T09:10:54.000Z</time>
      </trkpt>
      <trkpt lat="43.61687" lon="6.89437">
        <ele>153.60000610352</ele>
        <time>2013-12-15T09:10:56.000Z</time>
      </trkpt>
      <trkpt lat="43.61687" lon="6.89431">
        <ele>154.60000610352</ele>
        <time>2013-12-15T09:10:57.000Z</time>
      </trkpt>
      <trkpt lat="43.61686" lon="6.89426">
        <ele>155.19999694824</ele>
        <time>2013-12-15T09:10:58.000Z</time>
      </trkpt>
      <trkpt lat="43.61689" lon="6.89405">
        <ele>159.60000610352</ele>
        <time>2013-12-15T09:11:02.000Z</time>
      </trkpt>
      <trkpt lat="43.6169" lon="6.89394">
        <ele>162</ele>
        <time>2013-12-15T09:11:05.000Z</time>
      </trkpt>
      <trkpt lat="43.61688" lon="6.8939">
        <ele>162.19999694824</ele>
        <time>2013-12-15T09:11:06.000Z</time>
      </trkpt>
      <trkpt lat="43.61677" lon="6.89382">
        <ele>160.60000610352</ele>
        <time>2013-12-15T09:11:09.000Z</time>
      </trkpt>
      <trkpt lat="43.61661" lon="6.89375">
        <ele>158.60000610352</ele>
        <time>2013-12-15T09:11:13.000Z</time>
      </trkpt>
      <trkpt lat="43.61658" lon="6.89375">
        <ele>158</ele>
        <time>2013-12-15T09:11:14.000Z</time>
      </trkpt>
      <trkpt lat="43.61647" lon="6.89376">
        <ele>155.80000305176</ele>
        <time>2013-12-15T09:11:17.000Z</time>
      </trkpt>
      <trkpt lat="43.61644" lon="6.89374">
        <ele>155.39999389648</ele>
        <time>2013-12-15T09:11:20.000Z</time>
      </trkpt>
      <trkpt lat="43.61635" lon="6.89369">
        <ele>154.80000305176</ele>
        <time>2013-12-15T09:12:45.000Z</time>
      </trkpt>
      <trkpt lat="43.61633" lon="6.8937">
        <ele>154.19999694824</ele>
        <time>2013-12-15T09:12:46.000Z</time>
      </trkpt>
      <trkpt lat="43.61626" lon="6.89371">
        <ele>152.60000610352</ele>
        <time>2013-12-15T09:12:49.000Z</time>
      </trkpt>
      <trkpt lat="43.61613" lon="6.89374">
        <ele>149.80000305176</ele>
        <time>2013-12-15T09:12:52.000Z</time>
      </trkpt>
      <trkpt lat="43.61603" lon="6.8939">
        <ele>144.80000305176</ele>
        <time>2013-12-15T09:12:55.000Z</time>
      </trkpt>
      <trkpt lat="43.61599" lon="6.89396">
        <ele>143</ele>
        <time>2013-12-15T09:12:56.000Z</time>
      </trkpt>
      <trkpt lat="43.61594" lon="6.89399">
        <ele>141.80000305176</ele>
        <time>2013-12-15T09:12:57.000Z</time>
      </trkpt>
      <trkpt lat="43.61583" lon="6.89405">
        <ele>139</ele>
        <time>2013-12-15T09:12:59.000Z</time>
      </trkpt>
      <trkpt lat="43.61568" lon="6.8942">
        <ele>134.39999389648</ele>
        <time>2013-12-15T09:13:02.000Z</time>
      </trkpt>
      <trkpt lat="43.61561" lon="6.8942">
        <ele>133.60000610352</ele>
        <time>2013-12-15T09:13:03.000Z</time>
      </trkpt>
      <trkpt lat="43.61536" lon="6.8942">
        <ele>131</ele>
        <time>2013-12-15T09:13:07.000Z</time>
      </trkpt>
      <trkpt lat="43.61524" lon="6.89429">
        <ele>127.80000305176</ele>
        <time>2013-12-15T09:13:10.000Z</time>
      </trkpt>
      <trkpt lat="43.61511" lon="6.89428">
        <ele>126.80000305176</ele>
        <time>2013-12-15T09:13:13.000Z</time>
      </trkpt>
      <trkpt lat="43.61495" lon="6.89432">
        <ele>124.59999847412</ele>
        <time>2013-12-15T09:13:16.000Z</time>
      </trkpt>
      <trkpt lat="43.6148" lon="6.89439">
        <ele>121</ele>
        <time>2013-12-15T09:13:19.000Z</time>
      </trkpt>
      <trkpt lat="43.61476" lon="6.89444">
        <ele>119.59999847412</ele>
        <time>2013-12-15T09:13:20.000Z</time>
      </trkpt>
      <trkpt lat="43.61476" lon="6.89446">
        <ele>119</ele>
        <time>2013-12-15T09:13:21.000Z</time>
      </trkpt>
      <trkpt lat="43.61472" lon="6.89447">
        <ele>118.40000152588</ele>
        <time>2013-12-15T09:13:22.000Z</time>
      </trkpt>
      <trkpt lat="43.61464" lon="6.89455">
        <ele>115.59999847412</ele>
        <time>2013-12-15T09:13:26.000Z</time>
      </trkpt>
      <trkpt lat="43.61459" lon="6.8946">
        <ele>114</ele>
        <time>2013-12-15T09:13:29.000Z</time>
      </trkpt>
      <trkpt lat="43.61447" lon="6.89455">
        <ele>113.40000152588</ele>
        <time>2013-12-15T09:13:32.000Z</time>
      </trkpt>
      <trkpt lat="43.61444" lon="6.89453">
        <ele>113.19999694824</ele>
        <time>2013-12-15T09:13:33.000Z</time>
      </trkpt>
      <trkpt lat="43.61433" lon="6.89448">
        <ele>112.80000305176</ele>
        <time>2013-12-15T09:13:37.000Z</time>
      </trkpt>
      <trkpt lat="43.6142" lon="6.8945">
        <ele>110.80000305176</ele>
        <time>2013-12-15T09:13:41.000Z</time>
      </trkpt>
      <trkpt lat="43.61409" lon="6.89443">
        <ele>109.59999847412</ele>
        <time>2013-12-15T09:13:45.000Z</time>
      </trkpt>
      <trkpt lat="43.61399" lon="6.89441">
        <ele>107.19999694824</ele>
        <time>2013-12-15T09:13:49.000Z</time>
      </trkpt>
      <trkpt lat="43.61396" lon="6.89439">
        <ele>106.80000305176</ele>
        <time>2013-12-15T09:13:50.000Z</time>
      </trkpt>
      <trkpt lat="43.61393" lon="6.89439">
        <ele>106</ele>
        <time>2013-12-15T09:13:51.000Z</time>
      </trkpt>
      <trkpt lat="43.61384" lon="6.89439">
        <ele>103.40000152588</ele>
        <time>2013-12-15T09:13:53.000Z</time>
      </trkpt>
      <trkpt lat="43.61374" lon="6.89437">
        <ele>101.19999694824</ele>
        <time>2013-12-15T09:13:55.000Z</time>
      </trkpt>
      <trkpt lat="43.6136" lon="6.89435">
        <ele>98</ele>
        <time>2013-12-15T09:13:58.000Z</time>
      </trkpt>
      <trkpt lat="43.61357" lon="6.89434">
        <ele>97.400001525879</ele>
        <time>2013-12-15T09:13:59.000Z</time>
      </trkpt>
      <trkpt lat="43.61343" lon="6.89428">
        <ele>95</ele>
        <time>2013-12-15T09:14:03.000Z</time>
      </trkpt>
      <trkpt lat="43.61324" lon="6.8942">
        <ele>90.400001525879</ele>
        <time>2013-12-15T09:14:07.000Z</time>
      </trkpt>
      <trkpt lat="43.61317" lon="6.89418">
        <ele>87.800003051758</ele>
        <time>2013-12-15T09:14:09.000Z</time>
      </trkpt>
      <trkpt lat="43.6131" lon="6.89417">
        <ele>85.199996948242</ele>
        <time>2013-12-15T09:14:11.000Z</time>
      </trkpt>
      <trkpt lat="43.61303" lon="6.89413">
        <ele>81.800003051758</ele>
        <time>2013-12-15T09:14:13.000Z</time>
      </trkpt>
      <trkpt lat="43.61298" lon="6.89408">
        <ele>79.199996948242</ele>
        <time>2013-12-15T09:14:15.000Z</time>
      </trkpt>
      <trkpt lat="43.61294" lon="6.89411">
        <ele>77.800003051758</ele>
        <time>2013-12-15T09:14:18.000Z</time>
      </trkpt>
      <trkpt lat="43.61292" lon="6.89414">
        <ele>77.199996948242</ele>
        <time>2013-12-15T09:14:20.000Z</time>
      </trkpt>
      <trkpt lat="43.61291" lon="6.89412">
        <ele>76.599998474121</ele>
        <time>2013-12-15T09:14:21.000Z</time>
      </trkpt>
      <trkpt lat="43.61289" lon="6.89411">
        <ele>75.800003051758</ele>
        <time>2013-12-15T09:14:22.000Z</time>
      </trkpt>
      <trkpt lat="43.61283" lon="6.89406">
        <ele>72.400001525879</ele>
        <time>2013-12-15T09:14:25.000Z</time>
      </trkpt>
      <trkpt lat="43.61277" lon="6.89412">
        <ele>71</ele>
        <time>2013-12-15T09:14:28.000Z</time>
      </trkpt>
      <trkpt lat="43.61273" lon="6.89409">
        <ele>68.800003051758</ele>
        <time>2013-12-15T09:14:31.000Z</time>
      </trkpt>
      <trkpt lat="43.61273" lon="6.89394">
        <ele>67.199996948242</ele>
        <time>2013-12-15T09:14:34.000Z</time>
      </trkpt>
      <trkpt lat="43.61275" lon="6.8938">
        <ele>66.199996948242</ele>
        <time>2013-12-15T09:14:37.000Z</time>
      </trkpt>
      <trkpt lat="43.6128" lon="6.89357">
        <ele>66</ele>
        <time>2013-12-15T09:14:41.000Z</time>
      </trkpt>
      <trkpt lat="43.61279" lon="6.89334">
        <ele>62.799999237061</ele>
        <time>2013-12-15T09:14:45.000Z</time>
      </trkpt>
      <trkpt lat="43.61281" lon="6.89323">
        <ele>61.400001525879</ele>
        <time>2013-12-15T09:14:47.000Z</time>
      </trkpt>
      <trkpt lat="43.61284" lon="6.89315">
        <ele>60.799999237061</ele>
        <time>2013-12-15T09:14:49.000Z</time>
      </trkpt>
      <trkpt lat="43.6128" lon="6.89309">
        <ele>58.400001525879</ele>
        <time>2013-12-15T09:14:53.000Z</time>
      </trkpt>
      <trkpt lat="43.61272" lon="6.89315">
        <ele>56.799999237061</ele>
        <time>2013-12-15T09:14:56.000Z</time>
      </trkpt>
      <trkpt lat="43.61267" lon="6.89316">
        <ele>55.400001525879</ele>
        <time>2013-12-15T09:14:58.000Z</time>
      </trkpt>
      <trkpt lat="43.61265" lon="6.89316">
        <ele>54.599998474121</ele>
        <time>2013-12-15T09:14:59.000Z</time>
      </trkpt>
      <trkpt lat="43.61261" lon="6.89316">
        <ele>53.400001525879</ele>
        <time>2013-12-15T09:15:02.000Z</time>
      </trkpt>
      <trkpt lat="43.61263" lon="6.89305">
        <ele>52.200000762939</ele>
        <time>2013-12-15T09:15:05.000Z</time>
      </trkpt>
      <trkpt lat="43.61265" lon="6.89302">
        <ele>52.200000762939</ele>
        <time>2013-12-15T09:15:06.000Z</time>
      </trkpt>
      <trkpt lat="43.61266" lon="6.89298">
        <ele>52</ele>
        <time>2013-12-15T09:15:07.000Z</time>
      </trkpt>
      <trkpt lat="43.61267" lon="6.89291">
        <ele>51.200000762939</ele>
        <time>2013-12-15T09:15:09.000Z</time>
      </trkpt>
      <trkpt lat="43.61273" lon="6.8928">
        <ele>50.799999237061</ele>
        <time>2013-12-15T09:15:13.000Z</time>
      </trkpt>
      <trkpt lat="43.61282" lon="6.89271">
        <ele>51.400001525879</ele>
        <time>2013-12-15T09:15:17.000Z</time>
      </trkpt>
      <trkpt lat="43.61282" lon="6.89269">
        <ele>51</ele>
        <time>2013-12-15T09:15:18.000Z</time>
      </trkpt>
      <trkpt lat="43.61277" lon="6.89268">
        <ele>49.799999237061</ele>
        <time>2013-12-15T09:15:20.000Z</time>
      </trkpt>
      <trkpt lat="43.61263" lon="6.89271">
        <ele>46.799999237061</ele>
        <time>2013-12-15T09:15:23.000Z</time>
      </trkpt>
      <trkpt lat="43.61258" lon="6.89271">
        <ele>45.599998474121</ele>
        <time>2013-12-15T09:15:24.000Z</time>
      </trkpt>
      <trkpt lat="43.61246" lon="6.89272">
        <ele>43.400001525879</ele>
        <time>2013-12-15T09:15:28.000Z</time>
      </trkpt>
      <trkpt lat="43.61242" lon="6.89275">
        <ele>43</ele>
        <time>2013-12-15T09:15:31.000Z</time>
      </trkpt>
      <trkpt lat="43.6124" lon="6.89275">
        <ele>42.400001525879</ele>
        <time>2013-12-15T09:15:32.000Z</time>
      </trkpt>
      <trkpt lat="43.61234" lon="6.89277">
        <ele>41.599998474121</ele>
        <time>2013-12-15T09:15:36.000Z</time>
      </trkpt>
      <trkpt lat="43.61231" lon="6.89278">
        <ele>41.200000762939</ele>
        <time>2013-12-15T09:15:37.000Z</time>
      </trkpt>
      <trkpt lat="43.61228" lon="6.89277">
        <ele>40.599998474121</ele>
        <time>2013-12-15T09:15:38.000Z</time>
      </trkpt>
      <trkpt lat="43.61227" lon="6.89271">
        <ele>39.799999237061</ele>
        <time>2013-12-15T09:15:41.000Z</time>
      </trkpt>
      <trkpt lat="43.61225" lon="6.8926">
        <ele>38.400001525879</ele>
        <time>2013-12-15T09:15:44.000Z</time>
      </trkpt>
      <trkpt lat="43.61216" lon="6.89259">
        <ele>36.799999237061</ele>
        <time>2013-12-15T09:15:47.000Z</time>
      </trkpt>
      <trkpt lat="43.61216" lon="6.89265">
        <ele>37.400001525879</ele>
        <time>2013-12-15T09:15:50.000Z</time>
      </trkpt>
      <trkpt lat="43.61215" lon="6.89264">
        <ele>37</ele>
        <time>2013-12-15T09:15:54.000Z</time>
      </trkpt>
      <trkpt lat="43.61215" lon="6.89263">
        <ele>37</ele>
        <time>2013-12-15T09:19:49.000Z</time>
      </trkpt>
      <trkpt lat="43.61218" lon="6.89266">
        <ele>37.599998474121</ele>
        <time>2013-12-15T09:19:53.000Z</time>
      </trkpt>
      <trkpt lat="43.61218" lon="6.89267">
        <ele>37.799999237061</ele>
        <time>2013-12-15T09:19:54.000Z</time>
      </trkpt>
      <trkpt lat="43.61217" lon="6.89271">
        <ele>38</ele>
        <time>2013-12-15T09:19:58.000Z</time>
      </trkpt>
      <trkpt lat="43.61217" lon="6.89282">
        <ele>38.799999237061</ele>
        <time>2013-12-15T09:20:02.000Z</time>
      </trkpt>
      <trkpt lat="43.61217" lon="6.89283">
        <ele>39.200000762939</ele>
        <time>2013-12-15T09:20:04.000Z</time>
      </trkpt>
      <trkpt lat="43.61217" lon="6.89292">
        <ele>39.799999237061</ele>
        <time>2013-12-15T09:20:14.000Z</time>
      </trkpt>
      <trkpt lat="43.61218" lon="6.89317">
        <ele>42.200000762939</ele>
        <time>2013-12-15T09:20:19.000Z</time>
      </trkpt>
      <trkpt lat="43.61215" lon="6.89358">
        <ele>44.200000762939</ele>
        <time>2013-12-15T09:20:25.000Z</time>
      </trkpt>
      <trkpt lat="43.61205" lon="6.89391">
        <ele>42.799999237061</ele>
        <time>2013-12-15T09:20:31.000Z</time>
      </trkpt>
      <trkpt lat="43.61203" lon="6.894">
        <ele>42.400001525879</ele>
        <time>2013-12-15T09:20:33.000Z</time>
      </trkpt>
      <trkpt lat="43.61195" lon="6.89423">
        <ele>40.400001525879</ele>
        <time>2013-12-15T09:20:38.000Z</time>
      </trkpt>
      <trkpt lat="43.61179" lon="6.89447">
        <ele>35.200000762939</ele>
        <time>2013-12-15T09:20:44.000Z</time>
      </trkpt>
      <trkpt lat="43.61158" lon="6.89468">
        <ele>31.799999237061</ele>
        <time>2013-12-15T09:20:50.000Z</time>
      </trkpt>
      <trkpt lat="43.61132" lon="6.89488">
        <ele>31.799999237061</ele>
        <time>2013-12-15T09:20:57.000Z</time>
      </trkpt>
      <trkpt lat="43.61109" lon="6.89507">
        <ele>32.799999237061</ele>
        <time>2013-12-15T09:21:03.000Z</time>
      </trkpt>
      <trkpt lat="43.61082" lon="6.89524">
        <ele>33.799999237061</ele>
        <time>2013-12-15T09:21:10.000Z</time>
      </trkpt>
      <trkpt lat="43.61052" lon="6.89545">
        <ele>33.400001525879</ele>
        <time>2013-12-15T09:21:17.000Z</time>
      </trkpt>
      <trkpt lat="43.61015" lon="6.89569">
        <ele>30.799999237061</ele>
        <time>2013-12-15T09:21:25.000Z</time>
      </trkpt>
      <trkpt lat="43.6098" lon="6.89597">
        <ele>31.39999961853</ele>
        <time>2013-12-15T09:21:33.000Z</time>
      </trkpt>
      <trkpt lat="43.60961" lon="6.89624">
        <ele>33.200000762939</ele>
        <time>2013-12-15T09:21:38.000Z</time>
      </trkpt>
      <trkpt lat="43.60943" lon="6.89662">
        <ele>32.400001525879</ele>
        <time>2013-12-15T09:21:44.000Z</time>
      </trkpt>
      <trkpt lat="43.60928" lon="6.897">
        <ele>33</ele>
        <time>2013-12-15T09:21:50.000Z</time>
      </trkpt>
      <trkpt lat="43.60926" lon="6.89706">
        <ele>32.799999237061</ele>
        <time>2013-12-15T09:21:51.000Z</time>
      </trkpt>
      <trkpt lat="43.60905" lon="6.89751">
        <ele>33.200000762939</ele>
        <time>2013-12-15T09:21:59.000Z</time>
      </trkpt>
      <trkpt lat="43.60893" lon="6.89773">
        <ele>34.599998474121</ele>
        <time>2013-12-15T09:22:03.000Z</time>
      </trkpt>
      <trkpt lat="43.60883" lon="6.89787">
        <ele>34.799999237061</ele>
        <time>2013-12-15T09:22:06.000Z</time>
      </trkpt>
      <trkpt lat="43.6086" lon="6.89813">
        <ele>33.200000762939</ele>
        <time>2013-12-15T09:22:13.000Z</time>
      </trkpt>
      <trkpt lat="43.60852" lon="6.89821">
        <ele>32.200000762939</ele>
        <time>2013-12-15T09:22:15.000Z</time>
      </trkpt>
      <trkpt lat="43.60844" lon="6.89827">
        <ele>31</ele>
        <time>2013-12-15T09:22:17.000Z</time>
      </trkpt>
      <trkpt lat="43.6084" lon="6.89831">
        <ele>30.200000762939</ele>
        <time>2013-12-15T09:22:18.000Z</time>
      </trkpt>
      <trkpt lat="43.60819" lon="6.89848">
        <ele>29.60000038147</ele>
        <time>2013-12-15T09:22:23.000Z</time>
      </trkpt>
      <trkpt lat="43.60815" lon="6.89852">
        <ele>29.60000038147</ele>
        <time>2013-12-15T09:22:24.000Z</time>
      </trkpt>
      <trkpt lat="43.60809" lon="6.89863">
        <ele>29.799999237061</ele>
        <time>2013-12-15T09:22:26.000Z</time>
      </trkpt>
      <trkpt lat="43.60802" lon="6.89882">
        <ele>30.39999961853</ele>
        <time>2013-12-15T09:22:29.000Z</time>
      </trkpt>
      <trkpt lat="43.60782" lon="6.89934">
        <ele>31</ele>
        <time>2013-12-15T09:22:37.000Z</time>
      </trkpt>
      <trkpt lat="43.60759" lon="6.8998">
        <ele>28.60000038147</ele>
        <time>2013-12-15T09:22:45.000Z</time>
      </trkpt>
      <trkpt lat="43.60728" lon="6.9004">
        <ele>26.799999237061</ele>
        <time>2013-12-15T09:22:56.000Z</time>
      </trkpt>
      <trkpt lat="43.60707" lon="6.90079">
        <ele>26.200000762939</ele>
        <time>2013-12-15T09:23:03.000Z</time>
      </trkpt>
      <trkpt lat="43.607" lon="6.90089">
        <ele>26</ele>
        <time>2013-12-15T09:23:05.000Z</time>
      </trkpt>
      <trkpt lat="43.60682" lon="6.90113">
        <ele>24.799999237061</ele>
        <time>2013-12-15T09:23:10.000Z</time>
      </trkpt>
      <trkpt lat="43.60673" lon="6.90129">
        <ele>24.60000038147</ele>
        <time>2013-12-15T09:23:13.000Z</time>
      </trkpt>
      <trkpt lat="43.60669" lon="6.9014">
        <ele>24.60000038147</ele>
        <time>2013-12-15T09:23:15.000Z</time>
      </trkpt>
      <trkpt lat="43.60667" lon="6.90154">
        <ele>24.60000038147</ele>
        <time>2013-12-15T09:23:17.000Z</time>
      </trkpt>
      <trkpt lat="43.60664" lon="6.90187">
        <ele>25</ele>
        <time>2013-12-15T09:23:22.000Z</time>
      </trkpt>
      <trkpt lat="43.60663" lon="6.90199">
        <ele>25</ele>
        <time>2013-12-15T09:23:24.000Z</time>
      </trkpt>
      <trkpt lat="43.60664" lon="6.90225">
        <ele>25.200000762939</ele>
        <time>2013-12-15T09:23:28.000Z</time>
      </trkpt>
      <trkpt lat="43.60671" lon="6.90266">
        <ele>26.200000762939</ele>
        <time>2013-12-15T09:23:35.000Z</time>
      </trkpt>
      <trkpt lat="43.6067" lon="6.90284">
        <ele>27.200000762939</ele>
        <time>2013-12-15T09:23:38.000Z</time>
      </trkpt>
      <trkpt lat="43.6066" lon="6.90307">
        <ele>29.39999961853</ele>
        <time>2013-12-15T09:23:42.000Z</time>
      </trkpt>
      <trkpt lat="43.60657" lon="6.90312">
        <ele>30</ele>
        <time>2013-12-15T09:23:43.000Z</time>
      </trkpt>
      <trkpt lat="43.60644" lon="6.90336">
        <ele>33.799999237061</ele>
        <time>2013-12-15T09:23:49.000Z</time>
      </trkpt>
      <trkpt lat="43.60641" lon="6.90339">
        <ele>34.400001525879</ele>
        <time>2013-12-15T09:23:50.000Z</time>
      </trkpt>
      <trkpt lat="43.60634" lon="6.90353">
        <ele>36.599998474121</ele>
        <time>2013-12-15T09:23:54.000Z</time>
      </trkpt>
      <trkpt lat="43.60632" lon="6.9036">
        <ele>37.400001525879</ele>
        <time>2013-12-15T09:23:56.000Z</time>
      </trkpt>
      <trkpt lat="43.6062" lon="6.90385">
        <ele>40.400001525879</ele>
        <time>2013-12-15T09:24:04.000Z</time>
      </trkpt>
      <trkpt lat="43.60614" lon="6.90398">
        <ele>41.799999237061</ele>
        <time>2013-12-15T09:24:09.000Z</time>
      </trkpt>
      <trkpt lat="43.60611" lon="6.90394">
        <ele>41.799999237061</ele>
        <time>2013-12-15T09:24:13.000Z</time>
      </trkpt>
      <trkpt lat="43.60613" lon="6.90387">
        <ele>41.200000762939</ele>
        <time>2013-12-15T09:24:15.000Z</time>
      </trkpt>
      <trkpt lat="43.60619" lon="6.90372">
        <ele>39.799999237061</ele>
        <time>2013-12-15T09:24:19.000Z</time>
      </trkpt>
      <trkpt lat="43.60622" lon="6.9035">
        <ele>38.200000762939</ele>
        <time>2013-12-15T09:24:25.000Z</time>
      </trkpt>
      <trkpt lat="43.60613" lon="6.90329">
        <ele>37.799999237061</ele>
        <time>2013-12-15T09:24:30.000Z</time>
      </trkpt>
      <trkpt lat="43.60594" lon="6.90302">
        <ele>37.599998474121</ele>
        <time>2013-12-15T09:24:37.000Z</time>
      </trkpt>
      <trkpt lat="43.60577" lon="6.90265">
        <ele>35</ele>
        <time>2013-12-15T09:24:45.000Z</time>
      </trkpt>
      <trkpt lat="43.60572" lon="6.90255">
        <ele>34.200000762939</ele>
        <time>2013-12-15T09:24:47.000Z</time>
      </trkpt>
      <trkpt lat="43.60563" lon="6.90238">
        <ele>33.200000762939</ele>
        <time>2013-12-15T09:24:51.000Z</time>
      </trkpt>
      <trkpt lat="43.60552" lon="6.90221">
        <ele>32</ele>
        <time>2013-12-15T09:24:55.000Z</time>
      </trkpt>
      <trkpt lat="43.60543" lon="6.90212">
        <ele>31.60000038147</ele>
        <time>2013-12-15T09:24:58.000Z</time>
      </trkpt>
      <trkpt lat="43.60515" lon="6.90193">
        <ele>30.39999961853</ele>
        <time>2013-12-15T09:25:06.000Z</time>
      </trkpt>
      <trkpt lat="43.60498" lon="6.90192">
        <ele>31.200000762939</ele>
        <time>2013-12-15T09:25:10.000Z</time>
      </trkpt>
      <trkpt lat="43.6046" lon="6.90202">
        <ele>32.400001525879</ele>
        <time>2013-12-15T09:25:20.000Z</time>
      </trkpt>
      <trkpt lat="43.60448" lon="6.90212">
        <ele>33.799999237061</ele>
        <time>2013-12-15T09:25:23.000Z</time>
      </trkpt>
      <trkpt lat="43.60443" lon="6.90215">
        <ele>34.400001525879</ele>
        <time>2013-12-15T09:25:24.000Z</time>
      </trkpt>
      <trkpt lat="43.60426" lon="6.90222">
        <ele>35</ele>
        <time>2013-12-15T09:25:27.000Z</time>
      </trkpt>
      <trkpt lat="43.60416" lon="6.90225">
        <ele>35</ele>
        <time>2013-12-15T09:25:29.000Z</time>
      </trkpt>
      <trkpt lat="43.6039" lon="6.90235">
        <ele>33.599998474121</ele>
        <time>2013-12-15T09:25:35.000Z</time>
      </trkpt>
      <trkpt lat="43.60386" lon="6.90237">
        <ele>33.400001525879</ele>
        <time>2013-12-15T09:25:36.000Z</time>
      </trkpt>
      <trkpt lat="43.6036" lon="6.90249">
        <ele>30.200000762939</ele>
        <time>2013-12-15T09:25:43.000Z</time>
      </trkpt>
      <trkpt lat="43.60338" lon="6.90246">
        <ele>27</ele>
        <time>2013-12-15T09:25:49.000Z</time>
      </trkpt>
      <trkpt lat="43.60327" lon="6.90234">
        <ele>29</ele>
        <time>2013-12-15T09:25:53.000Z</time>
      </trkpt>
      <trkpt lat="43.60311" lon="6.90213">
        <ele>36.200000762939</ele>
        <time>2013-12-15T09:26:00.000Z</time>
      </trkpt>
      <trkpt lat="43.60298" lon="6.90188">
        <ele>44.400001525879</ele>
        <time>2013-12-15T09:26:07.000Z</time>
      </trkpt>
      <trkpt lat="43.60298" lon="6.90167">
        <ele>47.599998474121</ele>
        <time>2013-12-15T09:26:12.000Z</time>
      </trkpt>
      <trkpt lat="43.60307" lon="6.90159">
        <ele>46.200000762939</ele>
        <time>2013-12-15T09:26:16.000Z</time>
      </trkpt>
      <trkpt lat="43.60325" lon="6.90147">
        <ele>42</ele>
        <time>2013-12-15T09:26:25.000Z</time>
      </trkpt>
      <trkpt lat="43.60341" lon="6.9014">
        <ele>39.400001525879</ele>
        <time>2013-12-15T09:26:33.000Z</time>
      </trkpt>
      <trkpt lat="43.60358" lon="6.90126">
        <ele>39.799999237061</ele>
        <time>2013-12-15T09:26:42.000Z</time>
      </trkpt>
      <trkpt lat="43.60375" lon="6.90109">
        <ele>39.599998474121</ele>
        <time>2013-12-15T09:26:52.000Z</time>
      </trkpt>
      <trkpt lat="43.60381" lon="6.90092">
        <ele>41</ele>
        <time>2013-12-15T09:26:57.000Z</time>
      </trkpt>
      <trkpt lat="43.60382" lon="6.90071">
        <ele>43.400001525879</ele>
        <time>2013-12-15T09:27:04.000Z</time>
      </trkpt>
      <trkpt lat="43.60374" lon="6.9006">
        <ele>46.599998474121</ele>
        <time>2013-12-15T09:27:10.000Z</time>
      </trkpt>
      <trkpt lat="43.60362" lon="6.90051">
        <ele>50.799999237061</ele>
        <time>2013-12-15T09:27:17.000Z</time>
      </trkpt>
      <trkpt lat="43.60361" lon="6.90036">
        <ele>52.799999237061</ele>
        <time>2013-12-15T09:27:22.000Z</time>
      </trkpt>
      <trkpt lat="43.60369" lon="6.90017">
        <ele>52.200000762939</ele>
        <time>2013-12-15T09:27:29.000Z</time>
      </trkpt>
      <trkpt lat="43.60381" lon="6.89991">
        <ele>52.599998474121</ele>
        <time>2013-12-15T09:27:39.000Z</time>
      </trkpt>
      <trkpt lat="43.60396" lon="6.89956">
        <ele>56.599998474121</ele>
        <time>2013-12-15T09:27:52.000Z</time>
      </trkpt>
      <trkpt lat="43.60407" lon="6.89933">
        <ele>58.400001525879</ele>
        <time>2013-12-15T09:28:00.000Z</time>
      </trkpt>
      <trkpt lat="43.6042" lon="6.89906">
        <ele>60.599998474121</ele>
        <time>2013-12-15T09:28:09.000Z</time>
      </trkpt>
      <trkpt lat="43.60432" lon="6.89886">
        <ele>62.200000762939</ele>
        <time>2013-12-15T09:28:15.000Z</time>
      </trkpt>
      <trkpt lat="43.60449" lon="6.89872">
        <ele>60.599998474121</ele>
        <time>2013-12-15T09:28:22.000Z</time>
      </trkpt>
      <trkpt lat="43.6046" lon="6.89854">
        <ele>61.200000762939</ele>
        <time>2013-12-15T09:28:29.000Z</time>
      </trkpt>
      <trkpt lat="43.6046" lon="6.89838">
        <ele>64.599998474121</ele>
        <time>2013-12-15T09:28:34.000Z</time>
      </trkpt>
      <trkpt lat="43.60453" lon="6.89814">
        <ele>72</ele>
        <time>2013-12-15T09:28:41.000Z</time>
      </trkpt>
      <trkpt lat="43.60443" lon="6.89786">
        <ele>80.599998474121</ele>
        <time>2013-12-15T09:28:49.000Z</time>
      </trkpt>
      <trkpt lat="43.60434" lon="6.89768">
        <ele>85.800003051758</ele>
        <time>2013-12-15T09:28:55.000Z</time>
      </trkpt>
      <trkpt lat="43.60421" lon="6.89743">
        <ele>93.199996948242</ele>
        <time>2013-12-15T09:29:05.000Z</time>
      </trkpt>
      <trkpt lat="43.60417" lon="6.89731">
        <ele>97</ele>
        <time>2013-12-15T09:29:10.000Z</time>
      </trkpt>
      <trkpt lat="43.60419" lon="6.89728">
        <ele>97.400001525879</ele>
        <time>2013-12-15T09:29:11.000Z</time>
      </trkpt>
      <trkpt lat="43.60425" lon="6.89723">
        <ele>98.199996948242</ele>
        <time>2013-12-15T09:29:15.000Z</time>
      </trkpt>
      <trkpt lat="43.60433" lon="6.89724">
        <ele>96.599998474121</ele>
        <time>2013-12-15T09:29:19.000Z</time>
      </trkpt>
      <trkpt lat="43.60435" lon="6.89725">
        <ele>96.199996948242</ele>
        <time>2013-12-15T09:29:20.000Z</time>
      </trkpt>
      <trkpt lat="43.60457" lon="6.89734">
        <ele>90.400001525879</ele>
        <time>2013-12-15T09:29:29.000Z</time>
      </trkpt>
      <trkpt lat="43.60481" lon="6.89747">
        <ele>82.800003051758</ele>
        <time>2013-12-15T09:29:39.000Z</time>
      </trkpt>
      <trkpt lat="43.605" lon="6.89748">
        <ele>79.599998474121</ele>
        <time>2013-12-15T09:29:47.000Z</time>
      </trkpt>
      <trkpt lat="43.60514" lon="6.89739">
        <ele>80.400001525879</ele>
        <time>2013-12-15T09:29:54.000Z</time>
      </trkpt>
      <trkpt lat="43.60531" lon="6.89711">
        <ele>87.599998474121</ele>
        <time>2013-12-15T09:30:04.000Z</time>
      </trkpt>
      <trkpt lat="43.60544" lon="6.89705">
        <ele>87.599998474121</ele>
        <time>2013-12-15T09:30:10.000Z</time>
      </trkpt>
      <trkpt lat="43.60558" lon="6.89713">
        <ele>82.400001525879</ele>
        <time>2013-12-15T09:30:16.000Z</time>
      </trkpt>
      <trkpt lat="43.60574" lon="6.89716">
        <ele>78.400001525879</ele>
        <time>2013-12-15T09:30:22.000Z</time>
      </trkpt>
      <trkpt lat="43.60588" lon="6.89704">
        <ele>80.199996948242</ele>
        <time>2013-12-15T09:30:29.000Z</time>
      </trkpt>
      <trkpt lat="43.60602" lon="6.89682">
        <ele>84</ele>
        <time>2013-12-15T09:30:38.000Z</time>
      </trkpt>
      <trkpt lat="43.60612" lon="6.89661">
        <ele>88</ele>
        <time>2013-12-15T09:30:46.000Z</time>
      </trkpt>
      <trkpt lat="43.6062" lon="6.89641">
        <ele>90.400001525879</ele>
        <time>2013-12-15T09:30:53.000Z</time>
      </trkpt>
      <trkpt lat="43.60634" lon="6.89613">
        <ele>93.400001525879</ele>
        <time>2013-12-15T09:31:03.000Z</time>
      </trkpt>
      <trkpt lat="43.60642" lon="6.89593">
        <ele>96.599998474121</ele>
        <time>2013-12-15T09:31:10.000Z</time>
      </trkpt>
      <trkpt lat="43.60641" lon="6.8959">
        <ele>97.599998474121</ele>
        <time>2013-12-15T09:31:11.000Z</time>
      </trkpt>
      <trkpt lat="43.60636" lon="6.89589">
        <ele>99.599998474121</ele>
        <time>2013-12-15T09:31:15.000Z</time>
      </trkpt>
      <trkpt lat="43.60635" lon="6.8959">
        <ele>99.599998474121</ele>
        <time>2013-12-15T09:31:16.000Z</time>
      </trkpt>
      <trkpt lat="43.60628" lon="6.89601">
        <ele>98.800003051758</ele>
        <time>2013-12-15T09:31:22.000Z</time>
      </trkpt>
      <trkpt lat="43.6062" lon="6.89617">
        <ele>97.199996948242</ele>
        <time>2013-12-15T09:31:29.000Z</time>
      </trkpt>
      <trkpt lat="43.60607" lon="6.89639">
        <ele>95.400001525879</ele>
        <time>2013-12-15T09:31:36.000Z</time>
      </trkpt>
      <trkpt lat="43.60588" lon="6.89665">
        <ele>95.599998474121</ele>
        <time>2013-12-15T09:31:46.000Z</time>
      </trkpt>
      <trkpt lat="43.60577" lon="6.89667">
        <ele>97.599998474121</ele>
        <time>2013-12-15T09:31:52.000Z</time>
      </trkpt>
      <trkpt lat="43.60563" lon="6.89659">
        <ele>101.80000305176</ele>
        <time>2013-12-15T09:31:58.000Z</time>
      </trkpt>
      <trkpt lat="43.60548" lon="6.89651">
        <ele>106</ele>
        <time>2013-12-15T09:32:05.000Z</time>
      </trkpt>
      <trkpt lat="43.60533" lon="6.89659">
        <ele>106.19999694824</ele>
        <time>2013-12-15T09:32:12.000Z</time>
      </trkpt>
      <trkpt lat="43.60517" lon="6.8967">
        <ele>104.59999847412</ele>
        <time>2013-12-15T09:32:20.000Z</time>
      </trkpt>
      <trkpt lat="43.60505" lon="6.89679">
        <ele>103</ele>
        <time>2013-12-15T09:32:26.000Z</time>
      </trkpt>
      <trkpt lat="43.60495" lon="6.8968">
        <ele>103.80000305176</ele>
        <time>2013-12-15T09:32:31.000Z</time>
      </trkpt>
      <trkpt lat="43.60476" lon="6.89669">
        <ele>109</ele>
        <time>2013-12-15T09:32:39.000Z</time>
      </trkpt>
      <trkpt lat="43.60454" lon="6.89663">
        <ele>112.59999847412</ele>
        <time>2013-12-15T09:32:48.000Z</time>
      </trkpt>
      <trkpt lat="43.60438" lon="6.89659">
        <ele>115.40000152588</ele>
        <time>2013-12-15T09:32:55.000Z</time>
      </trkpt>
      <trkpt lat="43.60423" lon="6.89656">
        <ele>117.59999847412</ele>
        <time>2013-12-15T09:33:02.000Z</time>
      </trkpt>
      <trkpt lat="43.6041" lon="6.89655">
        <ele>120</ele>
        <time>2013-12-15T09:33:08.000Z</time>
      </trkpt>
      <trkpt lat="43.60395" lon="6.89655">
        <ele>122.80000305176</ele>
        <time>2013-12-15T09:33:15.000Z</time>
      </trkpt>
      <trkpt lat="43.60378" lon="6.89658">
        <ele>125.59999847412</ele>
        <time>2013-12-15T09:33:22.000Z</time>
      </trkpt>
      <trkpt lat="43.60358" lon="6.8966">
        <ele>129.19999694824</ele>
        <time>2013-12-15T09:33:30.000Z</time>
      </trkpt>
      <trkpt lat="43.60349" lon="6.89668">
        <ele>129.39999389648</ele>
        <time>2013-12-15T09:33:35.000Z</time>
      </trkpt>
      <trkpt lat="43.60348" lon="6.89672">
        <ele>129.19999694824</ele>
        <time>2013-12-15T09:33:37.000Z</time>
      </trkpt>
      <trkpt lat="43.60349" lon="6.8968">
        <ele>128.19999694824</ele>
        <time>2013-12-15T09:33:40.000Z</time>
      </trkpt>
      <trkpt lat="43.6035" lon="6.89686">
        <ele>127.59999847412</ele>
        <time>2013-12-15T09:33:42.000Z</time>
      </trkpt>
      <trkpt lat="43.60351" lon="6.89704">
        <ele>125.59999847412</ele>
        <time>2013-12-15T09:33:48.000Z</time>
      </trkpt>
      <trkpt lat="43.60354" lon="6.89734">
        <ele>121.59999847412</ele>
        <time>2013-12-15T09:33:57.000Z</time>
      </trkpt>
      <trkpt lat="43.6035" lon="6.89758">
        <ele>120</ele>
        <time>2013-12-15T09:34:05.000Z</time>
      </trkpt>
      <trkpt lat="43.60341" lon="6.89775">
        <ele>120.19999694824</ele>
        <time>2013-12-15T09:34:11.000Z</time>
      </trkpt>
      <trkpt lat="43.60325" lon="6.89794">
        <ele>121.59999847412</ele>
        <time>2013-12-15T09:34:20.000Z</time>
      </trkpt>
      <trkpt lat="43.60317" lon="6.89809">
        <ele>120.19999694824</ele>
        <time>2013-12-15T09:34:27.000Z</time>
      </trkpt>
      <trkpt lat="43.60308" lon="6.89822">
        <ele>118.80000305176</ele>
        <time>2013-12-15T09:34:35.000Z</time>
      </trkpt>
      <trkpt lat="43.60295" lon="6.89835">
        <ele>117.80000305176</ele>
        <time>2013-12-15T09:34:43.000Z</time>
      </trkpt>
      <trkpt lat="43.60276" lon="6.89836">
        <ele>121.40000152588</ele>
        <time>2013-12-15T09:34:51.000Z</time>
      </trkpt>
      <trkpt lat="43.60257" lon="6.89827">
        <ele>127.80000305176</ele>
        <time>2013-12-15T09:34:59.000Z</time>
      </trkpt>
      <trkpt lat="43.60245" lon="6.89821">
        <ele>131</ele>
        <time>2013-12-15T09:35:06.000Z</time>
      </trkpt>
      <trkpt lat="43.60234" lon="6.89813">
        <ele>133.19999694824</ele>
        <time>2013-12-15T09:35:12.000Z</time>
      </trkpt>
      <trkpt lat="43.60218" lon="6.89802">
        <ele>135.80000305176</ele>
        <time>2013-12-15T09:35:20.000Z</time>
      </trkpt>
      <trkpt lat="43.60201" lon="6.89788">
        <ele>138.60000610352</ele>
        <time>2013-12-15T09:35:29.000Z</time>
      </trkpt>
      <trkpt lat="43.60187" lon="6.89778">
        <ele>140.19999694824</ele>
        <time>2013-12-15T09:35:36.000Z</time>
      </trkpt>
      <trkpt lat="43.60177" lon="6.8977">
        <ele>141.39999389648</ele>
        <time>2013-12-15T09:35:43.000Z</time>
      </trkpt>
      <trkpt lat="43.60168" lon="6.89758">
        <ele>143.19999694824</ele>
        <time>2013-12-15T09:35:51.000Z</time>
      </trkpt>
      <trkpt lat="43.60157" lon="6.89745">
        <ele>147.80000305176</ele>
        <time>2013-12-15T09:35:59.000Z</time>
      </trkpt>
      <trkpt lat="43.60144" lon="6.89728">
        <ele>154</ele>
        <time>2013-12-15T09:36:09.000Z</time>
      </trkpt>
      <trkpt lat="43.60134" lon="6.89713">
        <ele>158.60000610352</ele>
        <time>2013-12-15T09:36:17.000Z</time>
      </trkpt>
      <trkpt lat="43.60126" lon="6.89699">
        <ele>162.19999694824</ele>
        <time>2013-12-15T09:36:24.000Z</time>
      </trkpt>
      <trkpt lat="43.60115" lon="6.89691">
        <ele>164.19999694824</ele>
        <time>2013-12-15T09:36:31.000Z</time>
      </trkpt>
      <trkpt lat="43.60107" lon="6.89697">
        <ele>163.39999389648</ele>
        <time>2013-12-15T09:36:37.000Z</time>
      </trkpt>
      <trkpt lat="43.60103" lon="6.89716">
        <ele>160.39999389648</ele>
        <time>2013-12-15T09:36:45.000Z</time>
      </trkpt>
      <trkpt lat="43.60102" lon="6.89737">
        <ele>157.19999694824</ele>
        <time>2013-12-15T09:36:53.000Z</time>
      </trkpt>
      <trkpt lat="43.601" lon="6.89759">
        <ele>154.60000610352</ele>
        <time>2013-12-15T09:37:01.000Z</time>
      </trkpt>
      <trkpt lat="43.60092" lon="6.89779">
        <ele>155</ele>
        <time>2013-12-15T09:37:09.000Z</time>
      </trkpt>
      <trkpt lat="43.60086" lon="6.89794">
        <ele>155.80000305176</ele>
        <time>2013-12-15T09:37:15.000Z</time>
      </trkpt>
      <trkpt lat="43.60084" lon="6.89816">
        <ele>155.60000610352</ele>
        <time>2013-12-15T09:37:23.000Z</time>
      </trkpt>
      <trkpt lat="43.60086" lon="6.89838">
        <ele>153.80000305176</ele>
        <time>2013-12-15T09:37:31.000Z</time>
      </trkpt>
      <trkpt lat="43.60092" lon="6.89862">
        <ele>151.80000305176</ele>
        <time>2013-12-15T09:37:39.000Z</time>
      </trkpt>
      <trkpt lat="43.60096" lon="6.89895">
        <ele>150</ele>
        <time>2013-12-15T09:37:50.000Z</time>
      </trkpt>
      <trkpt lat="43.60093" lon="6.89918">
        <ele>150.60000610352</ele>
        <time>2013-12-15T09:37:57.000Z</time>
      </trkpt>
      <trkpt lat="43.60082" lon="6.89932">
        <ele>151.80000305176</ele>
        <time>2013-12-15T09:38:03.000Z</time>
      </trkpt>
      <trkpt lat="43.60065" lon="6.89935">
        <ele>151</ele>
        <time>2013-12-15T09:38:10.000Z</time>
      </trkpt>
      <trkpt lat="43.60053" lon="6.89927">
        <ele>152.39999389648</ele>
        <time>2013-12-15T09:38:16.000Z</time>
      </trkpt>
      <trkpt lat="43.60036" lon="6.89918">
        <ele>154.80000305176</ele>
        <time>2013-12-15T09:38:24.000Z</time>
      </trkpt>
      <trkpt lat="43.60024" lon="6.8991">
        <ele>156.60000610352</ele>
        <time>2013-12-15T09:38:31.000Z</time>
      </trkpt>
      <trkpt lat="43.60008" lon="6.89899">
        <ele>159.60000610352</ele>
        <time>2013-12-15T09:38:40.000Z</time>
      </trkpt>
      <trkpt lat="43.59991" lon="6.89888">
        <ele>160.39999389648</ele>
        <time>2013-12-15T09:38:49.000Z</time>
      </trkpt>
      <trkpt lat="43.59976" lon="6.89875">
        <ele>159.39999389648</ele>
        <time>2013-12-15T09:38:57.000Z</time>
      </trkpt>
      <trkpt lat="43.59964" lon="6.89861">
        <ele>159.80000305176</ele>
        <time>2013-12-15T09:39:04.000Z</time>
      </trkpt>
      <trkpt lat="43.59953" lon="6.89843">
        <ele>161.39999389648</ele>
        <time>2013-12-15T09:39:12.000Z</time>
      </trkpt>
      <trkpt lat="43.59944" lon="6.89824">
        <ele>163.60000610352</ele>
        <time>2013-12-15T09:39:21.000Z</time>
      </trkpt>
      <trkpt lat="43.59939" lon="6.89812">
        <ele>164.39999389648</ele>
        <time>2013-12-15T09:39:27.000Z</time>
      </trkpt>
      <trkpt lat="43.59933" lon="6.89798">
        <ele>166</ele>
        <time>2013-12-15T09:39:35.000Z</time>
      </trkpt>
      <trkpt lat="43.59929" lon="6.89785">
        <ele>167.60000610352</ele>
        <time>2013-12-15T09:39:41.000Z</time>
      </trkpt>
      <trkpt lat="43.59926" lon="6.89769">
        <ele>170.19999694824</ele>
        <time>2013-12-15T09:39:48.000Z</time>
      </trkpt>
      <trkpt lat="43.5992" lon="6.89746">
        <ele>174.39999389648</ele>
        <time>2013-12-15T09:39:57.000Z</time>
      </trkpt>
      <trkpt lat="43.59916" lon="6.89724">
        <ele>179.19999694824</ele>
        <time>2013-12-15T09:40:05.000Z</time>
      </trkpt>
      <trkpt lat="43.59913" lon="6.89705">
        <ele>183.19999694824</ele>
        <time>2013-12-15T09:40:13.000Z</time>
      </trkpt>
      <trkpt lat="43.59911" lon="6.89685">
        <ele>187.80000305176</ele>
        <time>2013-12-15T09:40:21.000Z</time>
      </trkpt>
      <trkpt lat="43.59904" lon="6.89676">
        <ele>188</ele>
        <time>2013-12-15T09:40:25.000Z</time>
      </trkpt>
      <trkpt lat="43.599" lon="6.89673">
        <ele>187.60000610352</ele>
        <time>2013-12-15T09:40:27.000Z</time>
      </trkpt>
      <trkpt lat="43.59885" lon="6.89665">
        <ele>185.39999389648</ele>
        <time>2013-12-15T09:40:33.000Z</time>
      </trkpt>
      <trkpt lat="43.59871" lon="6.89655">
        <ele>184.19999694824</ele>
        <time>2013-12-15T09:40:40.000Z</time>
      </trkpt>
      <trkpt lat="43.59856" lon="6.89648">
        <ele>181.80000305176</ele>
        <time>2013-12-15T09:40:47.000Z</time>
      </trkpt>
      <trkpt lat="43.59843" lon="6.8964">
        <ele>180.60000610352</ele>
        <time>2013-12-15T09:40:54.000Z</time>
      </trkpt>
      <trkpt lat="43.59835" lon="6.8962">
        <ele>184.39999389648</ele>
        <time>2013-12-15T09:41:01.000Z</time>
      </trkpt>
      <trkpt lat="43.59828" lon="6.89596">
        <ele>189</ele>
        <time>2013-12-15T09:41:09.000Z</time>
      </trkpt>
      <trkpt lat="43.59821" lon="6.8958">
        <ele>191</ele>
        <time>2013-12-15T09:41:15.000Z</time>
      </trkpt>
      <trkpt lat="43.5981" lon="6.89562">
        <ele>190.60000610352</ele>
        <time>2013-12-15T09:41:22.000Z</time>
      </trkpt>
      <trkpt lat="43.59797" lon="6.89548">
        <ele>188.60000610352</ele>
        <time>2013-12-15T09:41:30.000Z</time>
      </trkpt>
      <trkpt lat="43.59791" lon="6.89527">
        <ele>191.60000610352</ele>
        <time>2013-12-15T09:41:37.000Z</time>
      </trkpt>
      <trkpt lat="43.59793" lon="6.8951">
        <ele>196.60000610352</ele>
        <time>2013-12-15T09:41:43.000Z</time>
      </trkpt>
      <trkpt lat="43.59795" lon="6.89499">
        <ele>200</ele>
        <time>2013-12-15T09:41:49.000Z</time>
      </trkpt>
      <trkpt lat="43.59796" lon="6.89497">
        <ele>200.80000305176</ele>
        <time>2013-12-15T09:41:51.000Z</time>
      </trkpt>
      <trkpt lat="43.59799" lon="6.89491">
        <ele>203</ele>
        <time>2013-12-15T09:41:55.000Z</time>
      </trkpt>
      <trkpt lat="43.59801" lon="6.89488">
        <ele>204.60000610352</ele>
        <time>2013-12-15T09:41:57.000Z</time>
      </trkpt>
      <trkpt lat="43.59802" lon="6.89474">
        <ele>207.80000305176</ele>
        <time>2013-12-15T09:42:03.000Z</time>
      </trkpt>
      <trkpt lat="43.59797" lon="6.8946">
        <ele>208.80000305176</ele>
        <time>2013-12-15T09:42:10.000Z</time>
      </trkpt>
      <trkpt lat="43.59787" lon="6.89452">
        <ele>206.19999694824</ele>
        <time>2013-12-15T09:42:18.000Z</time>
      </trkpt>
      <trkpt lat="43.59776" lon="6.89441">
        <ele>204.39999389648</ele>
        <time>2013-12-15T09:42:26.000Z</time>
      </trkpt>
      <trkpt lat="43.59769" lon="6.89423">
        <ele>205.19999694824</ele>
        <time>2013-12-15T09:42:33.000Z</time>
      </trkpt>
      <trkpt lat="43.59766" lon="6.89402">
        <ele>208.39999389648</ele>
        <time>2013-12-15T09:42:42.000Z</time>
      </trkpt>
      <trkpt lat="43.59764" lon="6.89388">
        <ele>211</ele>
        <time>2013-12-15T09:42:48.000Z</time>
      </trkpt>
      <trkpt lat="43.59764" lon="6.89372">
        <ele>214.60000610352</ele>
        <time>2013-12-15T09:42:56.000Z</time>
      </trkpt>
      <trkpt lat="43.59762" lon="6.89351">
        <ele>219</ele>
        <time>2013-12-15T09:43:05.000Z</time>
      </trkpt>
      <trkpt lat="43.5976" lon="6.8933">
        <ele>223.19999694824</ele>
        <time>2013-12-15T09:43:13.000Z</time>
      </trkpt>
      <trkpt lat="43.59758" lon="6.89315">
        <ele>225.80000305176</ele>
        <time>2013-12-15T09:43:19.000Z</time>
      </trkpt>
      <trkpt lat="43.59749" lon="6.89307">
        <ele>224.80000305176</ele>
        <time>2013-12-15T09:43:25.000Z</time>
      </trkpt>
      <trkpt lat="43.59739" lon="6.89311">
        <ele>222.80000305176</ele>
        <time>2013-12-15T09:43:31.000Z</time>
      </trkpt>
      <trkpt lat="43.59723" lon="6.89321">
        <ele>218.19999694824</ele>
        <time>2013-12-15T09:43:40.000Z</time>
      </trkpt>
      <trkpt lat="43.59708" lon="6.89318">
        <ele>217</ele>
        <time>2013-12-15T09:43:46.000Z</time>
      </trkpt>
      <trkpt lat="43.59694" lon="6.8931">
        <ele>217.39999389648</ele>
        <time>2013-12-15T09:43:52.000Z</time>
      </trkpt>
      <trkpt lat="43.59688" lon="6.893">
        <ele>219.60000610352</ele>
        <time>2013-12-15T09:43:57.000Z</time>
      </trkpt>
      <trkpt lat="43.59694" lon="6.89296">
        <ele>221.19999694824</ele>
        <time>2013-12-15T09:44:01.000Z</time>
      </trkpt>
      <trkpt lat="43.59702" lon="6.893">
        <ele>221</ele>
        <time>2013-12-15T09:44:05.000Z</time>
      </trkpt>
      <trkpt lat="43.59706" lon="6.89302">
        <ele>221</ele>
        <time>2013-12-15T09:44:07.000Z</time>
      </trkpt>
      <trkpt lat="43.59718" lon="6.89303">
        <ele>222.19999694824</ele>
        <time>2013-12-15T09:44:14.000Z</time>
      </trkpt>
      <trkpt lat="43.59729" lon="6.89292">
        <ele>226.19999694824</ele>
        <time>2013-12-15T09:44:22.000Z</time>
      </trkpt>
      <trkpt lat="43.59734" lon="6.89277">
        <ele>230.39999389648</ele>
        <time>2013-12-15T09:44:29.000Z</time>
      </trkpt>
      <trkpt lat="43.59746" lon="6.89266">
        <ele>234</ele>
        <time>2013-12-15T09:44:36.000Z</time>
      </trkpt>
      <trkpt lat="43.59757" lon="6.89266">
        <ele>236</ele>
        <time>2013-12-15T09:44:41.000Z</time>
      </trkpt>
      <trkpt lat="43.59773" lon="6.8928">
        <ele>237.19999694824</ele>
        <time>2013-12-15T09:44:50.000Z</time>
      </trkpt>
      <trkpt lat="43.59781" lon="6.89297">
        <ele>236.19999694824</ele>
        <time>2013-12-15T09:44:57.000Z</time>
      </trkpt>
      <trkpt lat="43.59785" lon="6.89322">
        <ele>232.80000305176</ele>
        <time>2013-12-15T09:45:06.000Z</time>
      </trkpt>
      <trkpt lat="43.59793" lon="6.89346">
        <ele>230.80000305176</ele>
        <time>2013-12-15T09:45:15.000Z</time>
      </trkpt>
      <trkpt lat="43.598" lon="6.89367">
        <ele>228.80000305176</ele>
        <time>2013-12-15T09:45:23.000Z</time>
      </trkpt>
      <trkpt lat="43.5981" lon="6.89375">
        <ele>231</ele>
        <time>2013-12-15T09:45:29.000Z</time>
      </trkpt>
      <trkpt lat="43.59812" lon="6.89367">
        <ele>233.19999694824</ele>
        <time>2013-12-15T09:45:33.000Z</time>
      </trkpt>
      <trkpt lat="43.59811" lon="6.89364">
        <ele>233.60000610352</ele>
        <time>2013-12-15T09:45:35.000Z</time>
      </trkpt>
      <trkpt lat="43.59806" lon="6.89351">
        <ele>234.39999389648</ele>
        <time>2013-12-15T09:45:41.000Z</time>
      </trkpt>
      <trkpt lat="43.59802" lon="6.89333">
        <ele>236.39999389648</ele>
        <time>2013-12-15T09:45:48.000Z</time>
      </trkpt>
      <trkpt lat="43.598" lon="6.89308">
        <ele>240</ele>
        <time>2013-12-15T09:45:57.000Z</time>
      </trkpt>
      <trkpt lat="43.59798" lon="6.89288">
        <ele>242.60000610352</ele>
        <time>2013-12-15T09:46:05.000Z</time>
      </trkpt>
      <trkpt lat="43.59793" lon="6.8927">
        <ele>244.39999389648</ele>
        <time>2013-12-15T09:46:12.000Z</time>
      </trkpt>
      <trkpt lat="43.59787" lon="6.89257">
        <ele>245.19999694824</ele>
        <time>2013-12-15T09:46:18.000Z</time>
      </trkpt>
      <trkpt lat="43.59776" lon="6.89241">
        <ele>245.60000610352</ele>
        <time>2013-12-15T09:46:26.000Z</time>
      </trkpt>
      <trkpt lat="43.59766" lon="6.89223">
        <ele>246.80000305176</ele>
        <time>2013-12-15T09:46:34.000Z</time>
      </trkpt>
      <trkpt lat="43.59751" lon="6.89218">
        <ele>245.39999389648</ele>
        <time>2013-12-15T09:46:41.000Z</time>
      </trkpt>
      <trkpt lat="43.59729" lon="6.89225">
        <ele>242.19999694824</ele>
        <time>2013-12-15T09:46:51.000Z</time>
      </trkpt>
      <trkpt lat="43.59715" lon="6.89227">
        <ele>240.60000610352</ele>
        <time>2013-12-15T09:46:58.000Z</time>
      </trkpt>
      <trkpt lat="43.59702" lon="6.89216">
        <ele>242.19999694824</ele>
        <time>2013-12-15T09:47:05.000Z</time>
      </trkpt>
      <trkpt lat="43.59687" lon="6.89198">
        <ele>244.80000305176</ele>
        <time>2013-12-15T09:47:14.000Z</time>
      </trkpt>
      <trkpt lat="43.59675" lon="6.89178">
        <ele>248.19999694824</ele>
        <time>2013-12-15T09:47:23.000Z</time>
      </trkpt>
      <trkpt lat="43.59675" lon="6.89156">
        <ele>251.60000610352</ele>
        <time>2013-12-15T09:47:30.000Z</time>
      </trkpt>
      <trkpt lat="43.59678" lon="6.89129">
        <ele>254.19999694824</ele>
        <time>2013-12-15T09:47:39.000Z</time>
      </trkpt>
      <trkpt lat="43.59679" lon="6.89105">
        <ele>256.39999389648</ele>
        <time>2013-12-15T09:47:47.000Z</time>
      </trkpt>
      <trkpt lat="43.59678" lon="6.89099">
        <ele>256.79998779297</ele>
        <time>2013-12-15T09:47:49.000Z</time>
      </trkpt>
      <trkpt lat="43.59674" lon="6.89091">
        <ele>257.20001220703</ele>
        <time>2013-12-15T09:47:52.000Z</time>
      </trkpt>
      <trkpt lat="43.59663" lon="6.89081">
        <ele>256.60000610352</ele>
        <time>2013-12-15T09:47:57.000Z</time>
      </trkpt>
      <trkpt lat="43.59646" lon="6.89077">
        <ele>255</ele>
        <time>2013-12-15T09:48:04.000Z</time>
      </trkpt>
      <trkpt lat="43.59631" lon="6.89071">
        <ele>253.60000610352</ele>
        <time>2013-12-15T09:48:10.000Z</time>
      </trkpt>
      <trkpt lat="43.59615" lon="6.89061">
        <ele>252.39999389648</ele>
        <time>2013-12-15T09:48:17.000Z</time>
      </trkpt>
      <trkpt lat="43.59601" lon="6.89046">
        <ele>251.80000305176</ele>
        <time>2013-12-15T09:48:24.000Z</time>
      </trkpt>
      <trkpt lat="43.59584" lon="6.89035">
        <ele>251.80000305176</ele>
        <time>2013-12-15T09:48:32.000Z</time>
      </trkpt>
      <trkpt lat="43.59569" lon="6.89023">
        <ele>251.80000305176</ele>
        <time>2013-12-15T09:48:39.000Z</time>
      </trkpt>
      <trkpt lat="43.59561" lon="6.89016">
        <ele>252</ele>
        <time>2013-12-15T09:48:44.000Z</time>
      </trkpt>
      <trkpt lat="43.59559" lon="6.89015">
        <ele>252</ele>
        <time>2013-12-15T09:48:52.000Z</time>
      </trkpt>
      <trkpt lat="43.59555" lon="6.89013">
        <ele>252.19999694824</ele>
        <time>2013-12-15T09:48:54.000Z</time>
      </trkpt>
      <trkpt lat="43.59553" lon="6.89011">
        <ele>252.19999694824</ele>
        <time>2013-12-15T09:48:56.000Z</time>
      </trkpt>
      <trkpt lat="43.59552" lon="6.89009">
        <ele>252.39999389648</ele>
        <time>2013-12-15T09:48:59.000Z</time>
      </trkpt>
      <trkpt lat="43.59551" lon="6.89007">
        <ele>252.60000610352</ele>
        <time>2013-12-15T09:54:35.000Z</time>
      </trkpt>
      <trkpt lat="43.59548" lon="6.89005">
        <ele>252.60000610352</ele>
        <time>2013-12-15T09:54:37.000Z</time>
      </trkpt>
      <trkpt lat="43.59533" lon="6.88994">
        <ele>252.80000305176</ele>
        <time>2013-12-15T09:54:44.000Z</time>
      </trkpt>
      <trkpt lat="43.59514" lon="6.88984">
        <ele>253.19999694824</ele>
        <time>2013-12-15T09:54:51.000Z</time>
      </trkpt>
      <trkpt lat="43.59495" lon="6.88974">
        <ele>253.60000610352</ele>
        <time>2013-12-15T09:54:59.000Z</time>
      </trkpt>
      <trkpt lat="43.5947" lon="6.88957">
        <ele>253.80000305176</ele>
        <time>2013-12-15T09:55:09.000Z</time>
      </trkpt>
      <trkpt lat="43.59445" lon="6.88934">
        <ele>255.80000305176</ele>
        <time>2013-12-15T09:55:20.000Z</time>
      </trkpt>
      <trkpt lat="43.59428" lon="6.88917">
        <ele>258.39999389648</ele>
        <time>2013-12-15T09:55:29.000Z</time>
      </trkpt>
      <trkpt lat="43.59411" lon="6.88894">
        <ele>258</ele>
        <time>2013-12-15T09:55:39.000Z</time>
      </trkpt>
      <trkpt lat="43.59394" lon="6.88874">
        <ele>257.60000610352</ele>
        <time>2013-12-15T09:55:48.000Z</time>
      </trkpt>
      <trkpt lat="43.59372" lon="6.88857">
        <ele>259.20001220703</ele>
        <time>2013-12-15T09:55:57.000Z</time>
      </trkpt>
      <trkpt lat="43.59352" lon="6.88841">
        <ele>262.60000610352</ele>
        <time>2013-12-15T09:56:05.000Z</time>
      </trkpt>
      <trkpt lat="43.59335" lon="6.88825">
        <ele>265</ele>
        <time>2013-12-15T09:56:13.000Z</time>
      </trkpt>
      <trkpt lat="43.59312" lon="6.88802">
        <ele>265.79998779297</ele>
        <time>2013-12-15T09:56:24.000Z</time>
      </trkpt>
      <trkpt lat="43.59291" lon="6.8878">
        <ele>268.39999389648</ele>
        <time>2013-12-15T09:56:34.000Z</time>
      </trkpt>
      <trkpt lat="43.59276" lon="6.88757">
        <ele>271.39999389648</ele>
        <time>2013-12-15T09:56:43.000Z</time>
      </trkpt>
      <trkpt lat="43.59267" lon="6.88732">
        <ele>271.20001220703</ele>
        <time>2013-12-15T09:56:51.000Z</time>
      </trkpt>
      <trkpt lat="43.59257" lon="6.88704">
        <ele>270.39999389648</ele>
        <time>2013-12-15T09:57:00.000Z</time>
      </trkpt>
      <trkpt lat="43.59242" lon="6.88687">
        <ele>272.39999389648</ele>
        <time>2013-12-15T09:57:08.000Z</time>
      </trkpt>
      <trkpt lat="43.59225" lon="6.88675">
        <ele>276</ele>
        <time>2013-12-15T09:57:16.000Z</time>
      </trkpt>
      <trkpt lat="43.59211" lon="6.88659">
        <ele>277.79998779297</ele>
        <time>2013-12-15T09:57:23.000Z</time>
      </trkpt>
      <trkpt lat="43.592" lon="6.88632">
        <ele>275.39999389648</ele>
        <time>2013-12-15T09:57:30.000Z</time>
      </trkpt>
      <trkpt lat="43.59187" lon="6.88599">
        <ele>273.60000610352</ele>
        <time>2013-12-15T09:57:36.000Z</time>
      </trkpt>
      <trkpt lat="43.59172" lon="6.88573">
        <ele>273.60000610352</ele>
        <time>2013-12-15T09:57:40.000Z</time>
      </trkpt>
      <trkpt lat="43.59167" lon="6.88567">
        <ele>274</ele>
        <time>2013-12-15T09:57:41.000Z</time>
      </trkpt>
      <trkpt lat="43.59139" lon="6.88541">
        <ele>269.20001220703</ele>
        <time>2013-12-15T09:57:45.000Z</time>
      </trkpt>
      <trkpt lat="43.59096" lon="6.88505">
        <ele>266.20001220703</ele>
        <time>2013-12-15T09:57:50.000Z</time>
      </trkpt>
      <trkpt lat="43.59063" lon="6.88468">
        <ele>258.79998779297</ele>
        <time>2013-12-15T09:57:54.000Z</time>
      </trkpt>
      <trkpt lat="43.59047" lon="6.88452">
        <ele>256.20001220703</ele>
        <time>2013-12-15T09:57:56.000Z</time>
      </trkpt>
      <trkpt lat="43.59037" lon="6.88447">
        <ele>255.80000305176</ele>
        <time>2013-12-15T09:57:57.000Z</time>
      </trkpt>
      <trkpt lat="43.59003" lon="6.88442">
        <ele>256.39999389648</ele>
        <time>2013-12-15T09:58:00.000Z</time>
      </trkpt>
      <trkpt lat="43.58964" lon="6.88437">
        <ele>262.39999389648</ele>
        <time>2013-12-15T09:58:04.000Z</time>
      </trkpt>
      <trkpt lat="43.58942" lon="6.88444">
        <ele>264.20001220703</ele>
        <time>2013-12-15T09:58:07.000Z</time>
      </trkpt>
      <trkpt lat="43.58927" lon="6.88448">
        <ele>264.79998779297</ele>
        <time>2013-12-15T09:58:10.000Z</time>
      </trkpt>
      <trkpt lat="43.58923" lon="6.88448">
        <ele>265.39999389648</ele>
        <time>2013-12-15T09:58:11.000Z</time>
      </trkpt>
      <trkpt lat="43.58913" lon="6.88445">
        <ele>268.20001220703</ele>
        <time>2013-12-15T09:58:15.000Z</time>
      </trkpt>
      <trkpt lat="43.58908" lon="6.88442">
        <ele>270.39999389648</ele>
        <time>2013-12-15T09:58:17.000Z</time>
      </trkpt>
      <trkpt lat="43.5889" lon="6.88436">
        <ele>276.79998779297</ele>
        <time>2013-12-15T09:58:24.000Z</time>
      </trkpt>
      <trkpt lat="43.58869" lon="6.88431">
        <ele>284</ele>
        <time>2013-12-15T09:58:32.000Z</time>
      </trkpt>
      <trkpt lat="43.5885" lon="6.88435">
        <ele>287.39999389648</ele>
        <time>2013-12-15T09:58:39.000Z</time>
      </trkpt>
      <trkpt lat="43.5884" lon="6.88453">
        <ele>284.79998779297</ele>
        <time>2013-12-15T09:58:45.000Z</time>
      </trkpt>
      <trkpt lat="43.58831" lon="6.88478">
        <ele>280.20001220703</ele>
        <time>2013-12-15T09:58:52.000Z</time>
      </trkpt>
      <trkpt lat="43.58823" lon="6.88507">
        <ele>274.79998779297</ele>
        <time>2013-12-15T09:59:00.000Z</time>
      </trkpt>
      <trkpt lat="43.58816" lon="6.88525">
        <ele>272.60000610352</ele>
        <time>2013-12-15T09:59:06.000Z</time>
      </trkpt>
      <trkpt lat="43.58806" lon="6.88526">
        <ele>275.39999389648</ele>
        <time>2013-12-15T09:59:11.000Z</time>
      </trkpt>
      <trkpt lat="43.58787" lon="6.88516">
        <ele>283.79998779297</ele>
        <time>2013-12-15T09:59:19.000Z</time>
      </trkpt>
      <trkpt lat="43.58771" lon="6.88519">
        <ele>287.79998779297</ele>
        <time>2013-12-15T09:59:25.000Z</time>
      </trkpt>
      <trkpt lat="43.58757" lon="6.88539">
        <ele>285.20001220703</ele>
        <time>2013-12-15T09:59:32.000Z</time>
      </trkpt>
      <trkpt lat="43.5874" lon="6.88555">
        <ele>283.39999389648</ele>
        <time>2013-12-15T09:59:39.000Z</time>
      </trkpt>
      <trkpt lat="43.58725" lon="6.88556">
        <ele>285.79998779297</ele>
        <time>2013-12-15T09:59:44.000Z</time>
      </trkpt>
      <trkpt lat="43.58703" lon="6.88548">
        <ele>293</ele>
        <time>2013-12-15T09:59:51.000Z</time>
      </trkpt>
      <trkpt lat="43.58683" lon="6.8855">
        <ele>296.39999389648</ele>
        <time>2013-12-15T09:59:57.000Z</time>
      </trkpt>
      <trkpt lat="43.58665" lon="6.88561">
        <ele>295.60000610352</ele>
        <time>2013-12-15T10:00:03.000Z</time>
      </trkpt>
      <trkpt lat="43.58655" lon="6.8858">
        <ele>290.79998779297</ele>
        <time>2013-12-15T10:00:08.000Z</time>
      </trkpt>
      <trkpt lat="43.58643" lon="6.88612">
        <ele>283.20001220703</ele>
        <time>2013-12-15T10:00:16.000Z</time>
      </trkpt>
      <trkpt lat="43.5863" lon="6.88619">
        <ele>284.79998779297</ele>
        <time>2013-12-15T10:00:21.000Z</time>
      </trkpt>
      <trkpt lat="43.58613" lon="6.88621">
        <ele>288.39999389648</ele>
        <time>2013-12-15T10:00:27.000Z</time>
      </trkpt>
      <trkpt lat="43.58597" lon="6.88623">
        <ele>291.60000610352</ele>
        <time>2013-12-15T10:00:33.000Z</time>
      </trkpt>
      <trkpt lat="43.58582" lon="6.8863">
        <ele>292.79998779297</ele>
        <time>2013-12-15T10:00:40.000Z</time>
      </trkpt>
      <trkpt lat="43.58566" lon="6.88637">
        <ele>292.39999389648</ele>
        <time>2013-12-15T10:00:47.000Z</time>
      </trkpt>
      <trkpt lat="43.58547" lon="6.8864">
        <ele>294.39999389648</ele>
        <time>2013-12-15T10:00:55.000Z</time>
      </trkpt>
      <trkpt lat="43.58519" lon="6.88648">
        <ele>297.39999389648</ele>
        <time>2013-12-15T10:01:06.000Z</time>
      </trkpt>
      <trkpt lat="43.58499" lon="6.88661">
        <ele>298.79998779297</ele>
        <time>2013-12-15T10:01:15.000Z</time>
      </trkpt>
      <trkpt lat="43.58483" lon="6.88672">
        <ele>297</ele>
        <time>2013-12-15T10:01:23.000Z</time>
      </trkpt>
      <trkpt lat="43.58476" lon="6.88676">
        <ele>296.60000610352</ele>
        <time>2013-12-15T10:01:27.000Z</time>
      </trkpt>
      <trkpt lat="43.58473" lon="6.88678">
        <ele>296.60000610352</ele>
        <time>2013-12-15T10:01:29.000Z</time>
      </trkpt>
      <trkpt lat="43.58468" lon="6.88687">
        <ele>296.20001220703</ele>
        <time>2013-12-15T10:01:32.000Z</time>
      </trkpt>
      <trkpt lat="43.58463" lon="6.88694">
        <ele>296.20001220703</ele>
        <time>2013-12-15T10:01:35.000Z</time>
      </trkpt>
      <trkpt lat="43.58461" lon="6.88695">
        <ele>296.20001220703</ele>
        <time>2013-12-15T10:01:36.000Z</time>
      </trkpt>
      <trkpt lat="43.5846" lon="6.88689">
        <ele>296.20001220703</ele>
        <time>2013-12-15T10:01:39.000Z</time>
      </trkpt>
      <trkpt lat="43.58461" lon="6.8867">
        <ele>296.20001220703</ele>
        <time>2013-12-15T10:01:44.000Z</time>
      </trkpt>
      <trkpt lat="43.5846" lon="6.88667">
        <ele>296.20001220703</ele>
        <time>2013-12-15T10:01:45.000Z</time>
      </trkpt>
      <trkpt lat="43.5846" lon="6.88641">
        <ele>299.20001220703</ele>
        <time>2013-12-15T10:01:52.000Z</time>
      </trkpt>
      <trkpt lat="43.58455" lon="6.88612">
        <ele>302.20001220703</ele>
        <time>2013-12-15T10:01:59.000Z</time>
      </trkpt>
      <trkpt lat="43.58444" lon="6.88607">
        <ele>301.79998779297</ele>
        <time>2013-12-15T10:02:02.000Z</time>
      </trkpt>
      <trkpt lat="43.58428" lon="6.88614">
        <ele>299.39999389648</ele>
        <time>2013-12-15T10:02:06.000Z</time>
      </trkpt>
      <trkpt lat="43.58405" lon="6.88621">
        <ele>296.79998779297</ele>
        <time>2013-12-15T10:02:11.000Z</time>
      </trkpt>
      <trkpt lat="43.58401" lon="6.88621">
        <ele>296.39999389648</ele>
        <time>2013-12-15T10:02:12.000Z</time>
      </trkpt>
      <trkpt lat="43.58382" lon="6.88613">
        <ele>295.39999389648</ele>
        <time>2013-12-15T10:02:16.000Z</time>
      </trkpt>
      <trkpt lat="43.58375" lon="6.88604">
        <ele>295.39999389648</ele>
        <time>2013-12-15T10:02:18.000Z</time>
      </trkpt>
      <trkpt lat="43.58372" lon="6.88599">
        <ele>295.39999389648</ele>
        <time>2013-12-15T10:02:19.000Z</time>
      </trkpt>
      <trkpt lat="43.58367" lon="6.88596">
        <ele>295.39999389648</ele>
        <time>2013-12-15T10:02:20.000Z</time>
      </trkpt>
      <trkpt lat="43.58351" lon="6.88594">
        <ele>293.79998779297</ele>
        <time>2013-12-15T10:02:23.000Z</time>
      </trkpt>
      <trkpt lat="43.5834" lon="6.88592">
        <ele>293</ele>
        <time>2013-12-15T10:02:25.000Z</time>
      </trkpt>
      <trkpt lat="43.58328" lon="6.88585">
        <ele>292</ele>
        <time>2013-12-15T10:02:27.000Z</time>
      </trkpt>
      <trkpt lat="43.58301" lon="6.88557">
        <ele>292</ele>
        <time>2013-12-15T10:02:32.000Z</time>
      </trkpt>
      <trkpt lat="43.5829" lon="6.88543">
        <ele>292</ele>
        <time>2013-12-15T10:02:34.000Z</time>
      </trkpt>
      <trkpt lat="43.58276" lon="6.88538">
        <ele>290.79998779297</ele>
        <time>2013-12-15T10:02:36.000Z</time>
      </trkpt>
      <trkpt lat="43.58262" lon="6.8854">
        <ele>288.79998779297</ele>
        <time>2013-12-15T10:02:38.000Z</time>
      </trkpt>
      <trkpt lat="43.58256" lon="6.88539">
        <ele>288</ele>
        <time>2013-12-15T10:02:39.000Z</time>
      </trkpt>
      <trkpt lat="43.5825" lon="6.88536">
        <ele>287.60000610352</ele>
        <time>2013-12-15T10:02:40.000Z</time>
      </trkpt>
      <trkpt lat="43.58236" lon="6.88518">
        <ele>288.60000610352</ele>
        <time>2013-12-15T10:02:43.000Z</time>
      </trkpt>
      <trkpt lat="43.58231" lon="6.88511">
        <ele>288.79998779297</ele>
        <time>2013-12-15T10:02:44.000Z</time>
      </trkpt>
      <trkpt lat="43.58214" lon="6.885">
        <ele>288.60000610352</ele>
        <time>2013-12-15T10:02:47.000Z</time>
      </trkpt>
      <trkpt lat="43.58198" lon="6.88508">
        <ele>286</ele>
        <time>2013-12-15T10:02:50.000Z</time>
      </trkpt>
      <trkpt lat="43.58187" lon="6.88517">
        <ele>283.79998779297</ele>
        <time>2013-12-15T10:02:52.000Z</time>
      </trkpt>
      <trkpt lat="43.58165" lon="6.88535">
        <ele>279.79998779297</ele>
        <time>2013-12-15T10:02:56.000Z</time>
      </trkpt>
      <trkpt lat="43.5816" lon="6.88537">
        <ele>278.79998779297</ele>
        <time>2013-12-15T10:02:57.000Z</time>
      </trkpt>
      <trkpt lat="43.58148" lon="6.88536">
        <ele>277.79998779297</ele>
        <time>2013-12-15T10:02:59.000Z</time>
      </trkpt>
      <trkpt lat="43.58131" lon="6.88515">
        <ele>278.20001220703</ele>
        <time>2013-12-15T10:03:03.000Z</time>
      </trkpt>
      <trkpt lat="43.58126" lon="6.88492">
        <ele>279.79998779297</ele>
        <time>2013-12-15T10:03:06.000Z</time>
      </trkpt>
      <trkpt lat="43.58121" lon="6.88468">
        <ele>281.60000610352</ele>
        <time>2013-12-15T10:03:10.000Z</time>
      </trkpt>
      <trkpt lat="43.58114" lon="6.88469">
        <ele>281</ele>
        <time>2013-12-15T10:03:12.000Z</time>
      </trkpt>
      <trkpt lat="43.58111" lon="6.88488">
        <ele>278.60000610352</ele>
        <time>2013-12-15T10:03:15.000Z</time>
      </trkpt>
      <trkpt lat="43.58114" lon="6.88512">
        <ele>276.60000610352</ele>
        <time>2013-12-15T10:03:18.000Z</time>
      </trkpt>
      <trkpt lat="43.58115" lon="6.8852">
        <ele>276</ele>
        <time>2013-12-15T10:03:19.000Z</time>
      </trkpt>
      <trkpt lat="43.58118" lon="6.88527">
        <ele>275.60000610352</ele>
        <time>2013-12-15T10:03:20.000Z</time>
      </trkpt>
      <trkpt lat="43.58128" lon="6.88554">
        <ele>274</ele>
        <time>2013-12-15T10:03:24.000Z</time>
      </trkpt>
      <trkpt lat="43.58132" lon="6.8856">
        <ele>273.79998779297</ele>
        <time>2013-12-15T10:03:25.000Z</time>
      </trkpt>
      <trkpt lat="43.58152" lon="6.88574">
        <ele>274</ele>
        <time>2013-12-15T10:03:29.000Z</time>
      </trkpt>
      <trkpt lat="43.58163" lon="6.8858">
        <ele>274</ele>
        <time>2013-12-15T10:03:31.000Z</time>
      </trkpt>
      <trkpt lat="43.58168" lon="6.8859">
        <ele>274.20001220703</ele>
        <time>2013-12-15T10:03:33.000Z</time>
      </trkpt>
      <trkpt lat="43.58166" lon="6.88601">
        <ele>274.20001220703</ele>
        <time>2013-12-15T10:03:36.000Z</time>
      </trkpt>
      <trkpt lat="43.58163" lon="6.88603">
        <ele>274</ele>
        <time>2013-12-15T10:03:39.000Z</time>
      </trkpt>
      <trkpt lat="43.58163" lon="6.88603">
        <ele>274</ele>
        <time>2013-12-15T10:03:40.000Z</time>
      </trkpt>
      <trkpt lat="43.58164" lon="6.88599">
        <ele>274</ele>
        <time>2013-12-15T10:03:48.000Z</time>
      </trkpt>
      <trkpt lat="43.58167" lon="6.88599">
        <ele>274.20001220703</ele>
        <time>2013-12-15T10:03:51.000Z</time>
      </trkpt>
      <trkpt lat="43.58169" lon="6.88599">
        <ele>274.39999389648</ele>
        <time>2013-12-15T10:03:54.000Z</time>
      </trkpt>
      <trkpt lat="43.58172" lon="6.88599">
        <ele>274.60000610352</ele>
        <time>2013-12-15T10:04:02.000Z</time>
      </trkpt>
      <trkpt lat="43.58167" lon="6.88601">
        <ele>274.20001220703</ele>
        <time>2013-12-15T10:05:02.000Z</time>
      </trkpt>
      <trkpt lat="43.58166" lon="6.88602">
        <ele>274.20001220703</ele>
        <time>2013-12-15T10:05:03.000Z</time>
      </trkpt>
      <trkpt lat="43.58153" lon="6.88602">
        <ele>273.60000610352</ele>
        <time>2013-12-15T10:05:08.000Z</time>
      </trkpt>
      <trkpt lat="43.58133" lon="6.886">
        <ele>272.39999389648</ele>
        <time>2013-12-15T10:05:12.000Z</time>
      </trkpt>
      <trkpt lat="43.58092" lon="6.88585">
        <ele>268.79998779297</ele>
        <time>2013-12-15T10:05:18.000Z</time>
      </trkpt>
      <trkpt lat="43.58049" lon="6.88562">
        <ele>268.79998779297</ele>
        <time>2013-12-15T10:05:24.000Z</time>
      </trkpt>
      <trkpt lat="43.58004" lon="6.88545">
        <ele>267.79998779297</ele>
        <time>2013-12-15T10:05:30.000Z</time>
      </trkpt>
      <trkpt lat="43.57963" lon="6.88526">
        <ele>264.79998779297</ele>
        <time>2013-12-15T10:05:36.000Z</time>
      </trkpt>
      <trkpt lat="43.57934" lon="6.88506">
        <ele>260.60000610352</ele>
        <time>2013-12-15T10:05:41.000Z</time>
      </trkpt>
      <trkpt lat="43.5792" lon="6.88494">
        <ele>258.79998779297</ele>
        <time>2013-12-15T10:05:45.000Z</time>
      </trkpt>
      <trkpt lat="43.57916" lon="6.88484">
        <ele>259</ele>
        <time>2013-12-15T10:05:49.000Z</time>
      </trkpt>
      <trkpt lat="43.57916" lon="6.88482">
        <ele>259</ele>
        <time>2013-12-15T10:05:54.000Z</time>
      </trkpt>
      <trkpt lat="43.57918" lon="6.88474">
        <ele>259.60000610352</ele>
        <time>2013-12-15T10:06:02.000Z</time>
      </trkpt>
      <trkpt lat="43.57917" lon="6.88464">
        <ele>260.20001220703</ele>
        <time>2013-12-15T10:06:07.000Z</time>
      </trkpt>
      <trkpt lat="43.57914" lon="6.88446">
        <ele>261</ele>
        <time>2013-12-15T10:06:15.000Z</time>
      </trkpt>
      <trkpt lat="43.57909" lon="6.88431">
        <ele>261.60000610352</ele>
        <time>2013-12-15T10:06:22.000Z</time>
      </trkpt>
      <trkpt lat="43.57901" lon="6.88417">
        <ele>261.60000610352</ele>
        <time>2013-12-15T10:06:30.000Z</time>
      </trkpt>
      <trkpt lat="43.57889" lon="6.88403">
        <ele>261.79998779297</ele>
        <time>2013-12-15T10:06:39.000Z</time>
      </trkpt>
      <trkpt lat="43.57886" lon="6.88385">
        <ele>263.39999389648</ele>
        <time>2013-12-15T10:06:47.000Z</time>
      </trkpt>
      <trkpt lat="43.5789" lon="6.8837">
        <ele>265.39999389648</ele>
        <time>2013-12-15T10:06:54.000Z</time>
      </trkpt>
      <trkpt lat="43.57895" lon="6.88354">
        <ele>267.60000610352</ele>
        <time>2013-12-15T10:07:02.000Z</time>
      </trkpt>
      <trkpt lat="43.57899" lon="6.88346">
        <ele>269</ele>
        <time>2013-12-15T10:07:07.000Z</time>
      </trkpt>
      <trkpt lat="43.57899" lon="6.88345">
        <ele>269.20001220703</ele>
        <time>2013-12-15T10:07:08.000Z</time>
      </trkpt>
      <trkpt lat="43.57901" lon="6.88341">
        <ele>269.79998779297</ele>
        <time>2013-12-15T10:07:11.000Z</time>
      </trkpt>
      <trkpt lat="43.57897" lon="6.88338">
        <ele>269.79998779297</ele>
        <time>2013-12-15T10:07:14.000Z</time>
      </trkpt>
      <trkpt lat="43.57896" lon="6.88337">
        <ele>269.60000610352</ele>
        <time>2013-12-15T10:07:15.000Z</time>
      </trkpt>
      <trkpt lat="43.57891" lon="6.8833">
        <ele>270</ele>
        <time>2013-12-15T10:07:19.000Z</time>
      </trkpt>
      <trkpt lat="43.57877" lon="6.88316">
        <ele>270.79998779297</ele>
        <time>2013-12-15T10:07:27.000Z</time>
      </trkpt>
      <trkpt lat="43.57869" lon="6.8831">
        <ele>270.79998779297</ele>
        <time>2013-12-15T10:07:33.000Z</time>
      </trkpt>
      <trkpt lat="43.57862" lon="6.88297">
        <ele>272.39999389648</ele>
        <time>2013-12-15T10:07:38.000Z</time>
      </trkpt>
      <trkpt lat="43.57858" lon="6.88287">
        <ele>273.79998779297</ele>
        <time>2013-12-15T10:07:42.000Z</time>
      </trkpt>
      <trkpt lat="43.57848" lon="6.88278">
        <ele>274</ele>
        <time>2013-12-15T10:07:48.000Z</time>
      </trkpt>
      <trkpt lat="43.57842" lon="6.88277">
        <ele>273.20001220703</ele>
        <time>2013-12-15T10:07:52.000Z</time>
      </trkpt>
      <trkpt lat="43.57841" lon="6.88276">
        <ele>273.20001220703</ele>
        <time>2013-12-15T10:07:53.000Z</time>
      </trkpt>
      <trkpt lat="43.57836" lon="6.88276">
        <ele>272.60000610352</ele>
        <time>2013-12-15T10:07:58.000Z</time>
      </trkpt>
      <trkpt lat="43.57825" lon="6.88271">
        <ele>271.79998779297</ele>
        <time>2013-12-15T10:08:03.000Z</time>
      </trkpt>
      <trkpt lat="43.57808" lon="6.88267">
        <ele>270</ele>
        <time>2013-12-15T10:08:09.000Z</time>
      </trkpt>
      <trkpt lat="43.5779" lon="6.88263">
        <ele>268</ele>
        <time>2013-12-15T10:08:15.000Z</time>
      </trkpt>
      <trkpt lat="43.57775" lon="6.88256">
        <ele>267</ele>
        <time>2013-12-15T10:08:20.000Z</time>
      </trkpt>
      <trkpt lat="43.57762" lon="6.88249">
        <ele>266.20001220703</ele>
        <time>2013-12-15T10:08:26.000Z</time>
      </trkpt>
      <trkpt lat="43.57752" lon="6.8825">
        <ele>264.20001220703</ele>
        <time>2013-12-15T10:08:30.000Z</time>
      </trkpt>
      <trkpt lat="43.57739" lon="6.88248">
        <ele>262.79998779297</ele>
        <time>2013-12-15T10:08:35.000Z</time>
      </trkpt>
      <trkpt lat="43.57725" lon="6.8824">
        <ele>262</ele>
        <time>2013-12-15T10:08:39.000Z</time>
      </trkpt>
      <trkpt lat="43.57712" lon="6.8823">
        <ele>261.20001220703</ele>
        <time>2013-12-15T10:08:43.000Z</time>
      </trkpt>
      <trkpt lat="43.57702" lon="6.88225">
        <ele>259.79998779297</ele>
        <time>2013-12-15T10:08:47.000Z</time>
      </trkpt>
      <trkpt lat="43.57685" lon="6.88216">
        <ele>257.20001220703</ele>
        <time>2013-12-15T10:08:53.000Z</time>
      </trkpt>
      <trkpt lat="43.57665" lon="6.88202">
        <ele>254</ele>
        <time>2013-12-15T10:08:59.000Z</time>
      </trkpt>
      <trkpt lat="43.57651" lon="6.88184">
        <ele>255.80000305176</ele>
        <time>2013-12-15T10:09:04.000Z</time>
      </trkpt>
      <trkpt lat="43.5764" lon="6.88172">
        <ele>256.39999389648</ele>
        <time>2013-12-15T10:09:10.000Z</time>
      </trkpt>
      <trkpt lat="43.57638" lon="6.88169">
        <ele>256.39999389648</ele>
        <time>2013-12-15T10:09:14.000Z</time>
      </trkpt>
      <trkpt lat="43.57629" lon="6.88157">
        <ele>256.60000610352</ele>
        <time>2013-12-15T10:09:32.000Z</time>
      </trkpt>
      <trkpt lat="43.57626" lon="6.88139">
        <ele>256.60000610352</ele>
        <time>2013-12-15T10:09:36.000Z</time>
      </trkpt>
      <trkpt lat="43.57619" lon="6.88106">
        <ele>256.39999389648</ele>
        <time>2013-12-15T10:09:41.000Z</time>
      </trkpt>
      <trkpt lat="43.57617" lon="6.88094">
        <ele>256.39999389648</ele>
        <time>2013-12-15T10:09:43.000Z</time>
      </trkpt>
      <trkpt lat="43.57617" lon="6.88089">
        <ele>256.20001220703</ele>
        <time>2013-12-15T10:09:44.000Z</time>
      </trkpt>
      <trkpt lat="43.57623" lon="6.88066">
        <ele>256.39999389648</ele>
        <time>2013-12-15T10:09:49.000Z</time>
      </trkpt>
      <trkpt lat="43.57629" lon="6.88037">
        <ele>256.39999389648</ele>
        <time>2013-12-15T10:09:56.000Z</time>
      </trkpt>
      <trkpt lat="43.57632" lon="6.88022">
        <ele>256.39999389648</ele>
        <time>2013-12-15T10:10:01.000Z</time>
      </trkpt>
      <trkpt lat="43.57638" lon="6.88009">
        <ele>255.80000305176</ele>
        <time>2013-12-15T10:10:07.000Z</time>
      </trkpt>
      <trkpt lat="43.57644" lon="6.88005">
        <ele>255</ele>
        <time>2013-12-15T10:10:40.000Z</time>
      </trkpt>
      <trkpt lat="43.57647" lon="6.87986">
        <ele>254.19999694824</ele>
        <time>2013-12-15T10:10:45.000Z</time>
      </trkpt>
      <trkpt lat="43.57651" lon="6.87981">
        <ele>253.60000610352</ele>
        <time>2013-12-15T10:10:47.000Z</time>
      </trkpt>
      <trkpt lat="43.57653" lon="6.87976">
        <ele>253.19999694824</ele>
        <time>2013-12-15T10:10:49.000Z</time>
      </trkpt>
      <trkpt lat="43.57655" lon="6.87961">
        <ele>252.80000305176</ele>
        <time>2013-12-15T10:10:53.000Z</time>
      </trkpt>
      <trkpt lat="43.57655" lon="6.87957">
        <ele>252.60000610352</ele>
        <time>2013-12-15T10:10:54.000Z</time>
      </trkpt>
      <trkpt lat="43.57655" lon="6.87944">
        <ele>252.39999389648</ele>
        <time>2013-12-15T10:10:59.000Z</time>
      </trkpt>
      <trkpt lat="43.5765" lon="6.87938">
        <ele>253</ele>
        <time>2013-12-15T10:11:03.000Z</time>
      </trkpt>
      <trkpt lat="43.57648" lon="6.87935">
        <ele>253.19999694824</ele>
        <time>2013-12-15T10:11:05.000Z</time>
      </trkpt>
      <trkpt lat="43.57647" lon="6.87929">
        <ele>253.39999389648</ele>
        <time>2013-12-15T10:11:08.000Z</time>
      </trkpt>
      <trkpt lat="43.57645" lon="6.87925">
        <ele>253.60000610352</ele>
        <time>2013-12-15T10:11:11.000Z</time>
      </trkpt>
      <trkpt lat="43.57643" lon="6.87923">
        <ele>253.80000305176</ele>
        <time>2013-12-15T10:11:14.000Z</time>
      </trkpt>
      <trkpt lat="43.57643" lon="6.87922">
        <ele>253.80000305176</ele>
        <time>2013-12-15T10:11:21.000Z</time>
      </trkpt>
      <trkpt lat="43.57641" lon="6.87919">
        <ele>254</ele>
        <time>2013-12-15T10:11:47.000Z</time>
      </trkpt>
      <trkpt lat="43.57639" lon="6.87916">
        <ele>254.19999694824</ele>
        <time>2013-12-15T10:11:48.000Z</time>
      </trkpt>
      <trkpt lat="43.57631" lon="6.87903">
        <ele>254.19999694824</ele>
        <time>2013-12-15T10:11:54.000Z</time>
      </trkpt>
      <trkpt lat="43.57625" lon="6.87887">
        <ele>253.60000610352</ele>
        <time>2013-12-15T10:11:59.000Z</time>
      </trkpt>
      <trkpt lat="43.57621" lon="6.87872">
        <ele>252.80000305176</ele>
        <time>2013-12-15T10:12:03.000Z</time>
      </trkpt>
      <trkpt lat="43.57611" lon="6.87862">
        <ele>253.19999694824</ele>
        <time>2013-12-15T10:12:08.000Z</time>
      </trkpt>
      <trkpt lat="43.57605" lon="6.87858">
        <ele>253.60000610352</ele>
        <time>2013-12-15T10:12:13.000Z</time>
      </trkpt>
      <trkpt lat="43.57604" lon="6.87856">
        <ele>253.60000610352</ele>
        <time>2013-12-15T10:12:14.000Z</time>
      </trkpt>
      <trkpt lat="43.57605" lon="6.87841">
        <ele>252</ele>
        <time>2013-12-15T10:12:17.000Z</time>
      </trkpt>
      <trkpt lat="43.57611" lon="6.87822">
        <ele>251</ele>
        <time>2013-12-15T10:12:20.000Z</time>
      </trkpt>
      <trkpt lat="43.57607" lon="6.87793">
        <ele>253</ele>
        <time>2013-12-15T10:12:23.000Z</time>
      </trkpt>
      <trkpt lat="43.5761" lon="6.87773">
        <ele>253.39999389648</ele>
        <time>2013-12-15T10:12:26.000Z</time>
      </trkpt>
      <trkpt lat="43.5762" lon="6.87762">
        <ele>250.80000305176</ele>
        <time>2013-12-15T10:12:30.000Z</time>
      </trkpt>
      <trkpt lat="43.57635" lon="6.87743">
        <ele>248</ele>
        <time>2013-12-15T10:12:34.000Z</time>
      </trkpt>
      <trkpt lat="43.5764" lon="6.87739">
        <ele>247.19999694824</ele>
        <time>2013-12-15T10:12:35.000Z</time>
      </trkpt>
      <trkpt lat="43.57663" lon="6.8772">
        <ele>243.19999694824</ele>
        <time>2013-12-15T10:12:39.000Z</time>
      </trkpt>
      <trkpt lat="43.57674" lon="6.87711">
        <ele>243.19999694824</ele>
        <time>2013-12-15T10:12:41.000Z</time>
      </trkpt>
      <trkpt lat="43.57686" lon="6.87704">
        <ele>243.39999389648</ele>
        <time>2013-12-15T10:12:43.000Z</time>
      </trkpt>
      <trkpt lat="43.57706" lon="6.87698">
        <ele>242.60000610352</ele>
        <time>2013-12-15T10:12:46.000Z</time>
      </trkpt>
      <trkpt lat="43.57712" lon="6.87696">
        <ele>242.19999694824</ele>
        <time>2013-12-15T10:12:47.000Z</time>
      </trkpt>
      <trkpt lat="43.57751" lon="6.87688">
        <ele>238.60000610352</ele>
        <time>2013-12-15T10:12:53.000Z</time>
      </trkpt>
      <trkpt lat="43.57778" lon="6.87679">
        <ele>236.19999694824</ele>
        <time>2013-12-15T10:12:57.000Z</time>
      </trkpt>
      <trkpt lat="43.57808" lon="6.87669">
        <ele>231.60000610352</ele>
        <time>2013-12-15T10:13:02.000Z</time>
      </trkpt>
      <trkpt lat="43.57825" lon="6.87652">
        <ele>230.60000610352</ele>
        <time>2013-12-15T10:13:06.000Z</time>
      </trkpt>
      <trkpt lat="43.57844" lon="6.87627">
        <ele>231.19999694824</ele>
        <time>2013-12-15T10:13:12.000Z</time>
      </trkpt>
      <trkpt lat="43.57848" lon="6.87619">
        <ele>231.60000610352</ele>
        <time>2013-12-15T10:13:14.000Z</time>
      </trkpt>
      <trkpt lat="43.57855" lon="6.87599">
        <ele>231.60000610352</ele>
        <time>2013-12-15T10:13:19.000Z</time>
      </trkpt>
      <trkpt lat="43.5786" lon="6.87578">
        <ele>231.80000305176</ele>
        <time>2013-12-15T10:13:25.000Z</time>
      </trkpt>
      <trkpt lat="43.57866" lon="6.87557">
        <ele>233</ele>
        <time>2013-12-15T10:13:33.000Z</time>
      </trkpt>
      <trkpt lat="43.5787" lon="6.87533">
        <ele>234.19999694824</ele>
        <time>2013-12-15T10:13:42.000Z</time>
      </trkpt>
      <trkpt lat="43.57876" lon="6.8752">
        <ele>233.80000305176</ele>
        <time>2013-12-15T10:13:48.000Z</time>
      </trkpt>
      <trkpt lat="43.57884" lon="6.87505">
        <ele>232.60000610352</ele>
        <time>2013-12-15T10:13:54.000Z</time>
      </trkpt>
      <trkpt lat="43.57892" lon="6.87492">
        <ele>230</ele>
        <time>2013-12-15T10:14:01.000Z</time>
      </trkpt>
      <trkpt lat="43.57903" lon="6.87482">
        <ele>226.60000610352</ele>
        <time>2013-12-15T10:14:08.000Z</time>
      </trkpt>
      <trkpt lat="43.57917" lon="6.87474">
        <ele>222.80000305176</ele>
        <time>2013-12-15T10:14:16.000Z</time>
      </trkpt>
      <trkpt lat="43.57928" lon="6.8747">
        <ele>224.19999694824</ele>
        <time>2013-12-15T10:14:21.000Z</time>
      </trkpt>
      <trkpt lat="43.57936" lon="6.87455">
        <ele>224.80000305176</ele>
        <time>2013-12-15T10:14:26.000Z</time>
      </trkpt>
      <trkpt lat="43.57931" lon="6.87445">
        <ele>224</ele>
        <time>2013-12-15T10:14:31.000Z</time>
      </trkpt>
      <trkpt lat="43.57929" lon="6.87445">
        <ele>223.80000305176</ele>
        <time>2013-12-15T10:14:32.000Z</time>
      </trkpt>
      <trkpt lat="43.57919" lon="6.87438">
        <ele>222.60000610352</ele>
        <time>2013-12-15T10:14:36.000Z</time>
      </trkpt>
      <trkpt lat="43.57907" lon="6.87433">
        <ele>224</ele>
        <time>2013-12-15T10:14:42.000Z</time>
      </trkpt>
      <trkpt lat="43.57891" lon="6.87426">
        <ele>226.60000610352</ele>
        <time>2013-12-15T10:14:47.000Z</time>
      </trkpt>
      <trkpt lat="43.5787" lon="6.87415">
        <ele>229.19999694824</ele>
        <time>2013-12-15T10:14:52.000Z</time>
      </trkpt>
      <trkpt lat="43.57852" lon="6.874">
        <ele>229.80000305176</ele>
        <time>2013-12-15T10:14:56.000Z</time>
      </trkpt>
      <trkpt lat="43.57848" lon="6.87397">
        <ele>229.60000610352</ele>
        <time>2013-12-15T10:14:57.000Z</time>
      </trkpt>
      <trkpt lat="43.57833" lon="6.87386">
        <ele>228.39999389648</ele>
        <time>2013-12-15T10:15:00.000Z</time>
      </trkpt>
      <trkpt lat="43.57829" lon="6.87383">
        <ele>229.39999389648</ele>
        <time>2013-12-15T10:15:01.000Z</time>
      </trkpt>
      <trkpt lat="43.57826" lon="6.87381">
        <ele>230.19999694824</ele>
        <time>2013-12-15T10:15:02.000Z</time>
      </trkpt>
      <trkpt lat="43.57815" lon="6.87364">
        <ele>231.39999389648</ele>
        <time>2013-12-15T10:15:05.000Z</time>
      </trkpt>
      <trkpt lat="43.57806" lon="6.87349">
        <ele>232.19999694824</ele>
        <time>2013-12-15T10:15:08.000Z</time>
      </trkpt>
      <trkpt lat="43.57803" lon="6.87338">
        <ele>231</ele>
        <time>2013-12-15T10:15:10.000Z</time>
      </trkpt>
      <trkpt lat="43.57806" lon="6.87315">
        <ele>228</ele>
        <time>2013-12-15T10:15:15.000Z</time>
      </trkpt>
      <trkpt lat="43.57808" lon="6.87308">
        <ele>227.39999389648</ele>
        <time>2013-12-15T10:15:17.000Z</time>
      </trkpt>
      <trkpt lat="43.57807" lon="6.87291">
        <ele>226.80000305176</ele>
        <time>2013-12-15T10:15:21.000Z</time>
      </trkpt>
      <trkpt lat="43.57803" lon="6.87258">
        <ele>227</ele>
        <time>2013-12-15T10:15:27.000Z</time>
      </trkpt>
      <trkpt lat="43.57806" lon="6.87216">
        <ele>221.80000305176</ele>
        <time>2013-12-15T10:15:33.000Z</time>
      </trkpt>
      <trkpt lat="43.57808" lon="6.87194">
        <ele>219</ele>
        <time>2013-12-15T10:15:36.000Z</time>
      </trkpt>
      <trkpt lat="43.57806" lon="6.87181">
        <ele>217.80000305176</ele>
        <time>2013-12-15T10:15:38.000Z</time>
      </trkpt>
      <trkpt lat="43.57795" lon="6.8717">
        <ele>216.80000305176</ele>
        <time>2013-12-15T10:15:42.000Z</time>
      </trkpt>
      <trkpt lat="43.57792" lon="6.87168">
        <ele>216.60000610352</ele>
        <time>2013-12-15T10:15:43.000Z</time>
      </trkpt>
      <trkpt lat="43.57789" lon="6.87165">
        <ele>216.60000610352</ele>
        <time>2013-12-15T10:15:44.000Z</time>
      </trkpt>
      <trkpt lat="43.57778" lon="6.8716">
        <ele>216.60000610352</ele>
        <time>2013-12-15T10:15:47.000Z</time>
      </trkpt>
      <trkpt lat="43.5776" lon="6.87152">
        <ele>216.19999694824</ele>
        <time>2013-12-15T10:15:52.000Z</time>
      </trkpt>
      <trkpt lat="43.57752" lon="6.87143">
        <ele>215</ele>
        <time>2013-12-15T10:15:54.000Z</time>
      </trkpt>
      <trkpt lat="43.57747" lon="6.87139">
        <ele>214.80000305176</ele>
        <time>2013-12-15T10:15:55.000Z</time>
      </trkpt>
      <trkpt lat="43.57737" lon="6.87133">
        <ele>215.60000610352</ele>
        <time>2013-12-15T10:15:57.000Z</time>
      </trkpt>
      <trkpt lat="43.57717" lon="6.87122">
        <ele>216.60000610352</ele>
        <time>2013-12-15T10:16:01.000Z</time>
      </trkpt>
      <trkpt lat="43.57715" lon="6.87119">
        <ele>216.39999389648</ele>
        <time>2013-12-15T10:16:02.000Z</time>
      </trkpt>
      <trkpt lat="43.57711" lon="6.87115">
        <ele>216.19999694824</ele>
        <time>2013-12-15T10:16:04.000Z</time>
      </trkpt>
      <trkpt lat="43.57709" lon="6.87114">
        <ele>216.19999694824</ele>
        <time>2013-12-15T10:16:05.000Z</time>
      </trkpt>
      <trkpt lat="43.57707" lon="6.87112">
        <ele>216</ele>
        <time>2013-12-15T10:16:06.000Z</time>
      </trkpt>
      <trkpt lat="43.57702" lon="6.87103">
        <ele>214.60000610352</ele>
        <time>2013-12-15T10:16:10.000Z</time>
      </trkpt>
      <trkpt lat="43.57699" lon="6.87092">
        <ele>212.60000610352</ele>
        <time>2013-12-15T10:16:15.000Z</time>
      </trkpt>
      <trkpt lat="43.577" lon="6.8708">
        <ele>210</ele>
        <time>2013-12-15T10:16:22.000Z</time>
      </trkpt>
      <trkpt lat="43.57699" lon="6.87077">
        <ele>209.80000305176</ele>
        <time>2013-12-15T10:16:23.000Z</time>
      </trkpt>
      <trkpt lat="43.57692" lon="6.87074">
        <ele>209.80000305176</ele>
        <time>2013-12-15T10:16:26.000Z</time>
      </trkpt>
      <trkpt lat="43.57689" lon="6.87073">
        <ele>209.80000305176</ele>
        <time>2013-12-15T10:16:28.000Z</time>
      </trkpt>
      <trkpt lat="43.57688" lon="6.87073">
        <ele>209.80000305176</ele>
        <time>2013-12-15T10:16:31.000Z</time>
      </trkpt>
      <trkpt lat="43.57687" lon="6.8707">
        <ele>209.39999389648</ele>
        <time>2013-12-15T10:17:01.000Z</time>
      </trkpt>
      <trkpt lat="43.57687" lon="6.87068">
        <ele>209.19999694824</ele>
        <time>2013-12-15T10:17:07.000Z</time>
      </trkpt>
      <trkpt lat="43.57682" lon="6.87067">
        <ele>209.39999389648</ele>
        <time>2013-12-15T10:17:10.000Z</time>
      </trkpt>
      <trkpt lat="43.57679" lon="6.87068">
        <ele>209.60000610352</ele>
        <time>2013-12-15T10:17:11.000Z</time>
      </trkpt>
      <trkpt lat="43.57663" lon="6.87066">
        <ele>211.19999694824</ele>
        <time>2013-12-15T10:17:15.000Z</time>
      </trkpt>
      <trkpt lat="43.57657" lon="6.87063">
        <ele>212.39999389648</ele>
        <time>2013-12-15T10:17:16.000Z</time>
      </trkpt>
      <trkpt lat="43.57647" lon="6.87056">
        <ele>214.19999694824</ele>
        <time>2013-12-15T10:17:18.000Z</time>
      </trkpt>
      <trkpt lat="43.57641" lon="6.87046">
        <ele>214.39999389648</ele>
        <time>2013-12-15T10:17:20.000Z</time>
      </trkpt>
      <trkpt lat="43.5764" lon="6.87042">
        <ele>214</ele>
        <time>2013-12-15T10:17:21.000Z</time>
      </trkpt>
      <trkpt lat="43.57633" lon="6.8702">
        <ele>211.60000610352</ele>
        <time>2013-12-15T10:17:24.000Z</time>
      </trkpt>
      <trkpt lat="43.57633" lon="6.87002">
        <ele>208</ele>
        <time>2013-12-15T10:17:27.000Z</time>
      </trkpt>
      <trkpt lat="43.57634" lon="6.86998">
        <ele>207.39999389648</ele>
        <time>2013-12-15T10:17:28.000Z</time>
      </trkpt>
      <trkpt lat="43.57636" lon="6.86991">
        <ele>207</ele>
        <time>2013-12-15T10:17:30.000Z</time>
      </trkpt>
      <trkpt lat="43.57638" lon="6.86986">
        <ele>206.60000610352</ele>
        <time>2013-12-15T10:17:32.000Z</time>
      </trkpt>
      <trkpt lat="43.57647" lon="6.86983">
        <ele>204.60000610352</ele>
        <time>2013-12-15T10:17:37.000Z</time>
      </trkpt>
      <trkpt lat="43.57665" lon="6.86992">
        <ele>199.39999389648</ele>
        <time>2013-12-15T10:17:43.000Z</time>
      </trkpt>
      <trkpt lat="43.5768" lon="6.87001">
        <ele>198.39999389648</ele>
        <time>2013-12-15T10:17:47.000Z</time>
      </trkpt>
      <trkpt lat="43.57696" lon="6.87004">
        <ele>199.19999694824</ele>
        <time>2013-12-15T10:17:52.000Z</time>
      </trkpt>
      <trkpt lat="43.57712" lon="6.87005">
        <ele>199.80000305176</ele>
        <time>2013-12-15T10:17:58.000Z</time>
      </trkpt>
      <trkpt lat="43.57723" lon="6.86993">
        <ele>199.60000610352</ele>
        <time>2013-12-15T10:18:03.000Z</time>
      </trkpt>
      <trkpt lat="43.57733" lon="6.86975">
        <ele>200.60000610352</ele>
        <time>2013-12-15T10:18:08.000Z</time>
      </trkpt>
      <trkpt lat="43.57742" lon="6.86954">
        <ele>201</ele>
        <time>2013-12-15T10:18:13.000Z</time>
      </trkpt>
      <trkpt lat="43.57753" lon="6.86941">
        <ele>200.80000305176</ele>
        <time>2013-12-15T10:18:17.000Z</time>
      </trkpt>
      <trkpt lat="43.57769" lon="6.86928">
        <ele>201</ele>
        <time>2013-12-15T10:18:22.000Z</time>
      </trkpt>
      <trkpt lat="43.57787" lon="6.86912">
        <ele>200.60000610352</ele>
        <time>2013-12-15T10:18:29.000Z</time>
      </trkpt>
      <trkpt lat="43.57798" lon="6.86914">
        <ele>199.60000610352</ele>
        <time>2013-12-15T10:18:34.000Z</time>
      </trkpt>
      <trkpt lat="43.57809" lon="6.8692">
        <ele>199.60000610352</ele>
        <time>2013-12-15T10:18:40.000Z</time>
      </trkpt>
      <trkpt lat="43.57822" lon="6.86917">
        <ele>198.39999389648</ele>
        <time>2013-12-15T10:18:46.000Z</time>
      </trkpt>
      <trkpt lat="43.57837" lon="6.8691">
        <ele>198.19999694824</ele>
        <time>2013-12-15T10:18:53.000Z</time>
      </trkpt>
      <trkpt lat="43.57853" lon="6.86905">
        <ele>199</ele>
        <time>2013-12-15T10:18:59.000Z</time>
      </trkpt>
      <trkpt lat="43.57868" lon="6.86904">
        <ele>199.80000305176</ele>
        <time>2013-12-15T10:19:05.000Z</time>
      </trkpt>
      <trkpt lat="43.57885" lon="6.8691">
        <ele>201.19999694824</ele>
        <time>2013-12-15T10:19:12.000Z</time>
      </trkpt>
      <trkpt lat="43.57899" lon="6.86915">
        <ele>202.60000610352</ele>
        <time>2013-12-15T10:19:19.000Z</time>
      </trkpt>
      <trkpt lat="43.57912" lon="6.86921">
        <ele>205.19999694824</ele>
        <time>2013-12-15T10:19:25.000Z</time>
      </trkpt>
      <trkpt lat="43.57925" lon="6.86921">
        <ele>205.80000305176</ele>
        <time>2013-12-15T10:19:31.000Z</time>
      </trkpt>
      <trkpt lat="43.57938" lon="6.86923">
        <ele>207.19999694824</ele>
        <time>2013-12-15T10:19:38.000Z</time>
      </trkpt>
      <trkpt lat="43.57949" lon="6.86925">
        <ele>208.19999694824</ele>
        <time>2013-12-15T10:19:44.000Z</time>
      </trkpt>
      <trkpt lat="43.57962" lon="6.86933">
        <ele>212</ele>
        <time>2013-12-15T10:19:51.000Z</time>
      </trkpt>
      <trkpt lat="43.57974" lon="6.86933">
        <ele>212.39999389648</ele>
        <time>2013-12-15T10:19:57.000Z</time>
      </trkpt>
      <trkpt lat="43.57984" lon="6.86933">
        <ele>212.60000610352</ele>
        <time>2013-12-15T10:20:03.000Z</time>
      </trkpt>
      <trkpt lat="43.57994" lon="6.86934">
        <ele>213.80000305176</ele>
        <time>2013-12-15T10:20:08.000Z</time>
      </trkpt>
      <trkpt lat="43.58006" lon="6.86938">
        <ele>216.19999694824</ele>
        <time>2013-12-15T10:20:14.000Z</time>
      </trkpt>
      <trkpt lat="43.58019" lon="6.8694">
        <ele>217.80000305176</ele>
        <time>2013-12-15T10:20:21.000Z</time>
      </trkpt>
      <trkpt lat="43.58033" lon="6.8694">
        <ele>218.39999389648</ele>
        <time>2013-12-15T10:20:30.000Z</time>
      </trkpt>
      <trkpt lat="43.58042" lon="6.8694">
        <ele>219</ele>
        <time>2013-12-15T10:20:37.000Z</time>
      </trkpt>
      <trkpt lat="43.58052" lon="6.86943">
        <ele>220.60000610352</ele>
        <time>2013-12-15T10:20:44.000Z</time>
      </trkpt>
      <trkpt lat="43.58062" lon="6.86952">
        <ele>225</ele>
        <time>2013-12-15T10:20:51.000Z</time>
      </trkpt>
      <trkpt lat="43.58072" lon="6.86961">
        <ele>228.60000610352</ele>
        <time>2013-12-15T10:20:58.000Z</time>
      </trkpt>
      <trkpt lat="43.5808" lon="6.86971">
        <ele>232.39999389648</ele>
        <time>2013-12-15T10:21:03.000Z</time>
      </trkpt>
      <trkpt lat="43.58091" lon="6.86974">
        <ele>234.19999694824</ele>
        <time>2013-12-15T10:21:10.000Z</time>
      </trkpt>
      <trkpt lat="43.581" lon="6.86973">
        <ele>234.19999694824</ele>
        <time>2013-12-15T10:21:17.000Z</time>
      </trkpt>
      <trkpt lat="43.58109" lon="6.86972">
        <ele>234.19999694824</ele>
        <time>2013-12-15T10:21:24.000Z</time>
      </trkpt>
      <trkpt lat="43.58118" lon="6.86968">
        <ele>233.39999389648</ele>
        <time>2013-12-15T10:21:30.000Z</time>
      </trkpt>
      <trkpt lat="43.58129" lon="6.86963">
        <ele>232</ele>
        <time>2013-12-15T10:21:36.000Z</time>
      </trkpt>
      <trkpt lat="43.5814" lon="6.86962">
        <ele>232.39999389648</ele>
        <time>2013-12-15T10:21:42.000Z</time>
      </trkpt>
      <trkpt lat="43.58154" lon="6.86964">
        <ele>233.80000305176</ele>
        <time>2013-12-15T10:21:49.000Z</time>
      </trkpt>
      <trkpt lat="43.58166" lon="6.86967">
        <ele>235.39999389648</ele>
        <time>2013-12-15T10:21:56.000Z</time>
      </trkpt>
      <trkpt lat="43.5818" lon="6.86968">
        <ele>234.80000305176</ele>
        <time>2013-12-15T10:22:04.000Z</time>
      </trkpt>
      <trkpt lat="43.58189" lon="6.86978">
        <ele>237.60000610352</ele>
        <time>2013-12-15T10:22:11.000Z</time>
      </trkpt>
      <trkpt lat="43.58196" lon="6.86987">
        <ele>239.80000305176</ele>
        <time>2013-12-15T10:22:17.000Z</time>
      </trkpt>
      <trkpt lat="43.58205" lon="6.86994">
        <ele>241.19999694824</ele>
        <time>2013-12-15T10:22:24.000Z</time>
      </trkpt>
      <trkpt lat="43.58213" lon="6.86998">
        <ele>242</ele>
        <time>2013-12-15T10:22:30.000Z</time>
      </trkpt>
      <trkpt lat="43.58225" lon="6.87008">
        <ele>244</ele>
        <time>2013-12-15T10:22:38.000Z</time>
      </trkpt>
      <trkpt lat="43.58234" lon="6.8702">
        <ele>247</ele>
        <time>2013-12-15T10:22:46.000Z</time>
      </trkpt>
      <trkpt lat="43.58238" lon="6.87027">
        <ele>249.39999389648</ele>
        <time>2013-12-15T10:22:51.000Z</time>
      </trkpt>
      <trkpt lat="43.58246" lon="6.87041">
        <ele>253</ele>
        <time>2013-12-15T10:22:58.000Z</time>
      </trkpt>
      <trkpt lat="43.58254" lon="6.87049">
        <ele>255</ele>
        <time>2013-12-15T10:23:05.000Z</time>
      </trkpt>
      <trkpt lat="43.58264" lon="6.87051">
        <ele>254.80000305176</ele>
        <time>2013-12-15T10:23:11.000Z</time>
      </trkpt>
      <trkpt lat="43.58278" lon="6.87052">
        <ele>253.19999694824</ele>
        <time>2013-12-15T10:23:19.000Z</time>
      </trkpt>
      <trkpt lat="43.58289" lon="6.87055">
        <ele>253</ele>
        <time>2013-12-15T10:23:26.000Z</time>
      </trkpt>
      <trkpt lat="43.58298" lon="6.87055">
        <ele>252</ele>
        <time>2013-12-15T10:23:32.000Z</time>
      </trkpt>
      <trkpt lat="43.58308" lon="6.87063">
        <ele>253</ele>
        <time>2013-12-15T10:23:39.000Z</time>
      </trkpt>
      <trkpt lat="43.58317" lon="6.87075">
        <ele>255</ele>
        <time>2013-12-15T10:23:47.000Z</time>
      </trkpt>
      <trkpt lat="43.58319" lon="6.87084">
        <ele>257.20001220703</ele>
        <time>2013-12-15T10:23:54.000Z</time>
      </trkpt>
      <trkpt lat="43.58324" lon="6.87101">
        <ele>262.20001220703</ele>
        <time>2013-12-15T10:24:01.000Z</time>
      </trkpt>
      <trkpt lat="43.58326" lon="6.87118">
        <ele>267.60000610352</ele>
        <time>2013-12-15T10:24:07.000Z</time>
      </trkpt>
      <trkpt lat="43.5833" lon="6.87128">
        <ele>270.60000610352</ele>
        <time>2013-12-15T10:24:12.000Z</time>
      </trkpt>
      <trkpt lat="43.58331" lon="6.87129">
        <ele>270.79998779297</ele>
        <time>2013-12-15T10:24:13.000Z</time>
      </trkpt>
      <trkpt lat="43.58341" lon="6.87128">
        <ele>270</ele>
        <time>2013-12-15T10:24:19.000Z</time>
      </trkpt>
      <trkpt lat="43.58353" lon="6.87123">
        <ele>268.20001220703</ele>
        <time>2013-12-15T10:24:27.000Z</time>
      </trkpt>
      <trkpt lat="43.58368" lon="6.87124">
        <ele>268.20001220703</ele>
        <time>2013-12-15T10:24:36.000Z</time>
      </trkpt>
      <trkpt lat="43.58382" lon="6.87125">
        <ele>268.60000610352</ele>
        <time>2013-12-15T10:24:43.000Z</time>
      </trkpt>
      <trkpt lat="43.58396" lon="6.87127">
        <ele>269</ele>
        <time>2013-12-15T10:24:51.000Z</time>
      </trkpt>
      <trkpt lat="43.58411" lon="6.87134">
        <ele>271.39999389648</ele>
        <time>2013-12-15T10:24:58.000Z</time>
      </trkpt>
      <trkpt lat="43.58416" lon="6.87141">
        <ele>274</ele>
        <time>2013-12-15T10:25:04.000Z</time>
      </trkpt>
      <trkpt lat="43.58417" lon="6.87143">
        <ele>274.39999389648</ele>
        <time>2013-12-15T10:25:12.000Z</time>
      </trkpt>
      <trkpt lat="43.58418" lon="6.87148">
        <ele>276</ele>
        <time>2013-12-15T10:26:12.000Z</time>
      </trkpt>
      <trkpt lat="43.58417" lon="6.87143">
        <ele>274.20001220703</ele>
        <time>2013-12-15T10:26:29.000Z</time>
      </trkpt>
      <trkpt lat="43.5842" lon="6.87142">
        <ele>273</ele>
        <time>2013-12-15T10:26:43.000Z</time>
      </trkpt>
      <trkpt lat="43.58421" lon="6.87142">
        <ele>272.79998779297</ele>
        <time>2013-12-15T10:26:57.000Z</time>
      </trkpt>
      <trkpt lat="43.58421" lon="6.87147">
        <ele>274.60000610352</ele>
        <time>2013-12-15T10:27:07.000Z</time>
      </trkpt>
      <trkpt lat="43.5842" lon="6.87147">
        <ele>275</ele>
        <time>2013-12-15T10:27:12.000Z</time>
      </trkpt>
      <trkpt lat="43.58419" lon="6.87149">
        <ele>275.79998779297</ele>
        <time>2013-12-15T10:28:17.000Z</time>
      </trkpt>
      <trkpt lat="43.58424" lon="6.87142">
        <ele>272.20001220703</ele>
        <time>2013-12-15T10:28:51.000Z</time>
      </trkpt>
      <trkpt lat="43.58425" lon="6.87144">
        <ele>272.39999389648</ele>
        <time>2013-12-15T10:28:52.000Z</time>
      </trkpt>
      <trkpt lat="43.58429" lon="6.8715">
        <ele>273.39999389648</ele>
        <time>2013-12-15T10:28:57.000Z</time>
      </trkpt>
      <trkpt lat="43.58431" lon="6.87155">
        <ele>274.39999389648</ele>
        <time>2013-12-15T10:29:03.000Z</time>
      </trkpt>
      <trkpt lat="43.58438" lon="6.87163">
        <ele>274.79998779297</ele>
        <time>2013-12-15T10:29:15.000Z</time>
      </trkpt>
      <trkpt lat="43.58435" lon="6.87157">
        <ele>273.79998779297</ele>
        <time>2013-12-15T10:29:23.000Z</time>
      </trkpt>
      <trkpt lat="43.5843" lon="6.87146">
        <ele>271.39999389648</ele>
        <time>2013-12-15T10:29:36.000Z</time>
      </trkpt>
      <trkpt lat="43.58431" lon="6.87144">
        <ele>270.60000610352</ele>
        <time>2013-12-15T10:29:42.000Z</time>
      </trkpt>
      <trkpt lat="43.5842" lon="6.87149">
        <ele>275.79998779297</ele>
        <time>2013-12-15T10:32:23.000Z</time>
      </trkpt>
      <trkpt lat="43.5842" lon="6.87144">
        <ele>274</ele>
        <time>2013-12-15T10:33:05.000Z</time>
      </trkpt>
      <trkpt lat="43.58425" lon="6.87151">
        <ele>274.79998779297</ele>
        <time>2013-12-15T10:33:11.000Z</time>
      </trkpt>
      <trkpt lat="43.58435" lon="6.87156">
        <ele>273.39999389648</ele>
        <time>2013-12-15T10:33:17.000Z</time>
      </trkpt>
      <trkpt lat="43.58448" lon="6.87162">
        <ele>270.79998779297</ele>
        <time>2013-12-15T10:33:26.000Z</time>
      </trkpt>
      <trkpt lat="43.58456" lon="6.87172">
        <ele>270.79998779297</ele>
        <time>2013-12-15T10:33:32.000Z</time>
      </trkpt>
      <trkpt lat="43.5846" lon="6.87189">
        <ele>272.60000610352</ele>
        <time>2013-12-15T10:33:38.000Z</time>
      </trkpt>
      <trkpt lat="43.58465" lon="6.87208">
        <ele>274.20001220703</ele>
        <time>2013-12-15T10:33:45.000Z</time>
      </trkpt>
      <trkpt lat="43.58463" lon="6.87221">
        <ele>277.20001220703</ele>
        <time>2013-12-15T10:33:50.000Z</time>
      </trkpt>
      <trkpt lat="43.58458" lon="6.87243">
        <ele>283.60000610352</ele>
        <time>2013-12-15T10:33:58.000Z</time>
      </trkpt>
      <trkpt lat="43.58458" lon="6.8726">
        <ele>286.79998779297</ele>
        <time>2013-12-15T10:34:05.000Z</time>
      </trkpt>
      <trkpt lat="43.58463" lon="6.87277">
        <ele>287.79998779297</ele>
        <time>2013-12-15T10:34:11.000Z</time>
      </trkpt>
      <trkpt lat="43.58471" lon="6.87299">
        <ele>287.60000610352</ele>
        <time>2013-12-15T10:34:19.000Z</time>
      </trkpt>
      <trkpt lat="43.58475" lon="6.87315">
        <ele>288.39999389648</ele>
        <time>2013-12-15T10:34:25.000Z</time>
      </trkpt>
      <trkpt lat="43.58478" lon="6.87338">
        <ele>290.60000610352</ele>
        <time>2013-12-15T10:34:33.000Z</time>
      </trkpt>
      <trkpt lat="43.5848" lon="6.8736">
        <ele>292.60000610352</ele>
        <time>2013-12-15T10:34:41.000Z</time>
      </trkpt>
      <trkpt lat="43.58483" lon="6.87384">
        <ele>294.79998779297</ele>
        <time>2013-12-15T10:34:49.000Z</time>
      </trkpt>
      <trkpt lat="43.58484" lon="6.87403">
        <ele>296.79998779297</ele>
        <time>2013-12-15T10:34:56.000Z</time>
      </trkpt>
      <trkpt lat="43.58482" lon="6.87426">
        <ele>302</ele>
        <time>2013-12-15T10:35:03.000Z</time>
      </trkpt>
      <trkpt lat="43.58484" lon="6.87446">
        <ele>305.20001220703</ele>
        <time>2013-12-15T10:35:07.000Z</time>
      </trkpt>
      <trkpt lat="43.58491" lon="6.87472">
        <ele>308</ele>
        <time>2013-12-15T10:35:13.000Z</time>
      </trkpt>
      <trkpt lat="43.58497" lon="6.87484">
        <ele>308.79998779297</ele>
        <time>2013-12-15T10:35:18.000Z</time>
      </trkpt>
      <trkpt lat="43.58506" lon="6.87495">
        <ele>311</ele>
        <time>2013-12-15T10:35:24.000Z</time>
      </trkpt>
      <trkpt lat="43.58514" lon="6.87508">
        <ele>314.39999389648</ele>
        <time>2013-12-15T10:35:32.000Z</time>
      </trkpt>
      <trkpt lat="43.58522" lon="6.87519">
        <ele>317</ele>
        <time>2013-12-15T10:35:40.000Z</time>
      </trkpt>
      <trkpt lat="43.58532" lon="6.8753">
        <ele>319.79998779297</ele>
        <time>2013-12-15T10:35:49.000Z</time>
      </trkpt>
      <trkpt lat="43.58539" lon="6.87535">
        <ele>321</ele>
        <time>2013-12-15T10:35:56.000Z</time>
      </trkpt>
      <trkpt lat="43.58552" lon="6.87538">
        <ele>322</ele>
        <time>2013-12-15T10:36:05.000Z</time>
      </trkpt>
      <trkpt lat="43.58564" lon="6.87537">
        <ele>322</ele>
        <time>2013-12-15T10:36:14.000Z</time>
      </trkpt>
      <trkpt lat="43.58577" lon="6.87537">
        <ele>322.39999389648</ele>
        <time>2013-12-15T10:36:23.000Z</time>
      </trkpt>
      <trkpt lat="43.58587" lon="6.87539">
        <ele>323.79998779297</ele>
        <time>2013-12-15T10:36:31.000Z</time>
      </trkpt>
      <trkpt lat="43.586" lon="6.87541">
        <ele>327.20001220703</ele>
        <time>2013-12-15T10:36:40.000Z</time>
      </trkpt>
      <trkpt lat="43.58611" lon="6.87544">
        <ele>329.79998779297</ele>
        <time>2013-12-15T10:36:47.000Z</time>
      </trkpt>
      <trkpt lat="43.58617" lon="6.87545">
        <ele>331.60000610352</ele>
        <time>2013-12-15T10:36:52.000Z</time>
      </trkpt>
      <trkpt lat="43.58617" lon="6.87547">
        <ele>332</ele>
        <time>2013-12-15T10:36:53.000Z</time>
      </trkpt>
      <trkpt lat="43.58614" lon="6.87551">
        <ele>332</ele>
        <time>2013-12-15T10:36:57.000Z</time>
      </trkpt>
      <trkpt lat="43.5861" lon="6.87555">
        <ele>331.60000610352</ele>
        <time>2013-12-15T10:37:03.000Z</time>
      </trkpt>
      <trkpt lat="43.58608" lon="6.87555">
        <ele>331.39999389648</ele>
        <time>2013-12-15T10:37:04.000Z</time>
      </trkpt>
      <trkpt lat="43.58601" lon="6.87558">
        <ele>330.60000610352</ele>
        <time>2013-12-15T10:37:10.000Z</time>
      </trkpt>
      <trkpt lat="43.58594" lon="6.87564">
        <ele>330.20001220703</ele>
        <time>2013-12-15T10:37:17.000Z</time>
      </trkpt>
      <trkpt lat="43.58587" lon="6.87569">
        <ele>329.79998779297</ele>
        <time>2013-12-15T10:37:24.000Z</time>
      </trkpt>
      <trkpt lat="43.5858" lon="6.87575">
        <ele>330.20001220703</ele>
        <time>2013-12-15T10:37:33.000Z</time>
      </trkpt>
      <trkpt lat="43.58573" lon="6.87582">
        <ele>331.60000610352</ele>
        <time>2013-12-15T10:37:41.000Z</time>
      </trkpt>
      <trkpt lat="43.58561" lon="6.87591">
        <ele>333</ele>
        <time>2013-12-15T10:37:50.000Z</time>
      </trkpt>
      <trkpt lat="43.58548" lon="6.87598">
        <ele>333.39999389648</ele>
        <time>2013-12-15T10:37:58.000Z</time>
      </trkpt>
      <trkpt lat="43.58536" lon="6.87598">
        <ele>333</ele>
        <time>2013-12-15T10:38:05.000Z</time>
      </trkpt>
      <trkpt lat="43.58526" lon="6.876">
        <ele>332.60000610352</ele>
        <time>2013-12-15T10:38:12.000Z</time>
      </trkpt>
      <trkpt lat="43.58516" lon="6.87598">
        <ele>332</ele>
        <time>2013-12-15T10:38:18.000Z</time>
      </trkpt>
      <trkpt lat="43.58507" lon="6.87599">
        <ele>331.60000610352</ele>
        <time>2013-12-15T10:38:24.000Z</time>
      </trkpt>
      <trkpt lat="43.58504" lon="6.87596">
        <ele>331.39999389648</ele>
        <time>2013-12-15T10:38:29.000Z</time>
      </trkpt>
      <trkpt lat="43.58503" lon="6.87596">
        <ele>331.20001220703</ele>
        <time>2013-12-15T10:38:38.000Z</time>
      </trkpt>
      <trkpt lat="43.58502" lon="6.87594">
        <ele>331.20001220703</ele>
        <time>2013-12-15T10:41:22.000Z</time>
      </trkpt>
      <trkpt lat="43.58498" lon="6.87592">
        <ele>331</ele>
        <time>2013-12-15T10:41:25.000Z</time>
      </trkpt>
      <trkpt lat="43.58486" lon="6.87583">
        <ele>330.20001220703</ele>
        <time>2013-12-15T10:41:31.000Z</time>
      </trkpt>
      <trkpt lat="43.58471" lon="6.87569">
        <ele>327.60000610352</ele>
        <time>2013-12-15T10:41:38.000Z</time>
      </trkpt>
      <trkpt lat="43.58456" lon="6.8756">
        <ele>327.20001220703</ele>
        <time>2013-12-15T10:41:44.000Z</time>
      </trkpt>
      <trkpt lat="43.58447" lon="6.87548">
        <ele>327.39999389648</ele>
        <time>2013-12-15T10:41:49.000Z</time>
      </trkpt>
      <trkpt lat="43.58444" lon="6.87544">
        <ele>327.60000610352</ele>
        <time>2013-12-15T10:41:52.000Z</time>
      </trkpt>
      <trkpt lat="43.58442" lon="6.87543">
        <ele>327.79998779297</ele>
        <time>2013-12-15T10:41:53.000Z</time>
      </trkpt>
      <trkpt lat="43.58431" lon="6.87532">
        <ele>329.39999389648</ele>
        <time>2013-12-15T10:41:59.000Z</time>
      </trkpt>
      <trkpt lat="43.58425" lon="6.87525">
        <ele>331</ele>
        <time>2013-12-15T10:42:04.000Z</time>
      </trkpt>
      <trkpt lat="43.58424" lon="6.87523">
        <ele>331.20001220703</ele>
        <time>2013-12-15T10:42:05.000Z</time>
      </trkpt>
      <trkpt lat="43.58421" lon="6.87512">
        <ele>332.79998779297</ele>
        <time>2013-12-15T10:42:11.000Z</time>
      </trkpt>
      <trkpt lat="43.58418" lon="6.87507">
        <ele>333.79998779297</ele>
        <time>2013-12-15T10:42:17.000Z</time>
      </trkpt>
      <trkpt lat="43.58418" lon="6.87506">
        <ele>334</ele>
        <time>2013-12-15T10:42:18.000Z</time>
      </trkpt>
      <trkpt lat="43.58417" lon="6.87496">
        <ele>334.79998779297</ele>
        <time>2013-12-15T10:42:21.000Z</time>
      </trkpt>
      <trkpt lat="43.58416" lon="6.87492">
        <ele>334.60000610352</ele>
        <time>2013-12-15T10:42:22.000Z</time>
      </trkpt>
      <trkpt lat="43.58416" lon="6.8746">
        <ele>333.60000610352</ele>
        <time>2013-12-15T10:42:28.000Z</time>
      </trkpt>
      <trkpt lat="43.58421" lon="6.87426">
        <ele>330.60000610352</ele>
        <time>2013-12-15T10:42:35.000Z</time>
      </trkpt>
      <trkpt lat="43.58421" lon="6.87402">
        <ele>328</ele>
        <time>2013-12-15T10:42:41.000Z</time>
      </trkpt>
      <trkpt lat="43.58414" lon="6.87381">
        <ele>328.39999389648</ele>
        <time>2013-12-15T10:42:46.000Z</time>
      </trkpt>
      <trkpt lat="43.58405" lon="6.87354">
        <ele>326.60000610352</ele>
        <time>2013-12-15T10:42:51.000Z</time>
      </trkpt>
      <trkpt lat="43.58393" lon="6.87324">
        <ele>323.79998779297</ele>
        <time>2013-12-15T10:42:57.000Z</time>
      </trkpt>
      <trkpt lat="43.5839" lon="6.87321">
        <ele>323.39999389648</ele>
        <time>2013-12-15T10:42:58.000Z</time>
      </trkpt>
      <trkpt lat="43.58383" lon="6.87316">
        <ele>323</ele>
        <time>2013-12-15T10:43:02.000Z</time>
      </trkpt>
      <trkpt lat="43.58385" lon="6.87314">
        <ele>322.60000610352</ele>
        <time>2013-12-15T10:43:09.000Z</time>
      </trkpt>
      <trkpt lat="43.58386" lon="6.8731">
        <ele>321.39999389648</ele>
        <time>2013-12-15T10:43:58.000Z</time>
      </trkpt>
      <trkpt lat="43.58387" lon="6.873">
        <ele>319.20001220703</ele>
        <time>2013-12-15T10:44:03.000Z</time>
      </trkpt>
      <trkpt lat="43.58389" lon="6.87293">
        <ele>317.20001220703</ele>
        <time>2013-12-15T10:44:06.000Z</time>
      </trkpt>
      <trkpt lat="43.58385" lon="6.87287">
        <ele>316.39999389648</ele>
        <time>2013-12-15T10:44:08.000Z</time>
      </trkpt>
      <trkpt lat="43.58382" lon="6.87275">
        <ele>313.79998779297</ele>
        <time>2013-12-15T10:44:12.000Z</time>
      </trkpt>
      <trkpt lat="43.58379" lon="6.87259">
        <ele>310.79998779297</ele>
        <time>2013-12-15T10:44:17.000Z</time>
      </trkpt>
      <trkpt lat="43.58378" lon="6.87257">
        <ele>310.39999389648</ele>
        <time>2013-12-15T10:44:18.000Z</time>
      </trkpt>
      <trkpt lat="43.58376" lon="6.87255">
        <ele>310</ele>
        <time>2013-12-15T10:44:20.000Z</time>
      </trkpt>
      <trkpt lat="43.58375" lon="6.87255">
        <ele>310</ele>
        <time>2013-12-15T10:44:21.000Z</time>
      </trkpt>
      <trkpt lat="43.58374" lon="6.87255">
        <ele>310.20001220703</ele>
        <time>2013-12-15T10:44:28.000Z</time>
      </trkpt>
      <trkpt lat="43.58372" lon="6.87248">
        <ele>308.60000610352</ele>
        <time>2013-12-15T10:44:41.000Z</time>
      </trkpt>
      <trkpt lat="43.58374" lon="6.8724">
        <ele>305.79998779297</ele>
        <time>2013-12-15T10:44:45.000Z</time>
      </trkpt>
      <trkpt lat="43.58374" lon="6.87239">
        <ele>305.79998779297</ele>
        <time>2013-12-15T10:44:46.000Z</time>
      </trkpt>
      <trkpt lat="43.58382" lon="6.87232">
        <ele>303</ele>
        <time>2013-12-15T10:44:51.000Z</time>
      </trkpt>
      <trkpt lat="43.58396" lon="6.87225">
        <ele>299.79998779297</ele>
        <time>2013-12-15T10:44:55.000Z</time>
      </trkpt>
      <trkpt lat="43.58408" lon="6.87223">
        <ele>298.60000610352</ele>
        <time>2013-12-15T10:44:59.000Z</time>
      </trkpt>
      <trkpt lat="43.5841" lon="6.87222">
        <ele>298</ele>
        <time>2013-12-15T10:45:03.000Z</time>
      </trkpt>
      <trkpt lat="43.58419" lon="6.87214">
        <ele>294.39999389648</ele>
        <time>2013-12-15T10:45:07.000Z</time>
      </trkpt>
      <trkpt lat="43.58421" lon="6.87205">
        <ele>291.20001220703</ele>
        <time>2013-12-15T10:45:09.000Z</time>
      </trkpt>
      <trkpt lat="43.58421" lon="6.87199">
        <ele>289.79998779297</ele>
        <time>2013-12-15T10:45:11.000Z</time>
      </trkpt>
      <trkpt lat="43.58421" lon="6.87192">
        <ele>287.79998779297</ele>
        <time>2013-12-15T10:45:15.000Z</time>
      </trkpt>
      <trkpt lat="43.58422" lon="6.8719">
        <ele>287.39999389648</ele>
        <time>2013-12-15T10:45:16.000Z</time>
      </trkpt>
      <trkpt lat="43.58417" lon="6.87176">
        <ele>285.20001220703</ele>
        <time>2013-12-15T10:45:22.000Z</time>
      </trkpt>
      <trkpt lat="43.58411" lon="6.87168">
        <ele>283.39999389648</ele>
        <time>2013-12-15T10:45:25.000Z</time>
      </trkpt>
      <trkpt lat="43.58408" lon="6.87164">
        <ele>282</ele>
        <time>2013-12-15T10:45:27.000Z</time>
      </trkpt>
      <trkpt lat="43.58407" lon="6.8716">
        <ele>280.60000610352</ele>
        <time>2013-12-15T10:45:29.000Z</time>
      </trkpt>
      <trkpt lat="43.58409" lon="6.87155">
        <ele>279</ele>
        <time>2013-12-15T10:45:32.000Z</time>
      </trkpt>
      <trkpt lat="43.58417" lon="6.87155">
        <ele>278.79998779297</ele>
        <time>2013-12-15T10:45:36.000Z</time>
      </trkpt>
      <trkpt lat="43.58418" lon="6.87151">
        <ele>276.60000610352</ele>
        <time>2013-12-15T10:45:40.000Z</time>
      </trkpt>
      <trkpt lat="43.58416" lon="6.87153">
        <ele>278.20001220703</ele>
        <time>2013-12-15T10:51:30.000Z</time>
      </trkpt>
      <trkpt lat="43.58422" lon="6.87159">
        <ele>278.60000610352</ele>
        <time>2013-12-15T10:51:38.000Z</time>
      </trkpt>
      <trkpt lat="43.58436" lon="6.87166">
        <ele>276.20001220703</ele>
        <time>2013-12-15T10:51:45.000Z</time>
      </trkpt>
      <trkpt lat="43.58447" lon="6.87171">
        <ele>273.60000610352</ele>
        <time>2013-12-15T10:51:51.000Z</time>
      </trkpt>
      <trkpt lat="43.58454" lon="6.87181">
        <ele>273.20001220703</ele>
        <time>2013-12-15T10:51:57.000Z</time>
      </trkpt>
      <trkpt lat="43.58456" lon="6.87184">
        <ele>273.20001220703</ele>
        <time>2013-12-15T10:51:59.000Z</time>
      </trkpt>
      <trkpt lat="43.58459" lon="6.87194">
        <ele>274</ele>
        <time>2013-12-15T10:52:03.000Z</time>
      </trkpt>
      <trkpt lat="43.5846" lon="6.87204">
        <ele>275.39999389648</ele>
        <time>2013-12-15T10:52:08.000Z</time>
      </trkpt>
      <trkpt lat="43.58461" lon="6.87207">
        <ele>275.79998779297</ele>
        <time>2013-12-15T10:52:10.000Z</time>
      </trkpt>
      <trkpt lat="43.5846" lon="6.87217">
        <ele>277.79998779297</ele>
        <time>2013-12-15T10:52:14.000Z</time>
      </trkpt>
      <trkpt lat="43.58455" lon="6.87231">
        <ele>282.79998779297</ele>
        <time>2013-12-15T10:52:21.000Z</time>
      </trkpt>
      <trkpt lat="43.58454" lon="6.87245">
        <ele>286.39999389648</ele>
        <time>2013-12-15T10:52:27.000Z</time>
      </trkpt>
      <trkpt lat="43.58454" lon="6.8726">
        <ele>289</ele>
        <time>2013-12-15T10:52:33.000Z</time>
      </trkpt>
      <trkpt lat="43.58458" lon="6.87277">
        <ele>290.20001220703</ele>
        <time>2013-12-15T10:52:40.000Z</time>
      </trkpt>
      <trkpt lat="43.58465" lon="6.87295">
        <ele>290</ele>
        <time>2013-12-15T10:52:47.000Z</time>
      </trkpt>
      <trkpt lat="43.58468" lon="6.8731">
        <ele>291</ele>
        <time>2013-12-15T10:52:53.000Z</time>
      </trkpt>
      <trkpt lat="43.58474" lon="6.87332">
        <ele>291.79998779297</ele>
        <time>2013-12-15T10:53:01.000Z</time>
      </trkpt>
      <trkpt lat="43.58478" lon="6.87355">
        <ele>292.79998779297</ele>
        <time>2013-12-15T10:53:09.000Z</time>
      </trkpt>
      <trkpt lat="43.5848" lon="6.87377">
        <ele>295.20001220703</ele>
        <time>2013-12-15T10:53:17.000Z</time>
      </trkpt>
      <trkpt lat="43.5848" lon="6.87394">
        <ele>297.79998779297</ele>
        <time>2013-12-15T10:53:24.000Z</time>
      </trkpt>
      <trkpt lat="43.58478" lon="6.87411">
        <ele>301.20001220703</ele>
        <time>2013-12-15T10:53:31.000Z</time>
      </trkpt>
      <trkpt lat="43.58477" lon="6.87432">
        <ele>305.20001220703</ele>
        <time>2013-12-15T10:53:40.000Z</time>
      </trkpt>
      <trkpt lat="43.58481" lon="6.87445">
        <ele>306.20001220703</ele>
        <time>2013-12-15T10:53:47.000Z</time>
      </trkpt>
      <trkpt lat="43.58486" lon="6.87459">
        <ele>307.20001220703</ele>
        <time>2013-12-15T10:53:54.000Z</time>
      </trkpt>
      <trkpt lat="43.58493" lon="6.87476">
        <ele>308.39999389648</ele>
        <time>2013-12-15T10:54:01.000Z</time>
      </trkpt>
      <trkpt lat="43.58501" lon="6.87493">
        <ele>310.20001220703</ele>
        <time>2013-12-15T10:54:09.000Z</time>
      </trkpt>
      <trkpt lat="43.58508" lon="6.87506">
        <ele>313.60000610352</ele>
        <time>2013-12-15T10:54:17.000Z</time>
      </trkpt>
      <trkpt lat="43.58513" lon="6.87513">
        <ele>315.39999389648</ele>
        <time>2013-12-15T10:54:22.000Z</time>
      </trkpt>
      <trkpt lat="43.5852" lon="6.87523">
        <ele>317.79998779297</ele>
        <time>2013-12-15T10:54:29.000Z</time>
      </trkpt>
      <trkpt lat="43.5853" lon="6.87532">
        <ele>320.20001220703</ele>
        <time>2013-12-15T10:54:38.000Z</time>
      </trkpt>
      <trkpt lat="43.5854" lon="6.87536">
        <ele>321.20001220703</ele>
        <time>2013-12-15T10:54:46.000Z</time>
      </trkpt>
      <trkpt lat="43.58552" lon="6.87536">
        <ele>321.60000610352</ele>
        <time>2013-12-15T10:54:54.000Z</time>
      </trkpt>
      <trkpt lat="43.58562" lon="6.87535">
        <ele>321.60000610352</ele>
        <time>2013-12-15T10:55:01.000Z</time>
      </trkpt>
      <trkpt lat="43.58576" lon="6.87537">
        <ele>322.39999389648</ele>
        <time>2013-12-15T10:55:09.000Z</time>
      </trkpt>
      <trkpt lat="43.58593" lon="6.8754">
        <ele>325.20001220703</ele>
        <time>2013-12-15T10:55:18.000Z</time>
      </trkpt>
      <trkpt lat="43.58607" lon="6.87541">
        <ele>328.60000610352</ele>
        <time>2013-12-15T10:55:25.000Z</time>
      </trkpt>
      <trkpt lat="43.58613" lon="6.87549">
        <ele>331.39999389648</ele>
        <time>2013-12-15T10:55:30.000Z</time>
      </trkpt>
      <trkpt lat="43.58613" lon="6.87551">
        <ele>331.79998779297</ele>
        <time>2013-12-15T10:55:31.000Z</time>
      </trkpt>
      <trkpt lat="43.5861" lon="6.87556">
        <ele>332</ele>
        <time>2013-12-15T10:55:36.000Z</time>
      </trkpt>
      <trkpt lat="43.5861" lon="6.87556">
        <ele>331.79998779297</ele>
        <time>2013-12-15T10:55:37.000Z</time>
      </trkpt>
      <trkpt lat="43.58605" lon="6.87556">
        <ele>330.79998779297</ele>
        <time>2013-12-15T10:55:43.000Z</time>
      </trkpt>
      <trkpt lat="43.58601" lon="6.87557">
        <ele>330.39999389648</ele>
        <time>2013-12-15T10:55:47.000Z</time>
      </trkpt>
      <trkpt lat="43.58597" lon="6.87557">
        <ele>329.39999389648</ele>
        <time>2013-12-15T10:55:52.000Z</time>
      </trkpt>
      <trkpt lat="43.58594" lon="6.87555">
        <ele>328.39999389648</ele>
        <time>2013-12-15T10:55:55.000Z</time>
      </trkpt>
      <trkpt lat="43.58587" lon="6.8756">
        <ele>328</ele>
        <time>2013-12-15T10:56:02.000Z</time>
      </trkpt>
      <trkpt lat="43.5858" lon="6.87566">
        <ele>328.39999389648</ele>
        <time>2013-12-15T10:56:09.000Z</time>
      </trkpt>
      <trkpt lat="43.58569" lon="6.87574">
        <ele>329.79998779297</ele>
        <time>2013-12-15T10:56:18.000Z</time>
      </trkpt>
      <trkpt lat="43.58557" lon="6.87583">
        <ele>331.60000610352</ele>
        <time>2013-12-15T10:56:27.000Z</time>
      </trkpt>
      <trkpt lat="43.58546" lon="6.87589">
        <ele>332.20001220703</ele>
        <time>2013-12-15T10:56:35.000Z</time>
      </trkpt>
      <trkpt lat="43.5853" lon="6.87589">
        <ele>331.79998779297</ele>
        <time>2013-12-15T10:56:42.000Z</time>
      </trkpt>
      <trkpt lat="43.58519" lon="6.87591">
        <ele>331.60000610352</ele>
        <time>2013-12-15T10:56:48.000Z</time>
      </trkpt>
      <trkpt lat="43.5851" lon="6.87595">
        <ele>331.60000610352</ele>
        <time>2013-12-15T10:56:55.000Z</time>
      </trkpt>
      <trkpt lat="43.58508" lon="6.87596">
        <ele>331.60000610352</ele>
        <time>2013-12-15T10:57:01.000Z</time>
      </trkpt>
      <trkpt lat="43.58507" lon="6.876">
        <ele>331.60000610352</ele>
        <time>2013-12-15T10:57:27.000Z</time>
      </trkpt>
      <trkpt lat="43.58505" lon="6.87598">
        <ele>331.39999389648</ele>
        <time>2013-12-15T10:57:55.000Z</time>
      </trkpt>
      <trkpt lat="43.58505" lon="6.87597">
        <ele>331.39999389648</ele>
        <time>2013-12-15T10:58:10.000Z</time>
      </trkpt>
      <trkpt lat="43.58506" lon="6.87602">
        <ele>331.60000610352</ele>
        <time>2013-12-15T10:59:14.000Z</time>
      </trkpt>
      <trkpt lat="43.58517" lon="6.8761">
        <ele>332.60000610352</ele>
        <time>2013-12-15T10:59:22.000Z</time>
      </trkpt>
      <trkpt lat="43.58526" lon="6.87618">
        <ele>334</ele>
        <time>2013-12-15T10:59:29.000Z</time>
      </trkpt>
      <trkpt lat="43.58536" lon="6.87626">
        <ele>335.79998779297</ele>
        <time>2013-12-15T10:59:38.000Z</time>
      </trkpt>
      <trkpt lat="43.58549" lon="6.87636">
        <ele>338.60000610352</ele>
        <time>2013-12-15T10:59:48.000Z</time>
      </trkpt>
      <trkpt lat="43.58557" lon="6.87641">
        <ele>340.39999389648</ele>
        <time>2013-12-15T10:59:54.000Z</time>
      </trkpt>
      <trkpt lat="43.58565" lon="6.87644">
        <ele>342.20001220703</ele>
        <time>2013-12-15T10:59:59.000Z</time>
      </trkpt>
      <trkpt lat="43.58576" lon="6.87647">
        <ele>344.60000610352</ele>
        <time>2013-12-15T11:00:06.000Z</time>
      </trkpt>
      <trkpt lat="43.58586" lon="6.87652">
        <ele>347</ele>
        <time>2013-12-15T11:00:13.000Z</time>
      </trkpt>
      <trkpt lat="43.58596" lon="6.8766">
        <ele>349</ele>
        <time>2013-12-15T11:00:21.000Z</time>
      </trkpt>
      <trkpt lat="43.58605" lon="6.8767">
        <ele>350.79998779297</ele>
        <time>2013-12-15T11:00:29.000Z</time>
      </trkpt>
      <trkpt lat="43.58608" lon="6.87684">
        <ele>352.39999389648</ele>
        <time>2013-12-15T11:00:36.000Z</time>
      </trkpt>
      <trkpt lat="43.58608" lon="6.87699">
        <ele>354</ele>
        <time>2013-12-15T11:00:43.000Z</time>
      </trkpt>
      <trkpt lat="43.58606" lon="6.87712">
        <ele>355.20001220703</ele>
        <time>2013-12-15T11:00:50.000Z</time>
      </trkpt>
      <trkpt lat="43.58606" lon="6.87726">
        <ele>356.79998779297</ele>
        <time>2013-12-15T11:00:56.000Z</time>
      </trkpt>
      <trkpt lat="43.58612" lon="6.87745">
        <ele>359.20001220703</ele>
        <time>2013-12-15T11:01:03.000Z</time>
      </trkpt>
      <trkpt lat="43.58617" lon="6.87762">
        <ele>362.20001220703</ele>
        <time>2013-12-15T11:01:10.000Z</time>
      </trkpt>
      <trkpt lat="43.58628" lon="6.87792">
        <ele>368.20001220703</ele>
        <time>2013-12-15T11:01:19.000Z</time>
      </trkpt>
      <trkpt lat="43.5864" lon="6.87799">
        <ele>370.39999389648</ele>
        <time>2013-12-15T11:01:24.000Z</time>
      </trkpt>
      <trkpt lat="43.58654" lon="6.87795">
        <ele>370.60000610352</ele>
        <time>2013-12-15T11:01:30.000Z</time>
      </trkpt>
      <trkpt lat="43.58673" lon="6.87781">
        <ele>369.79998779297</ele>
        <time>2013-12-15T11:01:40.000Z</time>
      </trkpt>
      <trkpt lat="43.58687" lon="6.8778">
        <ele>371.39999389648</ele>
        <time>2013-12-15T11:01:48.000Z</time>
      </trkpt>
      <trkpt lat="43.58694" lon="6.87778">
        <ele>371.79998779297</ele>
        <time>2013-12-15T11:01:54.000Z</time>
      </trkpt>
      <trkpt lat="43.58702" lon="6.87785">
        <ele>374</ele>
        <time>2013-12-15T11:02:00.000Z</time>
      </trkpt>
      <trkpt lat="43.58709" lon="6.87792">
        <ele>376.20001220703</ele>
        <time>2013-12-15T11:02:06.000Z</time>
      </trkpt>
      <trkpt lat="43.58719" lon="6.87803">
        <ele>379.20001220703</ele>
        <time>2013-12-15T11:02:13.000Z</time>
      </trkpt>
      <trkpt lat="43.5873" lon="6.87813">
        <ele>382</ele>
        <time>2013-12-15T11:02:21.000Z</time>
      </trkpt>
      <trkpt lat="43.58741" lon="6.87821">
        <ele>384.20001220703</ele>
        <time>2013-12-15T11:02:28.000Z</time>
      </trkpt>
      <trkpt lat="43.58748" lon="6.87828">
        <ele>386</ele>
        <time>2013-12-15T11:02:34.000Z</time>
      </trkpt>
      <trkpt lat="43.58759" lon="6.87838">
        <ele>387.79998779297</ele>
        <time>2013-12-15T11:02:42.000Z</time>
      </trkpt>
      <trkpt lat="43.58768" lon="6.87844">
        <ele>388.60000610352</ele>
        <time>2013-12-15T11:02:48.000Z</time>
      </trkpt>
      <trkpt lat="43.58779" lon="6.87854">
        <ele>389.79998779297</ele>
        <time>2013-12-15T11:02:54.000Z</time>
      </trkpt>
      <trkpt lat="43.58782" lon="6.87856">
        <ele>390</ele>
        <time>2013-12-15T11:02:57.000Z</time>
      </trkpt>
      <trkpt lat="43.58783" lon="6.87856">
        <ele>390</ele>
        <time>2013-12-15T11:02:58.000Z</time>
      </trkpt>
      <trkpt lat="43.58788" lon="6.87856">
        <ele>389.79998779297</ele>
        <time>2013-12-15T11:03:05.000Z</time>
      </trkpt>
      <trkpt lat="43.58792" lon="6.87855">
        <ele>389.60000610352</ele>
        <time>2013-12-15T11:04:12.000Z</time>
      </trkpt>
      <trkpt lat="43.58804" lon="6.87852">
        <ele>389</ele>
        <time>2013-12-15T11:04:19.000Z</time>
      </trkpt>
      <trkpt lat="43.58811" lon="6.87854">
        <ele>389</ele>
        <time>2013-12-15T11:04:23.000Z</time>
      </trkpt>
      <trkpt lat="43.58811" lon="6.87857">
        <ele>389.20001220703</ele>
        <time>2013-12-15T11:04:25.000Z</time>
      </trkpt>
      <trkpt lat="43.58811" lon="6.87859">
        <ele>389.39999389648</ele>
        <time>2013-12-15T11:04:30.000Z</time>
      </trkpt>
      <trkpt lat="43.58812" lon="6.87859">
        <ele>389.39999389648</ele>
        <time>2013-12-15T11:04:32.000Z</time>
      </trkpt>
      <trkpt lat="43.58812" lon="6.87859">
        <ele>389.39999389648</ele>
        <time>2013-12-15T11:04:37.000Z</time>
      </trkpt>
      <trkpt lat="43.58814" lon="6.87857">
        <ele>389</ele>
        <time>2013-12-15T11:04:42.000Z</time>
      </trkpt>
      <trkpt lat="43.58817" lon="6.87854">
        <ele>388.79998779297</ele>
        <time>2013-12-15T11:04:44.000Z</time>
      </trkpt>
      <trkpt lat="43.58824" lon="6.87844">
        <ele>387.79998779297</ele>
        <time>2013-12-15T11:04:47.000Z</time>
      </trkpt>
      <trkpt lat="43.58828" lon="6.8784">
        <ele>387.39999389648</ele>
        <time>2013-12-15T11:04:48.000Z</time>
      </trkpt>
      <trkpt lat="43.58849" lon="6.87822">
        <ele>382.60000610352</ele>
        <time>2013-12-15T11:04:53.000Z</time>
      </trkpt>
      <trkpt lat="43.5887" lon="6.87799">
        <ele>378.60000610352</ele>
        <time>2013-12-15T11:04:59.000Z</time>
      </trkpt>
      <trkpt lat="43.58896" lon="6.8777">
        <ele>377.20001220703</ele>
        <time>2013-12-15T11:05:06.000Z</time>
      </trkpt>
      <trkpt lat="43.58917" lon="6.87738">
        <ele>379.20001220703</ele>
        <time>2013-12-15T11:05:13.000Z</time>
      </trkpt>
      <trkpt lat="43.5892" lon="6.87733">
        <ele>379.20001220703</ele>
        <time>2013-12-15T11:05:14.000Z</time>
      </trkpt>
      <trkpt lat="43.58938" lon="6.87693">
        <ele>380</ele>
        <time>2013-12-15T11:05:20.000Z</time>
      </trkpt>
      <trkpt lat="43.58961" lon="6.87656">
        <ele>379.60000610352</ele>
        <time>2013-12-15T11:05:26.000Z</time>
      </trkpt>
      <trkpt lat="43.58978" lon="6.87634">
        <ele>377.20001220703</ele>
        <time>2013-12-15T11:05:32.000Z</time>
      </trkpt>
      <trkpt lat="43.59001" lon="6.87608">
        <ele>375.39999389648</ele>
        <time>2013-12-15T11:05:39.000Z</time>
      </trkpt>
      <trkpt lat="43.59013" lon="6.87596">
        <ele>374.39999389648</ele>
        <time>2013-12-15T11:05:42.000Z</time>
      </trkpt>
      <trkpt lat="43.59022" lon="6.8759">
        <ele>373.60000610352</ele>
        <time>2013-12-15T11:05:44.000Z</time>
      </trkpt>
      <trkpt lat="43.59028" lon="6.87583">
        <ele>373.20001220703</ele>
        <time>2013-12-15T11:05:46.000Z</time>
      </trkpt>
      <trkpt lat="43.5903" lon="6.8758">
        <ele>372.79998779297</ele>
        <time>2013-12-15T11:05:47.000Z</time>
      </trkpt>
      <trkpt lat="43.59032" lon="6.87577">
        <ele>372.60000610352</ele>
        <time>2013-12-15T11:05:48.000Z</time>
      </trkpt>
      <trkpt lat="43.59038" lon="6.87569">
        <ele>371.60000610352</ele>
        <time>2013-12-15T11:05:51.000Z</time>
      </trkpt>
      <trkpt lat="43.59042" lon="6.87567">
        <ele>371.20001220703</ele>
        <time>2013-12-15T11:05:53.000Z</time>
      </trkpt>
      <trkpt lat="43.59045" lon="6.87564">
        <ele>370.79998779297</ele>
        <time>2013-12-15T11:05:56.000Z</time>
      </trkpt>
      <trkpt lat="43.59045" lon="6.87562">
        <ele>370.79998779297</ele>
        <time>2013-12-15T11:05:58.000Z</time>
      </trkpt>
      <trkpt lat="43.59044" lon="6.87558">
        <ele>370.79998779297</ele>
        <time>2013-12-15T11:06:13.000Z</time>
      </trkpt>
      <trkpt lat="43.59042" lon="6.87569">
        <ele>371.20001220703</ele>
        <time>2013-12-15T11:15:44.000Z</time>
      </trkpt>
      <trkpt lat="43.59042" lon="6.87563">
        <ele>371</ele>
        <time>2013-12-15T11:16:49.000Z</time>
      </trkpt>
      <trkpt lat="43.59035" lon="6.87573">
        <ele>372</ele>
        <time>2013-12-15T11:16:54.000Z</time>
      </trkpt>
      <trkpt lat="43.59021" lon="6.8759">
        <ele>373.79998779297</ele>
        <time>2013-12-15T11:17:01.000Z</time>
      </trkpt>
      <trkpt lat="43.59009" lon="6.87609">
        <ele>374</ele>
        <time>2013-12-15T11:17:07.000Z</time>
      </trkpt>
      <trkpt lat="43.58991" lon="6.87632">
        <ele>375.39999389648</ele>
        <time>2013-12-15T11:17:14.000Z</time>
      </trkpt>
      <trkpt lat="43.58966" lon="6.8766">
        <ele>378.60000610352</ele>
        <time>2013-12-15T11:17:21.000Z</time>
      </trkpt>
      <trkpt lat="43.58957" lon="6.87676">
        <ele>378.60000610352</ele>
        <time>2013-12-15T11:17:24.000Z</time>
      </trkpt>
      <trkpt lat="43.58953" lon="6.8769">
        <ele>377.20001220703</ele>
        <time>2013-12-15T11:17:26.000Z</time>
      </trkpt>
      <trkpt lat="43.58946" lon="6.87722">
        <ele>373.60000610352</ele>
        <time>2013-12-15T11:17:30.000Z</time>
      </trkpt>
      <trkpt lat="43.58944" lon="6.87732">
        <ele>372.60000610352</ele>
        <time>2013-12-15T11:17:31.000Z</time>
      </trkpt>
      <trkpt lat="43.58941" lon="6.87741">
        <ele>372</ele>
        <time>2013-12-15T11:17:32.000Z</time>
      </trkpt>
      <trkpt lat="43.58928" lon="6.87769">
        <ele>370.79998779297</ele>
        <time>2013-12-15T11:17:35.000Z</time>
      </trkpt>
      <trkpt lat="43.58908" lon="6.87792">
        <ele>371.20001220703</ele>
        <time>2013-12-15T11:17:38.000Z</time>
      </trkpt>
      <trkpt lat="43.58893" lon="6.87807">
        <ele>372</ele>
        <time>2013-12-15T11:17:40.000Z</time>
      </trkpt>
      <trkpt lat="43.5888" lon="6.87826">
        <ele>373.20001220703</ele>
        <time>2013-12-15T11:17:42.000Z</time>
      </trkpt>
      <trkpt lat="43.58872" lon="6.87848">
        <ele>375</ele>
        <time>2013-12-15T11:17:44.000Z</time>
      </trkpt>
      <trkpt lat="43.58874" lon="6.87873">
        <ele>374.20001220703</ele>
        <time>2013-12-15T11:17:46.000Z</time>
      </trkpt>
      <trkpt lat="43.58887" lon="6.87897">
        <ele>369.39999389648</ele>
        <time>2013-12-15T11:17:48.000Z</time>
      </trkpt>
      <trkpt lat="43.58893" lon="6.87908">
        <ele>366.20001220703</ele>
        <time>2013-12-15T11:17:49.000Z</time>
      </trkpt>
      <trkpt lat="43.58899" lon="6.8792">
        <ele>363.20001220703</ele>
        <time>2013-12-15T11:17:50.000Z</time>
      </trkpt>
      <trkpt lat="43.58904" lon="6.87944">
        <ele>357.39999389648</ele>
        <time>2013-12-15T11:17:52.000Z</time>
      </trkpt>
      <trkpt lat="43.58896" lon="6.87975">
        <ele>355.20001220703</ele>
        <time>2013-12-15T11:17:55.000Z</time>
      </trkpt>
      <trkpt lat="43.58877" lon="6.88">
        <ele>358.39999389648</ele>
        <time>2013-12-15T11:17:58.000Z</time>
      </trkpt>
      <trkpt lat="43.5885" lon="6.88032">
        <ele>353.20001220703</ele>
        <time>2013-12-15T11:18:02.000Z</time>
      </trkpt>
      <trkpt lat="43.58833" lon="6.88041">
        <ele>354.20001220703</ele>
        <time>2013-12-15T11:18:04.000Z</time>
      </trkpt>
      <trkpt lat="43.58816" lon="6.88052">
        <ele>354.20001220703</ele>
        <time>2013-12-15T11:18:06.000Z</time>
      </trkpt>
      <trkpt lat="43.5877" lon="6.88086">
        <ele>354</ele>
        <time>2013-12-15T11:18:11.000Z</time>
      </trkpt>
      <trkpt lat="43.58736" lon="6.88112">
        <ele>361.39999389648</ele>
        <time>2013-12-15T11:18:15.000Z</time>
      </trkpt>
      <trkpt lat="43.58729" lon="6.88121">
        <ele>362.60000610352</ele>
        <time>2013-12-15T11:18:16.000Z</time>
      </trkpt>
      <trkpt lat="43.58723" lon="6.88157">
        <ele>358.39999389648</ele>
        <time>2013-12-15T11:18:19.000Z</time>
      </trkpt>
      <trkpt lat="43.58736" lon="6.88196">
        <ele>351.60000610352</ele>
        <time>2013-12-15T11:18:22.000Z</time>
      </trkpt>
      <trkpt lat="43.58741" lon="6.88206">
        <ele>349.79998779297</ele>
        <time>2013-12-15T11:18:23.000Z</time>
      </trkpt>
      <trkpt lat="43.58752" lon="6.88229">
        <ele>347</ele>
        <time>2013-12-15T11:18:25.000Z</time>
      </trkpt>
      <trkpt lat="43.5876" lon="6.88239">
        <ele>344</ele>
        <time>2013-12-15T11:18:26.000Z</time>
      </trkpt>
      <trkpt lat="43.58791" lon="6.88273">
        <ele>330</ele>
        <time>2013-12-15T11:18:30.000Z</time>
      </trkpt>
      <trkpt lat="43.58797" lon="6.88284">
        <ele>327</ele>
        <time>2013-12-15T11:18:31.000Z</time>
      </trkpt>
      <trkpt lat="43.58806" lon="6.88306">
        <ele>323.79998779297</ele>
        <time>2013-12-15T11:18:33.000Z</time>
      </trkpt>
      <trkpt lat="43.58803" lon="6.88331">
        <ele>326</ele>
        <time>2013-12-15T11:18:35.000Z</time>
      </trkpt>
      <trkpt lat="43.58786" lon="6.88362">
        <ele>327.20001220703</ele>
        <time>2013-12-15T11:18:38.000Z</time>
      </trkpt>
      <trkpt lat="43.58773" lon="6.88396">
        <ele>324.39999389648</ele>
        <time>2013-12-15T11:18:41.000Z</time>
      </trkpt>
      <trkpt lat="43.58747" lon="6.88447">
        <ele>319</ele>
        <time>2013-12-15T11:18:46.000Z</time>
      </trkpt>
      <trkpt lat="43.58722" lon="6.88464">
        <ele>320</ele>
        <time>2013-12-15T11:18:49.000Z</time>
      </trkpt>
      <trkpt lat="43.58694" lon="6.88488">
        <ele>318.20001220703</ele>
        <time>2013-12-15T11:18:53.000Z</time>
      </trkpt>
      <trkpt lat="43.58669" lon="6.88491">
        <ele>323</ele>
        <time>2013-12-15T11:18:56.000Z</time>
      </trkpt>
      <trkpt lat="43.58647" lon="6.88506">
        <ele>322.60000610352</ele>
        <time>2013-12-15T11:18:59.000Z</time>
      </trkpt>
      <trkpt lat="43.58639" lon="6.88514">
        <ele>321.39999389648</ele>
        <time>2013-12-15T11:19:00.000Z</time>
      </trkpt>
      <trkpt lat="43.58625" lon="6.88531">
        <ele>318.60000610352</ele>
        <time>2013-12-15T11:19:02.000Z</time>
      </trkpt>
      <trkpt lat="43.5862" lon="6.88542">
        <ele>315.79998779297</ele>
        <time>2013-12-15T11:19:03.000Z</time>
      </trkpt>
      <trkpt lat="43.58608" lon="6.88571">
        <ele>308</ele>
        <time>2013-12-15T11:19:06.000Z</time>
      </trkpt>
      <trkpt lat="43.58603" lon="6.88583">
        <ele>305.39999389648</ele>
        <time>2013-12-15T11:19:07.000Z</time>
      </trkpt>
      <trkpt lat="43.58588" lon="6.88595">
        <ele>305.20001220703</ele>
        <time>2013-12-15T11:19:09.000Z</time>
      </trkpt>
      <trkpt lat="43.58572" lon="6.88605">
        <ele>303</ele>
        <time>2013-12-15T11:19:11.000Z</time>
      </trkpt>
      <trkpt lat="43.58548" lon="6.88622">
        <ele>299.60000610352</ele>
        <time>2013-12-15T11:19:14.000Z</time>
      </trkpt>
      <trkpt lat="43.5854" lon="6.88626">
        <ele>299.60000610352</ele>
        <time>2013-12-15T11:19:15.000Z</time>
      </trkpt>
      <trkpt lat="43.58513" lon="6.88631">
        <ele>301.79998779297</ele>
        <time>2013-12-15T11:19:18.000Z</time>
      </trkpt>
      <trkpt lat="43.58464" lon="6.88646">
        <ele>298.79998779297</ele>
        <time>2013-12-15T11:19:24.000Z</time>
      </trkpt>
      <trkpt lat="43.58459" lon="6.88652">
        <ele>297.79998779297</ele>
        <time>2013-12-15T11:19:25.000Z</time>
      </trkpt>
      <trkpt lat="43.58456" lon="6.88675">
        <ele>296</ele>
        <time>2013-12-15T11:19:28.000Z</time>
      </trkpt>
      <trkpt lat="43.58457" lon="6.88693">
        <ele>296.20001220703</ele>
        <time>2013-12-15T11:19:31.000Z</time>
      </trkpt>
      <trkpt lat="43.58452" lon="6.88706">
        <ele>296.39999389648</ele>
        <time>2013-12-15T11:19:34.000Z</time>
      </trkpt>
      <trkpt lat="43.5845" lon="6.88715">
        <ele>296.60000610352</ele>
        <time>2013-12-15T11:19:37.000Z</time>
      </trkpt>
      <trkpt lat="43.5845" lon="6.88725">
        <ele>296.79998779297</ele>
        <time>2013-12-15T11:19:40.000Z</time>
      </trkpt>
      <trkpt lat="43.5845" lon="6.88752">
        <ele>297.39999389648</ele>
        <time>2013-12-15T11:19:48.000Z</time>
      </trkpt>
      <trkpt lat="43.58443" lon="6.88768">
        <ele>299.60000610352</ele>
        <time>2013-12-15T11:19:54.000Z</time>
      </trkpt>
      <trkpt lat="43.58427" lon="6.8878">
        <ele>302.79998779297</ele>
        <time>2013-12-15T11:20:03.000Z</time>
      </trkpt>
      <trkpt lat="43.5841" lon="6.88798">
        <ele>306.60000610352</ele>
        <time>2013-12-15T11:20:13.000Z</time>
      </trkpt>
      <trkpt lat="43.58399" lon="6.88819">
        <ele>309.60000610352</ele>
        <time>2013-12-15T11:20:22.000Z</time>
      </trkpt>
      <trkpt lat="43.58391" lon="6.88825">
        <ele>310.39999389648</ele>
        <time>2013-12-15T11:20:27.000Z</time>
      </trkpt>
      <trkpt lat="43.58388" lon="6.88826">
        <ele>310.60000610352</ele>
        <time>2013-12-15T11:20:29.000Z</time>
      </trkpt>
      <trkpt lat="43.58384" lon="6.88827">
        <ele>310.60000610352</ele>
        <time>2013-12-15T11:20:31.000Z</time>
      </trkpt>
      <trkpt lat="43.58373" lon="6.88829">
        <ele>310.79998779297</ele>
        <time>2013-12-15T11:20:37.000Z</time>
      </trkpt>
      <trkpt lat="43.58358" lon="6.8884">
        <ele>312.39999389648</ele>
        <time>2013-12-15T11:20:46.000Z</time>
      </trkpt>
      <trkpt lat="43.58348" lon="6.88857">
        <ele>315.39999389648</ele>
        <time>2013-12-15T11:20:55.000Z</time>
      </trkpt>
      <trkpt lat="43.58344" lon="6.88869">
        <ele>317.60000610352</ele>
        <time>2013-12-15T11:21:01.000Z</time>
      </trkpt>
      <trkpt lat="43.58347" lon="6.88877">
        <ele>319</ele>
        <time>2013-12-15T11:21:05.000Z</time>
      </trkpt>
      <trkpt lat="43.58349" lon="6.88878">
        <ele>319.20001220703</ele>
        <time>2013-12-15T11:21:06.000Z</time>
      </trkpt>
      <trkpt lat="43.58361" lon="6.8888">
        <ele>319.60000610352</ele>
        <time>2013-12-15T11:21:13.000Z</time>
      </trkpt>
      <trkpt lat="43.58376" lon="6.8888">
        <ele>319.60000610352</ele>
        <time>2013-12-15T11:21:22.000Z</time>
      </trkpt>
      <trkpt lat="43.58391" lon="6.88886">
        <ele>320.79998779297</ele>
        <time>2013-12-15T11:21:31.000Z</time>
      </trkpt>
      <trkpt lat="43.58404" lon="6.889">
        <ele>323.20001220703</ele>
        <time>2013-12-15T11:21:39.000Z</time>
      </trkpt>
      <trkpt lat="43.58413" lon="6.88911">
        <ele>325.20001220703</ele>
        <time>2013-12-15T11:21:47.000Z</time>
      </trkpt>
      <trkpt lat="43.5842" lon="6.88924">
        <ele>326</ele>
        <time>2013-12-15T11:21:54.000Z</time>
      </trkpt>
      <trkpt lat="43.58426" lon="6.88943">
        <ele>326.60000610352</ele>
        <time>2013-12-15T11:22:02.000Z</time>
      </trkpt>
      <trkpt lat="43.58432" lon="6.88962">
        <ele>327.20001220703</ele>
        <time>2013-12-15T11:22:11.000Z</time>
      </trkpt>
      <trkpt lat="43.58438" lon="6.88983">
        <ele>327.79998779297</ele>
        <time>2013-12-15T11:22:19.000Z</time>
      </trkpt>
      <trkpt lat="43.5844" lon="6.89007">
        <ele>329.79998779297</ele>
        <time>2013-12-15T11:22:28.000Z</time>
      </trkpt>
      <trkpt lat="43.58441" lon="6.89027">
        <ele>332.20001220703</ele>
        <time>2013-12-15T11:22:35.000Z</time>
      </trkpt>
      <trkpt lat="43.5844" lon="6.89045">
        <ele>334.60000610352</ele>
        <time>2013-12-15T11:22:41.000Z</time>
      </trkpt>
      <trkpt lat="43.58442" lon="6.89066">
        <ele>336.79998779297</ele>
        <time>2013-12-15T11:22:48.000Z</time>
      </trkpt>
      <trkpt lat="43.58446" lon="6.89092">
        <ele>337.39999389648</ele>
        <time>2013-12-15T11:22:56.000Z</time>
      </trkpt>
      <trkpt lat="43.58453" lon="6.89118">
        <ele>336.60000610352</ele>
        <time>2013-12-15T11:23:04.000Z</time>
      </trkpt>
      <trkpt lat="43.58459" lon="6.89158">
        <ele>337.60000610352</ele>
        <time>2013-12-15T11:23:14.000Z</time>
      </trkpt>
      <trkpt lat="43.58452" lon="6.89184">
        <ele>338.79998779297</ele>
        <time>2013-12-15T11:23:22.000Z</time>
      </trkpt>
      <trkpt lat="43.58443" lon="6.89202">
        <ele>340.39999389648</ele>
        <time>2013-12-15T11:23:28.000Z</time>
      </trkpt>
      <trkpt lat="43.58429" lon="6.89218">
        <ele>343.79998779297</ele>
        <time>2013-12-15T11:23:36.000Z</time>
      </trkpt>
      <trkpt lat="43.58412" lon="6.89235">
        <ele>349</ele>
        <time>2013-12-15T11:23:44.000Z</time>
      </trkpt>
      <trkpt lat="43.58407" lon="6.89244">
        <ele>351</ele>
        <time>2013-12-15T11:23:48.000Z</time>
      </trkpt>
      <trkpt lat="43.58401" lon="6.89268">
        <ele>352.20001220703</ele>
        <time>2013-12-15T11:23:56.000Z</time>
      </trkpt>
      <trkpt lat="43.58404" lon="6.89287">
        <ele>349.20001220703</ele>
        <time>2013-12-15T11:24:03.000Z</time>
      </trkpt>
      <trkpt lat="43.58399" lon="6.89301">
        <ele>350.79998779297</ele>
        <time>2013-12-15T11:24:11.000Z</time>
      </trkpt>
      <trkpt lat="43.58388" lon="6.89319">
        <ele>355</ele>
        <time>2013-12-15T11:24:20.000Z</time>
      </trkpt>
      <trkpt lat="43.58377" lon="6.89343">
        <ele>360.20001220703</ele>
        <time>2013-12-15T11:24:31.000Z</time>
      </trkpt>
      <trkpt lat="43.58367" lon="6.89368">
        <ele>365.39999389648</ele>
        <time>2013-12-15T11:24:41.000Z</time>
      </trkpt>
      <trkpt lat="43.58362" lon="6.89388">
        <ele>368.20001220703</ele>
        <time>2013-12-15T11:24:50.000Z</time>
      </trkpt>
      <trkpt lat="43.58366" lon="6.89408">
        <ele>366.20001220703</ele>
        <time>2013-12-15T11:24:58.000Z</time>
      </trkpt>
      <trkpt lat="43.58371" lon="6.89424">
        <ele>364.20001220703</ele>
        <time>2013-12-15T11:25:06.000Z</time>
      </trkpt>
      <trkpt lat="43.58375" lon="6.89438">
        <ele>362.60000610352</ele>
        <time>2013-12-15T11:25:13.000Z</time>
      </trkpt>
      <trkpt lat="43.58379" lon="6.89456">
        <ele>361.20001220703</ele>
        <time>2013-12-15T11:25:21.000Z</time>
      </trkpt>
      <trkpt lat="43.58383" lon="6.89479">
        <ele>360</ele>
        <time>2013-12-15T11:25:29.000Z</time>
      </trkpt>
      <trkpt lat="43.58379" lon="6.89501">
        <ele>362.60000610352</ele>
        <time>2013-12-15T11:25:37.000Z</time>
      </trkpt>
      <trkpt lat="43.58374" lon="6.89518">
        <ele>364</ele>
        <time>2013-12-15T11:25:44.000Z</time>
      </trkpt>
      <trkpt lat="43.58367" lon="6.89538">
        <ele>366</ele>
        <time>2013-12-15T11:25:52.000Z</time>
      </trkpt>
      <trkpt lat="43.58362" lon="6.8956">
        <ele>366</ele>
        <time>2013-12-15T11:26:00.000Z</time>
      </trkpt>
      <trkpt lat="43.58357" lon="6.89582">
        <ele>365.79998779297</ele>
        <time>2013-12-15T11:26:09.000Z</time>
      </trkpt>
      <trkpt lat="43.58351" lon="6.89601">
        <ele>363.60000610352</ele>
        <time>2013-12-15T11:26:16.000Z</time>
      </trkpt>
      <trkpt lat="43.58343" lon="6.89611">
        <ele>363.79998779297</ele>
        <time>2013-12-15T11:26:22.000Z</time>
      </trkpt>
      <trkpt lat="43.58328" lon="6.89607">
        <ele>369.20001220703</ele>
        <time>2013-12-15T11:26:29.000Z</time>
      </trkpt>
      <trkpt lat="43.58313" lon="6.89607">
        <ele>372.20001220703</ele>
        <time>2013-12-15T11:26:36.000Z</time>
      </trkpt>
      <trkpt lat="43.58297" lon="6.89605">
        <ele>376.20001220703</ele>
        <time>2013-12-15T11:26:42.000Z</time>
      </trkpt>
      <trkpt lat="43.58285" lon="6.89607">
        <ele>378</ele>
        <time>2013-12-15T11:26:48.000Z</time>
      </trkpt>
      <trkpt lat="43.58271" lon="6.89605">
        <ele>381.60000610352</ele>
        <time>2013-12-15T11:26:54.000Z</time>
      </trkpt>
      <trkpt lat="43.58257" lon="6.89602">
        <ele>385</ele>
        <time>2013-12-15T11:27:00.000Z</time>
      </trkpt>
      <trkpt lat="43.58242" lon="6.89596">
        <ele>391.20001220703</ele>
        <time>2013-12-15T11:27:08.000Z</time>
      </trkpt>
      <trkpt lat="43.5823" lon="6.89596">
        <ele>395.60000610352</ele>
        <time>2013-12-15T11:27:15.000Z</time>
      </trkpt>
      <trkpt lat="43.58219" lon="6.89607">
        <ele>396.60000610352</ele>
        <time>2013-12-15T11:27:22.000Z</time>
      </trkpt>
      <trkpt lat="43.5821" lon="6.89624">
        <ele>395.39999389648</ele>
        <time>2013-12-15T11:27:30.000Z</time>
      </trkpt>
      <trkpt lat="43.58202" lon="6.89642">
        <ele>394.20001220703</ele>
        <time>2013-12-15T11:27:38.000Z</time>
      </trkpt>
      <trkpt lat="43.5819" lon="6.89655">
        <ele>396.20001220703</ele>
        <time>2013-12-15T11:27:45.000Z</time>
      </trkpt>
      <trkpt lat="43.58178" lon="6.89668">
        <ele>398</ele>
        <time>2013-12-15T11:27:52.000Z</time>
      </trkpt>
      <trkpt lat="43.5817" lon="6.89687">
        <ele>400.20001220703</ele>
        <time>2013-12-15T11:28:00.000Z</time>
      </trkpt>
      <trkpt lat="43.58173" lon="6.89708">
        <ele>397.20001220703</ele>
        <time>2013-12-15T11:28:07.000Z</time>
      </trkpt>
      <trkpt lat="43.58175" lon="6.89736">
        <ele>394.39999389648</ele>
        <time>2013-12-15T11:28:16.000Z</time>
      </trkpt>
      <trkpt lat="43.5817" lon="6.89759">
        <ele>394</ele>
        <time>2013-12-15T11:28:24.000Z</time>
      </trkpt>
      <trkpt lat="43.5816" lon="6.89782">
        <ele>393.79998779297</ele>
        <time>2013-12-15T11:28:33.000Z</time>
      </trkpt>
      <trkpt lat="43.58149" lon="6.89793">
        <ele>395.79998779297</ele>
        <time>2013-12-15T11:28:40.000Z</time>
      </trkpt>
      <trkpt lat="43.58132" lon="6.89803">
        <ele>400.39999389648</ele>
        <time>2013-12-15T11:28:49.000Z</time>
      </trkpt>
      <trkpt lat="43.58114" lon="6.89821">
        <ele>403.60000610352</ele>
        <time>2013-12-15T11:28:59.000Z</time>
      </trkpt>
      <trkpt lat="43.58106" lon="6.89831">
        <ele>404</ele>
        <time>2013-12-15T11:29:04.000Z</time>
      </trkpt>
      <trkpt lat="43.58093" lon="6.89847">
        <ele>403.79998779297</ele>
        <time>2013-12-15T11:29:11.000Z</time>
      </trkpt>
      <trkpt lat="43.58076" lon="6.89863">
        <ele>403.20001220703</ele>
        <time>2013-12-15T11:29:20.000Z</time>
      </trkpt>
      <trkpt lat="43.58061" lon="6.89876">
        <ele>401.60000610352</ele>
        <time>2013-12-15T11:29:28.000Z</time>
      </trkpt>
      <trkpt lat="43.58046" lon="6.89883">
        <ele>401.79998779297</ele>
        <time>2013-12-15T11:29:35.000Z</time>
      </trkpt>
      <trkpt lat="43.58027" lon="6.89882">
        <ele>405.60000610352</ele>
        <time>2013-12-15T11:29:43.000Z</time>
      </trkpt>
      <trkpt lat="43.58012" lon="6.89884">
        <ele>407.60000610352</ele>
        <time>2013-12-15T11:29:49.000Z</time>
      </trkpt>
      <trkpt lat="43.57994" lon="6.89891">
        <ele>408.79998779297</ele>
        <time>2013-12-15T11:29:56.000Z</time>
      </trkpt>
      <trkpt lat="43.57974" lon="6.89893">
        <ele>410.39999389648</ele>
        <time>2013-12-15T11:30:04.000Z</time>
      </trkpt>
      <trkpt lat="43.57966" lon="6.89897">
        <ele>411</ele>
        <time>2013-12-15T11:30:10.000Z</time>
      </trkpt>
      <trkpt lat="43.57964" lon="6.89897">
        <ele>411.20001220703</ele>
        <time>2013-12-15T11:30:11.000Z</time>
      </trkpt>
      <trkpt lat="43.57963" lon="6.89899">
        <ele>411</ele>
        <time>2013-12-15T11:30:15.000Z</time>
      </trkpt>
      <trkpt lat="43.57965" lon="6.89895">
        <ele>411.39999389648</ele>
        <time>2013-12-15T11:30:20.000Z</time>
      </trkpt>
      <trkpt lat="43.57969" lon="6.8989">
        <ele>411.60000610352</ele>
        <time>2013-12-15T11:30:25.000Z</time>
      </trkpt>
      <trkpt lat="43.57972" lon="6.89889">
        <ele>411.60000610352</ele>
        <time>2013-12-15T11:30:32.000Z</time>
      </trkpt>
      <trkpt lat="43.57967" lon="6.89891">
        <ele>411.60000610352</ele>
        <time>2013-12-15T11:30:36.000Z</time>
      </trkpt>
      <trkpt lat="43.57968" lon="6.8989">
        <ele>411.79998779297</ele>
        <time>2013-12-15T11:30:40.000Z</time>
      </trkpt>
      <trkpt lat="43.57964" lon="6.89894">
        <ele>411.60000610352</ele>
        <time>2013-12-15T11:31:04.000Z</time>
      </trkpt>
      <trkpt lat="43.57954" lon="6.89906">
        <ele>411.39999389648</ele>
        <time>2013-12-15T11:31:10.000Z</time>
      </trkpt>
      <trkpt lat="43.57944" lon="6.89921">
        <ele>411.20001220703</ele>
        <time>2013-12-15T11:31:17.000Z</time>
      </trkpt>
      <trkpt lat="43.57934" lon="6.89935">
        <ele>410</ele>
        <time>2013-12-15T11:31:25.000Z</time>
      </trkpt>
      <trkpt lat="43.57925" lon="6.8995">
        <ele>409.39999389648</ele>
        <time>2013-12-15T11:31:31.000Z</time>
      </trkpt>
      <trkpt lat="43.57907" lon="6.89962">
        <ele>410</ele>
        <time>2013-12-15T11:31:39.000Z</time>
      </trkpt>
      <trkpt lat="43.57889" lon="6.89972">
        <ele>411.20001220703</ele>
        <time>2013-12-15T11:31:46.000Z</time>
      </trkpt>
      <trkpt lat="43.57864" lon="6.89981">
        <ele>414</ele>
        <time>2013-12-15T11:31:55.000Z</time>
      </trkpt>
      <trkpt lat="43.57839" lon="6.89991">
        <ele>418</ele>
        <time>2013-12-15T11:32:02.000Z</time>
      </trkpt>
      <trkpt lat="43.57823" lon="6.90006">
        <ele>420.39999389648</ele>
        <time>2013-12-15T11:32:08.000Z</time>
      </trkpt>
      <trkpt lat="43.57805" lon="6.90029">
        <ele>421.79998779297</ele>
        <time>2013-12-15T11:32:16.000Z</time>
      </trkpt>
      <trkpt lat="43.5779" lon="6.90052">
        <ele>423.39999389648</ele>
        <time>2013-12-15T11:32:24.000Z</time>
      </trkpt>
      <trkpt lat="43.57782" lon="6.90076">
        <ele>424</ele>
        <time>2013-12-15T11:32:31.000Z</time>
      </trkpt>
      <trkpt lat="43.57775" lon="6.90096">
        <ele>423.20001220703</ele>
        <time>2013-12-15T11:32:37.000Z</time>
      </trkpt>
      <trkpt lat="43.5776" lon="6.90111">
        <ele>425.79998779297</ele>
        <time>2013-12-15T11:32:44.000Z</time>
      </trkpt>
      <trkpt lat="43.57745" lon="6.90116">
        <ele>428.60000610352</ele>
        <time>2013-12-15T11:32:50.000Z</time>
      </trkpt>
      <trkpt lat="43.57733" lon="6.90122">
        <ele>429.39999389648</ele>
        <time>2013-12-15T11:32:54.000Z</time>
      </trkpt>
      <trkpt lat="43.57717" lon="6.90144">
        <ele>428</ele>
        <time>2013-12-15T11:33:01.000Z</time>
      </trkpt>
      <trkpt lat="43.57701" lon="6.90167">
        <ele>427</ele>
        <time>2013-12-15T11:33:07.000Z</time>
      </trkpt>
      <trkpt lat="43.57682" lon="6.90186">
        <ele>425.39999389648</ele>
        <time>2013-12-15T11:33:14.000Z</time>
      </trkpt>
      <trkpt lat="43.57662" lon="6.90204">
        <ele>423.60000610352</ele>
        <time>2013-12-15T11:33:20.000Z</time>
      </trkpt>
      <trkpt lat="43.57636" lon="6.90222">
        <ele>420.20001220703</ele>
        <time>2013-12-15T11:33:25.000Z</time>
      </trkpt>
      <trkpt lat="43.5761" lon="6.9024">
        <ele>418.60000610352</ele>
        <time>2013-12-15T11:33:29.000Z</time>
      </trkpt>
      <trkpt lat="43.57604" lon="6.90245">
        <ele>418.39999389648</ele>
        <time>2013-12-15T11:33:30.000Z</time>
      </trkpt>
      <trkpt lat="43.57577" lon="6.90274">
        <ele>419.20001220703</ele>
        <time>2013-12-15T11:33:35.000Z</time>
      </trkpt>
      <trkpt lat="43.57554" lon="6.90285">
        <ele>419</ele>
        <time>2013-12-15T11:33:39.000Z</time>
      </trkpt>
      <trkpt lat="43.57524" lon="6.90295">
        <ele>419.60000610352</ele>
        <time>2013-12-15T11:33:45.000Z</time>
      </trkpt>
      <trkpt lat="43.57496" lon="6.90309">
        <ele>422</ele>
        <time>2013-12-15T11:33:52.000Z</time>
      </trkpt>
      <trkpt lat="43.5749" lon="6.90315">
        <ele>423</ele>
        <time>2013-12-15T11:33:54.000Z</time>
      </trkpt>
      <trkpt lat="43.57478" lon="6.90329">
        <ele>425.39999389648</ele>
        <time>2013-12-15T11:33:58.000Z</time>
      </trkpt>
      <trkpt lat="43.57457" lon="6.90357">
        <ele>427.20001220703</ele>
        <time>2013-12-15T11:34:06.000Z</time>
      </trkpt>
      <trkpt lat="43.57442" lon="6.90379">
        <ele>428.20001220703</ele>
        <time>2013-12-15T11:34:12.000Z</time>
      </trkpt>
      <trkpt lat="43.57424" lon="6.90408">
        <ele>429.39999389648</ele>
        <time>2013-12-15T11:34:20.000Z</time>
      </trkpt>
      <trkpt lat="43.57406" lon="6.90433">
        <ele>429.20001220703</ele>
        <time>2013-12-15T11:34:27.000Z</time>
      </trkpt>
      <trkpt lat="43.57389" lon="6.90463">
        <ele>429</ele>
        <time>2013-12-15T11:34:35.000Z</time>
      </trkpt>
      <trkpt lat="43.57373" lon="6.90492">
        <ele>430</ele>
        <time>2013-12-15T11:34:43.000Z</time>
      </trkpt>
      <trkpt lat="43.57356" lon="6.90505">
        <ele>431.79998779297</ele>
        <time>2013-12-15T11:34:49.000Z</time>
      </trkpt>
      <trkpt lat="43.57337" lon="6.90515">
        <ele>434.60000610352</ele>
        <time>2013-12-15T11:34:56.000Z</time>
      </trkpt>
      <trkpt lat="43.57318" lon="6.90515">
        <ele>436</ele>
        <time>2013-12-15T11:35:02.000Z</time>
      </trkpt>
      <trkpt lat="43.57297" lon="6.9051">
        <ele>436.79998779297</ele>
        <time>2013-12-15T11:35:09.000Z</time>
      </trkpt>
      <trkpt lat="43.57273" lon="6.90511">
        <ele>438.20001220703</ele>
        <time>2013-12-15T11:35:16.000Z</time>
      </trkpt>
      <trkpt lat="43.57247" lon="6.90516">
        <ele>440.39999389648</ele>
        <time>2013-12-15T11:35:23.000Z</time>
      </trkpt>
      <trkpt lat="43.57232" lon="6.90506">
        <ele>440.39999389648</ele>
        <time>2013-12-15T11:35:28.000Z</time>
      </trkpt>
      <trkpt lat="43.57214" lon="6.90496">
        <ele>440.39999389648</ele>
        <time>2013-12-15T11:35:34.000Z</time>
      </trkpt>
      <trkpt lat="43.57194" lon="6.90492">
        <ele>441.39999389648</ele>
        <time>2013-12-15T11:35:41.000Z</time>
      </trkpt>
      <trkpt lat="43.5717" lon="6.90489">
        <ele>443</ele>
        <time>2013-12-15T11:35:50.000Z</time>
      </trkpt>
      <trkpt lat="43.5715" lon="6.90489">
        <ele>444.79998779297</ele>
        <time>2013-12-15T11:35:56.000Z</time>
      </trkpt>
      <trkpt lat="43.57133" lon="6.90481">
        <ele>445.20001220703</ele>
        <time>2013-12-15T11:36:01.000Z</time>
      </trkpt>
      <trkpt lat="43.57111" lon="6.90473">
        <ele>445.79998779297</ele>
        <time>2013-12-15T11:36:08.000Z</time>
      </trkpt>
      <trkpt lat="43.57081" lon="6.90464">
        <ele>447.20001220703</ele>
        <time>2013-12-15T11:36:16.000Z</time>
      </trkpt>
      <trkpt lat="43.57056" lon="6.90458">
        <ele>449.79998779297</ele>
        <time>2013-12-15T11:36:23.000Z</time>
      </trkpt>
      <trkpt lat="43.57031" lon="6.90452">
        <ele>452.39999389648</ele>
        <time>2013-12-15T11:36:31.000Z</time>
      </trkpt>
      <trkpt lat="43.57011" lon="6.90433">
        <ele>452.60000610352</ele>
        <time>2013-12-15T11:36:37.000Z</time>
      </trkpt>
      <trkpt lat="43.56991" lon="6.90408">
        <ele>450.60000610352</ele>
        <time>2013-12-15T11:36:45.000Z</time>
      </trkpt>
      <trkpt lat="43.56972" lon="6.90398">
        <ele>448.79998779297</ele>
        <time>2013-12-15T11:36:52.000Z</time>
      </trkpt>
      <trkpt lat="43.56954" lon="6.90407">
        <ele>449.79998779297</ele>
        <time>2013-12-15T11:36:58.000Z</time>
      </trkpt>
      <trkpt lat="43.56935" lon="6.90428">
        <ele>453.20001220703</ele>
        <time>2013-12-15T11:37:06.000Z</time>
      </trkpt>
      <trkpt lat="43.56915" lon="6.90448">
        <ele>456.60000610352</ele>
        <time>2013-12-15T11:37:13.000Z</time>
      </trkpt>
      <trkpt lat="43.56895" lon="6.90471">
        <ele>458.20001220703</ele>
        <time>2013-12-15T11:37:21.000Z</time>
      </trkpt>
      <trkpt lat="43.56872" lon="6.90492">
        <ele>458.79998779297</ele>
        <time>2013-12-15T11:37:30.000Z</time>
      </trkpt>
      <trkpt lat="43.56855" lon="6.90518">
        <ele>461.39999389648</ele>
        <time>2013-12-15T11:37:38.000Z</time>
      </trkpt>
      <trkpt lat="43.56837" lon="6.90533">
        <ele>462.39999389648</ele>
        <time>2013-12-15T11:37:44.000Z</time>
      </trkpt>
      <trkpt lat="43.56818" lon="6.90535">
        <ele>463.20001220703</ele>
        <time>2013-12-15T11:37:50.000Z</time>
      </trkpt>
      <trkpt lat="43.56797" lon="6.90535">
        <ele>464</ele>
        <time>2013-12-15T11:37:56.000Z</time>
      </trkpt>
      <trkpt lat="43.56773" lon="6.9053">
        <ele>464.20001220703</ele>
        <time>2013-12-15T11:38:03.000Z</time>
      </trkpt>
      <trkpt lat="43.56755" lon="6.90518">
        <ele>463.20001220703</ele>
        <time>2013-12-15T11:38:09.000Z</time>
      </trkpt>
      <trkpt lat="43.56739" lon="6.90506">
        <ele>463</ele>
        <time>2013-12-15T11:38:15.000Z</time>
      </trkpt>
      <trkpt lat="43.56719" lon="6.90498">
        <ele>464.20001220703</ele>
        <time>2013-12-15T11:38:22.000Z</time>
      </trkpt>
      <trkpt lat="43.56702" lon="6.90496">
        <ele>465.79998779297</ele>
        <time>2013-12-15T11:38:28.000Z</time>
      </trkpt>
      <trkpt lat="43.56683" lon="6.90496">
        <ele>467.79998779297</ele>
        <time>2013-12-15T11:38:34.000Z</time>
      </trkpt>
      <trkpt lat="43.5666" lon="6.90491">
        <ele>469.60000610352</ele>
        <time>2013-12-15T11:38:42.000Z</time>
      </trkpt>
      <trkpt lat="43.56641" lon="6.9048">
        <ele>469.79998779297</ele>
        <time>2013-12-15T11:38:48.000Z</time>
      </trkpt>
      <trkpt lat="43.56628" lon="6.90471">
        <ele>469.79998779297</ele>
        <time>2013-12-15T11:38:53.000Z</time>
      </trkpt>
      <trkpt lat="43.56611" lon="6.90452">
        <ele>468.79998779297</ele>
        <time>2013-12-15T11:39:00.000Z</time>
      </trkpt>
      <trkpt lat="43.56591" lon="6.90427">
        <ele>467.60000610352</ele>
        <time>2013-12-15T11:39:07.000Z</time>
      </trkpt>
      <trkpt lat="43.56577" lon="6.90422">
        <ele>467</ele>
        <time>2013-12-15T11:39:11.000Z</time>
      </trkpt>
      <trkpt lat="43.56545" lon="6.90416">
        <ele>464.20001220703</ele>
        <time>2013-12-15T11:39:19.000Z</time>
      </trkpt>
      <trkpt lat="43.56532" lon="6.90412">
        <ele>462.79998779297</ele>
        <time>2013-12-15T11:39:24.000Z</time>
      </trkpt>
      <trkpt lat="43.56517" lon="6.90413">
        <ele>461.79998779297</ele>
        <time>2013-12-15T11:39:31.000Z</time>
      </trkpt>
      <trkpt lat="43.56513" lon="6.90414">
        <ele>461.60000610352</ele>
        <time>2013-12-15T11:39:36.000Z</time>
      </trkpt>
      <trkpt lat="43.56503" lon="6.90417">
        <ele>461.39999389648</ele>
        <time>2013-12-15T11:45:08.000Z</time>
      </trkpt>
      <trkpt lat="43.56484" lon="6.90428">
        <ele>457.39999389648</ele>
        <time>2013-12-15T11:45:16.000Z</time>
      </trkpt>
      <trkpt lat="43.5647" lon="6.90442">
        <ele>455.20001220703</ele>
        <time>2013-12-15T11:45:23.000Z</time>
      </trkpt>
      <trkpt lat="43.56452" lon="6.90463">
        <ele>453.39999389648</ele>
        <time>2013-12-15T11:45:29.000Z</time>
      </trkpt>
      <trkpt lat="43.56437" lon="6.9049">
        <ele>454.60000610352</ele>
        <time>2013-12-15T11:45:34.000Z</time>
      </trkpt>
      <trkpt lat="43.56419" lon="6.90524">
        <ele>456.20001220703</ele>
        <time>2013-12-15T11:45:39.000Z</time>
      </trkpt>
      <trkpt lat="43.56389" lon="6.90581">
        <ele>459.20001220703</ele>
        <time>2013-12-15T11:45:46.000Z</time>
      </trkpt>
      <trkpt lat="43.56369" lon="6.90612">
        <ele>458.39999389648</ele>
        <time>2013-12-15T11:45:50.000Z</time>
      </trkpt>
      <trkpt lat="43.56355" lon="6.9062">
        <ele>456.60000610352</ele>
        <time>2013-12-15T11:45:52.000Z</time>
      </trkpt>
      <trkpt lat="43.56332" lon="6.90623">
        <ele>452.20001220703</ele>
        <time>2013-12-15T11:45:55.000Z</time>
      </trkpt>
      <trkpt lat="43.56324" lon="6.90625">
        <ele>451.20001220703</ele>
        <time>2013-12-15T11:45:56.000Z</time>
      </trkpt>
      <trkpt lat="43.56308" lon="6.9064">
        <ele>450.79998779297</ele>
        <time>2013-12-15T11:45:59.000Z</time>
      </trkpt>
      <trkpt lat="43.56303" lon="6.90649">
        <ele>451.60000610352</ele>
        <time>2013-12-15T11:46:01.000Z</time>
      </trkpt>
      <trkpt lat="43.56298" lon="6.90658">
        <ele>453</ele>
        <time>2013-12-15T11:46:03.000Z</time>
      </trkpt>
      <trkpt lat="43.56297" lon="6.90663">
        <ele>453.79998779297</ele>
        <time>2013-12-15T11:46:04.000Z</time>
      </trkpt>
      <trkpt lat="43.56292" lon="6.90681">
        <ele>453.20001220703</ele>
        <time>2013-12-15T11:46:08.000Z</time>
      </trkpt>
      <trkpt lat="43.56285" lon="6.90683">
        <ele>452</ele>
        <time>2013-12-15T11:46:11.000Z</time>
      </trkpt>
      <trkpt lat="43.56279" lon="6.90687">
        <ele>450.79998779297</ele>
        <time>2013-12-15T11:46:15.000Z</time>
      </trkpt>
      <trkpt lat="43.56277" lon="6.90688">
        <ele>450.39999389648</ele>
        <time>2013-12-15T11:46:16.000Z</time>
      </trkpt>
      <trkpt lat="43.56257" lon="6.90697">
        <ele>447</ele>
        <time>2013-12-15T11:46:24.000Z</time>
      </trkpt>
      <trkpt lat="43.56252" lon="6.90713">
        <ele>446.20001220703</ele>
        <time>2013-12-15T11:46:28.000Z</time>
      </trkpt>
      <trkpt lat="43.5626" lon="6.90726">
        <ele>447.60000610352</ele>
        <time>2013-12-15T11:46:32.000Z</time>
      </trkpt>
      <trkpt lat="43.56271" lon="6.90743">
        <ele>448.79998779297</ele>
        <time>2013-12-15T11:46:36.000Z</time>
      </trkpt>
      <trkpt lat="43.5629" lon="6.90762">
        <ele>448.20001220703</ele>
        <time>2013-12-15T11:46:41.000Z</time>
      </trkpt>
      <trkpt lat="43.56307" lon="6.90781">
        <ele>445.60000610352</ele>
        <time>2013-12-15T11:46:46.000Z</time>
      </trkpt>
      <trkpt lat="43.56309" lon="6.90782">
        <ele>445.79998779297</ele>
        <time>2013-12-15T11:46:47.000Z</time>
      </trkpt>
      <trkpt lat="43.56315" lon="6.9078">
        <ele>447.20001220703</ele>
        <time>2013-12-15T11:46:50.000Z</time>
      </trkpt>
      <trkpt lat="43.56326" lon="6.90779">
        <ele>449.20001220703</ele>
        <time>2013-12-15T11:46:55.000Z</time>
      </trkpt>
      <trkpt lat="43.56331" lon="6.90777">
        <ele>450.60000610352</ele>
        <time>2013-12-15T11:46:57.000Z</time>
      </trkpt>
      <trkpt lat="43.56341" lon="6.90778">
        <ele>451.39999389648</ele>
        <time>2013-12-15T11:46:59.000Z</time>
      </trkpt>
      <trkpt lat="43.56356" lon="6.90786">
        <ele>451.60000610352</ele>
        <time>2013-12-15T11:47:03.000Z</time>
      </trkpt>
      <trkpt lat="43.5636" lon="6.90788">
        <ele>451.60000610352</ele>
        <time>2013-12-15T11:47:04.000Z</time>
      </trkpt>
      <trkpt lat="43.56375" lon="6.90805">
        <ele>451</ele>
        <time>2013-12-15T11:47:08.000Z</time>
      </trkpt>
      <trkpt lat="43.5638" lon="6.90838">
        <ele>447.20001220703</ele>
        <time>2013-12-15T11:47:12.000Z</time>
      </trkpt>
      <trkpt lat="43.56379" lon="6.90852">
        <ele>445.60000610352</ele>
        <time>2013-12-15T11:47:14.000Z</time>
      </trkpt>
      <trkpt lat="43.56378" lon="6.90864">
        <ele>444.39999389648</ele>
        <time>2013-12-15T11:47:16.000Z</time>
      </trkpt>
      <trkpt lat="43.56373" lon="6.90907">
        <ele>439.39999389648</ele>
        <time>2013-12-15T11:47:22.000Z</time>
      </trkpt>
      <trkpt lat="43.56372" lon="6.90915">
        <ele>438.39999389648</ele>
        <time>2013-12-15T11:47:23.000Z</time>
      </trkpt>
      <trkpt lat="43.56358" lon="6.90942">
        <ele>431.60000610352</ele>
        <time>2013-12-15T11:47:27.000Z</time>
      </trkpt>
      <trkpt lat="43.56343" lon="6.90958">
        <ele>427.60000610352</ele>
        <time>2013-12-15T11:47:30.000Z</time>
      </trkpt>
      <trkpt lat="43.56327" lon="6.90974">
        <ele>424.79998779297</ele>
        <time>2013-12-15T11:47:33.000Z</time>
      </trkpt>
      <trkpt lat="43.56304" lon="6.91007">
        <ele>422</ele>
        <time>2013-12-15T11:47:38.000Z</time>
      </trkpt>
      <trkpt lat="43.563" lon="6.91015">
        <ele>421.60000610352</ele>
        <time>2013-12-15T11:47:39.000Z</time>
      </trkpt>
      <trkpt lat="43.56293" lon="6.9105">
        <ele>422</ele>
        <time>2013-12-15T11:47:43.000Z</time>
      </trkpt>
      <trkpt lat="43.56281" lon="6.91125">
        <ele>427.79998779297</ele>
        <time>2013-12-15T11:47:51.000Z</time>
      </trkpt>
      <trkpt lat="43.56281" lon="6.91152">
        <ele>429.20001220703</ele>
        <time>2013-12-15T11:47:54.000Z</time>
      </trkpt>
      <trkpt lat="43.56283" lon="6.91172">
        <ele>428</ele>
        <time>2013-12-15T11:47:56.000Z</time>
      </trkpt>
      <trkpt lat="43.56285" lon="6.91199">
        <ele>426</ele>
        <time>2013-12-15T11:47:59.000Z</time>
      </trkpt>
      <trkpt lat="43.56284" lon="6.91218">
        <ele>426</ele>
        <time>2013-12-15T11:48:01.000Z</time>
      </trkpt>
      <trkpt lat="43.56275" lon="6.9124">
        <ele>430.20001220703</ele>
        <time>2013-12-15T11:48:04.000Z</time>
      </trkpt>
      <trkpt lat="43.56266" lon="6.91252">
        <ele>435</ele>
        <time>2013-12-15T11:48:06.000Z</time>
      </trkpt>
      <trkpt lat="43.56256" lon="6.91269">
        <ele>439.39999389648</ele>
        <time>2013-12-15T11:48:09.000Z</time>
      </trkpt>
      <trkpt lat="43.56251" lon="6.91281">
        <ele>440.79998779297</ele>
        <time>2013-12-15T11:48:11.000Z</time>
      </trkpt>
      <trkpt lat="43.5625" lon="6.91303">
        <ele>439.39999389648</ele>
        <time>2013-12-15T11:48:14.000Z</time>
      </trkpt>
      <trkpt lat="43.5626" lon="6.91332">
        <ele>432.60000610352</ele>
        <time>2013-12-15T11:48:18.000Z</time>
      </trkpt>
      <trkpt lat="43.56282" lon="6.91374">
        <ele>425.39999389648</ele>
        <time>2013-12-15T11:48:25.000Z</time>
      </trkpt>
      <trkpt lat="43.56293" lon="6.9139">
        <ele>422.60000610352</ele>
        <time>2013-12-15T11:48:28.000Z</time>
      </trkpt>
      <trkpt lat="43.56307" lon="6.91406">
        <ele>419.39999389648</ele>
        <time>2013-12-15T11:48:31.000Z</time>
      </trkpt>
      <trkpt lat="43.56311" lon="6.91413">
        <ele>419.20001220703</ele>
        <time>2013-12-15T11:48:32.000Z</time>
      </trkpt>
      <trkpt lat="43.56315" lon="6.91434">
        <ele>417.79998779297</ele>
        <time>2013-12-15T11:48:35.000Z</time>
      </trkpt>
      <trkpt lat="43.5631" lon="6.91462">
        <ele>417.79998779297</ele>
        <time>2013-12-15T11:48:38.000Z</time>
      </trkpt>
      <trkpt lat="43.56308" lon="6.9147">
        <ele>418</ele>
        <time>2013-12-15T11:48:39.000Z</time>
      </trkpt>
      <trkpt lat="43.56299" lon="6.91497">
        <ele>418.20001220703</ele>
        <time>2013-12-15T11:48:43.000Z</time>
      </trkpt>
      <trkpt lat="43.56288" lon="6.91517">
        <ele>417.20001220703</ele>
        <time>2013-12-15T11:48:48.000Z</time>
      </trkpt>
      <trkpt lat="43.56278" lon="6.91526">
        <ele>417.20001220703</ele>
        <time>2013-12-15T11:48:53.000Z</time>
      </trkpt>
      <trkpt lat="43.56274" lon="6.91529">
        <ele>417.20001220703</ele>
        <time>2013-12-15T11:48:55.000Z</time>
      </trkpt>
      <trkpt lat="43.56267" lon="6.91537">
        <ele>416.79998779297</ele>
        <time>2013-12-15T11:48:58.000Z</time>
      </trkpt>
      <trkpt lat="43.56253" lon="6.91549">
        <ele>415.79998779297</ele>
        <time>2013-12-15T11:49:03.000Z</time>
      </trkpt>
      <trkpt lat="43.56249" lon="6.91557">
        <ele>414.39999389648</ele>
        <time>2013-12-15T11:49:09.000Z</time>
      </trkpt>
      <trkpt lat="43.56248" lon="6.91558">
        <ele>414.20001220703</ele>
        <time>2013-12-15T11:49:10.000Z</time>
      </trkpt>
      <trkpt lat="43.56246" lon="6.91556">
        <ele>414.20001220703</ele>
        <time>2013-12-15T11:49:14.000Z</time>
      </trkpt>
      <trkpt lat="43.56243" lon="6.91551">
        <ele>414.39999389648</ele>
        <time>2013-12-15T11:49:32.000Z</time>
      </trkpt>
      <trkpt lat="43.56243" lon="6.91554">
        <ele>413.79998779297</ele>
        <time>2013-12-15T11:50:19.000Z</time>
      </trkpt>
      <trkpt lat="43.56229" lon="6.9156">
        <ele>409.79998779297</ele>
        <time>2013-12-15T11:51:56.000Z</time>
      </trkpt>
      <trkpt lat="43.56222" lon="6.91562">
        <ele>408.20001220703</ele>
        <time>2013-12-15T11:51:59.000Z</time>
      </trkpt>
      <trkpt lat="43.56221" lon="6.9156">
        <ele>408.20001220703</ele>
        <time>2013-12-15T11:52:00.000Z</time>
      </trkpt>
      <trkpt lat="43.56209" lon="6.91554">
        <ele>407</ele>
        <time>2013-12-15T11:52:04.000Z</time>
      </trkpt>
      <trkpt lat="43.56206" lon="6.91555">
        <ele>406.39999389648</ele>
        <time>2013-12-15T11:52:06.000Z</time>
      </trkpt>
      <trkpt lat="43.56203" lon="6.9156">
        <ele>404.60000610352</ele>
        <time>2013-12-15T11:52:08.000Z</time>
      </trkpt>
      <trkpt lat="43.56201" lon="6.9156">
        <ele>404</ele>
        <time>2013-12-15T11:52:09.000Z</time>
      </trkpt>
      <trkpt lat="43.56193" lon="6.91561">
        <ele>402.20001220703</ele>
        <time>2013-12-15T11:52:12.000Z</time>
      </trkpt>
      <trkpt lat="43.5618" lon="6.91561">
        <ele>399.60000610352</ele>
        <time>2013-12-15T11:52:16.000Z</time>
      </trkpt>
      <trkpt lat="43.56175" lon="6.91556">
        <ele>400</ele>
        <time>2013-12-15T11:52:18.000Z</time>
      </trkpt>
      <trkpt lat="43.56169" lon="6.91544">
        <ele>401.79998779297</ele>
        <time>2013-12-15T11:52:20.000Z</time>
      </trkpt>
      <trkpt lat="43.56151" lon="6.91531">
        <ele>403.60000610352</ele>
        <time>2013-12-15T11:52:24.000Z</time>
      </trkpt>
      <trkpt lat="43.56126" lon="6.91529">
        <ele>402.39999389648</ele>
        <time>2013-12-15T11:52:28.000Z</time>
      </trkpt>
      <trkpt lat="43.56117" lon="6.9153">
        <ele>401.39999389648</ele>
        <time>2013-12-15T11:52:29.000Z</time>
      </trkpt>
      <trkpt lat="43.56094" lon="6.91535">
        <ele>398.60000610352</ele>
        <time>2013-12-15T11:52:32.000Z</time>
      </trkpt>
      <trkpt lat="43.56082" lon="6.91542">
        <ele>395.79998779297</ele>
        <time>2013-12-15T11:52:34.000Z</time>
      </trkpt>
      <trkpt lat="43.5607" lon="6.91555">
        <ele>391</ele>
        <time>2013-12-15T11:52:36.000Z</time>
      </trkpt>
      <trkpt lat="43.56057" lon="6.91568">
        <ele>386.60000610352</ele>
        <time>2013-12-15T11:52:38.000Z</time>
      </trkpt>
      <trkpt lat="43.56049" lon="6.91576">
        <ele>383.79998779297</ele>
        <time>2013-12-15T11:52:40.000Z</time>
      </trkpt>
      <trkpt lat="43.56047" lon="6.91577">
        <ele>383.39999389648</ele>
        <time>2013-12-15T11:52:41.000Z</time>
      </trkpt>
      <trkpt lat="43.5604" lon="6.91577">
        <ele>382.79998779297</ele>
        <time>2013-12-15T11:52:43.000Z</time>
      </trkpt>
      <trkpt lat="43.56027" lon="6.9157">
        <ele>383.20001220703</ele>
        <time>2013-12-15T11:52:47.000Z</time>
      </trkpt>
      <trkpt lat="43.56016" lon="6.91567">
        <ele>382.79998779297</ele>
        <time>2013-12-15T11:52:50.000Z</time>
      </trkpt>
      <trkpt lat="43.56005" lon="6.91554">
        <ele>384</ele>
        <time>2013-12-15T11:52:53.000Z</time>
      </trkpt>
      <trkpt lat="43.56002" lon="6.9155">
        <ele>384.60000610352</ele>
        <time>2013-12-15T11:52:54.000Z</time>
      </trkpt>
      <trkpt lat="43.55992" lon="6.91544">
        <ele>384</ele>
        <time>2013-12-15T11:52:56.000Z</time>
      </trkpt>
      <trkpt lat="43.55982" lon="6.91542">
        <ele>382.20001220703</ele>
        <time>2013-12-15T11:52:58.000Z</time>
      </trkpt>
      <trkpt lat="43.55969" lon="6.9153">
        <ele>381.20001220703</ele>
        <time>2013-12-15T11:53:01.000Z</time>
      </trkpt>
      <trkpt lat="43.55955" lon="6.91518">
        <ele>380</ele>
        <time>2013-12-15T11:53:04.000Z</time>
      </trkpt>
      <trkpt lat="43.55951" lon="6.91512">
        <ele>380</ele>
        <time>2013-12-15T11:53:05.000Z</time>
      </trkpt>
      <trkpt lat="43.55942" lon="6.91504">
        <ele>378.79998779297</ele>
        <time>2013-12-15T11:53:08.000Z</time>
      </trkpt>
      <trkpt lat="43.55928" lon="6.91512">
        <ele>374.39999389648</ele>
        <time>2013-12-15T11:53:11.000Z</time>
      </trkpt>
      <trkpt lat="43.55915" lon="6.91511">
        <ele>371.39999389648</ele>
        <time>2013-12-15T11:53:15.000Z</time>
      </trkpt>
      <trkpt lat="43.55907" lon="6.91502">
        <ele>370</ele>
        <time>2013-12-15T11:53:19.000Z</time>
      </trkpt>
      <trkpt lat="43.55894" lon="6.9151">
        <ele>365.60000610352</ele>
        <time>2013-12-15T11:53:23.000Z</time>
      </trkpt>
      <trkpt lat="43.5589" lon="6.9152">
        <ele>363.79998779297</ele>
        <time>2013-12-15T11:53:27.000Z</time>
      </trkpt>
      <trkpt lat="43.55884" lon="6.91533">
        <ele>361.60000610352</ele>
        <time>2013-12-15T11:53:30.000Z</time>
      </trkpt>
      <trkpt lat="43.55874" lon="6.91539">
        <ele>359</ele>
        <time>2013-12-15T11:53:33.000Z</time>
      </trkpt>
      <trkpt lat="43.55862" lon="6.91552">
        <ele>356.20001220703</ele>
        <time>2013-12-15T11:53:37.000Z</time>
      </trkpt>
      <trkpt lat="43.55852" lon="6.91552">
        <ele>354.20001220703</ele>
        <time>2013-12-15T11:53:40.000Z</time>
      </trkpt>
      <trkpt lat="43.55842" lon="6.91558">
        <ele>352.39999389648</ele>
        <time>2013-12-15T11:53:43.000Z</time>
      </trkpt>
      <trkpt lat="43.55839" lon="6.91549">
        <ele>351.39999389648</ele>
        <time>2013-12-15T11:53:46.000Z</time>
      </trkpt>
      <trkpt lat="43.5583" lon="6.91542">
        <ele>349.20001220703</ele>
        <time>2013-12-15T11:53:50.000Z</time>
      </trkpt>
      <trkpt lat="43.55821" lon="6.91545">
        <ele>347.20001220703</ele>
        <time>2013-12-15T11:53:53.000Z</time>
      </trkpt>
      <trkpt lat="43.55817" lon="6.91549">
        <ele>346.20001220703</ele>
        <time>2013-12-15T11:53:54.000Z</time>
      </trkpt>
      <trkpt lat="43.55812" lon="6.91564">
        <ele>346</ele>
        <time>2013-12-15T11:53:56.000Z</time>
      </trkpt>
      <trkpt lat="43.55811" lon="6.91569">
        <ele>346</ele>
        <time>2013-12-15T11:53:57.000Z</time>
      </trkpt>
      <trkpt lat="43.55804" lon="6.91561">
        <ele>343.79998779297</ele>
        <time>2013-12-15T11:54:00.000Z</time>
      </trkpt>
      <trkpt lat="43.55801" lon="6.91557">
        <ele>342.79998779297</ele>
        <time>2013-12-15T11:54:01.000Z</time>
      </trkpt>
      <trkpt lat="43.55791" lon="6.91556">
        <ele>340.39999389648</ele>
        <time>2013-12-15T11:54:04.000Z</time>
      </trkpt>
      <trkpt lat="43.55781" lon="6.91569">
        <ele>338.79998779297</ele>
        <time>2013-12-15T11:54:07.000Z</time>
      </trkpt>
      <trkpt lat="43.55779" lon="6.91586">
        <ele>339.20001220703</ele>
        <time>2013-12-15T11:54:10.000Z</time>
      </trkpt>
      <trkpt lat="43.55775" lon="6.91614">
        <ele>335</ele>
        <time>2013-12-15T11:54:14.000Z</time>
      </trkpt>
      <trkpt lat="43.55776" lon="6.91621">
        <ele>334.20001220703</ele>
        <time>2013-12-15T11:54:15.000Z</time>
      </trkpt>
      <trkpt lat="43.55768" lon="6.91637">
        <ele>331.39999389648</ele>
        <time>2013-12-15T11:54:18.000Z</time>
      </trkpt>
      <trkpt lat="43.55764" lon="6.91643">
        <ele>330.20001220703</ele>
        <time>2013-12-15T11:54:19.000Z</time>
      </trkpt>
      <trkpt lat="43.55752" lon="6.91664">
        <ele>327.39999389648</ele>
        <time>2013-12-15T11:54:23.000Z</time>
      </trkpt>
      <trkpt lat="43.55751" lon="6.9168">
        <ele>325.20001220703</ele>
        <time>2013-12-15T11:54:26.000Z</time>
      </trkpt>
      <trkpt lat="43.55752" lon="6.91684">
        <ele>324.60000610352</ele>
        <time>2013-12-15T11:54:27.000Z</time>
      </trkpt>
      <trkpt lat="43.55751" lon="6.91689">
        <ele>323.79998779297</ele>
        <time>2013-12-15T11:54:28.000Z</time>
      </trkpt>
      <trkpt lat="43.55747" lon="6.91696">
        <ele>322.39999389648</ele>
        <time>2013-12-15T11:54:30.000Z</time>
      </trkpt>
      <trkpt lat="43.55732" lon="6.9171">
        <ele>319</ele>
        <time>2013-12-15T11:54:33.000Z</time>
      </trkpt>
      <trkpt lat="43.55727" lon="6.91715">
        <ele>318</ele>
        <time>2013-12-15T11:54:34.000Z</time>
      </trkpt>
      <trkpt lat="43.55722" lon="6.91717">
        <ele>317.60000610352</ele>
        <time>2013-12-15T11:54:35.000Z</time>
      </trkpt>
      <trkpt lat="43.55712" lon="6.91721">
        <ele>316.79998779297</ele>
        <time>2013-12-15T11:54:37.000Z</time>
      </trkpt>
      <trkpt lat="43.55703" lon="6.91725">
        <ele>316.20001220703</ele>
        <time>2013-12-15T11:54:39.000Z</time>
      </trkpt>
      <trkpt lat="43.55692" lon="6.91729">
        <ele>315.79998779297</ele>
        <time>2013-12-15T11:54:41.000Z</time>
      </trkpt>
      <trkpt lat="43.55675" lon="6.91737">
        <ele>316.20001220703</ele>
        <time>2013-12-15T11:54:44.000Z</time>
      </trkpt>
      <trkpt lat="43.55671" lon="6.91738">
        <ele>316.39999389648</ele>
        <time>2013-12-15T11:54:45.000Z</time>
      </trkpt>
      <trkpt lat="43.55663" lon="6.91739">
        <ele>315.79998779297</ele>
        <time>2013-12-15T11:54:48.000Z</time>
      </trkpt>
      <trkpt lat="43.5566" lon="6.91738">
        <ele>315.20001220703</ele>
        <time>2013-12-15T11:54:49.000Z</time>
      </trkpt>
      <trkpt lat="43.55647" lon="6.91733">
        <ele>312.39999389648</ele>
        <time>2013-12-15T11:54:52.000Z</time>
      </trkpt>
      <trkpt lat="43.55641" lon="6.91732">
        <ele>311.20001220703</ele>
        <time>2013-12-15T11:54:53.000Z</time>
      </trkpt>
      <trkpt lat="43.55635" lon="6.91729">
        <ele>310</ele>
        <time>2013-12-15T11:54:54.000Z</time>
      </trkpt>
      <trkpt lat="43.55619" lon="6.91729">
        <ele>307.39999389648</ele>
        <time>2013-12-15T11:54:57.000Z</time>
      </trkpt>
      <trkpt lat="43.55609" lon="6.91742">
        <ele>307.60000610352</ele>
        <time>2013-12-15T11:55:00.000Z</time>
      </trkpt>
      <trkpt lat="43.55604" lon="6.91746">
        <ele>307.60000610352</ele>
        <time>2013-12-15T11:55:01.000Z</time>
      </trkpt>
      <trkpt lat="43.55591" lon="6.91759">
        <ele>305.79998779297</ele>
        <time>2013-12-15T11:55:04.000Z</time>
      </trkpt>
      <trkpt lat="43.55587" lon="6.91764">
        <ele>305.20001220703</ele>
        <time>2013-12-15T11:55:05.000Z</time>
      </trkpt>
      <trkpt lat="43.55578" lon="6.91779">
        <ele>303.20001220703</ele>
        <time>2013-12-15T11:55:08.000Z</time>
      </trkpt>
      <trkpt lat="43.55575" lon="6.91793">
        <ele>302.20001220703</ele>
        <time>2013-12-15T11:55:10.000Z</time>
      </trkpt>
      <trkpt lat="43.55571" lon="6.91806">
        <ele>301.20001220703</ele>
        <time>2013-12-15T11:55:12.000Z</time>
      </trkpt>
      <trkpt lat="43.55567" lon="6.91811">
        <ele>300.39999389648</ele>
        <time>2013-12-15T11:55:13.000Z</time>
      </trkpt>
      <trkpt lat="43.55563" lon="6.91813">
        <ele>299.60000610352</ele>
        <time>2013-12-15T11:55:14.000Z</time>
      </trkpt>
      <trkpt lat="43.55551" lon="6.91809">
        <ele>297.39999389648</ele>
        <time>2013-12-15T11:55:17.000Z</time>
      </trkpt>
      <trkpt lat="43.55548" lon="6.91822">
        <ele>296.79998779297</ele>
        <time>2013-12-15T11:55:20.000Z</time>
      </trkpt>
      <trkpt lat="43.55544" lon="6.9184">
        <ele>295.60000610352</ele>
        <time>2013-12-15T11:55:23.000Z</time>
      </trkpt>
      <trkpt lat="43.55542" lon="6.91846">
        <ele>294.60000610352</ele>
        <time>2013-12-15T11:55:24.000Z</time>
      </trkpt>
      <trkpt lat="43.55534" lon="6.91851">
        <ele>293</ele>
        <time>2013-12-15T11:55:27.000Z</time>
      </trkpt>
      <trkpt lat="43.55531" lon="6.91852">
        <ele>292.39999389648</ele>
        <time>2013-12-15T11:55:28.000Z</time>
      </trkpt>
      <trkpt lat="43.55527" lon="6.91849">
        <ele>292</ele>
        <time>2013-12-15T11:55:29.000Z</time>
      </trkpt>
      <trkpt lat="43.55524" lon="6.91847">
        <ele>291.79998779297</ele>
        <time>2013-12-15T11:55:30.000Z</time>
      </trkpt>
      <trkpt lat="43.55513" lon="6.9185">
        <ele>290</ele>
        <time>2013-12-15T11:55:34.000Z</time>
      </trkpt>
      <trkpt lat="43.5551" lon="6.91861">
        <ele>289</ele>
        <time>2013-12-15T11:55:37.000Z</time>
      </trkpt>
      <trkpt lat="43.55511" lon="6.91865">
        <ele>288.79998779297</ele>
        <time>2013-12-15T11:55:41.000Z</time>
      </trkpt>
      <trkpt lat="43.5551" lon="6.91866">
        <ele>288.60000610352</ele>
        <time>2013-12-15T11:55:47.000Z</time>
      </trkpt>
      <trkpt lat="43.55513" lon="6.91876">
        <ele>288.20001220703</ele>
        <time>2013-12-15T11:59:16.000Z</time>
      </trkpt>
      <trkpt lat="43.55512" lon="6.91872">
        <ele>288.39999389648</ele>
        <time>2013-12-15T11:59:20.000Z</time>
      </trkpt>
      <trkpt lat="43.55508" lon="6.91874">
        <ele>288</ele>
        <time>2013-12-15T11:59:25.000Z</time>
      </trkpt>
      <trkpt lat="43.55507" lon="6.91877">
        <ele>287.60000610352</ele>
        <time>2013-12-15T11:59:31.000Z</time>
      </trkpt>
      <trkpt lat="43.55504" lon="6.91874">
        <ele>287.39999389648</ele>
        <time>2013-12-15T12:00:40.000Z</time>
      </trkpt>
      <trkpt lat="43.55496" lon="6.91892">
        <ele>286.79998779297</ele>
        <time>2013-12-15T12:00:44.000Z</time>
      </trkpt>
      <trkpt lat="43.55485" lon="6.91925">
        <ele>287</ele>
        <time>2013-12-15T12:00:49.000Z</time>
      </trkpt>
      <trkpt lat="43.55484" lon="6.91933">
        <ele>286.60000610352</ele>
        <time>2013-12-15T12:00:51.000Z</time>
      </trkpt>
      <trkpt lat="43.55484" lon="6.91935">
        <ele>286.20001220703</ele>
        <time>2013-12-15T12:00:52.000Z</time>
      </trkpt>
      <trkpt lat="43.55485" lon="6.91936">
        <ele>286</ele>
        <time>2013-12-15T12:00:55.000Z</time>
      </trkpt>
      <trkpt lat="43.55485" lon="6.91936">
        <ele>286</ele>
        <time>2013-12-15T12:00:56.000Z</time>
      </trkpt>
      <trkpt lat="43.55486" lon="6.91945">
        <ele>284.79998779297</ele>
        <time>2013-12-15T12:01:03.000Z</time>
      </trkpt>
      <trkpt lat="43.55489" lon="6.91968">
        <ele>281.79998779297</ele>
        <time>2013-12-15T12:01:08.000Z</time>
      </trkpt>
      <trkpt lat="43.55496" lon="6.91983">
        <ele>278</ele>
        <time>2013-12-15T12:01:12.000Z</time>
      </trkpt>
      <trkpt lat="43.55496" lon="6.92007">
        <ele>275.20001220703</ele>
        <time>2013-12-15T12:01:15.000Z</time>
      </trkpt>
      <trkpt lat="43.55496" lon="6.92041">
        <ele>269.60000610352</ele>
        <time>2013-12-15T12:01:19.000Z</time>
      </trkpt>
      <trkpt lat="43.55496" lon="6.92058">
        <ele>266.60000610352</ele>
        <time>2013-12-15T12:01:21.000Z</time>
      </trkpt>
      <trkpt lat="43.55495" lon="6.92072">
        <ele>264.60000610352</ele>
        <time>2013-12-15T12:01:23.000Z</time>
      </trkpt>
      <trkpt lat="43.55497" lon="6.92082">
        <ele>262.20001220703</ele>
        <time>2013-12-15T12:01:25.000Z</time>
      </trkpt>
      <trkpt lat="43.55499" lon="6.92097">
        <ele>259.20001220703</ele>
        <time>2013-12-15T12:01:27.000Z</time>
      </trkpt>
      <trkpt lat="43.55501" lon="6.92104">
        <ele>257.60000610352</ele>
        <time>2013-12-15T12:01:28.000Z</time>
      </trkpt>
      <trkpt lat="43.55502" lon="6.92122">
        <ele>254.60000610352</ele>
        <time>2013-12-15T12:01:31.000Z</time>
      </trkpt>
      <trkpt lat="43.55501" lon="6.92135">
        <ele>252.60000610352</ele>
        <time>2013-12-15T12:01:33.000Z</time>
      </trkpt>
      <trkpt lat="43.55501" lon="6.92139">
        <ele>252.19999694824</ele>
        <time>2013-12-15T12:01:34.000Z</time>
      </trkpt>
      <trkpt lat="43.55502" lon="6.92139">
        <ele>252</ele>
        <time>2013-12-15T12:01:35.000Z</time>
      </trkpt>
      <trkpt lat="43.55507" lon="6.92132">
        <ele>251.80000305176</ele>
        <time>2013-12-15T12:01:38.000Z</time>
      </trkpt>
      <trkpt lat="43.55522" lon="6.92111">
        <ele>251.19999694824</ele>
        <time>2013-12-15T12:01:42.000Z</time>
      </trkpt>
      <trkpt lat="43.55529" lon="6.9209">
        <ele>252.39999389648</ele>
        <time>2013-12-15T12:01:44.000Z</time>
      </trkpt>
      <trkpt lat="43.55535" lon="6.9207">
        <ele>254.60000610352</ele>
        <time>2013-12-15T12:01:46.000Z</time>
      </trkpt>
      <trkpt lat="43.5554" lon="6.9206">
        <ele>255.19999694824</ele>
        <time>2013-12-15T12:01:47.000Z</time>
      </trkpt>
      <trkpt lat="43.55553" lon="6.92047">
        <ele>254.60000610352</ele>
        <time>2013-12-15T12:01:49.000Z</time>
      </trkpt>
      <trkpt lat="43.55582" lon="6.92035">
        <ele>251</ele>
        <time>2013-12-15T12:01:53.000Z</time>
      </trkpt>
      <trkpt lat="43.55583" lon="6.92034">
        <ele>251</ele>
        <time>2013-12-15T12:01:54.000Z</time>
      </trkpt>
      <trkpt lat="43.55582" lon="6.92036">
        <ele>250.60000610352</ele>
        <time>2013-12-15T12:01:55.000Z</time>
      </trkpt>
      <trkpt lat="43.55598" lon="6.9203">
        <ele>251.80000305176</ele>
        <time>2013-12-15T12:02:01.000Z</time>
      </trkpt>
      <trkpt lat="43.55613" lon="6.92031">
        <ele>251.60000610352</ele>
        <time>2013-12-15T12:02:06.000Z</time>
      </trkpt>
      <trkpt lat="43.55613" lon="6.92039">
        <ele>250</ele>
        <time>2013-12-15T12:02:09.000Z</time>
      </trkpt>
      <trkpt lat="43.55617" lon="6.92042">
        <ele>249.19999694824</ele>
        <time>2013-12-15T12:02:11.000Z</time>
      </trkpt>
      <trkpt lat="43.55622" lon="6.92048">
        <ele>248.19999694824</ele>
        <time>2013-12-15T12:02:14.000Z</time>
      </trkpt>
      <trkpt lat="43.55637" lon="6.92062">
        <ele>245.60000610352</ele>
        <time>2013-12-15T12:02:18.000Z</time>
      </trkpt>
      <trkpt lat="43.55644" lon="6.92089">
        <ele>241.60000610352</ele>
        <time>2013-12-15T12:02:22.000Z</time>
      </trkpt>
      <trkpt lat="43.55627" lon="6.92102">
        <ele>239.80000305176</ele>
        <time>2013-12-15T12:02:25.000Z</time>
      </trkpt>
      <trkpt lat="43.55614" lon="6.9213">
        <ele>236.60000610352</ele>
        <time>2013-12-15T12:02:29.000Z</time>
      </trkpt>
      <trkpt lat="43.55618" lon="6.92156">
        <ele>235</ele>
        <time>2013-12-15T12:02:32.000Z</time>
      </trkpt>
      <trkpt lat="43.55629" lon="6.92176">
        <ele>234.60000610352</ele>
        <time>2013-12-15T12:02:36.000Z</time>
      </trkpt>
      <trkpt lat="43.55631" lon="6.92191">
        <ele>233</ele>
        <time>2013-12-15T12:02:39.000Z</time>
      </trkpt>
      <trkpt lat="43.55644" lon="6.92212">
        <ele>231.80000305176</ele>
        <time>2013-12-15T12:02:43.000Z</time>
      </trkpt>
      <trkpt lat="43.5565" lon="6.92221">
        <ele>231.39999389648</ele>
        <time>2013-12-15T12:02:46.000Z</time>
      </trkpt>
      <trkpt lat="43.55652" lon="6.92226">
        <ele>230.80000305176</ele>
        <time>2013-12-15T12:02:49.000Z</time>
      </trkpt>
      <trkpt lat="43.55653" lon="6.92227">
        <ele>230.80000305176</ele>
        <time>2013-12-15T12:02:51.000Z</time>
      </trkpt>
      <trkpt lat="43.55656" lon="6.9224">
        <ele>229.60000610352</ele>
        <time>2013-12-15T12:03:18.000Z</time>
      </trkpt>
      <trkpt lat="43.55661" lon="6.92259">
        <ele>226.39999389648</ele>
        <time>2013-12-15T12:03:22.000Z</time>
      </trkpt>
      <trkpt lat="43.5567" lon="6.92276">
        <ele>223.39999389648</ele>
        <time>2013-12-15T12:03:25.000Z</time>
      </trkpt>
      <trkpt lat="43.55673" lon="6.92285">
        <ele>221.60000610352</ele>
        <time>2013-12-15T12:03:27.000Z</time>
      </trkpt>
      <trkpt lat="43.5567" lon="6.92291">
        <ele>219.60000610352</ele>
        <time>2013-12-15T12:03:28.000Z</time>
      </trkpt>
      <trkpt lat="43.55659" lon="6.92303">
        <ele>216.19999694824</ele>
        <time>2013-12-15T12:03:31.000Z</time>
      </trkpt>
      <trkpt lat="43.55648" lon="6.92312">
        <ele>213.60000610352</ele>
        <time>2013-12-15T12:03:34.000Z</time>
      </trkpt>
      <trkpt lat="43.55643" lon="6.92318">
        <ele>212.19999694824</ele>
        <time>2013-12-15T12:03:35.000Z</time>
      </trkpt>
      <trkpt lat="43.55638" lon="6.92322">
        <ele>211.19999694824</ele>
        <time>2013-12-15T12:03:36.000Z</time>
      </trkpt>
      <trkpt lat="43.55632" lon="6.9232">
        <ele>211.39999389648</ele>
        <time>2013-12-15T12:03:38.000Z</time>
      </trkpt>
      <trkpt lat="43.55632" lon="6.92308">
        <ele>214</ele>
        <time>2013-12-15T12:03:40.000Z</time>
      </trkpt>
      <trkpt lat="43.55635" lon="6.92283">
        <ele>219.39999389648</ele>
        <time>2013-12-15T12:03:43.000Z</time>
      </trkpt>
      <trkpt lat="43.55632" lon="6.92267">
        <ele>222.80000305176</ele>
        <time>2013-12-15T12:03:46.000Z</time>
      </trkpt>
      <trkpt lat="43.55614" lon="6.92261">
        <ele>223</ele>
        <time>2013-12-15T12:03:49.000Z</time>
      </trkpt>
      <trkpt lat="43.55614" lon="6.92261">
        <ele>223</ele>
        <time>2013-12-15T12:03:52.000Z</time>
      </trkpt>
      <trkpt lat="43.5561" lon="6.92268">
        <ele>221.39999389648</ele>
        <time>2013-12-15T12:04:15.000Z</time>
      </trkpt>
      <trkpt lat="43.55597" lon="6.92287">
        <ele>217</ele>
        <time>2013-12-15T12:04:19.000Z</time>
      </trkpt>
      <trkpt lat="43.55575" lon="6.92317">
        <ele>211.19999694824</ele>
        <time>2013-12-15T12:04:24.000Z</time>
      </trkpt>
      <trkpt lat="43.55561" lon="6.92336">
        <ele>207.39999389648</ele>
        <time>2013-12-15T12:04:28.000Z</time>
      </trkpt>
      <trkpt lat="43.55556" lon="6.92341">
        <ele>205.80000305176</ele>
        <time>2013-12-15T12:04:29.000Z</time>
      </trkpt>
      <trkpt lat="43.55552" lon="6.92346">
        <ele>203.80000305176</ele>
        <time>2013-12-15T12:04:31.000Z</time>
      </trkpt>
      <trkpt lat="43.5555" lon="6.92351">
        <ele>202.19999694824</ele>
        <time>2013-12-15T12:04:32.000Z</time>
      </trkpt>
      <trkpt lat="43.55534" lon="6.92354">
        <ele>201.19999694824</ele>
        <time>2013-12-15T12:04:36.000Z</time>
      </trkpt>
      <trkpt lat="43.55523" lon="6.92349">
        <ele>203.19999694824</ele>
        <time>2013-12-15T12:04:38.000Z</time>
      </trkpt>
      <trkpt lat="43.55518" lon="6.92347">
        <ele>203.80000305176</ele>
        <time>2013-12-15T12:04:39.000Z</time>
      </trkpt>
      <trkpt lat="43.55512" lon="6.92347">
        <ele>204</ele>
        <time>2013-12-15T12:04:40.000Z</time>
      </trkpt>
      <trkpt lat="43.55499" lon="6.92352">
        <ele>202.60000610352</ele>
        <time>2013-12-15T12:04:43.000Z</time>
      </trkpt>
      <trkpt lat="43.5548" lon="6.92351">
        <ele>204.80000305176</ele>
        <time>2013-12-15T12:04:47.000Z</time>
      </trkpt>
      <trkpt lat="43.55475" lon="6.92345">
        <ele>207.39999389648</ele>
        <time>2013-12-15T12:04:49.000Z</time>
      </trkpt>
      <trkpt lat="43.55468" lon="6.9234">
        <ele>210</ele>
        <time>2013-12-15T12:04:51.000Z</time>
      </trkpt>
      <trkpt lat="43.55455" lon="6.92345">
        <ele>209.39999389648</ele>
        <time>2013-12-15T12:04:55.000Z</time>
      </trkpt>
      <trkpt lat="43.55455" lon="6.92346">
        <ele>209</ele>
        <time>2013-12-15T12:04:57.000Z</time>
      </trkpt>
      <trkpt lat="43.55454" lon="6.92347">
        <ele>208.80000305176</ele>
        <time>2013-12-15T12:04:58.000Z</time>
      </trkpt>
      <trkpt lat="43.55451" lon="6.92357">
        <ele>205.80000305176</ele>
        <time>2013-12-15T12:05:24.000Z</time>
      </trkpt>
      <trkpt lat="43.5545" lon="6.92359">
        <ele>205.19999694824</ele>
        <time>2013-12-15T12:05:26.000Z</time>
      </trkpt>
      <trkpt lat="43.55448" lon="6.92368">
        <ele>202.60000610352</ele>
        <time>2013-12-15T12:05:29.000Z</time>
      </trkpt>
      <trkpt lat="43.55444" lon="6.92375">
        <ele>200.80000305176</ele>
        <time>2013-12-15T12:05:31.000Z</time>
      </trkpt>
      <trkpt lat="43.55441" lon="6.92389">
        <ele>196.60000610352</ele>
        <time>2013-12-15T12:05:34.000Z</time>
      </trkpt>
      <trkpt lat="43.55433" lon="6.92412">
        <ele>190.39999389648</ele>
        <time>2013-12-15T12:05:37.000Z</time>
      </trkpt>
      <trkpt lat="43.55411" lon="6.92447">
        <ele>183</ele>
        <time>2013-12-15T12:05:41.000Z</time>
      </trkpt>
      <trkpt lat="43.55385" lon="6.92498">
        <ele>174.19999694824</ele>
        <time>2013-12-15T12:05:46.000Z</time>
      </trkpt>
      <trkpt lat="43.55382" lon="6.92508">
        <ele>172.19999694824</ele>
        <time>2013-12-15T12:05:47.000Z</time>
      </trkpt>
      <trkpt lat="43.55375" lon="6.92538">
        <ele>165.60000610352</ele>
        <time>2013-12-15T12:05:50.000Z</time>
      </trkpt>
      <trkpt lat="43.55363" lon="6.9255">
        <ele>165.19999694824</ele>
        <time>2013-12-15T12:05:53.000Z</time>
      </trkpt>
      <trkpt lat="43.55359" lon="6.92554">
        <ele>165.39999389648</ele>
        <time>2013-12-15T12:05:54.000Z</time>
      </trkpt>
      <trkpt lat="43.55354" lon="6.92559">
        <ele>165.39999389648</ele>
        <time>2013-12-15T12:05:57.000Z</time>
      </trkpt>
      <trkpt lat="43.55345" lon="6.92573">
        <ele>164.39999389648</ele>
        <time>2013-12-15T12:06:00.000Z</time>
      </trkpt>
      <trkpt lat="43.55342" lon="6.92576">
        <ele>164.39999389648</ele>
        <time>2013-12-15T12:06:01.000Z</time>
      </trkpt>
      <trkpt lat="43.55331" lon="6.92584">
        <ele>164.60000610352</ele>
        <time>2013-12-15T12:06:04.000Z</time>
      </trkpt>
      <trkpt lat="43.5532" lon="6.92588">
        <ele>163.19999694824</ele>
        <time>2013-12-15T12:06:08.000Z</time>
      </trkpt>
      <trkpt lat="43.55318" lon="6.92591">
        <ele>162.60000610352</ele>
        <time>2013-12-15T12:06:10.000Z</time>
      </trkpt>
      <trkpt lat="43.5532" lon="6.92594">
        <ele>162</ele>
        <time>2013-12-15T12:06:11.000Z</time>
      </trkpt>
      <trkpt lat="43.5533" lon="6.92596">
        <ele>161.80000305176</ele>
        <time>2013-12-15T12:06:14.000Z</time>
      </trkpt>
      <trkpt lat="43.55332" lon="6.92598">
        <ele>161.39999389648</ele>
        <time>2013-12-15T12:06:17.000Z</time>
      </trkpt>
      <trkpt lat="43.55331" lon="6.92606">
        <ele>159.39999389648</ele>
        <time>2013-12-15T12:06:21.000Z</time>
      </trkpt>
      <trkpt lat="43.55336" lon="6.92611">
        <ele>157.39999389648</ele>
        <time>2013-12-15T12:06:24.000Z</time>
      </trkpt>
      <trkpt lat="43.55337" lon="6.92614">
        <ele>156.80000305176</ele>
        <time>2013-12-15T12:06:25.000Z</time>
      </trkpt>
      <trkpt lat="43.55331" lon="6.92623">
        <ele>155.39999389648</ele>
        <time>2013-12-15T12:06:28.000Z</time>
      </trkpt>
      <trkpt lat="43.55327" lon="6.92627">
        <ele>154.39999389648</ele>
        <time>2013-12-15T12:06:30.000Z</time>
      </trkpt>
      <trkpt lat="43.55319" lon="6.9263">
        <ele>153.80000305176</ele>
        <time>2013-12-15T12:06:33.000Z</time>
      </trkpt>
      <trkpt lat="43.55317" lon="6.92632">
        <ele>153.19999694824</ele>
        <time>2013-12-15T12:06:34.000Z</time>
      </trkpt>
      <trkpt lat="43.55323" lon="6.92638">
        <ele>151.80000305176</ele>
        <time>2013-12-15T12:06:36.000Z</time>
      </trkpt>
      <trkpt lat="43.55338" lon="6.9265">
        <ele>147.80000305176</ele>
        <time>2013-12-15T12:06:41.000Z</time>
      </trkpt>
      <trkpt lat="43.55345" lon="6.92656">
        <ele>144.39999389648</ele>
        <time>2013-12-15T12:06:45.000Z</time>
      </trkpt>
      <trkpt lat="43.55338" lon="6.92666">
        <ele>143.80000305176</ele>
        <time>2013-12-15T12:06:48.000Z</time>
      </trkpt>
      <trkpt lat="43.55342" lon="6.92671">
        <ele>141.60000610352</ele>
        <time>2013-12-15T12:06:51.000Z</time>
      </trkpt>
      <trkpt lat="43.5534" lon="6.92683">
        <ele>139.80000305176</ele>
        <time>2013-12-15T12:06:54.000Z</time>
      </trkpt>
      <trkpt lat="43.55344" lon="6.92692">
        <ele>137.19999694824</ele>
        <time>2013-12-15T12:06:57.000Z</time>
      </trkpt>
      <trkpt lat="43.55349" lon="6.92692">
        <ele>135.80000305176</ele>
        <time>2013-12-15T12:07:00.000Z</time>
      </trkpt>
      <trkpt lat="43.55346" lon="6.92706">
        <ele>133.80000305176</ele>
        <time>2013-12-15T12:07:03.000Z</time>
      </trkpt>
      <trkpt lat="43.5534" lon="6.9272">
        <ele>132.60000610352</ele>
        <time>2013-12-15T12:07:07.000Z</time>
      </trkpt>
      <trkpt lat="43.55341" lon="6.9273">
        <ele>130.19999694824</ele>
        <time>2013-12-15T12:07:10.000Z</time>
      </trkpt>
      <trkpt lat="43.55353" lon="6.92731">
        <ele>127.40000152588</ele>
        <time>2013-12-15T12:07:14.000Z</time>
      </trkpt>
      <trkpt lat="43.5536" lon="6.92736">
        <ele>124.59999847412</ele>
        <time>2013-12-15T12:07:18.000Z</time>
      </trkpt>
      <trkpt lat="43.55369" lon="6.92742">
        <ele>121.80000305176</ele>
        <time>2013-12-15T12:07:21.000Z</time>
      </trkpt>
      <trkpt lat="43.55374" lon="6.92746">
        <ele>119.80000305176</ele>
        <time>2013-12-15T12:07:24.000Z</time>
      </trkpt>
      <trkpt lat="43.55374" lon="6.92749">
        <ele>119.59999847412</ele>
        <time>2013-12-15T12:07:25.000Z</time>
      </trkpt>
      <trkpt lat="43.55374" lon="6.9275">
        <ele>119.19999694824</ele>
        <time>2013-12-15T12:07:27.000Z</time>
      </trkpt>
      <trkpt lat="43.55374" lon="6.9275">
        <ele>119.19999694824</ele>
        <time>2013-12-15T12:07:30.000Z</time>
      </trkpt>
      <trkpt lat="43.55373" lon="6.92757">
        <ele>118.40000152588</ele>
        <time>2013-12-15T12:08:34.000Z</time>
      </trkpt>
      <trkpt lat="43.55372" lon="6.92766">
        <ele>117.59999847412</ele>
        <time>2013-12-15T12:08:36.000Z</time>
      </trkpt>
      <trkpt lat="43.55374" lon="6.92777">
        <ele>115.59999847412</ele>
        <time>2013-12-15T12:08:38.000Z</time>
      </trkpt>
      <trkpt lat="43.55374" lon="6.92782">
        <ele>114.80000305176</ele>
        <time>2013-12-15T12:08:39.000Z</time>
      </trkpt>
      <trkpt lat="43.55382" lon="6.92805">
        <ele>110.59999847412</ele>
        <time>2013-12-15T12:08:43.000Z</time>
      </trkpt>
      <trkpt lat="43.55386" lon="6.92836">
        <ele>106.59999847412</ele>
        <time>2013-12-15T12:08:47.000Z</time>
      </trkpt>
      <trkpt lat="43.55386" lon="6.92856">
        <ele>105</ele>
        <time>2013-12-15T12:08:49.000Z</time>
      </trkpt>
      <trkpt lat="43.55389" lon="6.92877">
        <ele>103.19999694824</ele>
        <time>2013-12-15T12:08:51.000Z</time>
      </trkpt>
      <trkpt lat="43.55394" lon="6.9291">
        <ele>100.59999847412</ele>
        <time>2013-12-15T12:08:54.000Z</time>
      </trkpt>
      <trkpt lat="43.55396" lon="6.92927">
        <ele>100.40000152588</ele>
        <time>2013-12-15T12:08:56.000Z</time>
      </trkpt>
      <trkpt lat="43.55397" lon="6.92933">
        <ele>100.59999847412</ele>
        <time>2013-12-15T12:08:57.000Z</time>
      </trkpt>
      <trkpt lat="43.55395" lon="6.92958">
        <ele>101</ele>
        <time>2013-12-15T12:09:00.000Z</time>
      </trkpt>
      <trkpt lat="43.55392" lon="6.92984">
        <ele>101.40000152588</ele>
        <time>2013-12-15T12:09:03.000Z</time>
      </trkpt>
      <trkpt lat="43.55391" lon="6.92991">
        <ele>101.59999847412</ele>
        <time>2013-12-15T12:09:04.000Z</time>
      </trkpt>
      <trkpt lat="43.55391" lon="6.92986">
        <ele>101.40000152588</ele>
        <time>2013-12-15T12:09:06.000Z</time>
      </trkpt>
      <trkpt lat="43.55389" lon="6.92987">
        <ele>101.40000152588</ele>
        <time>2013-12-15T12:09:11.000Z</time>
      </trkpt>
      <trkpt lat="43.55389" lon="6.92993">
        <ele>101.59999847412</ele>
        <time>2013-12-15T12:09:16.000Z</time>
      </trkpt>
      <trkpt lat="43.55389" lon="6.92994">
        <ele>101.59999847412</ele>
        <time>2013-12-15T12:09:17.000Z</time>
      </trkpt>
      <trkpt lat="43.5539" lon="6.9301">
        <ele>101.19999694824</ele>
        <time>2013-12-15T12:09:22.000Z</time>
      </trkpt>
      <trkpt lat="43.55389" lon="6.93032">
        <ele>100.19999694824</ele>
        <time>2013-12-15T12:09:26.000Z</time>
      </trkpt>
      <trkpt lat="43.55386" lon="6.93055">
        <ele>99.400001525879</ele>
        <time>2013-12-15T12:09:30.000Z</time>
      </trkpt>
      <trkpt lat="43.55384" lon="6.93089">
        <ele>98</ele>
        <time>2013-12-15T12:09:35.000Z</time>
      </trkpt>
      <trkpt lat="43.55383" lon="6.93093">
        <ele>97.800003051758</ele>
        <time>2013-12-15T12:09:36.000Z</time>
      </trkpt>
      <trkpt lat="43.55381" lon="6.93097">
        <ele>97.599998474121</ele>
        <time>2013-12-15T12:09:37.000Z</time>
      </trkpt>
      <trkpt lat="43.55374" lon="6.93122">
        <ele>96.800003051758</ele>
        <time>2013-12-15T12:09:41.000Z</time>
      </trkpt>
      <trkpt lat="43.55371" lon="6.93128">
        <ele>96.599998474121</ele>
        <time>2013-12-15T12:09:42.000Z</time>
      </trkpt>
      <trkpt lat="43.5537" lon="6.93139">
        <ele>96.199996948242</ele>
        <time>2013-12-15T12:09:45.000Z</time>
      </trkpt>
      <trkpt lat="43.5537" lon="6.93139">
        <ele>96.199996948242</ele>
        <time>2013-12-15T12:09:49.000Z</time>
      </trkpt>
      <trkpt lat="43.5537" lon="6.93142">
        <ele>96</ele>
        <time>2013-12-15T12:10:12.000Z</time>
      </trkpt>
      <trkpt lat="43.55373" lon="6.93142">
        <ele>95.800003051758</ele>
        <time>2013-12-15T12:10:21.000Z</time>
      </trkpt>
      <trkpt lat="43.55377" lon="6.93156">
        <ele>94.400001525879</ele>
        <time>2013-12-15T12:13:34.000Z</time>
      </trkpt>
      <trkpt lat="43.5538" lon="6.93152">
        <ele>94.400001525879</ele>
        <time>2013-12-15T12:13:38.000Z</time>
      </trkpt>
      <trkpt lat="43.55391" lon="6.93143">
        <ele>93.800003051758</ele>
        <time>2013-12-15T12:13:42.000Z</time>
      </trkpt>
      <trkpt lat="43.55397" lon="6.9315">
        <ele>92.599998474121</ele>
        <time>2013-12-15T12:13:45.000Z</time>
      </trkpt>
      <trkpt lat="43.55399" lon="6.93154">
        <ele>92</ele>
        <time>2013-12-15T12:13:46.000Z</time>
      </trkpt>
      <trkpt lat="43.55411" lon="6.93161">
        <ele>90.199996948242</ele>
        <time>2013-12-15T12:13:49.000Z</time>
      </trkpt>
      <trkpt lat="43.55425" lon="6.93171">
        <ele>85.800003051758</ele>
        <time>2013-12-15T12:13:52.000Z</time>
      </trkpt>
      <trkpt lat="43.5543" lon="6.93178">
        <ele>83</ele>
        <time>2013-12-15T12:13:54.000Z</time>
      </trkpt>
      <trkpt lat="43.55426" lon="6.93184">
        <ele>83</ele>
        <time>2013-12-15T12:13:56.000Z</time>
      </trkpt>
      <trkpt lat="43.55421" lon="6.93192">
        <ele>83.199996948242</ele>
        <time>2013-12-15T12:14:00.000Z</time>
      </trkpt>
      <trkpt lat="43.55432" lon="6.93199">
        <ele>79</ele>
        <time>2013-12-15T12:14:02.000Z</time>
      </trkpt>
      <trkpt lat="43.55445" lon="6.93206">
        <ele>74.400001525879</ele>
        <time>2013-12-15T12:14:06.000Z</time>
      </trkpt>
      <trkpt lat="43.55447" lon="6.93218">
        <ele>72.199996948242</ele>
        <time>2013-12-15T12:14:09.000Z</time>
      </trkpt>
      <trkpt lat="43.5545" lon="6.93231">
        <ele>69.599998474121</ele>
        <time>2013-12-15T12:14:13.000Z</time>
      </trkpt>
      <trkpt lat="43.55456" lon="6.93255">
        <ele>65.199996948242</ele>
        <time>2013-12-15T12:14:18.000Z</time>
      </trkpt>
      <trkpt lat="43.55454" lon="6.9326">
        <ele>64.400001525879</ele>
        <time>2013-12-15T12:14:20.000Z</time>
      </trkpt>
      <trkpt lat="43.55453" lon="6.93264">
        <ele>63.799999237061</ele>
        <time>2013-12-15T12:14:22.000Z</time>
      </trkpt>
      <trkpt lat="43.55447" lon="6.93276">
        <ele>62.400001525879</ele>
        <time>2013-12-15T12:14:27.000Z</time>
      </trkpt>
      <trkpt lat="43.55452" lon="6.93287">
        <ele>59.599998474121</ele>
        <time>2013-12-15T12:14:30.000Z</time>
      </trkpt>
      <trkpt lat="43.5546" lon="6.93298">
        <ele>56.200000762939</ele>
        <time>2013-12-15T12:14:34.000Z</time>
      </trkpt>
      <trkpt lat="43.55467" lon="6.933">
        <ele>55</ele>
        <time>2013-12-15T12:14:38.000Z</time>
      </trkpt>
      <trkpt lat="43.55477" lon="6.9329">
        <ele>55.400001525879</ele>
        <time>2013-12-15T12:14:42.000Z</time>
      </trkpt>
      <trkpt lat="43.55488" lon="6.93274">
        <ele>56.400001525879</ele>
        <time>2013-12-15T12:14:46.000Z</time>
      </trkpt>
      <trkpt lat="43.55496" lon="6.93272">
        <ele>55.400001525879</ele>
        <time>2013-12-15T12:14:50.000Z</time>
      </trkpt>
      <trkpt lat="43.55499" lon="6.93279">
        <ele>54</ele>
        <time>2013-12-15T12:14:54.000Z</time>
      </trkpt>
      <trkpt lat="43.555" lon="6.9328">
        <ele>53.599998474121</ele>
        <time>2013-12-15T12:14:55.000Z</time>
      </trkpt>
      <trkpt lat="43.555" lon="6.93288">
        <ele>52.599998474121</ele>
        <time>2013-12-15T12:14:59.000Z</time>
      </trkpt>
      <trkpt lat="43.555" lon="6.9329">
        <ele>52.200000762939</ele>
        <time>2013-12-15T12:15:06.000Z</time>
      </trkpt>
      <trkpt lat="43.55508" lon="6.93299">
        <ele>51.599998474121</ele>
        <time>2013-12-15T12:17:21.000Z</time>
      </trkpt>
      <trkpt lat="43.55505" lon="6.93285">
        <ele>53.400001525879</ele>
        <time>2013-12-15T12:18:46.000Z</time>
      </trkpt>
      <trkpt lat="43.55504" lon="6.93274">
        <ele>55</ele>
        <time>2013-12-15T12:18:51.000Z</time>
      </trkpt>
      <trkpt lat="43.55503" lon="6.93269">
        <ele>55.599998474121</ele>
        <time>2013-12-15T12:18:56.000Z</time>
      </trkpt>
      <trkpt lat="43.55503" lon="6.93269">
        <ele>55.599998474121</ele>
        <time>2013-12-15T12:18:57.000Z</time>
      </trkpt>
      <trkpt lat="43.55502" lon="6.93265">
        <ele>56</ele>
        <time>2013-12-15T12:19:05.000Z</time>
      </trkpt>
      <trkpt lat="43.555" lon="6.93258">
        <ele>56.799999237061</ele>
        <time>2013-12-15T12:19:08.000Z</time>
      </trkpt>
      <trkpt lat="43.55493" lon="6.93243">
        <ele>59.799999237061</ele>
        <time>2013-12-15T12:19:14.000Z</time>
      </trkpt>
      <trkpt lat="43.5549" lon="6.93218">
        <ele>62.599998474121</ele>
        <time>2013-12-15T12:19:19.000Z</time>
      </trkpt>
      <trkpt lat="43.55496" lon="6.93185">
        <ele>63.799999237061</ele>
        <time>2013-12-15T12:19:24.000Z</time>
      </trkpt>
      <trkpt lat="43.55497" lon="6.93174">
        <ele>64.199996948242</ele>
        <time>2013-12-15T12:19:26.000Z</time>
      </trkpt>
      <trkpt lat="43.55494" lon="6.93165">
        <ele>65.800003051758</ele>
        <time>2013-12-15T12:19:28.000Z</time>
      </trkpt>
      <trkpt lat="43.55491" lon="6.93154">
        <ele>67.800003051758</ele>
        <time>2013-12-15T12:19:30.000Z</time>
      </trkpt>
      <trkpt lat="43.55484" lon="6.93141">
        <ele>70.599998474121</ele>
        <time>2013-12-15T12:19:32.000Z</time>
      </trkpt>
      <trkpt lat="43.55482" lon="6.93134">
        <ele>71.800003051758</ele>
        <time>2013-12-15T12:19:33.000Z</time>
      </trkpt>
      <trkpt lat="43.55478" lon="6.93118">
        <ele>74.199996948242</ele>
        <time>2013-12-15T12:19:36.000Z</time>
      </trkpt>
      <trkpt lat="43.55475" lon="6.93108">
        <ele>76</ele>
        <time>2013-12-15T12:19:38.000Z</time>
      </trkpt>
      <trkpt lat="43.55475" lon="6.93088">
        <ele>77.400001525879</ele>
        <time>2013-12-15T12:19:42.000Z</time>
      </trkpt>
      <trkpt lat="43.55475" lon="6.93082">
        <ele>78</ele>
        <time>2013-12-15T12:19:43.000Z</time>
      </trkpt>
      <trkpt lat="43.55476" lon="6.93074">
        <ele>78.599998474121</ele>
        <time>2013-12-15T12:19:44.000Z</time>
      </trkpt>
      <trkpt lat="43.55475" lon="6.93066">
        <ele>80</ele>
        <time>2013-12-15T12:19:46.000Z</time>
      </trkpt>
      <trkpt lat="43.55479" lon="6.9306">
        <ele>79.599998474121</ele>
        <time>2013-12-15T12:19:50.000Z</time>
      </trkpt>
      <trkpt lat="43.55482" lon="6.93062">
        <ele>78.599998474121</ele>
        <time>2013-12-15T12:19:54.000Z</time>
      </trkpt>
      <trkpt lat="43.55497" lon="6.93092">
        <ele>70.199996948242</ele>
        <time>2013-12-15T12:19:59.000Z</time>
      </trkpt>
      <trkpt lat="43.5551" lon="6.93122">
        <ele>70</ele>
        <time>2013-12-15T12:20:04.000Z</time>
      </trkpt>
      <trkpt lat="43.55513" lon="6.93151">
        <ele>68.599998474121</ele>
        <time>2013-12-15T12:20:08.000Z</time>
      </trkpt>
      <trkpt lat="43.55518" lon="6.93155">
        <ele>69.400001525879</ele>
        <time>2013-12-15T12:20:11.000Z</time>
      </trkpt>
      <trkpt lat="43.5552" lon="6.93153">
        <ele>70.199996948242</ele>
        <time>2013-12-15T12:20:16.000Z</time>
      </trkpt>
      <trkpt lat="43.55522" lon="6.93158">
        <ele>70.199996948242</ele>
        <time>2013-12-15T12:20:25.000Z</time>
      </trkpt>
      <trkpt lat="43.55524" lon="6.93159">
        <ele>70.599998474121</ele>
        <time>2013-12-15T12:20:30.000Z</time>
      </trkpt>
      <trkpt lat="43.55525" lon="6.93162">
        <ele>70.599998474121</ele>
        <time>2013-12-15T12:20:38.000Z</time>
      </trkpt>
      <trkpt lat="43.55528" lon="6.93164">
        <ele>71</ele>
        <time>2013-12-15T12:20:43.000Z</time>
      </trkpt>
      <trkpt lat="43.55531" lon="6.93166">
        <ele>71.599998474121</ele>
        <time>2013-12-15T12:20:46.000Z</time>
      </trkpt>
      <trkpt lat="43.55531" lon="6.93171">
        <ele>71</ele>
        <time>2013-12-15T12:20:48.000Z</time>
      </trkpt>
      <trkpt lat="43.55531" lon="6.93186">
        <ele>69</ele>
        <time>2013-12-15T12:20:52.000Z</time>
      </trkpt>
      <trkpt lat="43.55532" lon="6.93192">
        <ele>68.599998474121</ele>
        <time>2013-12-15T12:20:56.000Z</time>
      </trkpt>
      <trkpt lat="43.55531" lon="6.93203">
        <ele>67</ele>
        <time>2013-12-15T12:21:01.000Z</time>
      </trkpt>
      <trkpt lat="43.55531" lon="6.93218">
        <ele>65.199996948242</ele>
        <time>2013-12-15T12:21:05.000Z</time>
      </trkpt>
      <trkpt lat="43.55537" lon="6.93238">
        <ele>63.599998474121</ele>
        <time>2013-12-15T12:21:09.000Z</time>
      </trkpt>
      <trkpt lat="43.55547" lon="6.93259">
        <ele>61.599998474121</ele>
        <time>2013-12-15T12:21:14.000Z</time>
      </trkpt>
      <trkpt lat="43.55559" lon="6.93274">
        <ele>60.200000762939</ele>
        <time>2013-12-15T12:21:18.000Z</time>
      </trkpt>
      <trkpt lat="43.55573" lon="6.93304">
        <ele>56.400001525879</ele>
        <time>2013-12-15T12:21:23.000Z</time>
      </trkpt>
      <trkpt lat="43.55585" lon="6.93333">
        <ele>52.599998474121</ele>
        <time>2013-12-15T12:21:27.000Z</time>
      </trkpt>
      <trkpt lat="43.55583" lon="6.93341">
        <ele>51.200000762939</ele>
        <time>2013-12-15T12:21:28.000Z</time>
      </trkpt>
      <trkpt lat="43.55575" lon="6.93356">
        <ele>48.799999237061</ele>
        <time>2013-12-15T12:21:31.000Z</time>
      </trkpt>
      <trkpt lat="43.55563" lon="6.93373">
        <ele>45.400001525879</ele>
        <time>2013-12-15T12:21:34.000Z</time>
      </trkpt>
      <trkpt lat="43.55559" lon="6.93382">
        <ele>43.799999237061</ele>
        <time>2013-12-15T12:21:36.000Z</time>
      </trkpt>
      <trkpt lat="43.55561" lon="6.93396">
        <ele>42.200000762939</ele>
        <time>2013-12-15T12:21:39.000Z</time>
      </trkpt>
      <trkpt lat="43.5556" lon="6.93405">
        <ele>41</ele>
        <time>2013-12-15T12:21:41.000Z</time>
      </trkpt>
      <trkpt lat="43.55561" lon="6.93413">
        <ele>40</ele>
        <time>2013-12-15T12:21:43.000Z</time>
      </trkpt>
      <trkpt lat="43.55557" lon="6.93417">
        <ele>39</ele>
        <time>2013-12-15T12:21:44.000Z</time>
      </trkpt>
      <trkpt lat="43.55553" lon="6.9343">
        <ele>36.799999237061</ele>
        <time>2013-12-15T12:21:47.000Z</time>
      </trkpt>
      <trkpt lat="43.55554" lon="6.93433">
        <ele>36.599998474121</ele>
        <time>2013-12-15T12:21:50.000Z</time>
      </trkpt>
      <trkpt lat="43.55553" lon="6.93434">
        <ele>36.400001525879</ele>
        <time>2013-12-15T12:21:59.000Z</time>
      </trkpt>
      <trkpt lat="43.55558" lon="6.93446">
        <ele>35.799999237061</ele>
        <time>2013-12-15T12:23:06.000Z</time>
      </trkpt>
      <trkpt lat="43.55567" lon="6.93473">
        <ele>34.400001525879</ele>
        <time>2013-12-15T12:23:12.000Z</time>
      </trkpt>
      <trkpt lat="43.55583" lon="6.93503">
        <ele>33.599998474121</ele>
        <time>2013-12-15T12:23:20.000Z</time>
      </trkpt>
      <trkpt lat="43.55591" lon="6.93503">
        <ele>34.599998474121</ele>
        <time>2013-12-15T12:23:23.000Z</time>
      </trkpt>
      <trkpt lat="43.55594" lon="6.93502">
        <ele>35</ele>
        <time>2013-12-15T12:23:24.000Z</time>
      </trkpt>
      <trkpt lat="43.55606" lon="6.93501">
        <ele>36.599998474121</ele>
        <time>2013-12-15T12:23:29.000Z</time>
      </trkpt>
      <trkpt lat="43.55612" lon="6.93508">
        <ele>36.799999237061</ele>
        <time>2013-12-15T12:23:31.000Z</time>
      </trkpt>
      <trkpt lat="43.55613" lon="6.93522">
        <ele>35.599998474121</ele>
        <time>2013-12-15T12:23:34.000Z</time>
      </trkpt>
      <trkpt lat="43.55603" lon="6.93537">
        <ele>33</ele>
        <time>2013-12-15T12:23:37.000Z</time>
      </trkpt>
      <trkpt lat="43.55599" lon="6.93542">
        <ele>32</ele>
        <time>2013-12-15T12:23:38.000Z</time>
      </trkpt>
      <trkpt lat="43.55592" lon="6.93555">
        <ele>29.799999237061</ele>
        <time>2013-12-15T12:23:40.000Z</time>
      </trkpt>
      <trkpt lat="43.55584" lon="6.93569">
        <ele>27.60000038147</ele>
        <time>2013-12-15T12:23:42.000Z</time>
      </trkpt>
      <trkpt lat="43.55572" lon="6.93606">
        <ele>24.60000038147</ele>
        <time>2013-12-15T12:23:47.000Z</time>
      </trkpt>
      <trkpt lat="43.55566" lon="6.93647">
        <ele>23.39999961853</ele>
        <time>2013-12-15T12:23:52.000Z</time>
      </trkpt>
      <trkpt lat="43.55563" lon="6.9366">
        <ele>23.200000762939</ele>
        <time>2013-12-15T12:23:54.000Z</time>
      </trkpt>
      <trkpt lat="43.55558" lon="6.93669">
        <ele>22.60000038147</ele>
        <time>2013-12-15T12:23:56.000Z</time>
      </trkpt>
      <trkpt lat="43.55546" lon="6.93683">
        <ele>21.799999237061</ele>
        <time>2013-12-15T12:23:59.000Z</time>
      </trkpt>
      <trkpt lat="43.55535" lon="6.9369">
        <ele>21</ele>
        <time>2013-12-15T12:24:01.000Z</time>
      </trkpt>
      <trkpt lat="43.55518" lon="6.93711">
        <ele>19.60000038147</ele>
        <time>2013-12-15T12:24:05.000Z</time>
      </trkpt>
      <trkpt lat="43.55508" lon="6.93737">
        <ele>18.60000038147</ele>
        <time>2013-12-15T12:24:08.000Z</time>
      </trkpt>
      <trkpt lat="43.55505" lon="6.93746">
        <ele>18.200000762939</ele>
        <time>2013-12-15T12:24:09.000Z</time>
      </trkpt>
      <trkpt lat="43.55494" lon="6.9379">
        <ele>16.39999961853</ele>
        <time>2013-12-15T12:24:14.000Z</time>
      </trkpt>
      <trkpt lat="43.55502" lon="6.93801">
        <ele>16.200000762939</ele>
        <time>2013-12-15T12:24:16.000Z</time>
      </trkpt>
      <trkpt lat="43.55519" lon="6.93804">
        <ele>16.39999961853</ele>
        <time>2013-12-15T12:24:19.000Z</time>
      </trkpt>
      <trkpt lat="43.55524" lon="6.93806">
        <ele>16.39999961853</ele>
        <time>2013-12-15T12:24:20.000Z</time>
      </trkpt>
      <trkpt lat="43.55544" lon="6.93816">
        <ele>16.39999961853</ele>
        <time>2013-12-15T12:24:25.000Z</time>
      </trkpt>
      <trkpt lat="43.55546" lon="6.93818">
        <ele>16.200000762939</ele>
        <time>2013-12-15T12:24:26.000Z</time>
      </trkpt>
      <trkpt lat="43.55553" lon="6.93832">
        <ele>15.800000190735</ele>
        <time>2013-12-15T12:24:29.000Z</time>
      </trkpt>
      <trkpt lat="43.55554" lon="6.9385">
        <ele>15.199999809265</ele>
        <time>2013-12-15T12:24:33.000Z</time>
      </trkpt>
      <trkpt lat="43.5555" lon="6.93864">
        <ele>14.800000190735</ele>
        <time>2013-12-15T12:24:36.000Z</time>
      </trkpt>
      <trkpt lat="43.55546" lon="6.93871">
        <ele>14.60000038147</ele>
        <time>2013-12-15T12:24:38.000Z</time>
      </trkpt>
      <trkpt lat="43.55531" lon="6.93879">
        <ele>14.60000038147</ele>
        <time>2013-12-15T12:24:43.000Z</time>
      </trkpt>
      <trkpt lat="43.5552" lon="6.93877">
        <ele>14.800000190735</ele>
        <time>2013-12-15T12:24:47.000Z</time>
      </trkpt>
      <trkpt lat="43.55519" lon="6.93873">
        <ele>14.800000190735</ele>
        <time>2013-12-15T12:24:51.000Z</time>
      </trkpt>
      <trkpt lat="43.5552" lon="6.93874">
        <ele>14.800000190735</ele>
        <time>2013-12-15T12:24:56.000Z</time>
      </trkpt>
      <trkpt lat="43.5552" lon="6.93876">
        <ele>14.800000190735</ele>
        <time>2013-12-15T12:24:57.000Z</time>
      </trkpt>
      <trkpt lat="43.55521" lon="6.93876">
        <ele>14.800000190735</ele>
        <time>2013-12-15T12:25:00.000Z</time>
      </trkpt>
      <trkpt lat="43.55527" lon="6.93879">
        <ele>14.60000038147</ele>
        <time>2013-12-15T12:25:07.000Z</time>
      </trkpt>
      <trkpt lat="43.55532" lon="6.93881">
        <ele>14.60000038147</ele>
        <time>2013-12-15T12:25:12.000Z</time>
      </trkpt>
      <trkpt lat="43.55534" lon="6.93884">
        <ele>14.39999961853</ele>
        <time>2013-12-15T12:25:18.000Z</time>
      </trkpt>
      <trkpt lat="43.55537" lon="6.93882">
        <ele>14.39999961853</ele>
        <time>2013-12-15T12:25:22.000Z</time>
      </trkpt>
      <trkpt lat="43.55538" lon="6.93881">
        <ele>14.39999961853</ele>
        <time>2013-12-15T12:25:23.000Z</time>
      </trkpt>
      <trkpt lat="43.55546" lon="6.93874">
        <ele>14.39999961853</ele>
        <time>2013-12-15T12:25:28.000Z</time>
      </trkpt>
      <trkpt lat="43.55555" lon="6.93857">
        <ele>15</ele>
        <time>2013-12-15T12:25:33.000Z</time>
      </trkpt>
      <trkpt lat="43.55571" lon="6.93843">
        <ele>15.39999961853</ele>
        <time>2013-12-15T12:25:39.000Z</time>
      </trkpt>
      <trkpt lat="43.55592" lon="6.93842">
        <ele>15.60000038147</ele>
        <time>2013-12-15T12:25:45.000Z</time>
      </trkpt>
      <trkpt lat="43.55617" lon="6.93837">
        <ele>16.200000762939</ele>
        <time>2013-12-15T12:25:51.000Z</time>
      </trkpt>
      <trkpt lat="43.55633" lon="6.9384">
        <ele>16.200000762939</ele>
        <time>2013-12-15T12:25:55.000Z</time>
      </trkpt>
      <trkpt lat="43.5564" lon="6.93843">
        <ele>16.200000762939</ele>
        <time>2013-12-15T12:25:57.000Z</time>
      </trkpt>
      <trkpt lat="43.55668" lon="6.93852">
        <ele>16</ele>
        <time>2013-12-15T12:26:05.000Z</time>
      </trkpt>
      <trkpt lat="43.55688" lon="6.9386">
        <ele>17.39999961853</ele>
        <time>2013-12-15T12:26:12.000Z</time>
      </trkpt>
      <trkpt lat="43.55708" lon="6.93866">
        <ele>18.799999237061</ele>
        <time>2013-12-15T12:26:20.000Z</time>
      </trkpt>
      <trkpt lat="43.55731" lon="6.93873">
        <ele>20</ele>
        <time>2013-12-15T12:26:28.000Z</time>
      </trkpt>
      <trkpt lat="43.55752" lon="6.93881">
        <ele>21.200000762939</ele>
        <time>2013-12-15T12:26:35.000Z</time>
      </trkpt>
      <trkpt lat="43.55779" lon="6.93888">
        <ele>24.200000762939</ele>
        <time>2013-12-15T12:26:44.000Z</time>
      </trkpt>
      <trkpt lat="43.55804" lon="6.93894">
        <ele>26.39999961853</ele>
        <time>2013-12-15T12:26:53.000Z</time>
      </trkpt>
      <trkpt lat="43.55827" lon="6.93899">
        <ele>28</ele>
        <time>2013-12-15T12:27:02.000Z</time>
      </trkpt>
      <trkpt lat="43.55846" lon="6.93899">
        <ele>29</ele>
        <time>2013-12-15T12:27:10.000Z</time>
      </trkpt>
      <trkpt lat="43.55862" lon="6.93899">
        <ele>29</ele>
        <time>2013-12-15T12:27:17.000Z</time>
      </trkpt>
      <trkpt lat="43.55879" lon="6.93898">
        <ele>29.39999961853</ele>
        <time>2013-12-15T12:27:25.000Z</time>
      </trkpt>
      <trkpt lat="43.55882" lon="6.93899">
        <ele>29</ele>
        <time>2013-12-15T12:27:31.000Z</time>
      </trkpt>
      <trkpt lat="43.55887" lon="6.939">
        <ele>28.60000038147</ele>
        <time>2013-12-15T12:32:21.000Z</time>
      </trkpt>
      <trkpt lat="43.559" lon="6.93898">
        <ele>29.39999961853</ele>
        <time>2013-12-15T12:32:26.000Z</time>
      </trkpt>
      <trkpt lat="43.55923" lon="6.93894">
        <ele>29.799999237061</ele>
        <time>2013-12-15T12:32:33.000Z</time>
      </trkpt>
      <trkpt lat="43.5595" lon="6.93892">
        <ele>27.60000038147</ele>
        <time>2013-12-15T12:32:38.000Z</time>
      </trkpt>
      <trkpt lat="43.55965" lon="6.93892">
        <ele>26</ele>
        <time>2013-12-15T12:32:41.000Z</time>
      </trkpt>
      <trkpt lat="43.55983" lon="6.93893">
        <ele>24</ele>
        <time>2013-12-15T12:32:44.000Z</time>
      </trkpt>
      <trkpt lat="43.56027" lon="6.93899">
        <ele>19.200000762939</ele>
        <time>2013-12-15T12:32:52.000Z</time>
      </trkpt>
      <trkpt lat="43.56065" lon="6.93902">
        <ele>16.200000762939</ele>
        <time>2013-12-15T12:32:59.000Z</time>
      </trkpt>
      <trkpt lat="43.56105" lon="6.93903">
        <ele>14.39999961853</ele>
        <time>2013-12-15T12:33:05.000Z</time>
      </trkpt>
      <trkpt lat="43.56145" lon="6.93913">
        <ele>13.39999961853</ele>
        <time>2013-12-15T12:33:11.000Z</time>
      </trkpt>
      <trkpt lat="43.56164" lon="6.93923">
        <ele>13</ele>
        <time>2013-12-15T12:33:16.000Z</time>
      </trkpt>
      <trkpt lat="43.56168" lon="6.93927">
        <ele>13</ele>
        <time>2013-12-15T12:33:18.000Z</time>
      </trkpt>
      <trkpt lat="43.56171" lon="6.93932">
        <ele>12.800000190735</ele>
        <time>2013-12-15T12:33:21.000Z</time>
      </trkpt>
      <trkpt lat="43.56171" lon="6.93932">
        <ele>13</ele>
        <time>2013-12-15T12:33:28.000Z</time>
      </trkpt>
      <trkpt lat="43.56171" lon="6.93947">
        <ele>12.800000190735</ele>
        <time>2013-12-15T12:34:11.000Z</time>
      </trkpt>
      <trkpt lat="43.56165" lon="6.93963">
        <ele>12.39999961853</ele>
        <time>2013-12-15T12:34:14.000Z</time>
      </trkpt>
      <trkpt lat="43.56156" lon="6.94002">
        <ele>12</ele>
        <time>2013-12-15T12:34:19.000Z</time>
      </trkpt>
      <trkpt lat="43.56143" lon="6.94054">
        <ele>11.60000038147</ele>
        <time>2013-12-15T12:34:25.000Z</time>
      </trkpt>
      <trkpt lat="43.56131" lon="6.94121">
        <ele>11</ele>
        <time>2013-12-15T12:34:32.000Z</time>
      </trkpt>
      <trkpt lat="43.56119" lon="6.94191">
        <ele>10.39999961853</ele>
        <time>2013-12-15T12:34:39.000Z</time>
      </trkpt>
      <trkpt lat="43.561" lon="6.94209">
        <ele>10</ele>
        <time>2013-12-15T12:34:42.000Z</time>
      </trkpt>
      <trkpt lat="43.56077" lon="6.94202">
        <ele>9.1999998092651</ele>
        <time>2013-12-15T12:34:45.000Z</time>
      </trkpt>
      <trkpt lat="43.5607" lon="6.94199">
        <ele>9.1999998092651</ele>
        <time>2013-12-15T12:34:46.000Z</time>
      </trkpt>
      <trkpt lat="43.56027" lon="6.94181">
        <ele>8.1999998092651</ele>
        <time>2013-12-15T12:34:52.000Z</time>
      </trkpt>
      <trkpt lat="43.55968" lon="6.94161">
        <ele>8.1999998092651</ele>
        <time>2013-12-15T12:35:00.000Z</time>
      </trkpt>
      <trkpt lat="43.5596" lon="6.94158">
        <ele>8.1999998092651</ele>
        <time>2013-12-15T12:35:01.000Z</time>
      </trkpt>
      <trkpt lat="43.55903" lon="6.94138">
        <ele>8.1999998092651</ele>
        <time>2013-12-15T12:35:09.000Z</time>
      </trkpt>
      <trkpt lat="43.55849" lon="6.94119">
        <ele>8.1999998092651</ele>
        <time>2013-12-15T12:35:17.000Z</time>
      </trkpt>
      <trkpt lat="43.55843" lon="6.94116">
        <ele>8</ele>
        <time>2013-12-15T12:35:18.000Z</time>
      </trkpt>
      <trkpt lat="43.55791" lon="6.94098">
        <ele>7.8000001907349</ele>
        <time>2013-12-15T12:35:26.000Z</time>
      </trkpt>
      <trkpt lat="43.55739" lon="6.94079">
        <ele>8</ele>
        <time>2013-12-15T12:35:33.000Z</time>
      </trkpt>
      <trkpt lat="43.55689" lon="6.94066">
        <ele>8.1999998092651</ele>
        <time>2013-12-15T12:35:40.000Z</time>
      </trkpt>
      <trkpt lat="43.55635" lon="6.94054">
        <ele>9</ele>
        <time>2013-12-15T12:35:48.000Z</time>
      </trkpt>
      <trkpt lat="43.55579" lon="6.94046">
        <ele>10</ele>
        <time>2013-12-15T12:35:57.000Z</time>
      </trkpt>
      <trkpt lat="43.55565" lon="6.94062">
        <ele>10</ele>
        <time>2013-12-15T12:36:00.000Z</time>
      </trkpt>
      <trkpt lat="43.55551" lon="6.94092">
        <ele>9.1999998092651</ele>
        <time>2013-12-15T12:36:04.000Z</time>
      </trkpt>
      <trkpt lat="43.55548" lon="6.94099">
        <ele>9.1999998092651</ele>
        <time>2013-12-15T12:36:05.000Z</time>
      </trkpt>
      <trkpt lat="43.55543" lon="6.94107">
        <ele>9.1999998092651</ele>
        <time>2013-12-15T12:36:06.000Z</time>
      </trkpt>
      <trkpt lat="43.55534" lon="6.9412">
        <ele>9.3999996185303</ele>
        <time>2013-12-15T12:36:08.000Z</time>
      </trkpt>
      <trkpt lat="43.55513" lon="6.9413">
        <ele>10.199999809265</ele>
        <time>2013-12-15T12:36:11.000Z</time>
      </trkpt>
      <trkpt lat="43.55499" lon="6.9413">
        <ele>10.800000190735</ele>
        <time>2013-12-15T12:36:13.000Z</time>
      </trkpt>
      <trkpt lat="43.55485" lon="6.94132">
        <ele>10.60000038147</ele>
        <time>2013-12-15T12:36:15.000Z</time>
      </trkpt>
      <trkpt lat="43.5543" lon="6.9414">
        <ele>9.6000003814697</ele>
        <time>2013-12-15T12:36:23.000Z</time>
      </trkpt>
      <trkpt lat="43.55417" lon="6.94142">
        <ele>9.1999998092651</ele>
        <time>2013-12-15T12:36:25.000Z</time>
      </trkpt>
      <trkpt lat="43.55359" lon="6.94151">
        <ele>8</ele>
        <time>2013-12-15T12:36:33.000Z</time>
      </trkpt>
      <trkpt lat="43.55308" lon="6.94157">
        <ele>7.5999999046326</ele>
        <time>2013-12-15T12:36:40.000Z</time>
      </trkpt>
      <trkpt lat="43.5526" lon="6.94166">
        <ele>8</ele>
        <time>2013-12-15T12:36:47.000Z</time>
      </trkpt>
      <trkpt lat="43.5521" lon="6.94172">
        <ele>8.1999998092651</ele>
        <time>2013-12-15T12:36:54.000Z</time>
      </trkpt>
      <trkpt lat="43.55153" lon="6.94179">
        <ele>8.6000003814697</ele>
        <time>2013-12-15T12:37:02.000Z</time>
      </trkpt>
      <trkpt lat="43.55147" lon="6.94181">
        <ele>8.6000003814697</ele>
        <time>2013-12-15T12:37:03.000Z</time>
      </trkpt>
      <trkpt lat="43.55113" lon="6.94186">
        <ele>9.1999998092651</ele>
        <time>2013-12-15T12:37:08.000Z</time>
      </trkpt>
      <trkpt lat="43.55059" lon="6.94192">
        <ele>10.39999961853</ele>
        <time>2013-12-15T12:37:16.000Z</time>
      </trkpt>
      <trkpt lat="43.55006" lon="6.942">
        <ele>11.800000190735</ele>
        <time>2013-12-15T12:37:24.000Z</time>
      </trkpt>
      <trkpt lat="43.54948" lon="6.94202">
        <ele>9.8000001907349</ele>
        <time>2013-12-15T12:37:33.000Z</time>
      </trkpt>
      <trkpt lat="43.54914" lon="6.94204">
        <ele>8.3999996185303</ele>
        <time>2013-12-15T12:37:38.000Z</time>
      </trkpt>
      <trkpt lat="43.54891" lon="6.94192">
        <ele>8.8000001907349</ele>
        <time>2013-12-15T12:37:42.000Z</time>
      </trkpt>
      <trkpt lat="43.54882" lon="6.94168">
        <ele>9.8000001907349</ele>
        <time>2013-12-15T12:37:45.000Z</time>
      </trkpt>
      <trkpt lat="43.5486" lon="6.94121">
        <ele>9.6000003814697</ele>
        <time>2013-12-15T12:37:51.000Z</time>
      </trkpt>
      <trkpt lat="43.54822" lon="6.94069">
        <ele>8.8000001907349</ele>
        <time>2013-12-15T12:37:59.000Z</time>
      </trkpt>
      <trkpt lat="43.54784" lon="6.94024">
        <ele>7.8000001907349</ele>
        <time>2013-12-15T12:38:07.000Z</time>
      </trkpt>
      <trkpt lat="43.54775" lon="6.94013">
        <ele>7.5999999046326</ele>
        <time>2013-12-15T12:38:11.000Z</time>
      </trkpt>
      <trkpt lat="43.54771" lon="6.94008">
        <ele>7.5999999046326</ele>
        <time>2013-12-15T12:38:14.000Z</time>
      </trkpt>
      <trkpt lat="43.54763" lon="6.93999">
        <ele>7.4000000953674</ele>
        <time>2013-12-15T12:38:17.000Z</time>
      </trkpt>
      <trkpt lat="43.54743" lon="6.93973">
        <ele>7.8000001907349</ele>
        <time>2013-12-15T12:38:22.000Z</time>
      </trkpt>
      <trkpt lat="43.54707" lon="6.93932">
        <ele>9</ele>
        <time>2013-12-15T12:38:30.000Z</time>
      </trkpt>
      <trkpt lat="43.54679" lon="6.93903">
        <ele>10</ele>
        <time>2013-12-15T12:38:36.000Z</time>
      </trkpt>
      <trkpt lat="43.54652" lon="6.93877">
        <ele>10.800000190735</ele>
        <time>2013-12-15T12:38:42.000Z</time>
      </trkpt>
      <trkpt lat="43.54646" lon="6.93871">
        <ele>10.800000190735</ele>
        <time>2013-12-15T12:38:44.000Z</time>
      </trkpt>
      <trkpt lat="43.54638" lon="6.93862">
        <ele>11</ele>
        <time>2013-12-15T12:38:47.000Z</time>
      </trkpt>
      <trkpt lat="43.54637" lon="6.93861">
        <ele>11</ele>
        <time>2013-12-15T12:38:48.000Z</time>
      </trkpt>
      <trkpt lat="43.54635" lon="6.93865">
        <ele>10.800000190735</ele>
        <time>2013-12-15T12:38:51.000Z</time>
      </trkpt>
      <trkpt lat="43.54637" lon="6.93875">
        <ele>10.199999809265</ele>
        <time>2013-12-15T12:38:55.000Z</time>
      </trkpt>
      <trkpt lat="43.5464" lon="6.93889">
        <ele>9.6000003814697</ele>
        <time>2013-12-15T12:38:59.000Z</time>
      </trkpt>
      <trkpt lat="43.54632" lon="6.93896">
        <ele>8.8000001907349</ele>
        <time>2013-12-15T12:39:02.000Z</time>
      </trkpt>
      <trkpt lat="43.54618" lon="6.93917">
        <ele>7.1999998092651</ele>
        <time>2013-12-15T12:39:06.000Z</time>
      </trkpt>
      <trkpt lat="43.54601" lon="6.93945">
        <ele>5.8000001907349</ele>
        <time>2013-12-15T12:39:10.000Z</time>
      </trkpt>
      <trkpt lat="43.54595" lon="6.93952">
        <ele>5.5999999046326</ele>
        <time>2013-12-15T12:39:11.000Z</time>
      </trkpt>
      <trkpt lat="43.54574" lon="6.93995">
        <ele>4.4000000953674</ele>
        <time>2013-12-15T12:39:16.000Z</time>
      </trkpt>
      <trkpt lat="43.54542" lon="6.94064">
        <ele>6.1999998092651</ele>
        <time>2013-12-15T12:39:24.000Z</time>
      </trkpt>
      <trkpt lat="43.54536" lon="6.94081">
        <ele>6.4000000953674</ele>
        <time>2013-12-15T12:39:27.000Z</time>
      </trkpt>
      <trkpt lat="43.54525" lon="6.94106">
        <ele>6.5999999046326</ele>
        <time>2013-12-15T12:39:30.000Z</time>
      </trkpt>
      <trkpt lat="43.54519" lon="6.94114">
        <ele>6.5999999046326</ele>
        <time>2013-12-15T12:39:31.000Z</time>
      </trkpt>
      <trkpt lat="43.54504" lon="6.94142">
        <ele>6.8000001907349</ele>
        <time>2013-12-15T12:39:34.000Z</time>
      </trkpt>
      <trkpt lat="43.54499" lon="6.9415">
        <ele>6.8000001907349</ele>
        <time>2013-12-15T12:39:35.000Z</time>
      </trkpt>
      <trkpt lat="43.54478" lon="6.94176">
        <ele>7</ele>
        <time>2013-12-15T12:39:39.000Z</time>
      </trkpt>
      <trkpt lat="43.54454" lon="6.94195">
        <ele>7.5999999046326</ele>
        <time>2013-12-15T12:39:43.000Z</time>
      </trkpt>
      <trkpt lat="43.54448" lon="6.94199">
        <ele>7.8000001907349</ele>
        <time>2013-12-15T12:39:44.000Z</time>
      </trkpt>
      <trkpt lat="43.54407" lon="6.94213">
        <ele>8.8000001907349</ele>
        <time>2013-12-15T12:39:50.000Z</time>
      </trkpt>
      <trkpt lat="43.5435" lon="6.94219">
        <ele>10.199999809265</ele>
        <time>2013-12-15T12:39:58.000Z</time>
      </trkpt>
      <trkpt lat="43.5431" lon="6.94224">
        <ele>10</ele>
        <time>2013-12-15T12:40:04.000Z</time>
      </trkpt>
      <trkpt lat="43.54282" lon="6.94227">
        <ele>9</ele>
        <time>2013-12-15T12:40:08.000Z</time>
      </trkpt>
      <trkpt lat="43.54269" lon="6.94228">
        <ele>8.6000003814697</ele>
        <time>2013-12-15T12:40:10.000Z</time>
      </trkpt>
      <trkpt lat="43.5422" lon="6.94235">
        <ele>7.5999999046326</ele>
        <time>2013-12-15T12:40:17.000Z</time>
      </trkpt>
      <trkpt lat="43.54172" lon="6.94241">
        <ele>7</ele>
        <time>2013-12-15T12:40:24.000Z</time>
      </trkpt>
      <trkpt lat="43.54127" lon="6.94242">
        <ele>6</ele>
        <time>2013-12-15T12:40:30.000Z</time>
      </trkpt>
      <trkpt lat="43.5412" lon="6.94239">
        <ele>5.8000001907349</ele>
        <time>2013-12-15T12:40:31.000Z</time>
      </trkpt>
      <trkpt lat="43.54066" lon="6.94219">
        <ele>5.1999998092651</ele>
        <time>2013-12-15T12:40:39.000Z</time>
      </trkpt>
      <trkpt lat="43.54013" lon="6.942">
        <ele>5.4000000953674</ele>
        <time>2013-12-15T12:40:47.000Z</time>
      </trkpt>
      <trkpt lat="43.53955" lon="6.94183">
        <ele>5</ele>
        <time>2013-12-15T12:40:56.000Z</time>
      </trkpt>
      <trkpt lat="43.53925" lon="6.9417">
        <ele>5</ele>
        <time>2013-12-15T12:41:02.000Z</time>
      </trkpt>
      <trkpt lat="43.53922" lon="6.94167">
        <ele>5</ele>
        <time>2013-12-15T12:41:04.000Z</time>
      </trkpt>
      <trkpt lat="43.53921" lon="6.94167">
        <ele>5</ele>
        <time>2013-12-15T12:41:05.000Z</time>
      </trkpt>
      <trkpt lat="43.53911" lon="6.94163">
        <ele>4.8000001907349</ele>
        <time>2013-12-15T12:41:13.000Z</time>
      </trkpt>
      <trkpt lat="43.53899" lon="6.94164">
        <ele>4.8000001907349</ele>
        <time>2013-12-15T12:41:20.000Z</time>
      </trkpt>
      <trkpt lat="43.53897" lon="6.94168">
        <ele>4.8000001907349</ele>
        <time>2013-12-15T12:41:21.000Z</time>
      </trkpt>
      <trkpt lat="43.53894" lon="6.9418">
        <ele>4.8000001907349</ele>
        <time>2013-12-15T12:41:23.000Z</time>
      </trkpt>
      <trkpt lat="43.53891" lon="6.94195">
        <ele>4.5999999046326</ele>
        <time>2013-12-15T12:41:25.000Z</time>
      </trkpt>
      <trkpt lat="43.53888" lon="6.94219">
        <ele>4.5999999046326</ele>
        <time>2013-12-15T12:41:28.000Z</time>
      </trkpt>
      <trkpt lat="43.53874" lon="6.9428">
        <ele>4.4000000953674</ele>
        <time>2013-12-15T12:41:35.000Z</time>
      </trkpt>
      <trkpt lat="43.53852" lon="6.9434">
        <ele>4.5999999046326</ele>
        <time>2013-12-15T12:41:42.000Z</time>
      </trkpt>
      <trkpt lat="43.53825" lon="6.94405">
        <ele>4.1999998092651</ele>
        <time>2013-12-15T12:41:50.000Z</time>
      </trkpt>
      <trkpt lat="43.53803" lon="6.94459">
        <ele>4</ele>
        <time>2013-12-15T12:41:57.000Z</time>
      </trkpt>
      <trkpt lat="43.53795" lon="6.94483">
        <ele>4</ele>
        <time>2013-12-15T12:42:00.000Z</time>
      </trkpt>
      <trkpt lat="43.53785" lon="6.94507">
        <ele>4.1999998092651</ele>
        <time>2013-12-15T12:42:03.000Z</time>
      </trkpt>
      <trkpt lat="43.53752" lon="6.94574">
        <ele>5.8000001907349</ele>
        <time>2013-12-15T12:42:12.000Z</time>
      </trkpt>
      <trkpt lat="43.53721" lon="6.9464">
        <ele>6</ele>
        <time>2013-12-15T12:42:20.000Z</time>
      </trkpt>
      <trkpt lat="43.53717" lon="6.94649">
        <ele>6</ele>
        <time>2013-12-15T12:42:21.000Z</time>
      </trkpt>
      <trkpt lat="43.53705" lon="6.94675">
        <ele>6</ele>
        <time>2013-12-15T12:42:24.000Z</time>
      </trkpt>
      <trkpt lat="43.53695" lon="6.94685">
        <ele>6.1999998092651</ele>
        <time>2013-12-15T12:42:26.000Z</time>
      </trkpt>
      <trkpt lat="43.53685" lon="6.9469">
        <ele>6.4000000953674</ele>
        <time>2013-12-15T12:42:28.000Z</time>
      </trkpt>
      <trkpt lat="43.53681" lon="6.94696">
        <ele>6.5999999046326</ele>
        <time>2013-12-15T12:42:29.000Z</time>
      </trkpt>
      <trkpt lat="43.53676" lon="6.947">
        <ele>6.5999999046326</ele>
        <time>2013-12-15T12:42:30.000Z</time>
      </trkpt>
      <trkpt lat="43.5367" lon="6.94703">
        <ele>6.8000001907349</ele>
        <time>2013-12-15T12:42:31.000Z</time>
      </trkpt>
      <trkpt lat="43.5366" lon="6.94704">
        <ele>7.1999998092651</ele>
        <time>2013-12-15T12:42:33.000Z</time>
      </trkpt>
      <trkpt lat="43.53642" lon="6.9469">
        <ele>8</ele>
        <time>2013-12-15T12:42:36.000Z</time>
      </trkpt>
      <trkpt lat="43.53611" lon="6.94665">
        <ele>9.1999998092651</ele>
        <time>2013-12-15T12:42:41.000Z</time>
      </trkpt>
      <trkpt lat="43.53568" lon="6.94631">
        <ele>9.6000003814697</ele>
        <time>2013-12-15T12:42:48.000Z</time>
      </trkpt>
      <trkpt lat="43.53516" lon="6.94592">
        <ele>7.5999999046326</ele>
        <time>2013-12-15T12:42:56.000Z</time>
      </trkpt>
      <trkpt lat="43.53476" lon="6.94569">
        <ele>6.1999998092651</ele>
        <time>2013-12-15T12:43:02.000Z</time>
      </trkpt>
      <trkpt lat="43.53456" lon="6.94558">
        <ele>5.8000001907349</ele>
        <time>2013-12-15T12:43:05.000Z</time>
      </trkpt>
      <trkpt lat="43.53443" lon="6.94552">
        <ele>5.4000000953674</ele>
        <time>2013-12-15T12:43:07.000Z</time>
      </trkpt>
      <trkpt lat="43.53436" lon="6.94552">
        <ele>5.4000000953674</ele>
        <time>2013-12-15T12:43:08.000Z</time>
      </trkpt>
      <trkpt lat="43.53417" lon="6.94562">
        <ele>5.4000000953674</ele>
        <time>2013-12-15T12:43:11.000Z</time>
      </trkpt>
      <trkpt lat="43.53406" lon="6.94572">
        <ele>5</ele>
        <time>2013-12-15T12:43:13.000Z</time>
      </trkpt>
      <trkpt lat="43.53376" lon="6.94597">
        <ele>3.7999999523163</ele>
        <time>2013-12-15T12:43:18.000Z</time>
      </trkpt>
      <trkpt lat="43.53332" lon="6.94624">
        <ele>2.4000000953674</ele>
        <time>2013-12-15T12:43:25.000Z</time>
      </trkpt>
      <trkpt lat="43.53319" lon="6.94634">
        <ele>3</ele>
        <time>2013-12-15T12:43:27.000Z</time>
      </trkpt>
      <trkpt lat="43.53307" lon="6.94646">
        <ele>3.4000000953674</ele>
        <time>2013-12-15T12:43:29.000Z</time>
      </trkpt>
      <trkpt lat="43.53291" lon="6.94667">
        <ele>4</ele>
        <time>2013-12-15T12:43:32.000Z</time>
      </trkpt>
      <trkpt lat="43.53282" lon="6.94681">
        <ele>4.5999999046326</ele>
        <time>2013-12-15T12:43:34.000Z</time>
      </trkpt>
      <trkpt lat="43.53271" lon="6.94691">
        <ele>5</ele>
        <time>2013-12-15T12:43:36.000Z</time>
      </trkpt>
      <trkpt lat="43.53258" lon="6.94699">
        <ele>5.1999998092651</ele>
        <time>2013-12-15T12:43:38.000Z</time>
      </trkpt>
      <trkpt lat="43.53231" lon="6.94703">
        <ele>4.8000001907349</ele>
        <time>2013-12-15T12:43:42.000Z</time>
      </trkpt>
      <trkpt lat="43.53223" lon="6.94703">
        <ele>4.5999999046326</ele>
        <time>2013-12-15T12:43:43.000Z</time>
      </trkpt>
      <trkpt lat="43.53196" lon="6.94709">
        <ele>3.7999999523163</ele>
        <time>2013-12-15T12:43:47.000Z</time>
      </trkpt>
      <trkpt lat="43.5319" lon="6.94714">
        <ele>3.7999999523163</ele>
        <time>2013-12-15T12:43:48.000Z</time>
      </trkpt>
      <trkpt lat="43.5317" lon="6.94741">
        <ele>3.2000000476837</ele>
        <time>2013-12-15T12:43:52.000Z</time>
      </trkpt>
      <trkpt lat="43.53128" lon="6.948">
        <ele>4</ele>
        <time>2013-12-15T12:44:00.000Z</time>
      </trkpt>
      <trkpt lat="43.53123" lon="6.94807">
        <ele>4</ele>
        <time>2013-12-15T12:44:01.000Z</time>
      </trkpt>
      <trkpt lat="43.53119" lon="6.94815">
        <ele>4.1999998092651</ele>
        <time>2013-12-15T12:44:02.000Z</time>
      </trkpt>
      <trkpt lat="43.53119" lon="6.94834">
        <ele>4.4000000953674</ele>
        <time>2013-12-15T12:44:04.000Z</time>
      </trkpt>
      <trkpt lat="43.53131" lon="6.94855">
        <ele>4.1999998092651</ele>
        <time>2013-12-15T12:44:07.000Z</time>
      </trkpt>
      <trkpt lat="43.53149" lon="6.94859">
        <ele>4.1999998092651</ele>
        <time>2013-12-15T12:44:10.000Z</time>
      </trkpt>
      <trkpt lat="43.53164" lon="6.94852">
        <ele>4.5999999046326</ele>
        <time>2013-12-15T12:44:13.000Z</time>
      </trkpt>
      <trkpt lat="43.53181" lon="6.94862">
        <ele>4.8000001907349</ele>
        <time>2013-12-15T12:44:16.000Z</time>
      </trkpt>
      <trkpt lat="43.53197" lon="6.9488">
        <ele>4.8000001907349</ele>
        <time>2013-12-15T12:44:19.000Z</time>
      </trkpt>
      <trkpt lat="43.53203" lon="6.94886">
        <ele>4.8000001907349</ele>
        <time>2013-12-15T12:44:20.000Z</time>
      </trkpt>
      <trkpt lat="43.53241" lon="6.94919">
        <ele>4.8000001907349</ele>
        <time>2013-12-15T12:44:26.000Z</time>
      </trkpt>
      <trkpt lat="43.53293" lon="6.94964">
        <ele>4</ele>
        <time>2013-12-15T12:44:34.000Z</time>
      </trkpt>
      <trkpt lat="43.53306" lon="6.94975">
        <ele>3.7999999523163</ele>
        <time>2013-12-15T12:44:36.000Z</time>
      </trkpt>
      <trkpt lat="43.5335" lon="6.9502">
        <ele>3.4000000953674</ele>
        <time>2013-12-15T12:44:43.000Z</time>
      </trkpt>
      <trkpt lat="43.53369" lon="6.95039">
        <ele>3.5999999046326</ele>
        <time>2013-12-15T12:44:46.000Z</time>
      </trkpt>
      <trkpt lat="43.53418" lon="6.95087">
        <ele>2.7999999523163</ele>
        <time>2013-12-15T12:44:54.000Z</time>
      </trkpt>
      <trkpt lat="43.53464" lon="6.95137">
        <ele>2.4000000953674</ele>
        <time>2013-12-15T12:45:02.000Z</time>
      </trkpt>
      <trkpt lat="43.5351" lon="6.95189">
        <ele>3.7999999523163</ele>
        <time>2013-12-15T12:45:10.000Z</time>
      </trkpt>
      <trkpt lat="43.53555" lon="6.95242">
        <ele>4.4000000953674</ele>
        <time>2013-12-15T12:45:18.000Z</time>
      </trkpt>
      <trkpt lat="43.53566" lon="6.95256">
        <ele>4</ele>
        <time>2013-12-15T12:45:20.000Z</time>
      </trkpt>
      <trkpt lat="43.5361" lon="6.9531">
        <ele>2.5999999046326</ele>
        <time>2013-12-15T12:45:28.000Z</time>
      </trkpt>
      <trkpt lat="43.53616" lon="6.95317">
        <ele>2.5999999046326</ele>
        <time>2013-12-15T12:45:29.000Z</time>
      </trkpt>
      <trkpt lat="43.5366" lon="6.95371">
        <ele>3.4000000953674</ele>
        <time>2013-12-15T12:45:37.000Z</time>
      </trkpt>
      <trkpt lat="43.53705" lon="6.95424">
        <ele>5.5999999046326</ele>
        <time>2013-12-15T12:45:45.000Z</time>
      </trkpt>
      <trkpt lat="43.53711" lon="6.95431">
        <ele>5.8000001907349</ele>
        <time>2013-12-15T12:45:46.000Z</time>
      </trkpt>
      <trkpt lat="43.53755" lon="6.95487">
        <ele>8.8000001907349</ele>
        <time>2013-12-15T12:45:54.000Z</time>
      </trkpt>
      <trkpt lat="43.53772" lon="6.9551">
        <ele>10.39999961853</ele>
        <time>2013-12-15T12:45:57.000Z</time>
      </trkpt>
      <trkpt lat="43.53811" lon="6.95563">
        <ele>13.199999809265</ele>
        <time>2013-12-15T12:46:04.000Z</time>
      </trkpt>
      <trkpt lat="43.53821" lon="6.95578">
        <ele>13.39999961853</ele>
        <time>2013-12-15T12:46:06.000Z</time>
      </trkpt>
      <trkpt lat="43.53861" lon="6.9564">
        <ele>11.800000190735</ele>
        <time>2013-12-15T12:46:14.000Z</time>
      </trkpt>
      <trkpt lat="43.53871" lon="6.95655">
        <ele>11.199999809265</ele>
        <time>2013-12-15T12:46:16.000Z</time>
      </trkpt>
      <trkpt lat="43.53911" lon="6.95717">
        <ele>9.6000003814697</ele>
        <time>2013-12-15T12:46:24.000Z</time>
      </trkpt>
      <trkpt lat="43.5392" lon="6.95733">
        <ele>9.3999996185303</ele>
        <time>2013-12-15T12:46:26.000Z</time>
      </trkpt>
      <trkpt lat="43.53956" lon="6.9579">
        <ele>7.4000000953674</ele>
        <time>2013-12-15T12:46:33.000Z</time>
      </trkpt>
      <trkpt lat="43.53974" lon="6.95825">
        <ele>7.1999998092651</ele>
        <time>2013-12-15T12:46:37.000Z</time>
      </trkpt>
      <trkpt lat="43.54012" lon="6.9589">
        <ele>9.8000001907349</ele>
        <time>2013-12-15T12:46:45.000Z</time>
      </trkpt>
      <trkpt lat="43.54048" lon="6.95954">
        <ele>11.199999809265</ele>
        <time>2013-12-15T12:46:53.000Z</time>
      </trkpt>
      <trkpt lat="43.54053" lon="6.95962">
        <ele>11</ele>
        <time>2013-12-15T12:46:54.000Z</time>
      </trkpt>
      <trkpt lat="43.5409" lon="6.96028">
        <ele>8</ele>
        <time>2013-12-15T12:47:02.000Z</time>
      </trkpt>
      <trkpt lat="43.54099" lon="6.96044">
        <ele>7.1999998092651</ele>
        <time>2013-12-15T12:47:04.000Z</time>
      </trkpt>
      <trkpt lat="43.5414" lon="6.96101">
        <ele>5.1999998092651</ele>
        <time>2013-12-15T12:47:12.000Z</time>
      </trkpt>
      <trkpt lat="43.54144" lon="6.96108">
        <ele>5.4000000953674</ele>
        <time>2013-12-15T12:47:13.000Z</time>
      </trkpt>
      <trkpt lat="43.54156" lon="6.96135">
        <ele>5.8000001907349</ele>
        <time>2013-12-15T12:47:16.000Z</time>
      </trkpt>
      <trkpt lat="43.54162" lon="6.96141">
        <ele>6.1999998092651</ele>
        <time>2013-12-15T12:47:17.000Z</time>
      </trkpt>
      <trkpt lat="43.54172" lon="6.96157">
        <ele>7</ele>
        <time>2013-12-15T12:47:19.000Z</time>
      </trkpt>
      <trkpt lat="43.54175" lon="6.96166">
        <ele>7.4000000953674</ele>
        <time>2013-12-15T12:47:20.000Z</time>
      </trkpt>
      <trkpt lat="43.54196" lon="6.96221">
        <ele>6.8000001907349</ele>
        <time>2013-12-15T12:47:26.000Z</time>
      </trkpt>
      <trkpt lat="43.5423" lon="6.9629">
        <ele>7.5999999046326</ele>
        <time>2013-12-15T12:47:34.000Z</time>
      </trkpt>
      <trkpt lat="43.54239" lon="6.96307">
        <ele>7.8000001907349</ele>
        <time>2013-12-15T12:47:36.000Z</time>
      </trkpt>
      <trkpt lat="43.54272" lon="6.96377">
        <ele>6</ele>
        <time>2013-12-15T12:47:44.000Z</time>
      </trkpt>
      <trkpt lat="43.5428" lon="6.96395">
        <ele>5.8000001907349</ele>
        <time>2013-12-15T12:47:46.000Z</time>
      </trkpt>
      <trkpt lat="43.54311" lon="6.96468">
        <ele>6.5999999046326</ele>
        <time>2013-12-15T12:47:54.000Z</time>
      </trkpt>
      <trkpt lat="43.54319" lon="6.96487">
        <ele>7.1999998092651</ele>
        <time>2013-12-15T12:47:56.000Z</time>
      </trkpt>
      <trkpt lat="43.54348" lon="6.9656">
        <ele>3</ele>
        <time>2013-12-15T12:48:04.000Z</time>
      </trkpt>
      <trkpt lat="43.54352" lon="6.96569">
        <ele>2.2000000476837</ele>
        <time>2013-12-15T12:48:05.000Z</time>
      </trkpt>
      <trkpt lat="43.5438" lon="6.96643">
        <ele>1.7999999523163</ele>
        <time>2013-12-15T12:48:13.000Z</time>
      </trkpt>
      <trkpt lat="43.5441" lon="6.96716">
        <ele>3.5999999046326</ele>
        <time>2013-12-15T12:48:21.000Z</time>
      </trkpt>
      <trkpt lat="43.54413" lon="6.96726">
        <ele>3.7999999523163</ele>
        <time>2013-12-15T12:48:22.000Z</time>
      </trkpt>
      <trkpt lat="43.54439" lon="6.96789">
        <ele>3</ele>
        <time>2013-12-15T12:48:29.000Z</time>
      </trkpt>
      <trkpt lat="43.54467" lon="6.96862">
        <ele>1.7999999523163</ele>
        <time>2013-12-15T12:48:37.000Z</time>
      </trkpt>
      <trkpt lat="43.54471" lon="6.96871">
        <ele>1.6000000238419</ele>
        <time>2013-12-15T12:48:38.000Z</time>
      </trkpt>
      <trkpt lat="43.545" lon="6.96946">
        <ele>1</ele>
        <time>2013-12-15T12:48:46.000Z</time>
      </trkpt>
      <trkpt lat="43.54503" lon="6.96956">
        <ele>0.80000001192093</ele>
        <time>2013-12-15T12:48:47.000Z</time>
      </trkpt>
      <trkpt lat="43.54528" lon="6.97023">
        <ele>0.40000000596046</ele>
        <time>2013-12-15T12:48:54.000Z</time>
      </trkpt>
      <trkpt lat="43.54541" lon="6.97062">
        <ele>0.40000000596046</ele>
        <time>2013-12-15T12:48:58.000Z</time>
      </trkpt>
      <trkpt lat="43.54561" lon="6.97132">
        <ele>0.60000002384186</ele>
        <time>2013-12-15T12:49:05.000Z</time>
      </trkpt>
      <trkpt lat="43.5458" lon="6.97202">
        <ele>3</ele>
        <time>2013-12-15T12:49:12.000Z</time>
      </trkpt>
      <trkpt lat="43.54601" lon="6.97281">
        <ele>-0.80000001192093</ele>
        <time>2013-12-15T12:49:20.000Z</time>
      </trkpt>
      <trkpt lat="43.54611" lon="6.97319">
        <ele>-0.80000001192093</ele>
        <time>2013-12-15T12:49:24.000Z</time>
      </trkpt>
      <trkpt lat="43.54631" lon="6.97396">
        <ele>2.6</ele>
        <time>2013-12-15T12:49:32.000Z</time>
      </trkpt>
      <trkpt lat="43.54639" lon="6.97424">
        <ele>0.40000000596046</ele>
        <time>2013-12-15T12:49:35.000Z</time>
      </trkpt>
      <trkpt lat="43.54661" lon="6.975">
        <ele>3.4</ele>
        <time>2013-12-15T12:49:43.000Z</time>
      </trkpt>
      <trkpt lat="43.54668" lon="6.97529">
        <ele>-0.20000000298023</ele>
        <time>2013-12-15T12:49:46.000Z</time>
      </trkpt>
      <trkpt lat="43.54687" lon="6.97607">
        <ele>3.9</ele>
        <time>2013-12-15T12:49:54.000Z</time>
      </trkpt>
      <trkpt lat="43.54696" lon="6.97647">
        <ele>0.40000000596046</ele>
        <time>2013-12-15T12:49:58.000Z</time>
      </trkpt>
      <trkpt lat="43.54711" lon="6.97728">
        <ele>2.2000000476837</ele>
        <time>2013-12-15T12:50:06.000Z</time>
      </trkpt>
      <trkpt lat="43.54715" lon="6.97748">
        <ele>2.7999999523163</ele>
        <time>2013-12-15T12:50:08.000Z</time>
      </trkpt>
      <trkpt lat="43.54729" lon="6.97829">
        <ele>4</ele>
        <time>2013-12-15T12:50:16.000Z</time>
      </trkpt>
      <trkpt lat="43.54731" lon="6.97839">
        <ele>4.1999998092651</ele>
        <time>2013-12-15T12:50:17.000Z</time>
      </trkpt>
      <trkpt lat="43.54739" lon="6.97919">
        <ele>5.4000000953674</ele>
        <time>2013-12-15T12:50:25.000Z</time>
      </trkpt>
      <trkpt lat="43.54745" lon="6.97969">
        <ele>5.1999998092651</ele>
        <time>2013-12-15T12:50:31.000Z</time>
      </trkpt>
      <trkpt lat="43.54746" lon="6.97984">
        <ele>5</ele>
        <time>2013-12-15T12:50:35.000Z</time>
      </trkpt>
      <trkpt lat="43.54746" lon="6.97987">
        <ele>5</ele>
        <time>2013-12-15T12:50:36.000Z</time>
      </trkpt>
      <trkpt lat="43.5475" lon="6.98001">
        <ele>5</ele>
        <time>2013-12-15T12:50:40.000Z</time>
      </trkpt>
      <trkpt lat="43.54751" lon="6.98025">
        <ele>5</ele>
        <time>2013-12-15T12:50:44.000Z</time>
      </trkpt>
      <trkpt lat="43.54757" lon="6.98076">
        <ele>5.4000000953674</ele>
        <time>2013-12-15T12:50:50.000Z</time>
      </trkpt>
      <trkpt lat="43.54764" lon="6.98133">
        <ele>5.5999999046326</ele>
        <time>2013-12-15T12:50:56.000Z</time>
      </trkpt>
      <trkpt lat="43.54775" lon="6.98211">
        <ele>6.8000001907349</ele>
        <time>2013-12-15T12:51:04.000Z</time>
      </trkpt>
      <trkpt lat="43.54783" lon="6.9827">
        <ele>7</ele>
        <time>2013-12-15T12:51:10.000Z</time>
      </trkpt>
      <trkpt lat="43.54795" lon="6.9835">
        <ele>6</ele>
        <time>2013-12-15T12:51:18.000Z</time>
      </trkpt>
      <trkpt lat="43.548" lon="6.9838">
        <ele>6.4000000953674</ele>
        <time>2013-12-15T12:51:21.000Z</time>
      </trkpt>
      <trkpt lat="43.54816" lon="6.9846">
        <ele>8</ele>
        <time>2013-12-15T12:51:29.000Z</time>
      </trkpt>
      <trkpt lat="43.54818" lon="6.98469">
        <ele>8.1999998092651</ele>
        <time>2013-12-15T12:51:30.000Z</time>
      </trkpt>
      <trkpt lat="43.5483" lon="6.98548">
        <ele>8.1999998092651</ele>
        <time>2013-12-15T12:51:38.000Z</time>
      </trkpt>
      <trkpt lat="43.54833" lon="6.98567">
        <ele>7.8000001907349</ele>
        <time>2013-12-15T12:51:40.000Z</time>
      </trkpt>
      <trkpt lat="43.54849" lon="6.98645">
        <ele>3.7999999523163</ele>
        <time>2013-12-15T12:51:48.000Z</time>
      </trkpt>
      <trkpt lat="43.54851" lon="6.98655">
        <ele>3.4000000953674</ele>
        <time>2013-12-15T12:51:49.000Z</time>
      </trkpt>
      <trkpt lat="43.54867" lon="6.98734">
        <ele>5.8000001907349</ele>
        <time>2013-12-15T12:51:57.000Z</time>
      </trkpt>
      <trkpt lat="43.54869" lon="6.98744">
        <ele>6.1999998092651</ele>
        <time>2013-12-15T12:51:58.000Z</time>
      </trkpt>
      <trkpt lat="43.54882" lon="6.98826">
        <ele>4.1999998092651</ele>
        <time>2013-12-15T12:52:06.000Z</time>
      </trkpt>
      <trkpt lat="43.54883" lon="6.98836">
        <ele>4</ele>
        <time>2013-12-15T12:52:07.000Z</time>
      </trkpt>
      <trkpt lat="43.54891" lon="6.98916">
        <ele>3.5999999046326</ele>
        <time>2013-12-15T12:52:15.000Z</time>
      </trkpt>
      <trkpt lat="43.54896" lon="6.98997">
        <ele>2.4000000953674</ele>
        <time>2013-12-15T12:52:23.000Z</time>
      </trkpt>
      <trkpt lat="43.54897" lon="6.99017">
        <ele>2.5999999046326</ele>
        <time>2013-12-15T12:52:25.000Z</time>
      </trkpt>
      <trkpt lat="43.54903" lon="6.991">
        <ele>4</ele>
        <time>2013-12-15T12:52:33.000Z</time>
      </trkpt>
      <trkpt lat="43.54903" lon="6.9911">
        <ele>4.1999998092651</ele>
        <time>2013-12-15T12:52:34.000Z</time>
      </trkpt>
      <trkpt lat="43.54907" lon="6.99192">
        <ele>6.1999998092651</ele>
        <time>2013-12-15T12:52:42.000Z</time>
      </trkpt>
      <trkpt lat="43.54911" lon="6.99274">
        <ele>7.1999998092651</ele>
        <time>2013-12-15T12:52:50.000Z</time>
      </trkpt>
      <trkpt lat="43.54912" lon="6.99284">
        <ele>6.8000001907349</ele>
        <time>2013-12-15T12:52:51.000Z</time>
      </trkpt>
      <trkpt lat="43.54915" lon="6.99365">
        <ele>6</ele>
        <time>2013-12-15T12:52:59.000Z</time>
      </trkpt>
      <trkpt lat="43.54916" lon="6.99376">
        <ele>6.5999999046326</ele>
        <time>2013-12-15T12:53:00.000Z</time>
      </trkpt>
      <trkpt lat="43.5492" lon="6.99453">
        <ele>7</ele>
        <time>2013-12-15T12:53:07.000Z</time>
      </trkpt>
      <trkpt lat="43.54921" lon="6.99475">
        <ele>6.1999998092651</ele>
        <time>2013-12-15T12:53:09.000Z</time>
      </trkpt>
      <trkpt lat="43.54922" lon="6.99557">
        <ele>4.8000001907349</ele>
        <time>2013-12-15T12:53:17.000Z</time>
      </trkpt>
      <trkpt lat="43.54922" lon="6.99567">
        <ele>4.5999999046326</ele>
        <time>2013-12-15T12:53:18.000Z</time>
      </trkpt>
      <trkpt lat="43.54921" lon="6.9965">
        <ele>6</ele>
        <time>2013-12-15T12:53:26.000Z</time>
      </trkpt>
      <trkpt lat="43.54918" lon="6.99734">
        <ele>5.1999998092651</ele>
        <time>2013-12-15T12:53:34.000Z</time>
      </trkpt>
      <trkpt lat="43.54918" lon="6.99755">
        <ele>5</ele>
        <time>2013-12-15T12:53:36.000Z</time>
      </trkpt>
      <trkpt lat="43.54915" lon="6.99839">
        <ele>5</ele>
        <time>2013-12-15T12:53:44.000Z</time>
      </trkpt>
      <trkpt lat="43.54914" lon="6.99861">
        <ele>5.5999999046326</ele>
        <time>2013-12-15T12:53:46.000Z</time>
      </trkpt>
      <trkpt lat="43.54911" lon="6.99944">
        <ele>8.3999996185303</ele>
        <time>2013-12-15T12:53:54.000Z</time>
      </trkpt>
      <trkpt lat="43.5491" lon="6.99975">
        <ele>9</ele>
        <time>2013-12-15T12:53:57.000Z</time>
      </trkpt>
      <trkpt lat="43.54907" lon="7.00059">
        <ele>6.1999998092651</ele>
        <time>2013-12-15T12:54:05.000Z</time>
      </trkpt>
      <trkpt lat="43.54906" lon="7.00102">
        <ele>4.4000000953674</ele>
        <time>2013-12-15T12:54:09.000Z</time>
      </trkpt>
      <trkpt lat="43.54902" lon="7.00187">
        <ele>2.5999999046326</ele>
        <time>2013-12-15T12:54:17.000Z</time>
      </trkpt>
      <trkpt lat="43.54902" lon="7.00208">
        <ele>2.4000000953674</ele>
        <time>2013-12-15T12:54:19.000Z</time>
      </trkpt>
      <trkpt lat="43.54902" lon="7.00291">
        <ele>3</ele>
        <time>2013-12-15T12:54:27.000Z</time>
      </trkpt>
      <trkpt lat="43.54907" lon="7.0036">
        <ele>3.4000000953674</ele>
        <time>2013-12-15T12:54:34.000Z</time>
      </trkpt>
      <trkpt lat="43.54902" lon="7.00441">
        <ele>4.1999998092651</ele>
        <time>2013-12-15T12:54:42.000Z</time>
      </trkpt>
      <trkpt lat="43.54898" lon="7.00505">
        <ele>7.1999998092651</ele>
        <time>2013-12-15T12:54:49.000Z</time>
      </trkpt>
      <trkpt lat="43.54896" lon="7.00553">
        <ele>9.1999998092651</ele>
        <time>2013-12-15T12:54:55.000Z</time>
      </trkpt>
      <trkpt lat="43.54889" lon="7.00613">
        <ele>8.8000001907349</ele>
        <time>2013-12-15T12:55:03.000Z</time>
      </trkpt>
      <trkpt lat="43.54888" lon="7.00626">
        <ele>8.1999998092651</ele>
        <time>2013-12-15T12:55:05.000Z</time>
      </trkpt>
      <trkpt lat="43.54888" lon="7.00645">
        <ele>7.4000000953674</ele>
        <time>2013-12-15T12:55:08.000Z</time>
      </trkpt>
      <trkpt lat="43.54886" lon="7.00675">
        <ele>6.8000001907349</ele>
        <time>2013-12-15T12:55:13.000Z</time>
      </trkpt>
      <trkpt lat="43.54883" lon="7.0072">
        <ele>8</ele>
        <time>2013-12-15T12:55:20.000Z</time>
      </trkpt>
      <trkpt lat="43.5488" lon="7.00739">
        <ele>8.3999996185303</ele>
        <time>2013-12-15T12:55:23.000Z</time>
      </trkpt>
      <trkpt lat="43.54877" lon="7.00748">
        <ele>8.6000003814697</ele>
        <time>2013-12-15T12:55:25.000Z</time>
      </trkpt>
      <trkpt lat="43.54877" lon="7.00763">
        <ele>9.1999998092651</ele>
        <time>2013-12-15T12:55:28.000Z</time>
      </trkpt>
      <trkpt lat="43.54876" lon="7.00769">
        <ele>9.3999996185303</ele>
        <time>2013-12-15T12:55:29.000Z</time>
      </trkpt>
      <trkpt lat="43.54875" lon="7.00774">
        <ele>9.6000003814697</ele>
        <time>2013-12-15T12:55:30.000Z</time>
      </trkpt>
      <trkpt lat="43.54867" lon="7.00813">
        <ele>10.60000038147</ele>
        <time>2013-12-15T12:55:35.000Z</time>
      </trkpt>
      <trkpt lat="43.54852" lon="7.00886">
        <ele>10.800000190735</ele>
        <time>2013-12-15T12:55:43.000Z</time>
      </trkpt>
      <trkpt lat="43.5485" lon="7.00895">
        <ele>10.800000190735</ele>
        <time>2013-12-15T12:55:44.000Z</time>
      </trkpt>
      <trkpt lat="43.54834" lon="7.00972">
        <ele>11</ele>
        <time>2013-12-15T12:55:52.000Z</time>
      </trkpt>
      <trkpt lat="43.54832" lon="7.00982">
        <ele>11.199999809265</ele>
        <time>2013-12-15T12:55:53.000Z</time>
      </trkpt>
      <trkpt lat="43.54817" lon="7.01039">
        <ele>10.199999809265</ele>
        <time>2013-12-15T12:55:59.000Z</time>
      </trkpt>
      <trkpt lat="43.54801" lon="7.01115">
        <ele>7.8000001907349</ele>
        <time>2013-12-15T12:56:07.000Z</time>
      </trkpt>
      <trkpt lat="43.54784" lon="7.01189">
        <ele>6.1999998092651</ele>
        <time>2013-12-15T12:56:15.000Z</time>
      </trkpt>
      <trkpt lat="43.54781" lon="7.01209">
        <ele>5.4000000953674</ele>
        <time>2013-12-15T12:56:17.000Z</time>
      </trkpt>
      <trkpt lat="43.54783" lon="7.01229">
        <ele>4.8000001907349</ele>
        <time>2013-12-15T12:56:19.000Z</time>
      </trkpt>
      <trkpt lat="43.54797" lon="7.01247">
        <ele>4.1999998092651</ele>
        <time>2013-12-15T12:56:22.000Z</time>
      </trkpt>
      <trkpt lat="43.54817" lon="7.01253">
        <ele>3.7999999523163</ele>
        <time>2013-12-15T12:56:25.000Z</time>
      </trkpt>
      <trkpt lat="43.54847" lon="7.01257">
        <ele>3.5999999046326</ele>
        <time>2013-12-15T12:56:29.000Z</time>
      </trkpt>
      <trkpt lat="43.54855" lon="7.01256">
        <ele>3.4000000953674</ele>
        <time>2013-12-15T12:56:30.000Z</time>
      </trkpt>
      <trkpt lat="43.54907" lon="7.01244">
        <ele>4</ele>
        <time>2013-12-15T12:56:37.000Z</time>
      </trkpt>
      <trkpt lat="43.54948" lon="7.01233">
        <ele>5.4000000953674</ele>
        <time>2013-12-15T12:56:43.000Z</time>
      </trkpt>
      <trkpt lat="43.54989" lon="7.01222">
        <ele>7.1999998092651</ele>
        <time>2013-12-15T12:56:49.000Z</time>
      </trkpt>
      <trkpt lat="43.55041" lon="7.01212">
        <ele>8.1999998092651</ele>
        <time>2013-12-15T12:56:57.000Z</time>
      </trkpt>
      <trkpt lat="43.55055" lon="7.0121">
        <ele>8</ele>
        <time>2013-12-15T12:57:00.000Z</time>
      </trkpt>
      <trkpt lat="43.55059" lon="7.01211">
        <ele>7.8000001907349</ele>
        <time>2013-12-15T12:57:01.000Z</time>
      </trkpt>
      <trkpt lat="43.55072" lon="7.01212">
        <ele>7.4000000953674</ele>
        <time>2013-12-15T12:57:05.000Z</time>
      </trkpt>
      <trkpt lat="43.55093" lon="7.01202">
        <ele>8.6000003814697</ele>
        <time>2013-12-15T12:57:10.000Z</time>
      </trkpt>
      <trkpt lat="43.55102" lon="7.01198">
        <ele>9.1999998092651</ele>
        <time>2013-12-15T12:57:12.000Z</time>
      </trkpt>
      <trkpt lat="43.55114" lon="7.01189">
        <ele>10.199999809265</ele>
        <time>2013-12-15T12:57:15.000Z</time>
      </trkpt>
      <trkpt lat="43.55122" lon="7.01188">
        <ele>10.60000038147</ele>
        <time>2013-12-15T12:57:17.000Z</time>
      </trkpt>
      <trkpt lat="43.55126" lon="7.01187">
        <ele>10.800000190735</ele>
        <time>2013-12-15T12:57:18.000Z</time>
      </trkpt>
      <trkpt lat="43.55129" lon="7.01186">
        <ele>11</ele>
        <time>2013-12-15T12:57:19.000Z</time>
      </trkpt>
      <trkpt lat="43.55132" lon="7.01184">
        <ele>11.199999809265</ele>
        <time>2013-12-15T12:57:20.000Z</time>
      </trkpt>
      <trkpt lat="43.55141" lon="7.01175">
        <ele>12</ele>
        <time>2013-12-15T12:57:23.000Z</time>
      </trkpt>
      <trkpt lat="43.55152" lon="7.0117">
        <ele>12.60000038147</ele>
        <time>2013-12-15T12:57:26.000Z</time>
      </trkpt>
      <trkpt lat="43.5516" lon="7.01164">
        <ele>13</ele>
        <time>2013-12-15T12:57:28.000Z</time>
      </trkpt>
      <trkpt lat="43.55182" lon="7.01149">
        <ele>14.199999809265</ele>
        <time>2013-12-15T12:57:33.000Z</time>
      </trkpt>
      <trkpt lat="43.55185" lon="7.01144">
        <ele>14.39999961853</ele>
        <time>2013-12-15T12:57:34.000Z</time>
      </trkpt>
      <trkpt lat="43.55185" lon="7.0113">
        <ele>15.199999809265</ele>
        <time>2013-12-15T12:57:37.000Z</time>
      </trkpt>
      <trkpt lat="43.55175" lon="7.01111">
        <ele>16.39999961853</ele>
        <time>2013-12-15T12:57:42.000Z</time>
      </trkpt>
      <trkpt lat="43.5517" lon="7.01112">
        <ele>16.200000762939</ele>
        <time>2013-12-15T12:57:45.000Z</time>
      </trkpt>
      <trkpt lat="43.55167" lon="7.01111">
        <ele>16.39999961853</ele>
        <time>2013-12-15T12:57:46.000Z</time>
      </trkpt>
      <trkpt lat="43.5515" lon="7.01111">
        <ele>17.60000038147</ele>
        <time>2013-12-15T12:57:52.000Z</time>
      </trkpt>
      <trkpt lat="43.55152" lon="7.01113">
        <ele>17.200000762939</ele>
        <time>2013-12-15T12:57:55.000Z</time>
      </trkpt>
      <trkpt lat="43.55152" lon="7.01115">
        <ele>17</ele>
        <time>2013-12-15T12:57:56.000Z</time>
      </trkpt>
    </trkseg>
  </trk>
</gpx>